<?xml version="1.0" encoding="UTF-8" standalone="no" ?>
<gpx xmlns="http://www.topografix.com/GPX/1/1" xmlns:xsi="http://www.w3.org/2001/XMLSchema-instance" xsi:schemaLocation="http://www.topografix.com/GPX/1/1 http://www.topografix.com/GPX/1/1/gpx.xsd" version="1.1" creator="VisuGPX - https://www.visugpx.com">
  <metadata>
    <name>CCFM  058 </name>
    <desc><![CDATA[✒️CS.Fond d'Oxhe, Tewagne, Ocquier, Borlon, [b]DURBUY[/b], Warre, Tohogne, Hermane, [b]HAMOIR[/b], Poulseur, Ry d'Oneux, Baugnée, Rotheux, 36 Tournants.]]></desc>
  </metadata>
  <wpt lat="50.3512" lon="5.45603">
    <ele>146</ele>
    <name><![CDATA[La Brasserie de l'Ourthe.]]></name>
    <desc><![CDATA[Durbuy]]></desc>
  </wpt>
  <wpt lat="50.42716" lon="5.53644">
    <ele>115</ele>
    <name><![CDATA[Au Clapoti.]]></name>
    <desc><![CDATA[Hamoir.]]></desc>
  </wpt>
  <trk>
    <name><![CDATA[CCFM  058]]></name>
    <extensions>
      <line xmlns="http://www.topografix.com/GPX/gpx_style/0/2">
        <color>0000FF</color>
        <width>4</width>
          <extensions>
            <sens>1</sens>
          </extensions>
      </line>
    </extensions>
    <trkseg>
      <trkpt lat="50.62332" lon="5.44816">
        <ele>188</ele>
        <extensions>
          <visugpx:TrkExtension xmlns:visugpx="https://www.visugpx.com/editgpx/">
            <visugpx:node>2</visugpx:node>
            </visugpx:TrkExtension>
        </extensions>
      </trkpt>
      <trkpt lat="50.6235" lon="5.44666">
        <ele>188</ele>
        <time>2016-10-19T11:11:52Z</time>
      </trkpt>
      <trkpt lat="50.62352" lon="5.44638">
        <ele>188</ele>
        <time>2016-10-19T11:13:52Z</time>
      </trkpt>
      <trkpt lat="50.62355" lon="5.44609">
        <ele>188</ele>
        <time>2016-10-19T11:15:52Z</time>
      </trkpt>
      <trkpt lat="50.62356" lon="5.44587">
        <ele>188</ele>
        <time>2016-10-19T11:17:52Z</time>
      </trkpt>
      <trkpt lat="50.62356" lon="5.44528">
        <ele>187</ele>
        <time>2016-10-19T11:19:52Z</time>
      </trkpt>
      <trkpt lat="50.62355" lon="5.44498">
        <ele>187</ele>
        <time>2016-10-19T11:21:52Z</time>
      </trkpt>
      <trkpt lat="50.62353" lon="5.44467">
        <ele>187</ele>
        <time>2016-10-19T11:23:52Z</time>
      </trkpt>
      <trkpt lat="50.6235" lon="5.44426">
        <ele>187</ele>
        <time>2016-10-19T11:25:52Z</time>
      </trkpt>
      <trkpt lat="50.62347" lon="5.44395">
        <ele>186</ele>
        <time>2016-10-19T11:27:52Z</time>
      </trkpt>
      <trkpt lat="50.62342" lon="5.44356">
        <ele>186</ele>
        <time>2016-10-19T11:29:52Z</time>
      </trkpt>
      <trkpt lat="50.62337" lon="5.44328">
        <ele>186</ele>
        <time>2016-10-19T11:31:52Z</time>
      </trkpt>
      <trkpt lat="50.62333" lon="5.44302">
        <ele>186</ele>
        <time>2016-10-19T11:33:52Z</time>
      </trkpt>
      <trkpt lat="50.62329" lon="5.44282">
        <ele>186</ele>
        <time>2016-10-19T11:35:52Z</time>
      </trkpt>
      <trkpt lat="50.62324" lon="5.44261">
        <ele>186</ele>
        <time>2016-10-19T11:37:52Z</time>
      </trkpt>
      <trkpt lat="50.62319" lon="5.44242">
        <ele>186</ele>
        <time>2016-10-19T11:39:52Z</time>
      </trkpt>
      <trkpt lat="50.62315" lon="5.44223">
        <ele>186</ele>
        <time>2016-10-19T11:41:52Z</time>
      </trkpt>
      <trkpt lat="50.62308" lon="5.44197">
        <ele>186</ele>
        <time>2016-10-19T11:43:52Z</time>
      </trkpt>
      <trkpt lat="50.62306" lon="5.44192">
        <ele>186</ele>
        <time>2016-10-19T11:45:52Z</time>
      </trkpt>
      <trkpt lat="50.623" lon="5.44189">
        <ele>186</ele>
        <time>2016-10-19T11:47:52Z</time>
      </trkpt>
      <trkpt lat="50.62301" lon="5.44174">
        <ele>186</ele>
        <time>2016-10-19T11:49:52Z</time>
      </trkpt>
      <trkpt lat="50.62301" lon="5.44164">
        <ele>186</ele>
        <time>2016-10-19T11:51:52Z</time>
      </trkpt>
      <trkpt lat="50.62302" lon="5.44152">
        <ele>185</ele>
        <time>2016-10-19T11:53:52Z</time>
      </trkpt>
      <trkpt lat="50.62304" lon="5.44138">
        <ele>185</ele>
        <time>2016-10-19T11:55:52Z</time>
      </trkpt>
      <trkpt lat="50.62306" lon="5.44129">
        <ele>185</ele>
        <time>2016-10-19T11:57:52Z</time>
      </trkpt>
      <trkpt lat="50.62312" lon="5.44113">
        <ele>185</ele>
        <time>2016-10-19T11:59:52Z</time>
      </trkpt>
      <trkpt lat="50.62324" lon="5.4409">
        <ele>185</ele>
        <time>2016-10-19T12:01:52Z</time>
      </trkpt>
      <trkpt lat="50.62333" lon="5.44074">
        <ele>185</ele>
        <time>2016-10-19T12:03:52Z</time>
      </trkpt>
      <trkpt lat="50.62346" lon="5.44052">
        <ele>185</ele>
        <time>2016-10-19T12:05:52Z</time>
      </trkpt>
      <trkpt lat="50.62358" lon="5.4403">
        <ele>185</ele>
        <time>2016-10-19T12:07:52Z</time>
      </trkpt>
      <trkpt lat="50.6237" lon="5.44002">
        <ele>185</ele>
        <time>2016-10-19T12:09:52Z</time>
      </trkpt>
      <trkpt lat="50.62372" lon="5.43994">
        <ele>185</ele>
        <time>2016-10-19T12:11:52Z</time>
      </trkpt>
      <trkpt lat="50.62372" lon="5.43981">
        <ele>185</ele>
        <time>2016-10-19T12:13:52Z</time>
      </trkpt>
      <trkpt lat="50.62371" lon="5.43972">
        <ele>185</ele>
        <time>2016-10-19T12:15:52Z</time>
      </trkpt>
      <trkpt lat="50.62351" lon="5.43868">
        <ele>183</ele>
        <time>2016-10-19T12:17:52Z</time>
      </trkpt>
      <trkpt lat="50.62343" lon="5.43833">
        <ele>182</ele>
        <time>2016-10-19T12:19:52Z</time>
      </trkpt>
      <trkpt lat="50.62335" lon="5.43795">
        <ele>183</ele>
        <time>2016-10-19T12:21:52Z</time>
      </trkpt>
      <trkpt lat="50.62328" lon="5.43771">
        <ele>184</ele>
        <time>2016-10-19T12:23:52Z</time>
      </trkpt>
      <trkpt lat="50.62317" lon="5.4374">
        <ele>184</ele>
        <time>2016-10-19T12:25:52Z</time>
      </trkpt>
      <trkpt lat="50.62239" lon="5.43538">
        <ele>188</ele>
        <time>2016-10-19T12:27:52Z</time>
      </trkpt>
      <trkpt lat="50.62236" lon="5.43527">
        <ele>188</ele>
        <time>2016-10-19T12:29:52Z</time>
      </trkpt>
      <trkpt lat="50.62235" lon="5.43521">
        <ele>189</ele>
        <time>2016-10-19T12:31:52Z</time>
      </trkpt>
      <trkpt lat="50.62232" lon="5.43499">
        <ele>189</ele>
        <time>2016-10-19T12:33:52Z</time>
      </trkpt>
      <trkpt lat="50.62233" lon="5.43492">
        <ele>189</ele>
        <time>2016-10-19T12:35:52Z</time>
      </trkpt>
      <trkpt lat="50.62233" lon="5.43484">
        <ele>190</ele>
        <time>2016-10-19T12:37:52Z</time>
      </trkpt>
      <trkpt lat="50.6223" lon="5.43476">
        <ele>190</ele>
        <time>2016-10-19T12:39:52Z</time>
      </trkpt>
      <trkpt lat="50.62227" lon="5.4347">
        <ele>190</ele>
        <time>2016-10-19T12:41:52Z</time>
      </trkpt>
      <trkpt lat="50.62223" lon="5.43467">
        <ele>190</ele>
        <time>2016-10-19T12:43:52Z</time>
      </trkpt>
      <trkpt lat="50.62219" lon="5.43465">
        <ele>190</ele>
        <time>2016-10-19T12:45:52Z</time>
      </trkpt>
      <trkpt lat="50.62214" lon="5.43465">
        <ele>190</ele>
        <time>2016-10-19T12:47:52Z</time>
      </trkpt>
      <trkpt lat="50.62202" lon="5.43449">
        <ele>190</ele>
        <time>2016-10-19T12:49:52Z</time>
      </trkpt>
      <trkpt lat="50.62195" lon="5.43431">
        <ele>190</ele>
        <time>2016-10-19T12:51:52Z</time>
      </trkpt>
      <trkpt lat="50.62191" lon="5.4342">
        <ele>190</ele>
        <time>2016-10-19T12:53:52Z</time>
      </trkpt>
      <trkpt lat="50.6218" lon="5.43388">
        <ele>191</ele>
        <time>2016-10-19T12:55:52Z</time>
      </trkpt>
      <trkpt lat="50.62156" lon="5.43321">
        <ele>192</ele>
        <time>2016-10-19T12:57:52Z</time>
      </trkpt>
      <trkpt lat="50.62146" lon="5.43301">
        <ele>192</ele>
        <time>2016-10-19T12:59:52Z</time>
      </trkpt>
      <trkpt lat="50.62124" lon="5.43275">
        <ele>191</ele>
        <time>2016-10-19T13:01:52Z</time>
      </trkpt>
      <trkpt lat="50.62105" lon="5.43256">
        <ele>191</ele>
        <time>2016-10-19T13:03:52Z</time>
      </trkpt>
      <trkpt lat="50.62082" lon="5.43234">
        <ele>191</ele>
        <time>2016-10-19T13:05:52Z</time>
      </trkpt>
      <trkpt lat="50.62053" lon="5.432">
        <ele>190</ele>
        <time>2016-10-19T13:07:52Z</time>
      </trkpt>
      <trkpt lat="50.62039" lon="5.43186">
        <ele>190</ele>
        <time>2016-10-19T13:09:52Z</time>
      </trkpt>
      <trkpt lat="50.62025" lon="5.43175">
        <ele>190</ele>
        <time>2016-10-19T13:11:52Z</time>
      </trkpt>
      <trkpt lat="50.62005" lon="5.43165">
        <ele>190</ele>
        <time>2016-10-19T13:13:52Z</time>
      </trkpt>
      <trkpt lat="50.61994" lon="5.4316">
        <ele>190</ele>
        <time>2016-10-19T13:15:52Z</time>
      </trkpt>
      <trkpt lat="50.61987" lon="5.43155">
        <ele>190</ele>
        <time>2016-10-19T13:17:52Z</time>
      </trkpt>
      <trkpt lat="50.61983" lon="5.43153">
        <ele>190</ele>
        <time>2016-10-19T13:19:52Z</time>
      </trkpt>
      <trkpt lat="50.61976" lon="5.43148">
        <ele>190</ele>
        <time>2016-10-19T13:21:52Z</time>
      </trkpt>
      <trkpt lat="50.6197" lon="5.43141">
        <ele>189</ele>
        <time>2016-10-19T13:23:52Z</time>
      </trkpt>
      <trkpt lat="50.61967" lon="5.43138">
        <ele>189</ele>
        <time>2016-10-19T13:25:52Z</time>
      </trkpt>
      <trkpt lat="50.61954" lon="5.43122">
        <ele>189</ele>
        <time>2016-10-19T13:27:52Z</time>
      </trkpt>
      <trkpt lat="50.61934" lon="5.43094">
        <ele>189</ele>
        <time>2016-10-19T13:29:52Z</time>
      </trkpt>
      <trkpt lat="50.61912" lon="5.43062">
        <ele>190</ele>
        <time>2016-10-19T13:31:52Z</time>
      </trkpt>
      <trkpt lat="50.61895" lon="5.43038">
        <ele>190</ele>
        <time>2016-10-19T13:33:52Z</time>
      </trkpt>
      <trkpt lat="50.61879" lon="5.43016">
        <ele>190</ele>
        <time>2016-10-19T13:35:52Z</time>
      </trkpt>
      <trkpt lat="50.61865" lon="5.42995">
        <ele>190</ele>
        <time>2016-10-19T13:37:52Z</time>
      </trkpt>
      <trkpt lat="50.61856" lon="5.42983">
        <ele>190</ele>
        <time>2016-10-19T13:39:52Z</time>
      </trkpt>
      <trkpt lat="50.61853" lon="5.4298">
        <ele>190</ele>
        <time>2016-10-19T13:41:52Z</time>
      </trkpt>
      <trkpt lat="50.61848" lon="5.42972">
        <ele>190</ele>
        <time>2016-10-19T13:43:52Z</time>
      </trkpt>
      <trkpt lat="50.61842" lon="5.42965">
        <ele>190</ele>
        <time>2016-10-19T13:45:52Z</time>
      </trkpt>
      <trkpt lat="50.61837" lon="5.42958">
        <ele>190</ele>
        <time>2016-10-19T13:47:52Z</time>
      </trkpt>
      <trkpt lat="50.61812" lon="5.42933">
        <ele>188</ele>
        <time>2016-10-19T13:49:52Z</time>
      </trkpt>
      <trkpt lat="50.61806" lon="5.42925">
        <ele>188</ele>
        <time>2016-10-19T13:51:52Z</time>
      </trkpt>
      <trkpt lat="50.61795" lon="5.42916">
        <ele>187</ele>
        <time>2016-10-19T13:53:52Z</time>
      </trkpt>
      <trkpt lat="50.61778" lon="5.42894">
        <ele>186</ele>
        <time>2016-10-19T13:55:52Z</time>
      </trkpt>
      <trkpt lat="50.61772" lon="5.42882">
        <ele>186</ele>
        <time>2016-10-19T13:57:52Z</time>
      </trkpt>
      <trkpt lat="50.61767" lon="5.4287">
        <ele>185</ele>
        <time>2016-10-19T13:59:52Z</time>
      </trkpt>
      <trkpt lat="50.61766" lon="5.42862">
        <ele>185</ele>
        <time>2016-10-19T14:01:52Z</time>
      </trkpt>
      <trkpt lat="50.61766" lon="5.42852">
        <ele>185</ele>
        <time>2016-10-19T14:03:52Z</time>
      </trkpt>
      <trkpt lat="50.61768" lon="5.42841">
        <ele>185</ele>
        <time>2016-10-19T14:05:52Z</time>
      </trkpt>
      <trkpt lat="50.6177" lon="5.42833">
        <ele>185</ele>
        <time>2016-10-19T14:07:52Z</time>
      </trkpt>
      <trkpt lat="50.6178" lon="5.42811">
        <ele>186</ele>
        <time>2016-10-19T14:09:52Z</time>
      </trkpt>
      <trkpt lat="50.61788" lon="5.42795">
        <ele>186</ele>
        <time>2016-10-19T14:11:52Z</time>
      </trkpt>
      <trkpt lat="50.61796" lon="5.42771">
        <ele>187</ele>
        <time>2016-10-19T14:13:52Z</time>
      </trkpt>
      <trkpt lat="50.61801" lon="5.42748">
        <ele>187</ele>
        <time>2016-10-19T14:15:52Z</time>
      </trkpt>
      <trkpt lat="50.61807" lon="5.42717">
        <ele>187</ele>
        <time>2016-10-19T14:17:52Z</time>
      </trkpt>
      <trkpt lat="50.61813" lon="5.42684">
        <ele>187</ele>
        <time>2016-10-19T14:19:52Z</time>
      </trkpt>
      <trkpt lat="50.61816" lon="5.42654">
        <ele>187</ele>
        <time>2016-10-19T14:21:52Z</time>
      </trkpt>
      <trkpt lat="50.61817" lon="5.42634">
        <ele>188</ele>
        <time>2016-10-19T14:23:52Z</time>
      </trkpt>
      <trkpt lat="50.61815" lon="5.42619">
        <ele>188</ele>
        <time>2016-10-19T14:25:52Z</time>
      </trkpt>
      <trkpt lat="50.61808" lon="5.42585">
        <ele>189</ele>
        <time>2016-10-19T14:27:52Z</time>
      </trkpt>
      <trkpt lat="50.61806" lon="5.42548">
        <ele>190</ele>
        <time>2016-10-19T14:29:52Z</time>
      </trkpt>
      <trkpt lat="50.61807" lon="5.42527">
        <ele>191</ele>
        <time>2016-10-19T14:31:52Z</time>
      </trkpt>
      <trkpt lat="50.61813" lon="5.42492">
        <ele>191</ele>
        <time>2016-10-19T14:33:52Z</time>
      </trkpt>
      <trkpt lat="50.61819" lon="5.42472">
        <ele>191</ele>
        <time>2016-10-19T14:35:52Z</time>
      </trkpt>
      <trkpt lat="50.61887" lon="5.42301">
        <ele>188</ele>
        <time>2016-10-19T14:37:52Z</time>
      </trkpt>
      <trkpt lat="50.61894" lon="5.42289">
        <ele>188</ele>
        <time>2016-10-19T14:39:52Z</time>
      </trkpt>
      <trkpt lat="50.619" lon="5.42275">
        <ele>188</ele>
        <time>2016-10-19T14:41:52Z</time>
      </trkpt>
      <trkpt lat="50.61902" lon="5.42256">
        <ele>188</ele>
        <time>2016-10-19T14:43:52Z</time>
      </trkpt>
      <trkpt lat="50.61903" lon="5.42225">
        <ele>188</ele>
        <time>2016-10-19T14:45:52Z</time>
      </trkpt>
      <trkpt lat="50.61903" lon="5.42159">
        <ele>187</ele>
        <time>2016-10-19T14:47:52Z</time>
      </trkpt>
      <trkpt lat="50.61901" lon="5.42113">
        <ele>187</ele>
        <time>2016-10-19T14:49:52Z</time>
      </trkpt>
      <trkpt lat="50.61898" lon="5.42078">
        <ele>186</ele>
        <time>2016-10-19T14:51:52Z</time>
      </trkpt>
      <trkpt lat="50.6189" lon="5.41991">
        <ele>185</ele>
        <time>2016-10-19T14:53:52Z</time>
      </trkpt>
      <trkpt lat="50.61889" lon="5.41976">
        <ele>186</ele>
        <time>2016-10-19T14:55:52Z</time>
      </trkpt>
      <trkpt lat="50.61889" lon="5.4195">
        <ele>186</ele>
        <time>2016-10-19T14:57:52Z</time>
      </trkpt>
      <trkpt lat="50.6189" lon="5.41925">
        <ele>186</ele>
        <time>2016-10-19T14:59:52Z</time>
      </trkpt>
      <trkpt lat="50.61892" lon="5.41903">
        <ele>186</ele>
        <time>2016-10-19T15:01:52Z</time>
      </trkpt>
      <trkpt lat="50.61895" lon="5.41845">
        <ele>187</ele>
        <time>2016-10-19T15:03:52Z</time>
      </trkpt>
      <trkpt lat="50.61902" lon="5.41766">
        <ele>187</ele>
        <time>2016-10-19T15:05:52Z</time>
      </trkpt>
      <trkpt lat="50.61904" lon="5.41748">
        <ele>187</ele>
        <time>2016-10-19T15:07:52Z</time>
      </trkpt>
      <trkpt lat="50.61907" lon="5.41729">
        <ele>187</ele>
        <time>2016-10-19T15:09:52Z</time>
      </trkpt>
      <trkpt lat="50.61911" lon="5.41717">
        <ele>187</ele>
        <time>2016-10-19T15:11:52Z</time>
      </trkpt>
      <trkpt lat="50.61917" lon="5.41702">
        <ele>187</ele>
        <time>2016-10-19T15:13:52Z</time>
      </trkpt>
      <trkpt lat="50.61925" lon="5.41684">
        <ele>187</ele>
        <time>2016-10-19T15:15:52Z</time>
      </trkpt>
      <trkpt lat="50.61904" lon="5.41634">
        <ele>186</ele>
        <time>2016-10-19T15:17:52Z</time>
      </trkpt>
      <trkpt lat="50.61869" lon="5.41544">
        <ele>186.7</ele>
        <time>2016-10-19T15:19:52Z</time>
      </trkpt>
      <trkpt lat="50.61856" lon="5.41536">
        <ele>184</ele>
        <time>2016-10-19T15:21:52Z</time>
      </trkpt>
      <trkpt lat="50.61847" lon="5.41531">
        <ele>185</ele>
        <time>2016-10-19T15:23:52Z</time>
      </trkpt>
      <trkpt lat="50.61817" lon="5.41513">
        <ele>184</ele>
        <time>2016-10-19T15:25:52Z</time>
      </trkpt>
      <trkpt lat="50.61797" lon="5.41498">
        <ele>184</ele>
        <time>2016-10-19T15:27:52Z</time>
      </trkpt>
      <trkpt lat="50.61756" lon="5.41464">
        <ele>183</ele>
        <time>2016-10-19T15:29:52Z</time>
      </trkpt>
      <trkpt lat="50.6173" lon="5.41441">
        <ele>182</ele>
        <time>2016-10-19T15:31:52Z</time>
      </trkpt>
      <trkpt lat="50.61702" lon="5.41423">
        <ele>182</ele>
        <time>2016-10-19T15:33:52Z</time>
      </trkpt>
      <trkpt lat="50.61662" lon="5.414">
        <ele>182</ele>
        <time>2016-10-19T15:35:52Z</time>
      </trkpt>
      <trkpt lat="50.61612" lon="5.41373">
        <ele>184</ele>
        <time>2016-10-19T15:37:52Z</time>
      </trkpt>
      <trkpt lat="50.61563" lon="5.41348">
        <ele>184</ele>
        <time>2016-10-19T15:39:52Z</time>
      </trkpt>
      <trkpt lat="50.61534" lon="5.41332">
        <ele>184</ele>
        <time>2016-10-19T15:41:52Z</time>
      </trkpt>
      <trkpt lat="50.61518" lon="5.41325">
        <ele>184</ele>
        <time>2016-10-19T15:43:52Z</time>
      </trkpt>
      <trkpt lat="50.61505" lon="5.41322">
        <ele>184</ele>
        <time>2016-10-19T15:45:52Z</time>
      </trkpt>
      <trkpt lat="50.61474" lon="5.41322">
        <ele>184</ele>
        <time>2016-10-19T15:47:52Z</time>
      </trkpt>
      <trkpt lat="50.6146" lon="5.41318">
        <ele>184</ele>
        <time>2016-10-19T15:49:52Z</time>
      </trkpt>
      <trkpt lat="50.61443" lon="5.41307">
        <ele>184</ele>
        <time>2016-10-19T15:51:52Z</time>
      </trkpt>
      <trkpt lat="50.61418" lon="5.41288">
        <ele>185</ele>
        <time>2016-10-19T15:53:52Z</time>
      </trkpt>
      <trkpt lat="50.61397" lon="5.41269">
        <ele>184</ele>
        <time>2016-10-19T15:55:52Z</time>
      </trkpt>
      <trkpt lat="50.61384" lon="5.41255">
        <ele>184</ele>
        <time>2016-10-19T15:57:52Z</time>
      </trkpt>
      <trkpt lat="50.61377" lon="5.41247">
        <ele>184</ele>
        <time>2016-10-19T15:59:52Z</time>
      </trkpt>
      <trkpt lat="50.61367" lon="5.41241">
        <ele>183</ele>
        <time>2016-10-19T16:01:52Z</time>
      </trkpt>
      <trkpt lat="50.61357" lon="5.41237">
        <ele>183</ele>
        <time>2016-10-19T16:03:52Z</time>
      </trkpt>
      <trkpt lat="50.61347" lon="5.41238">
        <ele>182</ele>
        <time>2016-10-19T16:05:52Z</time>
      </trkpt>
      <trkpt lat="50.61336" lon="5.41243">
        <ele>182</ele>
        <time>2016-10-19T16:07:52Z</time>
      </trkpt>
      <trkpt lat="50.61319" lon="5.41255">
        <ele>182</ele>
        <time>2016-10-19T16:09:52Z</time>
      </trkpt>
      <trkpt lat="50.61295" lon="5.41276">
        <ele>181</ele>
        <time>2016-10-19T16:11:52Z</time>
      </trkpt>
      <trkpt lat="50.6127" lon="5.41311">
        <ele>180</ele>
        <time>2016-10-19T16:13:52Z</time>
      </trkpt>
      <trkpt lat="50.61258" lon="5.4133">
        <ele>179</ele>
        <time>2016-10-19T16:15:52Z</time>
      </trkpt>
      <trkpt lat="50.6125" lon="5.41335">
        <ele>179</ele>
        <time>2016-10-19T16:17:52Z</time>
      </trkpt>
      <trkpt lat="50.61245" lon="5.41336">
        <ele>179</ele>
        <time>2016-10-19T16:19:52Z</time>
      </trkpt>
      <trkpt lat="50.61239" lon="5.41335">
        <ele>178</ele>
        <time>2016-10-19T16:21:52Z</time>
      </trkpt>
      <trkpt lat="50.61162" lon="5.41306">
        <ele>175</ele>
        <time>2016-10-19T16:23:52Z</time>
      </trkpt>
      <trkpt lat="50.61127" lon="5.41291">
        <ele>174</ele>
        <time>2016-10-19T16:25:52Z</time>
      </trkpt>
      <trkpt lat="50.61121" lon="5.4129">
        <ele>173</ele>
        <time>2016-10-19T16:27:52Z</time>
      </trkpt>
      <trkpt lat="50.61094" lon="5.41292">
        <ele>172</ele>
        <time>2016-10-19T16:29:52Z</time>
      </trkpt>
      <trkpt lat="50.60992" lon="5.41314">
        <ele>168</ele>
        <time>2016-10-19T16:31:52Z</time>
      </trkpt>
      <trkpt lat="50.60963" lon="5.41319">
        <ele>167</ele>
        <time>2016-10-19T16:33:52Z</time>
      </trkpt>
      <trkpt lat="50.60908" lon="5.41324">
        <ele>165</ele>
        <time>2016-10-19T16:35:52Z</time>
      </trkpt>
      <trkpt lat="50.60896" lon="5.41323">
        <ele>164</ele>
        <time>2016-10-19T16:37:52Z</time>
      </trkpt>
      <trkpt lat="50.60887" lon="5.41321">
        <ele>163</ele>
        <time>2016-10-19T16:39:52Z</time>
      </trkpt>
      <trkpt lat="50.60828" lon="5.41303">
        <ele>158</ele>
        <time>2016-10-19T16:41:52Z</time>
      </trkpt>
      <trkpt lat="50.60792" lon="5.41298">
        <ele>154</ele>
        <time>2016-10-19T16:43:52Z</time>
      </trkpt>
      <trkpt lat="50.60764" lon="5.41295">
        <ele>152</ele>
        <time>2016-10-19T16:45:52Z</time>
      </trkpt>
      <trkpt lat="50.60748" lon="5.41291">
        <ele>150</ele>
        <time>2016-10-19T16:47:52Z</time>
      </trkpt>
      <trkpt lat="50.60668" lon="5.41268">
        <ele>142</ele>
        <time>2016-10-19T16:49:52Z</time>
      </trkpt>
      <trkpt lat="50.60636" lon="5.41258">
        <ele>139</ele>
        <time>2016-10-19T16:51:52Z</time>
      </trkpt>
      <trkpt lat="50.60542" lon="5.41232">
        <ele>131</ele>
        <time>2016-10-19T16:53:52Z</time>
      </trkpt>
      <trkpt lat="50.604" lon="5.41168">
        <ele>128</ele>
        <time>2016-10-19T16:55:52Z</time>
      </trkpt>
      <trkpt lat="50.60317" lon="5.41142">
        <ele>123</ele>
        <time>2016-10-19T16:57:52Z</time>
      </trkpt>
      <trkpt lat="50.60203" lon="5.4112">
        <ele>111</ele>
        <time>2016-10-19T16:59:52Z</time>
      </trkpt>
      <trkpt lat="50.6019" lon="5.41116">
        <ele>110</ele>
        <time>2016-10-19T17:01:52Z</time>
      </trkpt>
      <trkpt lat="50.60179" lon="5.4111">
        <ele>109</ele>
        <time>2016-10-19T17:03:52Z</time>
      </trkpt>
      <trkpt lat="50.6012" lon="5.41055">
        <ele>106</ele>
        <time>2016-10-19T17:05:52Z</time>
      </trkpt>
      <trkpt lat="50.60102" lon="5.41044">
        <ele>104</ele>
        <time>2016-10-19T17:07:52Z</time>
      </trkpt>
      <trkpt lat="50.60078" lon="5.41036">
        <ele>101</ele>
        <time>2016-10-19T17:09:52Z</time>
      </trkpt>
      <trkpt lat="50.6009" lon="5.41076">
        <ele>100</ele>
        <time>2016-10-19T17:11:52Z</time>
      </trkpt>
      <trkpt lat="50.6013" lon="5.41173">
        <ele>97</ele>
        <time>2016-10-19T17:13:52Z</time>
      </trkpt>
      <trkpt lat="50.60137" lon="5.41211">
        <ele>97</ele>
        <time>2016-10-19T17:15:52Z</time>
      </trkpt>
      <trkpt lat="50.60125" lon="5.41203">
        <ele>96</ele>
        <time>2016-10-19T17:17:52Z</time>
      </trkpt>
      <trkpt lat="50.60117" lon="5.41201">
        <ele>95</ele>
        <time>2016-10-19T17:19:52Z</time>
      </trkpt>
      <trkpt lat="50.60107" lon="5.41196">
        <ele>94</ele>
        <time>2016-10-19T17:21:52Z</time>
      </trkpt>
      <trkpt lat="50.60104" lon="5.41195">
        <ele>94</ele>
        <time>2016-10-19T17:23:52Z</time>
      </trkpt>
      <trkpt lat="50.60098" lon="5.41189">
        <ele>93</ele>
        <time>2016-10-19T17:25:52Z</time>
      </trkpt>
      <trkpt lat="50.60085" lon="5.41171">
        <ele>91</ele>
        <time>2016-10-19T17:27:52Z</time>
      </trkpt>
      <trkpt lat="50.60071" lon="5.41142">
        <ele>93</ele>
        <time>2016-10-19T17:29:52Z</time>
      </trkpt>
      <trkpt lat="50.60053" lon="5.41115">
        <ele>93</ele>
        <time>2016-10-19T17:31:52Z</time>
      </trkpt>
      <trkpt lat="50.59987" lon="5.41051">
        <ele>89</ele>
        <time>2016-10-19T17:33:52Z</time>
      </trkpt>
      <trkpt lat="50.59968" lon="5.41029">
        <ele>88</ele>
        <time>2016-10-19T17:35:52Z</time>
      </trkpt>
      <trkpt lat="50.59972" lon="5.4102">
        <ele>88</ele>
        <time>2016-10-19T17:37:52Z</time>
      </trkpt>
      <trkpt lat="50.59978" lon="5.41004">
        <ele>88</ele>
        <time>2016-10-19T17:39:52Z</time>
      </trkpt>
      <trkpt lat="50.60021" lon="5.40872">
        <ele>95</ele>
        <time>2016-10-19T17:41:52Z</time>
      </trkpt>
      <trkpt lat="50.60025" lon="5.40864">
        <ele>95</ele>
        <time>2016-10-19T17:43:52Z</time>
      </trkpt>
      <trkpt lat="50.60027" lon="5.4085">
        <ele>96</ele>
        <time>2016-10-19T17:45:52Z</time>
      </trkpt>
      <trkpt lat="50.60029" lon="5.40816">
        <ele>96</ele>
        <time>2016-10-19T17:47:52Z</time>
      </trkpt>
      <trkpt lat="50.60028" lon="5.40776">
        <ele>95</ele>
        <time>2016-10-19T17:49:52Z</time>
      </trkpt>
      <trkpt lat="50.60023" lon="5.40713">
        <ele>93</ele>
        <time>2016-10-19T17:51:52Z</time>
      </trkpt>
      <trkpt lat="50.60018" lon="5.4068">
        <ele>92</ele>
        <time>2016-10-19T17:53:52Z</time>
      </trkpt>
      <trkpt lat="50.60009" lon="5.40629">
        <ele>90</ele>
        <time>2016-10-19T17:55:52Z</time>
      </trkpt>
      <trkpt lat="50.60004" lon="5.40617">
        <ele>90</ele>
        <time>2016-10-19T17:57:52Z</time>
      </trkpt>
      <trkpt lat="50.59992" lon="5.40602">
        <ele>90</ele>
        <time>2016-10-19T17:59:52Z</time>
      </trkpt>
      <trkpt lat="50.5999" lon="5.40608">
        <ele>90</ele>
        <time>2016-10-19T18:01:52Z</time>
      </trkpt>
      <trkpt lat="50.59986" lon="5.40622">
        <ele>90</ele>
        <time>2016-10-19T18:03:52Z</time>
      </trkpt>
      <trkpt lat="50.59983" lon="5.40629">
        <ele>90</ele>
        <time>2016-10-19T18:05:52Z</time>
      </trkpt>
      <trkpt lat="50.59975" lon="5.40657">
        <ele>89</ele>
        <time>2016-10-19T18:07:52Z</time>
      </trkpt>
      <trkpt lat="50.59938" lon="5.40773">
        <ele>89</ele>
        <time>2016-10-19T18:09:52Z</time>
      </trkpt>
      <trkpt lat="50.59881" lon="5.40963">
        <ele>89</ele>
        <time>2016-10-19T18:11:52Z</time>
      </trkpt>
      <trkpt lat="50.59869" lon="5.4101">
        <ele>89</ele>
        <time>2016-10-19T18:13:52Z</time>
      </trkpt>
      <trkpt lat="50.59848" lon="5.41048">
        <ele>90</ele>
        <time>2016-10-19T18:15:52Z</time>
      </trkpt>
      <trkpt lat="50.59817" lon="5.41083">
        <ele>90</ele>
        <time>2016-10-19T18:17:52Z</time>
      </trkpt>
      <trkpt lat="50.59791" lon="5.41102">
        <ele>90</ele>
        <time>2016-10-19T18:19:52Z</time>
      </trkpt>
      <trkpt lat="50.59779" lon="5.41108">
        <ele>90</ele>
        <time>2016-10-19T18:21:52Z</time>
      </trkpt>
      <trkpt lat="50.59658" lon="5.4111">
        <ele>87</ele>
        <time>2016-10-19T18:23:52Z</time>
      </trkpt>
      <trkpt lat="50.59598" lon="5.41096">
        <ele>88</ele>
        <time>2016-10-19T18:25:52Z</time>
      </trkpt>
      <trkpt lat="50.5959" lon="5.41093">
        <ele>88</ele>
        <time>2016-10-19T18:27:52Z</time>
      </trkpt>
      <trkpt lat="50.59536" lon="5.4108">
        <ele>88</ele>
        <time>2016-10-19T18:29:52Z</time>
      </trkpt>
      <trkpt lat="50.59514" lon="5.41078">
        <ele>88</ele>
        <time>2016-10-19T18:31:52Z</time>
      </trkpt>
      <trkpt lat="50.59492" lon="5.41077">
        <ele>88</ele>
        <time>2016-10-19T18:33:52Z</time>
      </trkpt>
      <trkpt lat="50.59455" lon="5.41083">
        <ele>89</ele>
        <time>2016-10-19T18:35:52Z</time>
      </trkpt>
      <trkpt lat="50.59406" lon="5.41092">
        <ele>90</ele>
        <time>2016-10-19T18:37:52Z</time>
      </trkpt>
      <trkpt lat="50.59323" lon="5.41112">
        <ele>93</ele>
        <time>2016-10-19T18:39:52Z</time>
      </trkpt>
      <trkpt lat="50.593" lon="5.41118">
        <ele>93</ele>
        <time>2016-10-19T18:41:52Z</time>
      </trkpt>
      <trkpt lat="50.59227" lon="5.41146">
        <ele>91</ele>
        <time>2016-10-19T18:43:52Z</time>
      </trkpt>
      <trkpt lat="50.59212" lon="5.41148">
        <ele>89</ele>
        <time>2016-10-19T18:45:52Z</time>
      </trkpt>
      <trkpt lat="50.59194" lon="5.41145">
        <ele>88</ele>
        <time>2016-10-19T18:47:52Z</time>
      </trkpt>
      <trkpt lat="50.59188" lon="5.41143">
        <ele>88</ele>
        <time>2016-10-19T18:49:52Z</time>
      </trkpt>
      <trkpt lat="50.5904" lon="5.41083">
        <ele>83</ele>
        <time>2016-10-19T18:51:52Z</time>
      </trkpt>
      <trkpt lat="50.59031" lon="5.4108">
        <ele>83</ele>
        <time>2016-10-19T18:53:52Z</time>
      </trkpt>
      <trkpt lat="50.59021" lon="5.41079">
        <ele>82</ele>
        <time>2016-10-19T18:55:52Z</time>
      </trkpt>
      <trkpt lat="50.59009" lon="5.41081">
        <ele>82</ele>
        <time>2016-10-19T18:57:52Z</time>
      </trkpt>
      <trkpt lat="50.58999" lon="5.41086">
        <ele>81</ele>
        <time>2016-10-19T18:59:52Z</time>
      </trkpt>
      <trkpt lat="50.58988" lon="5.41095">
        <ele>81</ele>
        <time>2016-10-19T19:01:52Z</time>
      </trkpt>
      <trkpt lat="50.58971" lon="5.41119">
        <ele>80</ele>
        <time>2016-10-19T19:03:52Z</time>
      </trkpt>
      <trkpt lat="50.58963" lon="5.41136">
        <ele>79</ele>
        <time>2016-10-19T19:05:52Z</time>
      </trkpt>
      <trkpt lat="50.58912" lon="5.41271">
        <ele>73</ele>
        <time>2016-10-19T19:07:52Z</time>
      </trkpt>
      <trkpt lat="50.58905" lon="5.41289">
        <ele>73</ele>
        <time>2016-10-19T19:09:52Z</time>
      </trkpt>
      <trkpt lat="50.58896" lon="5.41314">
        <ele>72</ele>
        <time>2016-10-19T19:11:52Z</time>
      </trkpt>
      <trkpt lat="50.58889" lon="5.41329">
        <ele>72</ele>
        <time>2016-10-19T19:13:52Z</time>
      </trkpt>
      <trkpt lat="50.58881" lon="5.41339">
        <ele>72</ele>
        <time>2016-10-19T19:15:52Z</time>
      </trkpt>
      <trkpt lat="50.58876" lon="5.41346">
        <ele>73</ele>
        <time>2016-10-19T19:17:52Z</time>
      </trkpt>
      <trkpt lat="50.58865" lon="5.41357">
        <ele>73</ele>
        <time>2016-10-19T19:19:52Z</time>
      </trkpt>
      <trkpt lat="50.5885" lon="5.41368">
        <ele>73</ele>
        <time>2016-10-19T19:21:52Z</time>
      </trkpt>
      <trkpt lat="50.58825" lon="5.41391">
        <ele>73</ele>
        <time>2016-10-19T19:23:52Z</time>
      </trkpt>
      <trkpt lat="50.58796" lon="5.41427">
        <ele>74</ele>
        <time>2016-10-19T19:25:52Z</time>
      </trkpt>
      <trkpt lat="50.5876" lon="5.41471">
        <ele>72</ele>
        <time>2016-10-19T19:27:52Z</time>
      </trkpt>
      <trkpt lat="50.58727" lon="5.4152">
        <ele>71</ele>
        <time>2016-10-19T19:29:52Z</time>
      </trkpt>
      <trkpt lat="50.58717" lon="5.4153">
        <ele>71</ele>
        <time>2016-10-19T19:31:52Z</time>
      </trkpt>
      <trkpt lat="50.58709" lon="5.41535">
        <ele>71</ele>
        <time>2016-10-19T19:33:52Z</time>
      </trkpt>
      <trkpt lat="50.58699" lon="5.4154">
        <ele>70</ele>
        <time>2016-10-19T19:35:52Z</time>
      </trkpt>
      <trkpt lat="50.5868" lon="5.41552">
        <ele>69</ele>
        <time>2016-10-19T19:37:52Z</time>
      </trkpt>
      <trkpt lat="50.58658" lon="5.41561">
        <ele>68</ele>
        <time>2016-10-19T19:39:52Z</time>
      </trkpt>
      <trkpt lat="50.58653" lon="5.41564">
        <ele>68</ele>
        <time>2016-10-19T19:41:52Z</time>
      </trkpt>
      <trkpt lat="50.58651" lon="5.41564">
        <ele>68</ele>
        <time>2016-10-19T19:43:52Z</time>
      </trkpt>
      <trkpt lat="50.58641" lon="5.41568">
        <ele>68</ele>
        <time>2016-10-19T19:45:52Z</time>
      </trkpt>
      <trkpt lat="50.58631" lon="5.41571">
        <ele>68</ele>
        <time>2016-10-19T19:47:52Z</time>
      </trkpt>
      <trkpt lat="50.58625" lon="5.41572">
        <ele>67</ele>
        <time>2016-10-19T19:49:52Z</time>
      </trkpt>
      <trkpt lat="50.58612" lon="5.41575">
        <ele>67</ele>
        <time>2016-10-19T19:51:52Z</time>
      </trkpt>
      <trkpt lat="50.58612" lon="5.41539">
        <ele>68</ele>
        <time>2016-10-19T19:53:52Z</time>
      </trkpt>
      <trkpt lat="50.58609" lon="5.4152">
        <ele>68</ele>
        <time>2016-10-19T19:55:52Z</time>
      </trkpt>
      <trkpt lat="50.58605" lon="5.41506">
        <ele>68</ele>
        <time>2016-10-19T19:57:52Z</time>
      </trkpt>
      <trkpt lat="50.586" lon="5.41491">
        <ele>68</ele>
        <time>2016-10-19T19:59:52Z</time>
      </trkpt>
      <trkpt lat="50.58574" lon="5.41445">
        <ele>68</ele>
        <time>2016-10-19T20:01:52Z</time>
      </trkpt>
      <trkpt lat="50.58559" lon="5.41422">
        <ele>68</ele>
        <time>2016-10-19T20:03:52Z</time>
      </trkpt>
      <trkpt lat="50.58546" lon="5.41401">
        <ele>68</ele>
        <time>2016-10-19T20:05:52Z</time>
      </trkpt>
      <trkpt lat="50.58447" lon="5.41234">
        <ele>70</ele>
        <time>2016-10-19T20:07:52Z</time>
      </trkpt>
      <trkpt lat="50.58443" lon="5.41226">
        <ele>70</ele>
        <time>2016-10-19T20:09:52Z</time>
      </trkpt>
      <trkpt lat="50.58418" lon="5.41181">
        <ele>70</ele>
        <time>2016-10-19T20:11:52Z</time>
      </trkpt>
      <trkpt lat="50.58371" lon="5.41085">
        <ele>70</ele>
        <time>2016-10-19T20:13:52Z</time>
      </trkpt>
      <trkpt lat="50.58348" lon="5.41036">
        <ele>69</ele>
        <time>2016-10-19T20:15:52Z</time>
      </trkpt>
      <trkpt lat="50.5831" lon="5.40948">
        <ele>68</ele>
        <time>2016-10-19T20:17:52Z</time>
      </trkpt>
      <trkpt lat="50.58273" lon="5.40855">
        <ele>68</ele>
        <time>2016-10-19T20:19:52Z</time>
      </trkpt>
      <trkpt lat="50.58261" lon="5.40822">
        <ele>67</ele>
        <time>2016-10-19T20:21:52Z</time>
      </trkpt>
      <trkpt lat="50.58254" lon="5.40801">
        <ele>67</ele>
        <time>2016-10-19T20:23:52Z</time>
      </trkpt>
      <trkpt lat="50.5822" lon="5.40707">
        <ele>67</ele>
        <time>2016-10-19T20:25:52Z</time>
      </trkpt>
      <trkpt lat="50.5819" lon="5.40626">
        <ele>67</ele>
        <time>2016-10-19T20:27:52Z</time>
      </trkpt>
      <trkpt lat="50.58194" lon="5.40585">
        <ele>67</ele>
        <time>2016-10-19T20:29:52Z</time>
      </trkpt>
      <trkpt lat="50.58199" lon="5.40562">
        <ele>67</ele>
        <time>2016-10-19T20:31:52Z</time>
      </trkpt>
      <trkpt lat="50.58206" lon="5.40545">
        <ele>67</ele>
        <time>2016-10-19T20:33:52Z</time>
      </trkpt>
      <trkpt lat="50.58213" lon="5.40519">
        <ele>68</ele>
        <time>2016-10-19T20:35:52Z</time>
      </trkpt>
      <trkpt lat="50.58215" lon="5.40506">
        <ele>68</ele>
        <time>2016-10-19T20:37:52Z</time>
      </trkpt>
      <trkpt lat="50.58215" lon="5.40496">
        <ele>68</ele>
        <time>2016-10-19T20:39:52Z</time>
      </trkpt>
      <trkpt lat="50.58216" lon="5.40482">
        <ele>68</ele>
        <time>2016-10-19T20:41:52Z</time>
      </trkpt>
      <trkpt lat="50.58213" lon="5.40473">
        <ele>68</ele>
        <time>2016-10-19T20:43:52Z</time>
      </trkpt>
      <trkpt lat="50.58211" lon="5.40466">
        <ele>68</ele>
        <time>2016-10-19T20:45:52Z</time>
      </trkpt>
      <trkpt lat="50.58198" lon="5.40439">
        <ele>69</ele>
        <time>2016-10-19T20:47:52Z</time>
      </trkpt>
      <trkpt lat="50.58191" lon="5.40433">
        <ele>69</ele>
        <time>2016-10-19T20:49:52Z</time>
      </trkpt>
      <trkpt lat="50.58185" lon="5.40433">
        <ele>68</ele>
        <time>2016-10-19T20:51:52Z</time>
      </trkpt>
      <trkpt lat="50.58181" lon="5.40435">
        <ele>68</ele>
        <time>2016-10-19T20:53:52Z</time>
      </trkpt>
      <trkpt lat="50.58159" lon="5.40454">
        <ele>67</ele>
        <time>2016-10-19T20:55:52Z</time>
      </trkpt>
      <trkpt lat="50.5815" lon="5.40463">
        <ele>67</ele>
        <time>2016-10-19T20:57:52Z</time>
      </trkpt>
      <trkpt lat="50.58134" lon="5.40481">
        <ele>67</ele>
        <time>2016-10-19T20:59:52Z</time>
      </trkpt>
      <trkpt lat="50.58119" lon="5.40496">
        <ele>66</ele>
        <time>2016-10-19T21:01:52Z</time>
      </trkpt>
      <trkpt lat="50.5811" lon="5.40506">
        <ele>66</ele>
        <time>2016-10-19T21:03:52Z</time>
      </trkpt>
      <trkpt lat="50.57993" lon="5.40652">
        <ele>71</ele>
        <time>2016-10-19T21:05:52Z</time>
      </trkpt>
      <trkpt lat="50.57974" lon="5.40681">
        <ele>72</ele>
        <time>2016-10-19T21:07:52Z</time>
      </trkpt>
      <trkpt lat="50.57929" lon="5.40757">
        <ele>72</ele>
        <time>2016-10-19T21:09:52Z</time>
      </trkpt>
      <trkpt lat="50.57875" lon="5.40851">
        <ele>71</ele>
        <time>2016-10-19T21:11:52Z</time>
      </trkpt>
      <trkpt lat="50.57814" lon="5.40773">
        <ele>74</ele>
        <time>2016-10-19T21:13:52Z</time>
      </trkpt>
      <trkpt lat="50.57792" lon="5.40748">
        <ele>75</ele>
        <time>2016-10-19T21:15:52Z</time>
      </trkpt>
      <trkpt lat="50.57776" lon="5.40728">
        <ele>75</ele>
        <time>2016-10-19T21:17:52Z</time>
      </trkpt>
      <trkpt lat="50.57763" lon="5.40711">
        <ele>75</ele>
        <time>2016-10-19T21:19:52Z</time>
      </trkpt>
      <trkpt lat="50.57747" lon="5.40685">
        <ele>73</ele>
        <time>2016-10-19T21:21:52Z</time>
      </trkpt>
      <trkpt lat="50.57684" lon="5.40586">
        <ele>74</ele>
        <time>2016-10-19T21:23:52Z</time>
      </trkpt>
      <trkpt lat="50.57643" lon="5.4052">
        <ele>74</ele>
        <time>2016-10-19T21:25:52Z</time>
      </trkpt>
      <trkpt lat="50.57622" lon="5.40489">
        <ele>74</ele>
        <time>2016-10-19T21:27:52Z</time>
      </trkpt>
      <trkpt lat="50.57602" lon="5.40452">
        <ele>74</ele>
        <time>2016-10-19T21:29:52Z</time>
      </trkpt>
      <trkpt lat="50.57588" lon="5.40423">
        <ele>73</ele>
        <time>2016-10-19T21:31:52Z</time>
      </trkpt>
      <trkpt lat="50.57574" lon="5.40392">
        <ele>74</ele>
        <time>2016-10-19T21:33:52Z</time>
      </trkpt>
      <trkpt lat="50.57554" lon="5.4035">
        <ele>75</ele>
        <time>2016-10-19T21:35:52Z</time>
      </trkpt>
      <trkpt lat="50.57532" lon="5.40297">
        <ele>75</ele>
        <time>2016-10-19T21:37:52Z</time>
      </trkpt>
      <trkpt lat="50.57517" lon="5.40257">
        <ele>74</ele>
        <time>2016-10-19T21:39:52Z</time>
      </trkpt>
      <trkpt lat="50.57492" lon="5.40194">
        <ele>73</ele>
        <time>2016-10-19T21:41:52Z</time>
      </trkpt>
      <trkpt lat="50.57442" lon="5.40072">
        <ele>75</ele>
        <time>2016-10-19T21:43:52Z</time>
      </trkpt>
      <trkpt lat="50.57409" lon="5.39998">
        <ele>75</ele>
        <time>2016-10-19T21:45:52Z</time>
      </trkpt>
      <trkpt lat="50.57398" lon="5.39971">
        <ele>76</ele>
        <time>2016-10-19T21:47:52Z</time>
      </trkpt>
      <trkpt lat="50.57385" lon="5.39937">
        <ele>76</ele>
        <time>2016-10-19T21:49:52Z</time>
      </trkpt>
      <trkpt lat="50.57374" lon="5.39914">
        <ele>76</ele>
        <time>2016-10-19T21:51:52Z</time>
      </trkpt>
      <trkpt lat="50.57286" lon="5.39699">
        <ele>74</ele>
        <time>2016-10-19T21:53:52Z</time>
      </trkpt>
      <trkpt lat="50.5712" lon="5.39329">
        <ele>69</ele>
        <time>2016-10-19T21:55:52Z</time>
      </trkpt>
      <trkpt lat="50.57061" lon="5.39202">
        <ele>69</ele>
        <time>2016-10-19T21:57:52Z</time>
      </trkpt>
      <trkpt lat="50.57044" lon="5.39166">
        <ele>69</ele>
        <time>2016-10-19T21:59:52Z</time>
      </trkpt>
      <trkpt lat="50.56985" lon="5.39059">
        <ele>68</ele>
        <time>2016-10-19T22:01:52Z</time>
      </trkpt>
      <trkpt lat="50.56923" lon="5.38962">
        <ele>68</ele>
        <time>2016-10-19T22:03:52Z</time>
      </trkpt>
      <trkpt lat="50.56866" lon="5.38874">
        <ele>67</ele>
        <time>2016-10-19T22:05:52Z</time>
      </trkpt>
      <trkpt lat="50.56733" lon="5.3866">
        <ele>68</ele>
        <time>2016-10-19T22:07:52Z</time>
      </trkpt>
      <trkpt lat="50.56707" lon="5.38617">
        <ele>69</ele>
        <time>2016-10-19T22:09:52Z</time>
      </trkpt>
      <trkpt lat="50.5669" lon="5.38592">
        <ele>69</ele>
        <time>2016-10-19T22:11:52Z</time>
      </trkpt>
      <trkpt lat="50.56678" lon="5.38579">
        <ele>69</ele>
        <time>2016-10-19T22:13:52Z</time>
      </trkpt>
      <trkpt lat="50.56661" lon="5.38559">
        <ele>69</ele>
        <time>2016-10-19T22:15:52Z</time>
      </trkpt>
      <trkpt lat="50.56649" lon="5.38554">
        <ele>69</ele>
        <time>2016-10-19T22:17:52Z</time>
      </trkpt>
      <trkpt lat="50.56645" lon="5.38552">
        <ele>69</ele>
        <time>2016-10-19T22:19:52Z</time>
      </trkpt>
      <trkpt lat="50.56603" lon="5.3854">
        <ele>70</ele>
        <time>2016-10-19T22:21:52Z</time>
      </trkpt>
      <trkpt lat="50.56596" lon="5.38539">
        <ele>70</ele>
        <time>2016-10-19T22:23:52Z</time>
      </trkpt>
      <trkpt lat="50.56585" lon="5.38538">
        <ele>70</ele>
        <time>2016-10-19T22:25:52Z</time>
      </trkpt>
      <trkpt lat="50.5658" lon="5.38537">
        <ele>71</ele>
        <time>2016-10-19T22:27:52Z</time>
      </trkpt>
      <trkpt lat="50.56571" lon="5.38537">
        <ele>71</ele>
        <time>2016-10-19T22:29:52Z</time>
      </trkpt>
      <trkpt lat="50.56533" lon="5.38532">
        <ele>74</ele>
        <time>2016-10-19T22:31:52Z</time>
      </trkpt>
      <trkpt lat="50.56462" lon="5.38314">
        <ele>74</ele>
        <time>2016-10-19T22:33:52Z</time>
      </trkpt>
      <trkpt lat="50.56405" lon="5.38138">
        <ele>72</ele>
        <time>2016-10-19T22:35:52Z</time>
      </trkpt>
      <trkpt lat="50.56391" lon="5.38091">
        <ele>73</ele>
        <time>2016-10-19T22:37:52Z</time>
      </trkpt>
      <trkpt lat="50.56356" lon="5.37964">
        <ele>71</ele>
        <time>2016-10-19T22:39:52Z</time>
      </trkpt>
      <trkpt lat="50.56311" lon="5.37782">
        <ele>73</ele>
        <time>2016-10-19T22:41:52Z</time>
      </trkpt>
      <trkpt lat="50.56212" lon="5.37401">
        <ele>73</ele>
        <time>2016-10-19T22:43:52Z</time>
      </trkpt>
      <trkpt lat="50.56155" lon="5.37185">
        <ele>74</ele>
        <time>2016-10-19T22:45:52Z</time>
      </trkpt>
      <trkpt lat="50.56135" lon="5.37121">
        <ele>75</ele>
        <time>2016-10-19T22:47:52Z</time>
      </trkpt>
      <trkpt lat="50.56109" lon="5.37062">
        <ele>76</ele>
        <time>2016-10-19T22:49:52Z</time>
      </trkpt>
      <trkpt lat="50.561" lon="5.37045">
        <ele>76</ele>
        <time>2016-10-19T22:51:52Z</time>
      </trkpt>
      <trkpt lat="50.55943" lon="5.36795">
        <ele>83</ele>
        <time>2016-10-19T22:53:52Z</time>
      </trkpt>
      <trkpt lat="50.55928" lon="5.3675">
        <ele>83</ele>
        <time>2016-10-19T22:55:52Z</time>
      </trkpt>
      <trkpt lat="50.5592" lon="5.36724">
        <ele>83</ele>
        <time>2016-10-19T22:57:52Z</time>
      </trkpt>
      <trkpt lat="50.55888" lon="5.36617">
        <ele>83</ele>
        <time>2016-10-19T22:59:52Z</time>
      </trkpt>
      <trkpt lat="50.55879" lon="5.36599">
        <ele>83</ele>
        <time>2016-10-19T23:01:52Z</time>
      </trkpt>
      <trkpt lat="50.55851" lon="5.36552">
        <ele>83</ele>
        <time>2016-10-19T23:03:52Z</time>
      </trkpt>
      <trkpt lat="50.5584" lon="5.36524">
        <ele>83</ele>
        <time>2016-10-19T23:05:52Z</time>
      </trkpt>
      <trkpt lat="50.55826" lon="5.36485">
        <ele>83</ele>
        <time>2016-10-19T23:07:52Z</time>
      </trkpt>
      <trkpt lat="50.55811" lon="5.36446">
        <ele>84</ele>
        <time>2016-10-19T23:09:52Z</time>
      </trkpt>
      <trkpt lat="50.55793" lon="5.36386">
        <ele>85</ele>
        <time>2016-10-19T23:11:52Z</time>
      </trkpt>
      <trkpt lat="50.55789" lon="5.36353">
        <ele>85</ele>
        <time>2016-10-19T23:13:52Z</time>
      </trkpt>
      <trkpt lat="50.55788" lon="5.3635">
        <ele>85</ele>
        <time>2016-10-19T23:15:52Z</time>
      </trkpt>
      <trkpt lat="50.5579" lon="5.36316">
        <ele>85</ele>
        <time>2016-10-19T23:17:52Z</time>
      </trkpt>
      <trkpt lat="50.55789" lon="5.36304">
        <ele>85</ele>
        <time>2016-10-19T23:19:52Z</time>
      </trkpt>
      <trkpt lat="50.55783" lon="5.36278">
        <ele>85</ele>
        <time>2016-10-19T23:21:52Z</time>
      </trkpt>
      <trkpt lat="50.55773" lon="5.36254">
        <ele>86</ele>
        <time>2016-10-19T23:23:52Z</time>
      </trkpt>
      <trkpt lat="50.55738" lon="5.36203">
        <ele>87</ele>
        <time>2016-10-19T23:25:52Z</time>
      </trkpt>
      <trkpt lat="50.55708" lon="5.36161">
        <ele>88</ele>
        <time>2016-10-19T23:27:52Z</time>
      </trkpt>
      <trkpt lat="50.55703" lon="5.36156">
        <ele>89</ele>
        <time>2016-10-19T23:29:52Z</time>
      </trkpt>
      <trkpt lat="50.55696" lon="5.36154">
        <ele>89</ele>
        <time>2016-10-19T23:31:52Z</time>
      </trkpt>
      <trkpt lat="50.55686" lon="5.36153">
        <ele>89</ele>
        <time>2016-10-19T23:33:52Z</time>
      </trkpt>
      <trkpt lat="50.55678" lon="5.36155">
        <ele>89</ele>
        <time>2016-10-19T23:35:52Z</time>
      </trkpt>
      <trkpt lat="50.55603" lon="5.36186">
        <ele>93</ele>
        <time>2016-10-19T23:37:52Z</time>
      </trkpt>
      <trkpt lat="50.55593" lon="5.36188">
        <ele>94</ele>
        <time>2016-10-19T23:39:52Z</time>
      </trkpt>
      <trkpt lat="50.55587" lon="5.36188">
        <ele>94</ele>
        <time>2016-10-19T23:41:52Z</time>
      </trkpt>
      <trkpt lat="50.55582" lon="5.36182">
        <ele>94</ele>
        <time>2016-10-19T23:43:52Z</time>
      </trkpt>
      <trkpt lat="50.55579" lon="5.36174">
        <ele>94</ele>
        <time>2016-10-19T23:45:52Z</time>
      </trkpt>
      <trkpt lat="50.55574" lon="5.36156">
        <ele>94</ele>
        <time>2016-10-19T23:47:52Z</time>
      </trkpt>
      <trkpt lat="50.55555" lon="5.36082">
        <ele>93</ele>
        <time>2016-10-19T23:49:52Z</time>
      </trkpt>
      <trkpt lat="50.55542" lon="5.36046">
        <ele>94</ele>
        <time>2016-10-19T23:51:52Z</time>
      </trkpt>
      <trkpt lat="50.55525" lon="5.35992">
        <ele>94</ele>
        <time>2016-10-19T23:53:52Z</time>
      </trkpt>
      <trkpt lat="50.55504" lon="5.35929">
        <ele>94</ele>
        <time>2016-10-19T23:55:52Z</time>
      </trkpt>
      <trkpt lat="50.5549" lon="5.35882">
        <ele>94</ele>
        <time>2016-10-19T23:57:52Z</time>
      </trkpt>
      <trkpt lat="50.55482" lon="5.35856">
        <ele>95</ele>
        <time>2016-10-19T23:59:52Z</time>
      </trkpt>
      <trkpt lat="50.55459" lon="5.35775">
        <ele>96</ele>
        <time>2016-10-20T00:01:52Z</time>
      </trkpt>
      <trkpt lat="50.5545" lon="5.35745">
        <ele>97</ele>
        <time>2016-10-20T00:03:52Z</time>
      </trkpt>
      <trkpt lat="50.55442" lon="5.35726">
        <ele>97</ele>
        <time>2016-10-20T00:05:52Z</time>
      </trkpt>
      <trkpt lat="50.55436" lon="5.35713">
        <ele>98</ele>
        <time>2016-10-20T00:07:52Z</time>
      </trkpt>
      <trkpt lat="50.55425" lon="5.35691">
        <ele>98</ele>
        <time>2016-10-20T00:09:52Z</time>
      </trkpt>
      <trkpt lat="50.55394" lon="5.35637">
        <ele>100</ele>
        <time>2016-10-20T00:11:52Z</time>
      </trkpt>
      <trkpt lat="50.55371" lon="5.35593">
        <ele>102</ele>
        <time>2016-10-20T00:13:52Z</time>
      </trkpt>
      <trkpt lat="50.55336" lon="5.35527">
        <ele>108</ele>
        <time>2016-10-20T00:15:52Z</time>
      </trkpt>
      <trkpt lat="50.55326" lon="5.35501">
        <ele>109</ele>
        <time>2016-10-20T00:17:52Z</time>
      </trkpt>
      <trkpt lat="50.55315" lon="5.35471">
        <ele>109</ele>
        <time>2016-10-20T00:19:52Z</time>
      </trkpt>
      <trkpt lat="50.55306" lon="5.35441">
        <ele>109</ele>
        <time>2016-10-20T00:21:52Z</time>
      </trkpt>
      <trkpt lat="50.55292" lon="5.35391">
        <ele>109</ele>
        <time>2016-10-20T00:23:52Z</time>
      </trkpt>
      <trkpt lat="50.55284" lon="5.35361">
        <ele>109</ele>
        <time>2016-10-20T00:25:52Z</time>
      </trkpt>
      <trkpt lat="50.55257" lon="5.3527">
        <ele>110</ele>
        <time>2016-10-20T00:27:52Z</time>
      </trkpt>
      <trkpt lat="50.55246" lon="5.35244">
        <ele>110</ele>
        <time>2016-10-20T00:29:52Z</time>
      </trkpt>
      <trkpt lat="50.55237" lon="5.35226">
        <ele>110</ele>
        <time>2016-10-20T00:31:52Z</time>
      </trkpt>
      <trkpt lat="50.55223" lon="5.35205">
        <ele>111</ele>
        <time>2016-10-20T00:33:52Z</time>
      </trkpt>
      <trkpt lat="50.55215" lon="5.35195">
        <ele>111</ele>
        <time>2016-10-20T00:35:52Z</time>
      </trkpt>
      <trkpt lat="50.55191" lon="5.35167">
        <ele>113</ele>
        <time>2016-10-20T00:37:52Z</time>
      </trkpt>
      <trkpt lat="50.55142" lon="5.35115">
        <ele>115</ele>
        <time>2016-10-20T00:39:52Z</time>
      </trkpt>
      <trkpt lat="50.55097" lon="5.35069">
        <ele>114</ele>
        <time>2016-10-20T00:41:52Z</time>
      </trkpt>
      <trkpt lat="50.55046" lon="5.35021">
        <ele>112</ele>
        <time>2016-10-20T00:43:52Z</time>
      </trkpt>
      <trkpt lat="50.55028" lon="5.35002">
        <ele>111</ele>
        <time>2016-10-20T00:45:52Z</time>
      </trkpt>
      <trkpt lat="50.55003" lon="5.34965">
        <ele>110</ele>
        <time>2016-10-20T00:47:52Z</time>
      </trkpt>
      <trkpt lat="50.54992" lon="5.34944">
        <ele>109</ele>
        <time>2016-10-20T00:49:52Z</time>
      </trkpt>
      <trkpt lat="50.54957" lon="5.34881">
        <ele>106</ele>
        <time>2016-10-20T00:51:52Z</time>
      </trkpt>
      <trkpt lat="50.54921" lon="5.34811">
        <ele>100</ele>
        <time>2016-10-20T00:53:52Z</time>
      </trkpt>
      <trkpt lat="50.54881" lon="5.34741">
        <ele>96</ele>
        <time>2016-10-20T00:55:52Z</time>
      </trkpt>
      <trkpt lat="50.5484" lon="5.34663">
        <ele>90</ele>
        <time>2016-10-20T00:57:52Z</time>
      </trkpt>
      <trkpt lat="50.54609" lon="5.34236">
        <ele>82</ele>
        <time>2016-10-20T00:59:52Z</time>
      </trkpt>
      <trkpt lat="50.54561" lon="5.34143">
        <ele>84</ele>
        <time>2016-10-20T01:01:52Z</time>
      </trkpt>
      <trkpt lat="50.5454" lon="5.34105">
        <ele>85</ele>
        <time>2016-10-20T01:03:52Z</time>
      </trkpt>
      <trkpt lat="50.5453" lon="5.3409">
        <ele>85</ele>
        <time>2016-10-20T01:05:52Z</time>
      </trkpt>
      <trkpt lat="50.54522" lon="5.34074">
        <ele>85</ele>
        <time>2016-10-20T01:07:52Z</time>
      </trkpt>
      <trkpt lat="50.54509" lon="5.34047">
        <ele>86</ele>
        <time>2016-10-20T01:09:52Z</time>
      </trkpt>
      <trkpt lat="50.54505" lon="5.34034">
        <ele>86</ele>
        <time>2016-10-20T01:11:52Z</time>
      </trkpt>
      <trkpt lat="50.54383" lon="5.34144">
        <ele>85</ele>
        <time>2016-10-20T01:13:52Z</time>
      </trkpt>
      <trkpt lat="50.54271" lon="5.34248">
        <ele>89</ele>
        <time>2016-10-20T01:15:52Z</time>
      </trkpt>
      <trkpt lat="50.542" lon="5.3431">
        <ele>94</ele>
        <time>2016-10-20T01:17:52Z</time>
      </trkpt>
      <trkpt lat="50.54189" lon="5.34317">
        <ele>95</ele>
        <time>2016-10-20T01:19:52Z</time>
      </trkpt>
      <trkpt lat="50.54176" lon="5.34323">
        <ele>96</ele>
        <time>2016-10-20T01:21:52Z</time>
      </trkpt>
      <trkpt lat="50.54131" lon="5.34334">
        <ele>98</ele>
        <time>2016-10-20T01:23:52Z</time>
      </trkpt>
      <trkpt lat="50.54112" lon="5.34339">
        <ele>101</ele>
        <time>2016-10-20T01:25:52Z</time>
      </trkpt>
      <trkpt lat="50.54091" lon="5.34348">
        <ele>104</ele>
        <time>2016-10-20T01:27:52Z</time>
      </trkpt>
      <trkpt lat="50.5406" lon="5.34362">
        <ele>104</ele>
        <time>2016-10-20T01:29:52Z</time>
      </trkpt>
      <trkpt lat="50.54043" lon="5.34372">
        <ele>103</ele>
        <time>2016-10-20T01:31:52Z</time>
      </trkpt>
      <trkpt lat="50.54033" lon="5.34384">
        <ele>104</ele>
        <time>2016-10-20T01:33:52Z</time>
      </trkpt>
      <trkpt lat="50.54025" lon="5.34408">
        <ele>105</ele>
        <time>2016-10-20T01:35:52Z</time>
      </trkpt>
      <trkpt lat="50.53987" lon="5.34525">
        <ele>108</ele>
        <time>2016-10-20T01:37:52Z</time>
      </trkpt>
      <trkpt lat="50.53981" lon="5.34541">
        <ele>109</ele>
        <time>2016-10-20T01:39:52Z</time>
      </trkpt>
      <trkpt lat="50.53943" lon="5.34647">
        <ele>111</ele>
        <time>2016-10-20T01:41:52Z</time>
      </trkpt>
      <trkpt lat="50.53933" lon="5.34677">
        <ele>111</ele>
        <time>2016-10-20T01:43:52Z</time>
      </trkpt>
      <trkpt lat="50.5392" lon="5.34712">
        <ele>112</ele>
        <time>2016-10-20T01:45:52Z</time>
      </trkpt>
      <trkpt lat="50.53909" lon="5.34739">
        <ele>115</ele>
        <time>2016-10-20T01:47:52Z</time>
      </trkpt>
      <trkpt lat="50.53897" lon="5.34767">
        <ele>117</ele>
        <time>2016-10-20T01:49:52Z</time>
      </trkpt>
      <trkpt lat="50.53883" lon="5.34794">
        <ele>117</ele>
        <time>2016-10-20T01:51:52Z</time>
      </trkpt>
      <trkpt lat="50.53868" lon="5.34826">
        <ele>114</ele>
        <time>2016-10-20T01:53:52Z</time>
      </trkpt>
      <trkpt lat="50.53834" lon="5.34894">
        <ele>111</ele>
        <time>2016-10-20T01:55:52Z</time>
      </trkpt>
      <trkpt lat="50.5383" lon="5.34903">
        <ele>111</ele>
        <time>2016-10-20T01:57:52Z</time>
      </trkpt>
      <trkpt lat="50.5382" lon="5.3492">
        <ele>113</ele>
        <time>2016-10-20T01:59:52Z</time>
      </trkpt>
      <trkpt lat="50.53798" lon="5.34956">
        <ele>114</ele>
        <time>2016-10-20T02:01:52Z</time>
      </trkpt>
      <trkpt lat="50.5378" lon="5.34982">
        <ele>112</ele>
        <time>2016-10-20T02:03:52Z</time>
      </trkpt>
      <trkpt lat="50.53772" lon="5.34991">
        <ele>111</ele>
        <time>2016-10-20T02:05:52Z</time>
      </trkpt>
      <trkpt lat="50.53743" lon="5.35029">
        <ele>110</ele>
        <time>2016-10-20T02:07:52Z</time>
      </trkpt>
      <trkpt lat="50.53727" lon="5.35051">
        <ele>111</ele>
        <time>2016-10-20T02:09:52Z</time>
      </trkpt>
      <trkpt lat="50.5371" lon="5.35063">
        <ele>110</ele>
        <time>2016-10-20T02:11:52Z</time>
      </trkpt>
      <trkpt lat="50.53687" lon="5.35082">
        <ele>109</ele>
        <time>2016-10-20T02:13:52Z</time>
      </trkpt>
      <trkpt lat="50.53685" lon="5.35085">
        <ele>109</ele>
        <time>2016-10-20T02:15:52Z</time>
      </trkpt>
      <trkpt lat="50.53654" lon="5.35111">
        <ele>108</ele>
        <time>2016-10-20T02:17:52Z</time>
      </trkpt>
      <trkpt lat="50.53651" lon="5.35104">
        <ele>108</ele>
        <time>2016-10-20T02:19:52Z</time>
      </trkpt>
      <trkpt lat="50.53647" lon="5.35099">
        <ele>108</ele>
        <time>2016-10-20T02:21:52Z</time>
      </trkpt>
      <trkpt lat="50.53639" lon="5.35095">
        <ele>109</ele>
        <time>2016-10-20T02:23:52Z</time>
      </trkpt>
      <trkpt lat="50.53626" lon="5.3509">
        <ele>109</ele>
        <time>2016-10-20T02:25:52Z</time>
      </trkpt>
      <trkpt lat="50.53616" lon="5.3508">
        <ele>110</ele>
        <time>2016-10-20T02:27:52Z</time>
      </trkpt>
      <trkpt lat="50.53602" lon="5.35058">
        <ele>110</ele>
        <time>2016-10-20T02:29:52Z</time>
      </trkpt>
      <trkpt lat="50.53585" lon="5.35023">
        <ele>110</ele>
        <time>2016-10-20T02:31:52Z</time>
      </trkpt>
      <trkpt lat="50.53571" lon="5.34992">
        <ele>111</ele>
        <time>2016-10-20T02:33:52Z</time>
      </trkpt>
      <trkpt lat="50.53561" lon="5.34971">
        <ele>112</ele>
        <time>2016-10-20T02:35:52Z</time>
      </trkpt>
      <trkpt lat="50.53555" lon="5.3496">
        <ele>113</ele>
        <time>2016-10-20T02:37:52Z</time>
      </trkpt>
      <trkpt lat="50.5354" lon="5.34931">
        <ele>115</ele>
        <time>2016-10-20T02:39:52Z</time>
      </trkpt>
      <trkpt lat="50.5353" lon="5.34911">
        <ele>116</ele>
        <time>2016-10-20T02:41:52Z</time>
      </trkpt>
      <trkpt lat="50.53522" lon="5.34892">
        <ele>117</ele>
        <time>2016-10-20T02:43:52Z</time>
      </trkpt>
      <trkpt lat="50.53513" lon="5.34868">
        <ele>119</ele>
        <time>2016-10-20T02:45:52Z</time>
      </trkpt>
      <trkpt lat="50.535" lon="5.34824">
        <ele>121</ele>
        <time>2016-10-20T02:47:52Z</time>
      </trkpt>
      <trkpt lat="50.53496" lon="5.34802">
        <ele>122</ele>
        <time>2016-10-20T02:49:52Z</time>
      </trkpt>
      <trkpt lat="50.53493" lon="5.34779">
        <ele>123</ele>
        <time>2016-10-20T02:51:52Z</time>
      </trkpt>
      <trkpt lat="50.53489" lon="5.3473">
        <ele>124</ele>
        <time>2016-10-20T02:53:52Z</time>
      </trkpt>
      <trkpt lat="50.53486" lon="5.3469">
        <ele>125</ele>
        <time>2016-10-20T02:55:52Z</time>
      </trkpt>
      <trkpt lat="50.53482" lon="5.34647">
        <ele>126</ele>
        <time>2016-10-20T02:57:52Z</time>
      </trkpt>
      <trkpt lat="50.53478" lon="5.34593">
        <ele>127</ele>
        <time>2016-10-20T02:59:52Z</time>
      </trkpt>
      <trkpt lat="50.53471" lon="5.34516">
        <ele>127</ele>
        <time>2016-10-20T03:01:52Z</time>
      </trkpt>
      <trkpt lat="50.53461" lon="5.3445">
        <ele>127</ele>
        <time>2016-10-20T03:03:52Z</time>
      </trkpt>
      <trkpt lat="50.53455" lon="5.34416">
        <ele>126</ele>
        <time>2016-10-20T03:05:52Z</time>
      </trkpt>
      <trkpt lat="50.5344" lon="5.34378">
        <ele>127</ele>
        <time>2016-10-20T03:07:52Z</time>
      </trkpt>
      <trkpt lat="50.53313" lon="5.34109">
        <ele>134</ele>
        <time>2016-10-20T03:09:52Z</time>
      </trkpt>
      <trkpt lat="50.5327" lon="5.34049">
        <ele>136</ele>
        <time>2016-10-20T03:11:52Z</time>
      </trkpt>
      <trkpt lat="50.53241" lon="5.34012">
        <ele>133</ele>
        <time>2016-10-20T03:13:52Z</time>
      </trkpt>
      <trkpt lat="50.5321" lon="5.33977">
        <ele>137</ele>
        <time>2016-10-20T03:15:52Z</time>
      </trkpt>
      <trkpt lat="50.53176" lon="5.33931">
        <ele>139</ele>
        <time>2016-10-20T03:17:52Z</time>
      </trkpt>
      <trkpt lat="50.53172" lon="5.33917">
        <ele>137</ele>
        <time>2016-10-20T03:19:52Z</time>
      </trkpt>
      <trkpt lat="50.53169" lon="5.33896">
        <ele>136</ele>
        <time>2016-10-20T03:21:52Z</time>
      </trkpt>
      <trkpt lat="50.53169" lon="5.33894">
        <ele>135</ele>
        <time>2016-10-20T03:23:52Z</time>
      </trkpt>
      <trkpt lat="50.53168" lon="5.33889">
        <ele>135</ele>
        <time>2016-10-20T03:25:52Z</time>
      </trkpt>
      <trkpt lat="50.53167" lon="5.33886">
        <ele>135</ele>
        <time>2016-10-20T03:27:52Z</time>
      </trkpt>
      <trkpt lat="50.53167" lon="5.33884">
        <ele>134</ele>
        <time>2016-10-20T03:29:52Z</time>
      </trkpt>
      <trkpt lat="50.53153" lon="5.33804">
        <ele>136</ele>
        <time>2016-10-20T03:31:52Z</time>
      </trkpt>
      <trkpt lat="50.53142" lon="5.33797">
        <ele>137</ele>
        <time>2016-10-20T03:33:52Z</time>
      </trkpt>
      <trkpt lat="50.53114" lon="5.33788">
        <ele>140</ele>
        <time>2016-10-20T03:35:52Z</time>
      </trkpt>
      <trkpt lat="50.53094" lon="5.33784">
        <ele>142</ele>
        <time>2016-10-20T03:37:52Z</time>
      </trkpt>
      <trkpt lat="50.5304" lon="5.33768">
        <ele>145</ele>
        <time>2016-10-20T03:39:52Z</time>
      </trkpt>
      <trkpt lat="50.53006" lon="5.33752">
        <ele>147</ele>
        <time>2016-10-20T03:41:52Z</time>
      </trkpt>
      <trkpt lat="50.52983" lon="5.33737">
        <ele>147</ele>
        <time>2016-10-20T03:43:52Z</time>
      </trkpt>
      <trkpt lat="50.52962" lon="5.33717">
        <ele>146</ele>
        <time>2016-10-20T03:45:52Z</time>
      </trkpt>
      <trkpt lat="50.52919" lon="5.33666">
        <ele>139</ele>
        <time>2016-10-20T03:47:52Z</time>
      </trkpt>
      <trkpt lat="50.52885" lon="5.33645">
        <ele>141</ele>
        <time>2016-10-20T03:49:52Z</time>
      </trkpt>
      <trkpt lat="50.52825" lon="5.33613">
        <ele>145</ele>
        <time>2016-10-20T03:51:52Z</time>
      </trkpt>
      <trkpt lat="50.52805" lon="5.336">
        <ele>148</ele>
        <time>2016-10-20T03:53:52Z</time>
      </trkpt>
      <trkpt lat="50.52795" lon="5.33598">
        <ele>149</ele>
        <time>2016-10-20T03:55:52Z</time>
      </trkpt>
      <trkpt lat="50.52783" lon="5.33598">
        <ele>149</ele>
        <time>2016-10-20T03:57:52Z</time>
      </trkpt>
      <trkpt lat="50.52643" lon="5.33654">
        <ele>149</ele>
        <time>2016-10-20T03:59:52Z</time>
      </trkpt>
      <trkpt lat="50.52629" lon="5.33665">
        <ele>150</ele>
        <time>2016-10-20T04:01:52Z</time>
      </trkpt>
      <trkpt lat="50.52604" lon="5.33695">
        <ele>154</ele>
        <time>2016-10-20T04:03:52Z</time>
      </trkpt>
      <trkpt lat="50.52546" lon="5.33838">
        <ele>153</ele>
        <time>2016-10-20T04:05:52Z</time>
      </trkpt>
      <trkpt lat="50.52535" lon="5.33857">
        <ele>155</ele>
        <time>2016-10-20T04:07:52Z</time>
      </trkpt>
      <trkpt lat="50.52522" lon="5.33874">
        <ele>156</ele>
        <time>2016-10-20T04:09:52Z</time>
      </trkpt>
      <trkpt lat="50.52458" lon="5.33919">
        <ele>157</ele>
        <time>2016-10-20T04:11:52Z</time>
      </trkpt>
      <trkpt lat="50.52197" lon="5.34059">
        <ele>165</ele>
        <time>2016-10-20T04:13:52Z</time>
      </trkpt>
      <trkpt lat="50.52189" lon="5.34064">
        <ele>164</ele>
        <time>2016-10-20T04:15:52Z</time>
      </trkpt>
      <trkpt lat="50.52177" lon="5.34074">
        <ele>163</ele>
        <time>2016-10-20T04:17:52Z</time>
      </trkpt>
      <trkpt lat="50.52165" lon="5.34086">
        <ele>162</ele>
        <time>2016-10-20T04:19:52Z</time>
      </trkpt>
      <trkpt lat="50.52152" lon="5.341">
        <ele>160</ele>
        <time>2016-10-20T04:21:52Z</time>
      </trkpt>
      <trkpt lat="50.52132" lon="5.34125">
        <ele>158</ele>
        <time>2016-10-20T04:23:52Z</time>
      </trkpt>
      <trkpt lat="50.52131" lon="5.34127">
        <ele>158</ele>
        <time>2016-10-20T04:25:52Z</time>
      </trkpt>
      <trkpt lat="50.52125" lon="5.34135">
        <ele>158</ele>
        <time>2016-10-20T04:27:52Z</time>
      </trkpt>
      <trkpt lat="50.52111" lon="5.34149">
        <ele>158</ele>
        <time>2016-10-20T04:29:52Z</time>
      </trkpt>
      <trkpt lat="50.52107" lon="5.34151">
        <ele>158</ele>
        <time>2016-10-20T04:31:52Z</time>
      </trkpt>
      <trkpt lat="50.521" lon="5.34156">
        <ele>159</ele>
        <time>2016-10-20T04:33:52Z</time>
      </trkpt>
      <trkpt lat="50.52095" lon="5.34158">
        <ele>159</ele>
        <time>2016-10-20T04:35:52Z</time>
      </trkpt>
      <trkpt lat="50.52091" lon="5.34158">
        <ele>159</ele>
        <time>2016-10-20T04:37:52Z</time>
      </trkpt>
      <trkpt lat="50.52082" lon="5.34156">
        <ele>160</ele>
        <time>2016-10-20T04:39:52Z</time>
      </trkpt>
      <trkpt lat="50.52071" lon="5.34147">
        <ele>162</ele>
        <time>2016-10-20T04:41:52Z</time>
      </trkpt>
      <trkpt lat="50.52066" lon="5.34141">
        <ele>163</ele>
        <time>2016-10-20T04:43:52Z</time>
      </trkpt>
      <trkpt lat="50.5206" lon="5.34133">
        <ele>164</ele>
        <time>2016-10-20T04:45:52Z</time>
      </trkpt>
      <trkpt lat="50.52052" lon="5.34121">
        <ele>164</ele>
        <time>2016-10-20T04:47:52Z</time>
      </trkpt>
      <trkpt lat="50.52048" lon="5.34114">
        <ele>164</ele>
        <time>2016-10-20T04:49:52Z</time>
      </trkpt>
      <trkpt lat="50.52039" lon="5.34102">
        <ele>164</ele>
        <time>2016-10-20T04:51:52Z</time>
      </trkpt>
      <trkpt lat="50.52021" lon="5.34076">
        <ele>163</ele>
        <time>2016-10-20T04:53:52Z</time>
      </trkpt>
      <trkpt lat="50.52012" lon="5.34062">
        <ele>161</ele>
        <time>2016-10-20T04:55:52Z</time>
      </trkpt>
      <trkpt lat="50.51999" lon="5.34045">
        <ele>159</ele>
        <time>2016-10-20T04:57:52Z</time>
      </trkpt>
      <trkpt lat="50.5199" lon="5.34032">
        <ele>159</ele>
        <time>2016-10-20T04:59:52Z</time>
      </trkpt>
      <trkpt lat="50.51982" lon="5.34018">
        <ele>158</ele>
        <time>2016-10-20T05:01:52Z</time>
      </trkpt>
      <trkpt lat="50.51972" lon="5.34005">
        <ele>158</ele>
        <time>2016-10-20T05:03:52Z</time>
      </trkpt>
      <trkpt lat="50.51964" lon="5.33992">
        <ele>159</ele>
        <time>2016-10-20T05:05:52Z</time>
      </trkpt>
      <trkpt lat="50.51955" lon="5.3398">
        <ele>161</ele>
        <time>2016-10-20T05:07:52Z</time>
      </trkpt>
      <trkpt lat="50.51945" lon="5.33966">
        <ele>162</ele>
        <time>2016-10-20T05:09:52Z</time>
      </trkpt>
      <trkpt lat="50.51937" lon="5.33953">
        <ele>163</ele>
        <time>2016-10-20T05:11:52Z</time>
      </trkpt>
      <trkpt lat="50.51923" lon="5.33934">
        <ele>163</ele>
        <time>2016-10-20T05:13:52Z</time>
      </trkpt>
      <trkpt lat="50.51905" lon="5.33905">
        <ele>164</ele>
        <time>2016-10-20T05:15:52Z</time>
      </trkpt>
      <trkpt lat="50.51891" lon="5.33885">
        <ele>164</ele>
        <time>2016-10-20T05:17:52Z</time>
      </trkpt>
      <trkpt lat="50.51882" lon="5.33873">
        <ele>165</ele>
        <time>2016-10-20T05:19:52Z</time>
      </trkpt>
      <trkpt lat="50.51868" lon="5.33852">
        <ele>165</ele>
        <time>2016-10-20T05:21:52Z</time>
      </trkpt>
      <trkpt lat="50.51858" lon="5.33839">
        <ele>165</ele>
        <time>2016-10-20T05:23:52Z</time>
      </trkpt>
      <trkpt lat="50.51849" lon="5.33826">
        <ele>166</ele>
        <time>2016-10-20T05:25:52Z</time>
      </trkpt>
      <trkpt lat="50.51839" lon="5.33814">
        <ele>167</ele>
        <time>2016-10-20T05:27:52Z</time>
      </trkpt>
      <trkpt lat="50.5183" lon="5.338">
        <ele>168</ele>
        <time>2016-10-20T05:29:52Z</time>
      </trkpt>
      <trkpt lat="50.5181" lon="5.33776">
        <ele>171</ele>
        <time>2016-10-20T05:31:52Z</time>
      </trkpt>
      <trkpt lat="50.518" lon="5.33763">
        <ele>172</ele>
        <time>2016-10-20T05:33:52Z</time>
      </trkpt>
      <trkpt lat="50.51785" lon="5.33745">
        <ele>173</ele>
        <time>2016-10-20T05:35:52Z</time>
      </trkpt>
      <trkpt lat="50.51761" lon="5.33714">
        <ele>173</ele>
        <time>2016-10-20T05:37:52Z</time>
      </trkpt>
      <trkpt lat="50.51753" lon="5.33702">
        <ele>172</ele>
        <time>2016-10-20T05:39:52Z</time>
      </trkpt>
      <trkpt lat="50.51744" lon="5.33687">
        <ele>171</ele>
        <time>2016-10-20T05:41:52Z</time>
      </trkpt>
      <trkpt lat="50.51734" lon="5.33672">
        <ele>171</ele>
        <time>2016-10-20T05:43:52Z</time>
      </trkpt>
      <trkpt lat="50.51726" lon="5.33658">
        <ele>172</ele>
        <time>2016-10-20T05:45:52Z</time>
      </trkpt>
      <trkpt lat="50.517" lon="5.33616">
        <ele>175</ele>
        <time>2016-10-20T05:47:52Z</time>
      </trkpt>
      <trkpt lat="50.51687" lon="5.33597">
        <ele>176</ele>
        <time>2016-10-20T05:49:52Z</time>
      </trkpt>
      <trkpt lat="50.51674" lon="5.3358">
        <ele>176</ele>
        <time>2016-10-20T05:51:52Z</time>
      </trkpt>
      <trkpt lat="50.51664" lon="5.33572">
        <ele>176</ele>
        <time>2016-10-20T05:53:52Z</time>
      </trkpt>
      <trkpt lat="50.5165" lon="5.33565">
        <ele>175</ele>
        <time>2016-10-20T05:55:52Z</time>
      </trkpt>
      <trkpt lat="50.51639" lon="5.33565">
        <ele>175</ele>
        <time>2016-10-20T05:57:52Z</time>
      </trkpt>
      <trkpt lat="50.5163" lon="5.33567">
        <ele>174</ele>
        <time>2016-10-20T05:59:52Z</time>
      </trkpt>
      <trkpt lat="50.51621" lon="5.33573">
        <ele>174</ele>
        <time>2016-10-20T06:01:52Z</time>
      </trkpt>
      <trkpt lat="50.51617" lon="5.33579">
        <ele>174</ele>
        <time>2016-10-20T06:03:52Z</time>
      </trkpt>
      <trkpt lat="50.51609" lon="5.33592">
        <ele>175</ele>
        <time>2016-10-20T06:05:52Z</time>
      </trkpt>
      <trkpt lat="50.51605" lon="5.33606">
        <ele>175</ele>
        <time>2016-10-20T06:07:52Z</time>
      </trkpt>
      <trkpt lat="50.51601" lon="5.33622">
        <ele>175</ele>
        <time>2016-10-20T06:09:52Z</time>
      </trkpt>
      <trkpt lat="50.51596" lon="5.33638">
        <ele>175</ele>
        <time>2016-10-20T06:11:52Z</time>
      </trkpt>
      <trkpt lat="50.51591" lon="5.33656">
        <ele>175</ele>
        <time>2016-10-20T06:13:52Z</time>
      </trkpt>
      <trkpt lat="50.51576" lon="5.33697">
        <ele>179</ele>
        <time>2016-10-20T06:15:52Z</time>
      </trkpt>
      <trkpt lat="50.51545" lon="5.33759">
        <ele>183</ele>
        <time>2016-10-20T06:17:52Z</time>
      </trkpt>
      <trkpt lat="50.51534" lon="5.33782">
        <ele>183</ele>
        <time>2016-10-20T06:19:52Z</time>
      </trkpt>
      <trkpt lat="50.5151" lon="5.33828">
        <ele>180</ele>
        <time>2016-10-20T06:21:52Z</time>
      </trkpt>
      <trkpt lat="50.51502" lon="5.33842">
        <ele>179</ele>
        <time>2016-10-20T06:23:52Z</time>
      </trkpt>
      <trkpt lat="50.51477" lon="5.33875">
        <ele>183</ele>
        <time>2016-10-20T06:25:52Z</time>
      </trkpt>
      <trkpt lat="50.51466" lon="5.33884">
        <ele>184</ele>
        <time>2016-10-20T06:27:52Z</time>
      </trkpt>
      <trkpt lat="50.51452" lon="5.33897">
        <ele>184</ele>
        <time>2016-10-20T06:29:52Z</time>
      </trkpt>
      <trkpt lat="50.51443" lon="5.33904">
        <ele>184</ele>
        <time>2016-10-20T06:31:52Z</time>
      </trkpt>
      <trkpt lat="50.51423" lon="5.33923">
        <ele>183</ele>
        <time>2016-10-20T06:33:52Z</time>
      </trkpt>
      <trkpt lat="50.51407" lon="5.3393">
        <ele>183</ele>
        <time>2016-10-20T06:35:52Z</time>
      </trkpt>
      <trkpt lat="50.5139" lon="5.3393">
        <ele>184</ele>
        <time>2016-10-20T06:37:52Z</time>
      </trkpt>
      <trkpt lat="50.51385" lon="5.33929">
        <ele>184</ele>
        <time>2016-10-20T06:39:52Z</time>
      </trkpt>
      <trkpt lat="50.5138" lon="5.33927">
        <ele>184</ele>
        <time>2016-10-20T06:41:52Z</time>
      </trkpt>
      <trkpt lat="50.5136" lon="5.33917">
        <ele>184</ele>
        <time>2016-10-20T06:43:52Z</time>
      </trkpt>
      <trkpt lat="50.5133" lon="5.33907">
        <ele>186</ele>
        <time>2016-10-20T06:45:52Z</time>
      </trkpt>
      <trkpt lat="50.51312" lon="5.33904">
        <ele>189</ele>
        <time>2016-10-20T06:47:52Z</time>
      </trkpt>
      <trkpt lat="50.51299" lon="5.33903">
        <ele>191</ele>
        <time>2016-10-20T06:49:52Z</time>
      </trkpt>
      <trkpt lat="50.51291" lon="5.33903">
        <ele>193</ele>
        <time>2016-10-20T06:51:52Z</time>
      </trkpt>
      <trkpt lat="50.51277" lon="5.33902">
        <ele>195</ele>
        <time>2016-10-20T06:53:52Z</time>
      </trkpt>
      <trkpt lat="50.51264" lon="5.33903">
        <ele>197</ele>
        <time>2016-10-20T06:55:52Z</time>
      </trkpt>
      <trkpt lat="50.5125" lon="5.33903">
        <ele>200</ele>
        <time>2016-10-20T06:57:52Z</time>
      </trkpt>
      <trkpt lat="50.51235" lon="5.33902">
        <ele>201</ele>
        <time>2016-10-20T06:59:52Z</time>
      </trkpt>
      <trkpt lat="50.51207" lon="5.33902">
        <ele>205</ele>
        <time>2016-10-20T07:01:52Z</time>
      </trkpt>
      <trkpt lat="50.51194" lon="5.339">
        <ele>206</ele>
        <time>2016-10-20T07:03:52Z</time>
      </trkpt>
      <trkpt lat="50.5118" lon="5.33899">
        <ele>208</ele>
        <time>2016-10-20T07:05:52Z</time>
      </trkpt>
      <trkpt lat="50.51166" lon="5.33897">
        <ele>209</ele>
        <time>2016-10-20T07:07:52Z</time>
      </trkpt>
      <trkpt lat="50.51152" lon="5.33894">
        <ele>210</ele>
        <time>2016-10-20T07:09:52Z</time>
      </trkpt>
      <trkpt lat="50.5114" lon="5.33892">
        <ele>210</ele>
        <time>2016-10-20T07:11:52Z</time>
      </trkpt>
      <trkpt lat="50.51133" lon="5.3389">
        <ele>211</ele>
        <time>2016-10-20T07:13:52Z</time>
      </trkpt>
      <trkpt lat="50.5112" lon="5.33888">
        <ele>211</ele>
        <time>2016-10-20T07:15:52Z</time>
      </trkpt>
      <trkpt lat="50.51109" lon="5.33887">
        <ele>212</ele>
        <time>2016-10-20T07:17:52Z</time>
      </trkpt>
      <trkpt lat="50.51102" lon="5.33886">
        <ele>212</ele>
        <time>2016-10-20T07:19:52Z</time>
      </trkpt>
      <trkpt lat="50.51091" lon="5.33886">
        <ele>213</ele>
        <time>2016-10-20T07:21:52Z</time>
      </trkpt>
      <trkpt lat="50.51086" lon="5.33888">
        <ele>213</ele>
        <time>2016-10-20T07:23:52Z</time>
      </trkpt>
      <trkpt lat="50.51081" lon="5.33889">
        <ele>213</ele>
        <time>2016-10-20T07:25:52Z</time>
      </trkpt>
      <trkpt lat="50.51076" lon="5.33894">
        <ele>213</ele>
        <time>2016-10-20T07:27:52Z</time>
      </trkpt>
      <trkpt lat="50.51066" lon="5.33902">
        <ele>212</ele>
        <time>2016-10-20T07:29:52Z</time>
      </trkpt>
      <trkpt lat="50.51051" lon="5.33913">
        <ele>211</ele>
        <time>2016-10-20T07:31:52Z</time>
      </trkpt>
      <trkpt lat="50.51045" lon="5.33916">
        <ele>211</ele>
        <time>2016-10-20T07:33:52Z</time>
      </trkpt>
      <trkpt lat="50.51028" lon="5.33919">
        <ele>210</ele>
        <time>2016-10-20T07:35:52Z</time>
      </trkpt>
      <trkpt lat="50.51021" lon="5.33919">
        <ele>210</ele>
        <time>2016-10-20T07:37:52Z</time>
      </trkpt>
      <trkpt lat="50.51009" lon="5.33918">
        <ele>209</ele>
        <time>2016-10-20T07:39:52Z</time>
      </trkpt>
      <trkpt lat="50.51001" lon="5.33918">
        <ele>209</ele>
        <time>2016-10-20T07:41:52Z</time>
      </trkpt>
      <trkpt lat="50.5099" lon="5.33916">
        <ele>208</ele>
        <time>2016-10-20T07:43:52Z</time>
      </trkpt>
      <trkpt lat="50.50977" lon="5.3391">
        <ele>208</ele>
        <time>2016-10-20T07:45:52Z</time>
      </trkpt>
      <trkpt lat="50.50966" lon="5.33903">
        <ele>207</ele>
        <time>2016-10-20T07:47:52Z</time>
      </trkpt>
      <trkpt lat="50.5096" lon="5.33898">
        <ele>206</ele>
        <time>2016-10-20T07:49:52Z</time>
      </trkpt>
      <trkpt lat="50.50955" lon="5.33892">
        <ele>206</ele>
        <time>2016-10-20T07:51:52Z</time>
      </trkpt>
      <trkpt lat="50.5095" lon="5.33885">
        <ele>205</ele>
        <time>2016-10-20T07:53:52Z</time>
      </trkpt>
      <trkpt lat="50.50945" lon="5.33879">
        <ele>205</ele>
        <time>2016-10-20T07:55:52Z</time>
      </trkpt>
      <trkpt lat="50.5094" lon="5.33871">
        <ele>204</ele>
        <time>2016-10-20T07:57:52Z</time>
      </trkpt>
      <trkpt lat="50.50936" lon="5.33862">
        <ele>204</ele>
        <time>2016-10-20T07:59:52Z</time>
      </trkpt>
      <trkpt lat="50.50922" lon="5.33828">
        <ele>203</ele>
        <time>2016-10-20T08:01:52Z</time>
      </trkpt>
      <trkpt lat="50.50914" lon="5.33811">
        <ele>204</ele>
        <time>2016-10-20T08:03:52Z</time>
      </trkpt>
      <trkpt lat="50.509" lon="5.33775">
        <ele>207</ele>
        <time>2016-10-20T08:05:52Z</time>
      </trkpt>
      <trkpt lat="50.50888" lon="5.33748">
        <ele>208</ele>
        <time>2016-10-20T08:07:52Z</time>
      </trkpt>
      <trkpt lat="50.50881" lon="5.3373">
        <ele>208</ele>
        <time>2016-10-20T08:09:52Z</time>
      </trkpt>
      <trkpt lat="50.50873" lon="5.33711">
        <ele>208</ele>
        <time>2016-10-20T08:11:52Z</time>
      </trkpt>
      <trkpt lat="50.50866" lon="5.33693">
        <ele>207</ele>
        <time>2016-10-20T08:13:52Z</time>
      </trkpt>
      <trkpt lat="50.50858" lon="5.33676">
        <ele>206</ele>
        <time>2016-10-20T08:15:52Z</time>
      </trkpt>
      <trkpt lat="50.50847" lon="5.33649">
        <ele>205</ele>
        <time>2016-10-20T08:17:52Z</time>
      </trkpt>
      <trkpt lat="50.5084" lon="5.3363">
        <ele>206</ele>
        <time>2016-10-20T08:19:52Z</time>
      </trkpt>
      <trkpt lat="50.50832" lon="5.33611">
        <ele>206</ele>
        <time>2016-10-20T08:21:52Z</time>
      </trkpt>
      <trkpt lat="50.50825" lon="5.33593">
        <ele>206</ele>
        <time>2016-10-20T08:23:52Z</time>
      </trkpt>
      <trkpt lat="50.50821" lon="5.33584">
        <ele>207</ele>
        <time>2016-10-20T08:25:52Z</time>
      </trkpt>
      <trkpt lat="50.50815" lon="5.33567">
        <ele>207</ele>
        <time>2016-10-20T08:27:52Z</time>
      </trkpt>
      <trkpt lat="50.50806" lon="5.33536">
        <ele>207</ele>
        <time>2016-10-20T08:29:52Z</time>
      </trkpt>
      <trkpt lat="50.508" lon="5.33505">
        <ele>207</ele>
        <time>2016-10-20T08:31:52Z</time>
      </trkpt>
      <trkpt lat="50.50794" lon="5.33477">
        <ele>208</ele>
        <time>2016-10-20T08:33:52Z</time>
      </trkpt>
      <trkpt lat="50.50789" lon="5.33455">
        <ele>209</ele>
        <time>2016-10-20T08:35:52Z</time>
      </trkpt>
      <trkpt lat="50.50781" lon="5.33417">
        <ele>211</ele>
        <time>2016-10-20T08:37:52Z</time>
      </trkpt>
      <trkpt lat="50.50773" lon="5.3339">
        <ele>211</ele>
        <time>2016-10-20T08:39:52Z</time>
      </trkpt>
      <trkpt lat="50.50766" lon="5.33375">
        <ele>211</ele>
        <time>2016-10-20T08:41:52Z</time>
      </trkpt>
      <trkpt lat="50.50761" lon="5.33365">
        <ele>211</ele>
        <time>2016-10-20T08:43:52Z</time>
      </trkpt>
      <trkpt lat="50.50758" lon="5.33357">
        <ele>211</ele>
        <time>2016-10-20T08:45:52Z</time>
      </trkpt>
      <trkpt lat="50.50735" lon="5.33311">
        <ele>214</ele>
        <time>2016-10-20T08:47:52Z</time>
      </trkpt>
      <trkpt lat="50.50726" lon="5.33295">
        <ele>215</ele>
        <time>2016-10-20T08:49:52Z</time>
      </trkpt>
      <trkpt lat="50.50717" lon="5.33281">
        <ele>216</ele>
        <time>2016-10-20T08:51:52Z</time>
      </trkpt>
      <trkpt lat="50.50708" lon="5.3327">
        <ele>216</ele>
        <time>2016-10-20T08:53:52Z</time>
      </trkpt>
      <trkpt lat="50.50697" lon="5.33261">
        <ele>216</ele>
        <time>2016-10-20T08:55:52Z</time>
      </trkpt>
      <trkpt lat="50.50685" lon="5.33252">
        <ele>215</ele>
        <time>2016-10-20T08:57:52Z</time>
      </trkpt>
      <trkpt lat="50.50679" lon="5.33247">
        <ele>215</ele>
        <time>2016-10-20T08:59:52Z</time>
      </trkpt>
      <trkpt lat="50.50646" lon="5.33225">
        <ele>215</ele>
        <time>2016-10-20T09:01:52Z</time>
      </trkpt>
      <trkpt lat="50.50627" lon="5.33209">
        <ele>216</ele>
        <time>2016-10-20T09:03:52Z</time>
      </trkpt>
      <trkpt lat="50.50618" lon="5.33199">
        <ele>216</ele>
        <time>2016-10-20T09:05:52Z</time>
      </trkpt>
      <trkpt lat="50.50611" lon="5.33189">
        <ele>217</ele>
        <time>2016-10-20T09:07:52Z</time>
      </trkpt>
      <trkpt lat="50.50602" lon="5.33171">
        <ele>217</ele>
        <time>2016-10-20T09:09:52Z</time>
      </trkpt>
      <trkpt lat="50.50594" lon="5.33147">
        <ele>217</ele>
        <time>2016-10-20T09:11:52Z</time>
      </trkpt>
      <trkpt lat="50.5058" lon="5.33107">
        <ele>217</ele>
        <time>2016-10-20T09:13:52Z</time>
      </trkpt>
      <trkpt lat="50.50558" lon="5.33039">
        <ele>220</ele>
        <time>2016-10-20T09:15:52Z</time>
      </trkpt>
      <trkpt lat="50.50531" lon="5.32957">
        <ele>223</ele>
        <time>2016-10-20T09:17:52Z</time>
      </trkpt>
      <trkpt lat="50.50515" lon="5.32907">
        <ele>224</ele>
        <time>2016-10-20T09:19:52Z</time>
      </trkpt>
      <trkpt lat="50.50507" lon="5.32879">
        <ele>224</ele>
        <time>2016-10-20T09:21:52Z</time>
      </trkpt>
      <trkpt lat="50.50504" lon="5.32871">
        <ele>224</ele>
        <time>2016-10-20T09:23:52Z</time>
      </trkpt>
      <trkpt lat="50.50499" lon="5.32866">
        <ele>224</ele>
        <time>2016-10-20T09:25:52Z</time>
      </trkpt>
      <trkpt lat="50.50494" lon="5.32816">
        <ele>224</ele>
        <time>2016-10-20T09:27:52Z</time>
      </trkpt>
      <trkpt lat="50.50495" lon="5.32754">
        <ele>222</ele>
        <time>2016-10-20T09:29:52Z</time>
      </trkpt>
      <trkpt lat="50.50506" lon="5.32692">
        <ele>222</ele>
        <time>2016-10-20T09:31:52Z</time>
      </trkpt>
      <trkpt lat="50.50452" lon="5.32672">
        <ele>223</ele>
        <time>2016-10-20T09:33:52Z</time>
      </trkpt>
      <trkpt lat="50.50318" lon="5.32605">
        <ele>234</ele>
        <time>2016-10-20T09:35:52Z</time>
      </trkpt>
      <trkpt lat="50.50303" lon="5.32599">
        <ele>234</ele>
        <time>2016-10-20T09:37:52Z</time>
      </trkpt>
      <trkpt lat="50.50262" lon="5.32596">
        <ele>237</ele>
        <time>2016-10-20T09:39:52Z</time>
      </trkpt>
      <trkpt lat="50.50182" lon="5.32604">
        <ele>240</ele>
        <time>2016-10-20T09:41:52Z</time>
      </trkpt>
      <trkpt lat="50.50136" lon="5.32605">
        <ele>240</ele>
        <time>2016-10-20T09:43:52Z</time>
      </trkpt>
      <trkpt lat="50.50096" lon="5.32602">
        <ele>240</ele>
        <time>2016-10-20T09:45:52Z</time>
      </trkpt>
      <trkpt lat="50.50069" lon="5.32598">
        <ele>239</ele>
        <time>2016-10-20T09:47:52Z</time>
      </trkpt>
      <trkpt lat="50.50042" lon="5.32592">
        <ele>239</ele>
        <time>2016-10-20T09:49:52Z</time>
      </trkpt>
      <trkpt lat="50.5002" lon="5.32589">
        <ele>239</ele>
        <time>2016-10-20T09:51:52Z</time>
      </trkpt>
      <trkpt lat="50.49989" lon="5.32584">
        <ele>239</ele>
        <time>2016-10-20T09:53:52Z</time>
      </trkpt>
      <trkpt lat="50.49941" lon="5.32574">
        <ele>239</ele>
        <time>2016-10-20T09:55:52Z</time>
      </trkpt>
      <trkpt lat="50.49899" lon="5.32564">
        <ele>240</ele>
        <time>2016-10-20T09:57:52Z</time>
      </trkpt>
      <trkpt lat="50.49797" lon="5.32544">
        <ele>243</ele>
        <time>2016-10-20T09:59:52Z</time>
      </trkpt>
      <trkpt lat="50.49734" lon="5.32533">
        <ele>246</ele>
        <time>2016-10-20T10:01:52Z</time>
      </trkpt>
      <trkpt lat="50.49678" lon="5.32526">
        <ele>248</ele>
        <time>2016-10-20T10:03:52Z</time>
      </trkpt>
      <trkpt lat="50.49608" lon="5.32519">
        <ele>251</ele>
        <time>2016-10-20T10:05:52Z</time>
      </trkpt>
      <trkpt lat="50.49549" lon="5.32512">
        <ele>253</ele>
        <time>2016-10-20T10:07:52Z</time>
      </trkpt>
      <trkpt lat="50.49424" lon="5.32496">
        <ele>257</ele>
        <time>2016-10-20T10:09:52Z</time>
      </trkpt>
      <trkpt lat="50.49421" lon="5.32495">
        <ele>257</ele>
        <time>2016-10-20T10:11:52Z</time>
      </trkpt>
      <trkpt lat="50.49417" lon="5.32491">
        <ele>257</ele>
        <time>2016-10-20T10:13:52Z</time>
      </trkpt>
      <trkpt lat="50.49416" lon="5.32488">
        <ele>257</ele>
        <time>2016-10-20T10:15:52Z</time>
      </trkpt>
      <trkpt lat="50.49408" lon="5.32497">
        <ele>257</ele>
        <time>2016-10-20T10:17:52Z</time>
      </trkpt>
      <trkpt lat="50.49401" lon="5.32494">
        <ele>257</ele>
        <time>2016-10-20T10:19:52Z</time>
      </trkpt>
      <trkpt lat="50.49387" lon="5.32487">
        <ele>257</ele>
        <time>2016-10-20T10:21:52Z</time>
      </trkpt>
      <trkpt lat="50.49355" lon="5.32477">
        <ele>258</ele>
        <time>2016-10-20T10:23:52Z</time>
      </trkpt>
      <trkpt lat="50.49342" lon="5.32474">
        <ele>258</ele>
        <time>2016-10-20T10:25:52Z</time>
      </trkpt>
      <trkpt lat="50.49314" lon="5.32474">
        <ele>260</ele>
        <time>2016-10-20T10:27:52Z</time>
      </trkpt>
      <trkpt lat="50.49299" lon="5.32476">
        <ele>260</ele>
        <time>2016-10-20T10:29:52Z</time>
      </trkpt>
      <trkpt lat="50.49275" lon="5.32483">
        <ele>262</ele>
        <time>2016-10-20T10:31:52Z</time>
      </trkpt>
      <trkpt lat="50.49252" lon="5.32491">
        <ele>264</ele>
        <time>2016-10-20T10:33:52Z</time>
      </trkpt>
      <trkpt lat="50.4919" lon="5.32518">
        <ele>266</ele>
        <time>2016-10-20T10:35:52Z</time>
      </trkpt>
      <trkpt lat="50.49139" lon="5.32536">
        <ele>267</ele>
        <time>2016-10-20T10:37:52Z</time>
      </trkpt>
      <trkpt lat="50.49135" lon="5.32524">
        <ele>267</ele>
        <time>2016-10-20T10:39:52Z</time>
      </trkpt>
      <trkpt lat="50.49131" lon="5.32501">
        <ele>267</ele>
        <time>2016-10-20T10:41:52Z</time>
      </trkpt>
      <trkpt lat="50.49127" lon="5.32471">
        <ele>267</ele>
        <time>2016-10-20T10:43:52Z</time>
      </trkpt>
      <trkpt lat="50.49112" lon="5.32385">
        <ele>267</ele>
        <time>2016-10-20T10:45:52Z</time>
      </trkpt>
      <trkpt lat="50.49111" lon="5.32382">
        <ele>267</ele>
        <time>2016-10-20T10:47:52Z</time>
      </trkpt>
      <trkpt lat="50.49108" lon="5.32359">
        <ele>267</ele>
        <time>2016-10-20T10:49:52Z</time>
      </trkpt>
      <trkpt lat="50.49099" lon="5.32314">
        <ele>267</ele>
        <time>2016-10-20T10:51:52Z</time>
      </trkpt>
      <trkpt lat="50.49096" lon="5.32298">
        <ele>267</ele>
        <time>2016-10-20T10:53:52Z</time>
      </trkpt>
      <trkpt lat="50.49067" lon="5.3231">
        <ele>268</ele>
        <time>2016-10-20T10:55:52Z</time>
      </trkpt>
      <trkpt lat="50.49059" lon="5.32311">
        <ele>268</ele>
        <time>2016-10-20T10:57:52Z</time>
      </trkpt>
      <trkpt lat="50.49054" lon="5.32307">
        <ele>268</ele>
        <time>2016-10-20T10:59:52Z</time>
      </trkpt>
      <trkpt lat="50.49046" lon="5.32317">
        <ele>268</ele>
        <time>2016-10-20T11:01:52Z</time>
      </trkpt>
      <trkpt lat="50.49033" lon="5.32328">
        <ele>269</ele>
        <time>2016-10-20T11:03:52Z</time>
      </trkpt>
      <trkpt lat="50.49024" lon="5.32333">
        <ele>269</ele>
        <time>2016-10-20T11:05:52Z</time>
      </trkpt>
      <trkpt lat="50.48977" lon="5.32339">
        <ele>268</ele>
        <time>2016-10-20T11:07:52Z</time>
      </trkpt>
      <trkpt lat="50.48949" lon="5.32339">
        <ele>267</ele>
        <time>2016-10-20T11:09:52Z</time>
      </trkpt>
      <trkpt lat="50.48931" lon="5.32341">
        <ele>266</ele>
        <time>2016-10-20T11:11:52Z</time>
      </trkpt>
      <trkpt lat="50.48919" lon="5.32343">
        <ele>266</ele>
        <time>2016-10-20T11:13:52Z</time>
      </trkpt>
      <trkpt lat="50.48912" lon="5.32347">
        <ele>265</ele>
        <time>2016-10-20T11:15:52Z</time>
      </trkpt>
      <trkpt lat="50.48905" lon="5.32355">
        <ele>264</ele>
        <time>2016-10-20T11:17:52Z</time>
      </trkpt>
      <trkpt lat="50.48896" lon="5.32368">
        <ele>263</ele>
        <time>2016-10-20T11:19:52Z</time>
      </trkpt>
      <trkpt lat="50.48867" lon="5.3243">
        <ele>259</ele>
        <time>2016-10-20T11:21:52Z</time>
      </trkpt>
      <trkpt lat="50.48859" lon="5.32444">
        <ele>258</ele>
        <time>2016-10-20T11:23:52Z</time>
      </trkpt>
      <trkpt lat="50.48792" lon="5.32542">
        <ele>250</ele>
        <time>2016-10-20T11:25:52Z</time>
      </trkpt>
      <trkpt lat="50.48772" lon="5.32579">
        <ele>247</ele>
        <time>2016-10-20T11:27:52Z</time>
      </trkpt>
      <trkpt lat="50.48764" lon="5.32595">
        <ele>246</ele>
        <time>2016-10-20T11:29:52Z</time>
      </trkpt>
      <trkpt lat="50.48756" lon="5.32614">
        <ele>245</ele>
        <time>2016-10-20T11:31:52Z</time>
      </trkpt>
      <trkpt lat="50.48749" lon="5.32643">
        <ele>245</ele>
        <time>2016-10-20T11:33:52Z</time>
      </trkpt>
      <trkpt lat="50.48744" lon="5.3266">
        <ele>244</ele>
        <time>2016-10-20T11:35:52Z</time>
      </trkpt>
      <trkpt lat="50.48732" lon="5.32662">
        <ele>244</ele>
        <time>2016-10-20T11:37:52Z</time>
      </trkpt>
      <trkpt lat="50.48659" lon="5.32683">
        <ele>241</ele>
        <time>2016-10-20T11:39:52Z</time>
      </trkpt>
      <trkpt lat="50.48617" lon="5.32697">
        <ele>241</ele>
        <time>2016-10-20T11:41:52Z</time>
      </trkpt>
      <trkpt lat="50.48568" lon="5.32714">
        <ele>241</ele>
        <time>2016-10-20T11:43:52Z</time>
      </trkpt>
      <trkpt lat="50.48517" lon="5.32731">
        <ele>242</ele>
        <time>2016-10-20T11:45:52Z</time>
      </trkpt>
      <trkpt lat="50.48419" lon="5.32765">
        <ele>244</ele>
        <time>2016-10-20T11:47:52Z</time>
      </trkpt>
      <trkpt lat="50.48374" lon="5.32781">
        <ele>245</ele>
        <time>2016-10-20T11:49:52Z</time>
      </trkpt>
      <trkpt lat="50.48323" lon="5.32798">
        <ele>246</ele>
        <time>2016-10-20T11:51:52Z</time>
      </trkpt>
      <trkpt lat="50.48264" lon="5.32817">
        <ele>247</ele>
        <time>2016-10-20T11:53:52Z</time>
      </trkpt>
      <trkpt lat="50.48192" lon="5.32841">
        <ele>248</ele>
        <time>2016-10-20T11:55:52Z</time>
      </trkpt>
      <trkpt lat="50.48096" lon="5.32875">
        <ele>250</ele>
        <time>2016-10-20T11:57:52Z</time>
      </trkpt>
      <trkpt lat="50.48045" lon="5.3289">
        <ele>251</ele>
        <time>2016-10-20T11:59:52Z</time>
      </trkpt>
      <trkpt lat="50.47967" lon="5.32916">
        <ele>256</ele>
        <time>2016-10-20T12:01:52Z</time>
      </trkpt>
      <trkpt lat="50.47899" lon="5.3294">
        <ele>262</ele>
        <time>2016-10-20T12:03:52Z</time>
      </trkpt>
      <trkpt lat="50.47869" lon="5.3295">
        <ele>264</ele>
        <time>2016-10-20T12:05:52Z</time>
      </trkpt>
      <trkpt lat="50.47848" lon="5.32958">
        <ele>265</ele>
        <time>2016-10-20T12:07:52Z</time>
      </trkpt>
      <trkpt lat="50.47818" lon="5.32966">
        <ele>267</ele>
        <time>2016-10-20T12:09:52Z</time>
      </trkpt>
      <trkpt lat="50.47789" lon="5.32977">
        <ele>269</ele>
        <time>2016-10-20T12:11:52Z</time>
      </trkpt>
      <trkpt lat="50.47763" lon="5.32985">
        <ele>271</ele>
        <time>2016-10-20T12:13:52Z</time>
      </trkpt>
      <trkpt lat="50.47738" lon="5.32994">
        <ele>273</ele>
        <time>2016-10-20T12:15:52Z</time>
      </trkpt>
      <trkpt lat="50.47725" lon="5.32998">
        <ele>274</ele>
        <time>2016-10-20T12:17:52Z</time>
      </trkpt>
      <trkpt lat="50.47711" lon="5.33005">
        <ele>275</ele>
        <time>2016-10-20T12:19:52Z</time>
      </trkpt>
      <trkpt lat="50.4767" lon="5.33019">
        <ele>277</ele>
        <time>2016-10-20T12:21:52Z</time>
      </trkpt>
      <trkpt lat="50.47648" lon="5.33026">
        <ele>277</ele>
        <time>2016-10-20T12:23:52Z</time>
      </trkpt>
      <trkpt lat="50.47625" lon="5.33034">
        <ele>276</ele>
        <time>2016-10-20T12:25:52Z</time>
      </trkpt>
      <trkpt lat="50.47564" lon="5.33051">
        <ele>273</ele>
        <time>2016-10-20T12:27:52Z</time>
      </trkpt>
      <trkpt lat="50.47544" lon="5.33056">
        <ele>271</ele>
        <time>2016-10-20T12:29:52Z</time>
      </trkpt>
      <trkpt lat="50.47352" lon="5.33117">
        <ele>262</ele>
        <time>2016-10-20T12:31:52Z</time>
      </trkpt>
      <trkpt lat="50.47236" lon="5.3316">
        <ele>262</ele>
        <time>2016-10-20T12:33:52Z</time>
      </trkpt>
      <trkpt lat="50.47183" lon="5.33186">
        <ele>261</ele>
        <time>2016-10-20T12:35:52Z</time>
      </trkpt>
      <trkpt lat="50.47156" lon="5.33198">
        <ele>261</ele>
        <time>2016-10-20T12:37:52Z</time>
      </trkpt>
      <trkpt lat="50.47128" lon="5.33205">
        <ele>261</ele>
        <time>2016-10-20T12:39:52Z</time>
      </trkpt>
      <trkpt lat="50.47032" lon="5.3322">
        <ele>261</ele>
        <time>2016-10-20T12:41:52Z</time>
      </trkpt>
      <trkpt lat="50.46963" lon="5.33239">
        <ele>262</ele>
        <time>2016-10-20T12:43:52Z</time>
      </trkpt>
      <trkpt lat="50.46904" lon="5.33252">
        <ele>264</ele>
        <time>2016-10-20T12:45:52Z</time>
      </trkpt>
      <trkpt lat="50.4676" lon="5.33293">
        <ele>275</ele>
        <time>2016-10-20T12:47:52Z</time>
      </trkpt>
      <trkpt lat="50.46723" lon="5.33308">
        <ele>277</ele>
        <time>2016-10-20T12:49:52Z</time>
      </trkpt>
      <trkpt lat="50.46697" lon="5.33325">
        <ele>277</ele>
        <time>2016-10-20T12:51:52Z</time>
      </trkpt>
      <trkpt lat="50.46691" lon="5.33339">
        <ele>278</ele>
        <time>2016-10-20T12:53:52Z</time>
      </trkpt>
      <trkpt lat="50.46682" lon="5.33357">
        <ele>277</ele>
        <time>2016-10-20T12:55:52Z</time>
      </trkpt>
      <trkpt lat="50.4667" lon="5.3337">
        <ele>277</ele>
        <time>2016-10-20T12:57:52Z</time>
      </trkpt>
      <trkpt lat="50.46645" lon="5.33392">
        <ele>275</ele>
        <time>2016-10-20T12:59:52Z</time>
      </trkpt>
      <trkpt lat="50.46638" lon="5.334">
        <ele>274</ele>
        <time>2016-10-20T13:01:52Z</time>
      </trkpt>
      <trkpt lat="50.46632" lon="5.3341">
        <ele>273</ele>
        <time>2016-10-20T13:03:52Z</time>
      </trkpt>
      <trkpt lat="50.46623" lon="5.33435">
        <ele>272</ele>
        <time>2016-10-20T13:05:52Z</time>
      </trkpt>
      <trkpt lat="50.46604" lon="5.33515">
        <ele>268</ele>
        <time>2016-10-20T13:07:52Z</time>
      </trkpt>
      <trkpt lat="50.46596" lon="5.33531">
        <ele>267</ele>
        <time>2016-10-20T13:09:52Z</time>
      </trkpt>
      <trkpt lat="50.46588" lon="5.33545">
        <ele>266</ele>
        <time>2016-10-20T13:11:52Z</time>
      </trkpt>
      <trkpt lat="50.46573" lon="5.33559">
        <ele>266</ele>
        <time>2016-10-20T13:13:52Z</time>
      </trkpt>
      <trkpt lat="50.46558" lon="5.33571">
        <ele>265</ele>
        <time>2016-10-20T13:15:52Z</time>
      </trkpt>
      <trkpt lat="50.46536" lon="5.33587">
        <ele>264</ele>
        <time>2016-10-20T13:17:52Z</time>
      </trkpt>
      <trkpt lat="50.4652" lon="5.33595">
        <ele>263</ele>
        <time>2016-10-20T13:19:52Z</time>
      </trkpt>
      <trkpt lat="50.46484" lon="5.33614">
        <ele>261</ele>
        <time>2016-10-20T13:21:52Z</time>
      </trkpt>
      <trkpt lat="50.46438" lon="5.33639">
        <ele>259</ele>
        <time>2016-10-20T13:23:52Z</time>
      </trkpt>
      <trkpt lat="50.46165" lon="5.33817">
        <ele>256</ele>
        <time>2016-10-20T13:25:52Z</time>
      </trkpt>
      <trkpt lat="50.46141" lon="5.33835">
        <ele>259</ele>
        <time>2016-10-20T13:27:52Z</time>
      </trkpt>
      <trkpt lat="50.46103" lon="5.33869">
        <ele>263</ele>
        <time>2016-10-20T13:29:52Z</time>
      </trkpt>
      <trkpt lat="50.46076" lon="5.33889">
        <ele>266</ele>
        <time>2016-10-20T13:31:52Z</time>
      </trkpt>
      <trkpt lat="50.4606" lon="5.33899">
        <ele>269</ele>
        <time>2016-10-20T13:33:52Z</time>
      </trkpt>
      <trkpt lat="50.45975" lon="5.33944">
        <ele>278</ele>
        <time>2016-10-20T13:35:52Z</time>
      </trkpt>
      <trkpt lat="50.4596" lon="5.33955">
        <ele>279</ele>
        <time>2016-10-20T13:37:52Z</time>
      </trkpt>
      <trkpt lat="50.45947" lon="5.33968">
        <ele>280</ele>
        <time>2016-10-20T13:39:52Z</time>
      </trkpt>
      <trkpt lat="50.45914" lon="5.34005">
        <ele>283</ele>
        <time>2016-10-20T13:41:52Z</time>
      </trkpt>
      <trkpt lat="50.45818" lon="5.34138">
        <ele>276</ele>
        <time>2016-10-20T13:43:52Z</time>
      </trkpt>
      <trkpt lat="50.45783" lon="5.3418">
        <ele>269</ele>
        <time>2016-10-20T13:45:52Z</time>
      </trkpt>
      <trkpt lat="50.45745" lon="5.34225">
        <ele>261</ele>
        <time>2016-10-20T13:47:52Z</time>
      </trkpt>
      <trkpt lat="50.45666" lon="5.34332">
        <ele>254</ele>
        <time>2016-10-20T13:49:52Z</time>
      </trkpt>
      <trkpt lat="50.45612" lon="5.3441">
        <ele>252</ele>
        <time>2016-10-20T13:51:52Z</time>
      </trkpt>
      <trkpt lat="50.45589" lon="5.34437">
        <ele>251</ele>
        <time>2016-10-20T13:53:52Z</time>
      </trkpt>
      <trkpt lat="50.45559" lon="5.34461">
        <ele>250</ele>
        <time>2016-10-20T13:55:52Z</time>
      </trkpt>
      <trkpt lat="50.45439" lon="5.34528">
        <ele>252</ele>
        <time>2016-10-20T13:57:52Z</time>
      </trkpt>
      <trkpt lat="50.45282" lon="5.34628">
        <ele>258</ele>
        <time>2016-10-20T13:59:52Z</time>
      </trkpt>
      <trkpt lat="50.45268" lon="5.34636">
        <ele>258</ele>
        <time>2016-10-20T14:01:52Z</time>
      </trkpt>
      <trkpt lat="50.45241" lon="5.34643">
        <ele>258</ele>
        <time>2016-10-20T14:03:52Z</time>
      </trkpt>
      <trkpt lat="50.45228" lon="5.34646">
        <ele>257</ele>
        <time>2016-10-20T14:05:52Z</time>
      </trkpt>
      <trkpt lat="50.45147" lon="5.34662">
        <ele>255</ele>
        <time>2016-10-20T14:07:52Z</time>
      </trkpt>
      <trkpt lat="50.45023" lon="5.34685">
        <ele>252</ele>
        <time>2016-10-20T14:09:52Z</time>
      </trkpt>
      <trkpt lat="50.44967" lon="5.34698">
        <ele>252</ele>
        <time>2016-10-20T14:11:52Z</time>
      </trkpt>
      <trkpt lat="50.4485" lon="5.34722">
        <ele>251</ele>
        <time>2016-10-20T14:13:52Z</time>
      </trkpt>
      <trkpt lat="50.44591" lon="5.34805">
        <ele>249</ele>
        <time>2016-10-20T14:15:52Z</time>
      </trkpt>
      <trkpt lat="50.44482" lon="5.34842">
        <ele>245</ele>
        <time>2016-10-20T14:17:52Z</time>
      </trkpt>
      <trkpt lat="50.44455" lon="5.34825">
        <ele>244</ele>
        <time>2016-10-20T14:19:52Z</time>
      </trkpt>
      <trkpt lat="50.44439" lon="5.34821">
        <ele>244</ele>
        <time>2016-10-20T14:21:52Z</time>
      </trkpt>
      <trkpt lat="50.44432" lon="5.34821">
        <ele>244</ele>
        <time>2016-10-20T14:23:52Z</time>
      </trkpt>
      <trkpt lat="50.44425" lon="5.3482">
        <ele>243</ele>
        <time>2016-10-20T14:25:52Z</time>
      </trkpt>
      <trkpt lat="50.44417" lon="5.34821">
        <ele>243</ele>
        <time>2016-10-20T14:27:52Z</time>
      </trkpt>
      <trkpt lat="50.4434" lon="5.34807">
        <ele>242</ele>
        <time>2016-10-20T14:29:52Z</time>
      </trkpt>
      <trkpt lat="50.44249" lon="5.34791">
        <ele>240</ele>
        <time>2016-10-20T14:31:52Z</time>
      </trkpt>
      <trkpt lat="50.43996" lon="5.34752">
        <ele>240</ele>
        <time>2016-10-20T14:33:52Z</time>
      </trkpt>
      <trkpt lat="50.43982" lon="5.34751">
        <ele>240</ele>
        <time>2016-10-20T14:35:52Z</time>
      </trkpt>
      <trkpt lat="50.43963" lon="5.34754">
        <ele>240</ele>
        <time>2016-10-20T14:37:52Z</time>
      </trkpt>
      <trkpt lat="50.43959" lon="5.34751">
        <ele>240</ele>
        <time>2016-10-20T14:39:52Z</time>
      </trkpt>
      <trkpt lat="50.43951" lon="5.34747">
        <ele>239</ele>
        <time>2016-10-20T14:41:52Z</time>
      </trkpt>
      <trkpt lat="50.43932" lon="5.34741">
        <ele>239</ele>
        <time>2016-10-20T14:43:52Z</time>
      </trkpt>
      <trkpt lat="50.43907" lon="5.34735">
        <ele>239</ele>
        <time>2016-10-20T14:45:52Z</time>
      </trkpt>
      <trkpt lat="50.43902" lon="5.34735">
        <ele>239</ele>
        <time>2016-10-20T14:47:52Z</time>
      </trkpt>
      <trkpt lat="50.43899" lon="5.34736">
        <ele>239</ele>
        <time>2016-10-20T14:49:52Z</time>
      </trkpt>
      <trkpt lat="50.43897" lon="5.34736">
        <ele>239</ele>
        <time>2016-10-20T14:51:52Z</time>
      </trkpt>
      <trkpt lat="50.43896" lon="5.34737">
        <ele>239</ele>
        <time>2016-10-20T14:53:52Z</time>
      </trkpt>
      <trkpt lat="50.43885" lon="5.34734">
        <ele>239</ele>
        <time>2016-10-20T14:55:52Z</time>
      </trkpt>
      <trkpt lat="50.43771" lon="5.34714">
        <ele>240</ele>
        <time>2016-10-20T14:57:52Z</time>
      </trkpt>
      <trkpt lat="50.43015" lon="5.34585">
        <ele>244</ele>
        <time>2016-10-20T14:59:52Z</time>
      </trkpt>
      <trkpt lat="50.42953" lon="5.34575">
        <ele>247</ele>
        <time>2016-10-20T15:01:52Z</time>
      </trkpt>
      <trkpt lat="50.42923" lon="5.34555">
        <ele>248</ele>
        <time>2016-10-20T15:03:52Z</time>
      </trkpt>
      <trkpt lat="50.42919" lon="5.34579">
        <ele>248</ele>
        <time>2016-10-20T15:05:52Z</time>
      </trkpt>
      <trkpt lat="50.42914" lon="5.34598">
        <ele>248</ele>
        <time>2016-10-20T15:07:52Z</time>
      </trkpt>
      <trkpt lat="50.42908" lon="5.34626">
        <ele>248</ele>
        <time>2016-10-20T15:09:52Z</time>
      </trkpt>
      <trkpt lat="50.42904" lon="5.34639">
        <ele>248</ele>
        <time>2016-10-20T15:11:52Z</time>
      </trkpt>
      <trkpt lat="50.42899" lon="5.3466">
        <ele>248</ele>
        <time>2016-10-20T15:13:52Z</time>
      </trkpt>
      <trkpt lat="50.42893" lon="5.34679">
        <ele>248</ele>
        <time>2016-10-20T15:15:52Z</time>
      </trkpt>
      <trkpt lat="50.4289" lon="5.34693">
        <ele>248</ele>
        <time>2016-10-20T15:17:52Z</time>
      </trkpt>
      <trkpt lat="50.42884" lon="5.34717">
        <ele>248</ele>
        <time>2016-10-20T15:19:52Z</time>
      </trkpt>
      <trkpt lat="50.42849" lon="5.34866">
        <ele>249</ele>
        <time>2016-10-20T15:21:52Z</time>
      </trkpt>
      <trkpt lat="50.42836" lon="5.34918">
        <ele>251</ele>
        <time>2016-10-20T15:23:52Z</time>
      </trkpt>
      <trkpt lat="50.42747" lon="5.35299">
        <ele>256</ele>
        <time>2016-10-20T15:25:52Z</time>
      </trkpt>
      <trkpt lat="50.42744" lon="5.3531">
        <ele>256</ele>
        <time>2016-10-20T15:27:52Z</time>
      </trkpt>
      <trkpt lat="50.42644" lon="5.35723">
        <ele>262</ele>
        <time>2016-10-20T15:29:52Z</time>
      </trkpt>
      <trkpt lat="50.42635" lon="5.35752">
        <ele>261</ele>
        <time>2016-10-20T15:31:52Z</time>
      </trkpt>
      <trkpt lat="50.42625" lon="5.35776">
        <ele>261</ele>
        <time>2016-10-20T15:33:52Z</time>
      </trkpt>
      <trkpt lat="50.42471" lon="5.36089">
        <ele>260</ele>
        <time>2016-10-20T15:35:52Z</time>
      </trkpt>
      <trkpt lat="50.4232" lon="5.36398">
        <ele>260</ele>
        <time>2016-10-20T15:37:52Z</time>
      </trkpt>
      <trkpt lat="50.42269" lon="5.36503">
        <ele>260</ele>
        <time>2016-10-20T15:39:52Z</time>
      </trkpt>
      <trkpt lat="50.42244" lon="5.36556">
        <ele>260</ele>
        <time>2016-10-20T15:41:52Z</time>
      </trkpt>
      <trkpt lat="50.42192" lon="5.3666">
        <ele>261</ele>
        <time>2016-10-20T15:43:52Z</time>
      </trkpt>
      <trkpt lat="50.42182" lon="5.36681">
        <ele>261</ele>
        <time>2016-10-20T15:45:52Z</time>
      </trkpt>
      <trkpt lat="50.42168" lon="5.36714">
        <ele>262</ele>
        <time>2016-10-20T15:47:52Z</time>
      </trkpt>
      <trkpt lat="50.42152" lon="5.36758">
        <ele>262</ele>
        <time>2016-10-20T15:49:52Z</time>
      </trkpt>
      <trkpt lat="50.42102" lon="5.36972">
        <ele>267</ele>
        <time>2016-10-20T15:51:52Z</time>
      </trkpt>
      <trkpt lat="50.42079" lon="5.37094">
        <ele>272</ele>
        <time>2016-10-20T15:53:52Z</time>
      </trkpt>
      <trkpt lat="50.42043" lon="5.37259">
        <ele>278</ele>
        <time>2016-10-20T15:55:52Z</time>
      </trkpt>
      <trkpt lat="50.42031" lon="5.37316">
        <ele>281</ele>
        <time>2016-10-20T15:57:52Z</time>
      </trkpt>
      <trkpt lat="50.42024" lon="5.37339">
        <ele>282</ele>
        <time>2016-10-20T15:59:52Z</time>
      </trkpt>
      <trkpt lat="50.42013" lon="5.37364">
        <ele>283</ele>
        <time>2016-10-20T16:01:52Z</time>
      </trkpt>
      <trkpt lat="50.41998" lon="5.37391">
        <ele>285</ele>
        <time>2016-10-20T16:03:52Z</time>
      </trkpt>
      <trkpt lat="50.41975" lon="5.37426">
        <ele>287</ele>
        <time>2016-10-20T16:05:52Z</time>
      </trkpt>
      <trkpt lat="50.41871" lon="5.37559">
        <ele>295</ele>
        <time>2016-10-20T16:07:52Z</time>
      </trkpt>
      <trkpt lat="50.41841" lon="5.37595">
        <ele>296</ele>
        <time>2016-10-20T16:09:52Z</time>
      </trkpt>
      <trkpt lat="50.41501" lon="5.38031">
        <ele>279</ele>
        <time>2016-10-20T16:11:52Z</time>
      </trkpt>
      <trkpt lat="50.41402" lon="5.38152">
        <ele>285</ele>
        <time>2016-10-20T16:13:52Z</time>
      </trkpt>
      <trkpt lat="50.41368" lon="5.38197">
        <ele>287</ele>
        <time>2016-10-20T16:15:52Z</time>
      </trkpt>
      <trkpt lat="50.4125" lon="5.38345">
        <ele>292</ele>
        <time>2016-10-20T16:17:52Z</time>
      </trkpt>
      <trkpt lat="50.41246" lon="5.38351">
        <ele>292</ele>
        <time>2016-10-20T16:19:52Z</time>
      </trkpt>
      <trkpt lat="50.41207" lon="5.38398">
        <ele>293</ele>
        <time>2016-10-20T16:21:52Z</time>
      </trkpt>
      <trkpt lat="50.41122" lon="5.38507">
        <ele>294</ele>
        <time>2016-10-20T16:23:52Z</time>
      </trkpt>
      <trkpt lat="50.41071" lon="5.38574">
        <ele>294</ele>
        <time>2016-10-20T16:25:52Z</time>
      </trkpt>
      <trkpt lat="50.4101" lon="5.38652">
        <ele>291</ele>
        <time>2016-10-20T16:27:52Z</time>
      </trkpt>
      <trkpt lat="50.40949" lon="5.38728">
        <ele>290</ele>
        <time>2016-10-20T16:29:52Z</time>
      </trkpt>
      <trkpt lat="50.40936" lon="5.38741">
        <ele>290</ele>
        <time>2016-10-20T16:31:52Z</time>
      </trkpt>
      <trkpt lat="50.40919" lon="5.38756">
        <ele>290</ele>
        <time>2016-10-20T16:33:52Z</time>
      </trkpt>
      <trkpt lat="50.40902" lon="5.38766">
        <ele>291</ele>
        <time>2016-10-20T16:35:52Z</time>
      </trkpt>
      <trkpt lat="50.40885" lon="5.38774">
        <ele>291</ele>
        <time>2016-10-20T16:37:52Z</time>
      </trkpt>
      <trkpt lat="50.40853" lon="5.38784">
        <ele>292</ele>
        <time>2016-10-20T16:39:52Z</time>
      </trkpt>
      <trkpt lat="50.40779" lon="5.38793">
        <ele>295</ele>
        <time>2016-10-20T16:41:52Z</time>
      </trkpt>
      <trkpt lat="50.40706" lon="5.38805">
        <ele>300</ele>
        <time>2016-10-20T16:43:52Z</time>
      </trkpt>
      <trkpt lat="50.40679" lon="5.38812">
        <ele>302</ele>
        <time>2016-10-20T16:45:52Z</time>
      </trkpt>
      <trkpt lat="50.40666" lon="5.38818">
        <ele>303</ele>
        <time>2016-10-20T16:47:52Z</time>
      </trkpt>
      <trkpt lat="50.40659" lon="5.38822">
        <ele>304</ele>
        <time>2016-10-20T16:49:52Z</time>
      </trkpt>
      <trkpt lat="50.40515" lon="5.38897">
        <ele>299</ele>
        <time>2016-10-20T16:51:52Z</time>
      </trkpt>
      <trkpt lat="50.40464" lon="5.38924">
        <ele>296</ele>
        <time>2016-10-20T16:53:52Z</time>
      </trkpt>
      <trkpt lat="50.40449" lon="5.38937">
        <ele>295</ele>
        <time>2016-10-20T16:55:52Z</time>
      </trkpt>
      <trkpt lat="50.40436" lon="5.38954">
        <ele>293</ele>
        <time>2016-10-20T16:57:52Z</time>
      </trkpt>
      <trkpt lat="50.40426" lon="5.38975">
        <ele>292</ele>
        <time>2016-10-20T16:59:52Z</time>
      </trkpt>
      <trkpt lat="50.40422" lon="5.38987">
        <ele>292</ele>
        <time>2016-10-20T17:01:52Z</time>
      </trkpt>
      <trkpt lat="50.40418" lon="5.39007">
        <ele>291</ele>
        <time>2016-10-20T17:03:52Z</time>
      </trkpt>
      <trkpt lat="50.40416" lon="5.3903">
        <ele>291</ele>
        <time>2016-10-20T17:05:52Z</time>
      </trkpt>
      <trkpt lat="50.40416" lon="5.39046">
        <ele>290</ele>
        <time>2016-10-20T17:07:52Z</time>
      </trkpt>
      <trkpt lat="50.40418" lon="5.39071">
        <ele>290</ele>
        <time>2016-10-20T17:09:52Z</time>
      </trkpt>
      <trkpt lat="50.40422" lon="5.39098">
        <ele>290</ele>
        <time>2016-10-20T17:11:52Z</time>
      </trkpt>
      <trkpt lat="50.40426" lon="5.39121">
        <ele>289</ele>
        <time>2016-10-20T17:13:52Z</time>
      </trkpt>
      <trkpt lat="50.4043" lon="5.3915">
        <ele>289</ele>
        <time>2016-10-20T17:15:52Z</time>
      </trkpt>
      <trkpt lat="50.40439" lon="5.39211">
        <ele>286</ele>
        <time>2016-10-20T17:17:52Z</time>
      </trkpt>
      <trkpt lat="50.40439" lon="5.39237">
        <ele>285</ele>
        <time>2016-10-20T17:19:52Z</time>
      </trkpt>
      <trkpt lat="50.40437" lon="5.3925">
        <ele>285</ele>
        <time>2016-10-20T17:21:52Z</time>
      </trkpt>
      <trkpt lat="50.40433" lon="5.39271">
        <ele>284</ele>
        <time>2016-10-20T17:23:52Z</time>
      </trkpt>
      <trkpt lat="50.40426" lon="5.39288">
        <ele>284</ele>
        <time>2016-10-20T17:25:52Z</time>
      </trkpt>
      <trkpt lat="50.40417" lon="5.39305">
        <ele>284</ele>
        <time>2016-10-20T17:27:52Z</time>
      </trkpt>
      <trkpt lat="50.40409" lon="5.39316">
        <ele>284</ele>
        <time>2016-10-20T17:29:52Z</time>
      </trkpt>
      <trkpt lat="50.40388" lon="5.39337">
        <ele>282</ele>
        <time>2016-10-20T17:31:52Z</time>
      </trkpt>
      <trkpt lat="50.40318" lon="5.39398">
        <ele>277</ele>
        <time>2016-10-20T17:33:52Z</time>
      </trkpt>
      <trkpt lat="50.40304" lon="5.39408">
        <ele>275</ele>
        <time>2016-10-20T17:35:52Z</time>
      </trkpt>
      <trkpt lat="50.40287" lon="5.39415">
        <ele>274</ele>
        <time>2016-10-20T17:37:52Z</time>
      </trkpt>
      <trkpt lat="50.40268" lon="5.39417">
        <ele>274</ele>
        <time>2016-10-20T17:39:52Z</time>
      </trkpt>
      <trkpt lat="50.40248" lon="5.39416">
        <ele>273</ele>
        <time>2016-10-20T17:41:52Z</time>
      </trkpt>
      <trkpt lat="50.40236" lon="5.39413">
        <ele>273</ele>
        <time>2016-10-20T17:43:52Z</time>
      </trkpt>
      <trkpt lat="50.40226" lon="5.39408">
        <ele>273</ele>
        <time>2016-10-20T17:45:52Z</time>
      </trkpt>
      <trkpt lat="50.40214" lon="5.39401">
        <ele>273</ele>
        <time>2016-10-20T17:47:52Z</time>
      </trkpt>
      <trkpt lat="50.40197" lon="5.39384">
        <ele>273</ele>
        <time>2016-10-20T17:49:52Z</time>
      </trkpt>
      <trkpt lat="50.40166" lon="5.39348">
        <ele>272</ele>
        <time>2016-10-20T17:51:52Z</time>
      </trkpt>
      <trkpt lat="50.40152" lon="5.39324">
        <ele>272</ele>
        <time>2016-10-20T17:53:52Z</time>
      </trkpt>
      <trkpt lat="50.4013" lon="5.39275">
        <ele>271</ele>
        <time>2016-10-20T17:55:52Z</time>
      </trkpt>
      <trkpt lat="50.40118" lon="5.39246">
        <ele>269</ele>
        <time>2016-10-20T17:57:52Z</time>
      </trkpt>
      <trkpt lat="50.40096" lon="5.39214">
        <ele>268</ele>
        <time>2016-10-20T17:59:52Z</time>
      </trkpt>
      <trkpt lat="50.40077" lon="5.39192">
        <ele>266</ele>
        <time>2016-10-20T18:01:52Z</time>
      </trkpt>
      <trkpt lat="50.40064" lon="5.39182">
        <ele>265</ele>
        <time>2016-10-20T18:03:52Z</time>
      </trkpt>
      <trkpt lat="50.40051" lon="5.39181">
        <ele>265</ele>
        <time>2016-10-20T18:05:52Z</time>
      </trkpt>
      <trkpt lat="50.39994" lon="5.39144">
        <ele>263</ele>
        <time>2016-10-20T18:07:52Z</time>
      </trkpt>
      <trkpt lat="50.39936" lon="5.39109">
        <ele>260</ele>
        <time>2016-10-20T18:09:52Z</time>
      </trkpt>
      <trkpt lat="50.39882" lon="5.39075">
        <ele>257</ele>
        <time>2016-10-20T18:11:52Z</time>
      </trkpt>
      <trkpt lat="50.3984" lon="5.39052">
        <ele>255</ele>
        <time>2016-10-20T18:13:52Z</time>
      </trkpt>
      <trkpt lat="50.39821" lon="5.39041">
        <ele>253</ele>
        <time>2016-10-20T18:15:52Z</time>
      </trkpt>
      <trkpt lat="50.3981" lon="5.39033">
        <ele>252</ele>
        <time>2016-10-20T18:17:52Z</time>
      </trkpt>
      <trkpt lat="50.39774" lon="5.39009">
        <ele>249</ele>
        <time>2016-10-20T18:19:52Z</time>
      </trkpt>
      <trkpt lat="50.39742" lon="5.38989">
        <ele>247</ele>
        <time>2016-10-20T18:21:52Z</time>
      </trkpt>
      <trkpt lat="50.39719" lon="5.38974">
        <ele>246</ele>
        <time>2016-10-20T18:23:52Z</time>
      </trkpt>
      <trkpt lat="50.39681" lon="5.38951">
        <ele>245</ele>
        <time>2016-10-20T18:25:52Z</time>
      </trkpt>
      <trkpt lat="50.39672" lon="5.38949">
        <ele>245</ele>
        <time>2016-10-20T18:27:52Z</time>
      </trkpt>
      <trkpt lat="50.39665" lon="5.38948">
        <ele>245</ele>
        <time>2016-10-20T18:29:52Z</time>
      </trkpt>
      <trkpt lat="50.3966" lon="5.38949">
        <ele>246</ele>
        <time>2016-10-20T18:31:52Z</time>
      </trkpt>
      <trkpt lat="50.39655" lon="5.38951">
        <ele>246</ele>
        <time>2016-10-20T18:33:52Z</time>
      </trkpt>
      <trkpt lat="50.3965" lon="5.38955">
        <ele>247</ele>
        <time>2016-10-20T18:35:52Z</time>
      </trkpt>
      <trkpt lat="50.39644" lon="5.38961">
        <ele>247</ele>
        <time>2016-10-20T18:37:52Z</time>
      </trkpt>
      <trkpt lat="50.39638" lon="5.38968">
        <ele>248</ele>
        <time>2016-10-20T18:39:52Z</time>
      </trkpt>
      <trkpt lat="50.39619" lon="5.39007">
        <ele>250</ele>
        <time>2016-10-20T18:41:52Z</time>
      </trkpt>
      <trkpt lat="50.39548" lon="5.39191">
        <ele>251</ele>
        <time>2016-10-20T18:43:52Z</time>
      </trkpt>
      <trkpt lat="50.39541" lon="5.39214">
        <ele>251</ele>
        <time>2016-10-20T18:45:52Z</time>
      </trkpt>
      <trkpt lat="50.39536" lon="5.39251">
        <ele>251</ele>
        <time>2016-10-20T18:47:52Z</time>
      </trkpt>
      <trkpt lat="50.39532" lon="5.39319">
        <ele>250</ele>
        <time>2016-10-20T18:49:52Z</time>
      </trkpt>
      <trkpt lat="50.39537" lon="5.39329">
        <ele>250</ele>
        <time>2016-10-20T18:51:52Z</time>
      </trkpt>
      <trkpt lat="50.39523" lon="5.39346">
        <ele>250</ele>
        <time>2016-10-20T18:53:52Z</time>
      </trkpt>
      <trkpt lat="50.39497" lon="5.39375">
        <ele>251</ele>
        <time>2016-10-20T18:55:52Z</time>
      </trkpt>
      <trkpt lat="50.39424" lon="5.39459">
        <ele>257</ele>
        <time>2016-10-20T18:57:52Z</time>
      </trkpt>
      <trkpt lat="50.39419" lon="5.3947">
        <ele>258</ele>
        <time>2016-10-20T18:59:52Z</time>
      </trkpt>
      <trkpt lat="50.39415" lon="5.39495">
        <ele>259</ele>
        <time>2016-10-20T19:01:52Z</time>
      </trkpt>
      <trkpt lat="50.39415" lon="5.39512">
        <ele>259</ele>
        <time>2016-10-20T19:03:52Z</time>
      </trkpt>
      <trkpt lat="50.39436" lon="5.39604">
        <ele>259</ele>
        <time>2016-10-20T19:05:52Z</time>
      </trkpt>
      <trkpt lat="50.39438" lon="5.39615">
        <ele>260</ele>
        <time>2016-10-20T19:07:52Z</time>
      </trkpt>
      <trkpt lat="50.39439" lon="5.3964">
        <ele>260</ele>
        <time>2016-10-20T19:09:52Z</time>
      </trkpt>
      <trkpt lat="50.39438" lon="5.39651">
        <ele>261</ele>
        <time>2016-10-20T19:11:52Z</time>
      </trkpt>
      <trkpt lat="50.3942" lon="5.39776">
        <ele>262</ele>
        <time>2016-10-20T19:13:52Z</time>
      </trkpt>
      <trkpt lat="50.39418" lon="5.39817">
        <ele>261</ele>
        <time>2016-10-20T19:15:52Z</time>
      </trkpt>
      <trkpt lat="50.39419" lon="5.39819">
        <ele>261</ele>
        <time>2016-10-20T19:17:52Z</time>
      </trkpt>
      <trkpt lat="50.39419" lon="5.39823">
        <ele>261</ele>
        <time>2016-10-20T19:19:52Z</time>
      </trkpt>
      <trkpt lat="50.39424" lon="5.39833">
        <ele>261</ele>
        <time>2016-10-20T19:21:52Z</time>
      </trkpt>
      <trkpt lat="50.39384" lon="5.39891">
        <ele>261</ele>
        <time>2016-10-20T19:23:52Z</time>
      </trkpt>
      <trkpt lat="50.39322" lon="5.3998">
        <ele>257</ele>
        <time>2016-10-20T19:25:52Z</time>
      </trkpt>
      <trkpt lat="50.39148" lon="5.40198">
        <ele>245</ele>
        <time>2016-10-20T19:27:52Z</time>
      </trkpt>
      <trkpt lat="50.391" lon="5.4025">
        <ele>242</ele>
        <time>2016-10-20T19:29:52Z</time>
      </trkpt>
      <trkpt lat="50.3908" lon="5.40268">
        <ele>241</ele>
        <time>2016-10-20T19:31:52Z</time>
      </trkpt>
      <trkpt lat="50.39059" lon="5.40288">
        <ele>239</ele>
        <time>2016-10-20T19:33:52Z</time>
      </trkpt>
      <trkpt lat="50.39036" lon="5.40309">
        <ele>237</ele>
        <time>2016-10-20T19:35:52Z</time>
      </trkpt>
      <trkpt lat="50.39004" lon="5.40332">
        <ele>235</ele>
        <time>2016-10-20T19:37:52Z</time>
      </trkpt>
      <trkpt lat="50.38994" lon="5.40334">
        <ele>235</ele>
        <time>2016-10-20T19:39:52Z</time>
      </trkpt>
      <trkpt lat="50.38984" lon="5.40332">
        <ele>234</ele>
        <time>2016-10-20T19:41:52Z</time>
      </trkpt>
      <trkpt lat="50.3897" lon="5.40324">
        <ele>233</ele>
        <time>2016-10-20T19:43:52Z</time>
      </trkpt>
      <trkpt lat="50.38949" lon="5.40305">
        <ele>232</ele>
        <time>2016-10-20T19:45:52Z</time>
      </trkpt>
      <trkpt lat="50.38882" lon="5.40222">
        <ele>230</ele>
        <time>2016-10-20T19:47:52Z</time>
      </trkpt>
      <trkpt lat="50.38872" lon="5.4022">
        <ele>230</ele>
        <time>2016-10-20T19:49:52Z</time>
      </trkpt>
      <trkpt lat="50.38865" lon="5.40222">
        <ele>230</ele>
        <time>2016-10-20T19:51:52Z</time>
      </trkpt>
      <trkpt lat="50.38854" lon="5.4023">
        <ele>230</ele>
        <time>2016-10-20T19:53:52Z</time>
      </trkpt>
      <trkpt lat="50.38839" lon="5.40245">
        <ele>231</ele>
        <time>2016-10-20T19:55:52Z</time>
      </trkpt>
      <trkpt lat="50.38825" lon="5.4026">
        <ele>232</ele>
        <time>2016-10-20T19:57:52Z</time>
      </trkpt>
      <trkpt lat="50.3882" lon="5.40266">
        <ele>233</ele>
        <time>2016-10-20T19:59:52Z</time>
      </trkpt>
      <trkpt lat="50.38808" lon="5.40276">
        <ele>234</ele>
        <time>2016-10-20T20:01:52Z</time>
      </trkpt>
      <trkpt lat="50.38805" lon="5.40278">
        <ele>235</ele>
        <time>2016-10-20T20:03:52Z</time>
      </trkpt>
      <trkpt lat="50.38798" lon="5.40278">
        <ele>235</ele>
        <time>2016-10-20T20:05:52Z</time>
      </trkpt>
      <trkpt lat="50.38791" lon="5.40273">
        <ele>236</ele>
        <time>2016-10-20T20:07:52Z</time>
      </trkpt>
      <trkpt lat="50.38785" lon="5.40264">
        <ele>236</ele>
        <time>2016-10-20T20:09:52Z</time>
      </trkpt>
      <trkpt lat="50.3878" lon="5.40255">
        <ele>236</ele>
        <time>2016-10-20T20:11:52Z</time>
      </trkpt>
      <trkpt lat="50.38775" lon="5.40245">
        <ele>236</ele>
        <time>2016-10-20T20:13:52Z</time>
      </trkpt>
      <trkpt lat="50.38762" lon="5.4023">
        <ele>236</ele>
        <time>2016-10-20T20:15:52Z</time>
      </trkpt>
      <trkpt lat="50.38754" lon="5.40222">
        <ele>236</ele>
        <time>2016-10-20T20:17:52Z</time>
      </trkpt>
      <trkpt lat="50.38748" lon="5.40219">
        <ele>236</ele>
        <time>2016-10-20T20:19:52Z</time>
      </trkpt>
      <trkpt lat="50.38743" lon="5.40218">
        <ele>236</ele>
        <time>2016-10-20T20:21:52Z</time>
      </trkpt>
      <trkpt lat="50.38735" lon="5.40217">
        <ele>236</ele>
        <time>2016-10-20T20:23:52Z</time>
      </trkpt>
      <trkpt lat="50.38728" lon="5.40218">
        <ele>237</ele>
        <time>2016-10-20T20:25:52Z</time>
      </trkpt>
      <trkpt lat="50.38721" lon="5.40222">
        <ele>237</ele>
        <time>2016-10-20T20:27:52Z</time>
      </trkpt>
      <trkpt lat="50.38713" lon="5.40228">
        <ele>238</ele>
        <time>2016-10-20T20:29:52Z</time>
      </trkpt>
      <trkpt lat="50.3871" lon="5.40232">
        <ele>238</ele>
        <time>2016-10-20T20:31:52Z</time>
      </trkpt>
      <trkpt lat="50.38689" lon="5.40263">
        <ele>241</ele>
        <time>2016-10-20T20:33:52Z</time>
      </trkpt>
      <trkpt lat="50.38678" lon="5.40277">
        <ele>242</ele>
        <time>2016-10-20T20:35:52Z</time>
      </trkpt>
      <trkpt lat="50.38668" lon="5.40289">
        <ele>243</ele>
        <time>2016-10-20T20:37:52Z</time>
      </trkpt>
      <trkpt lat="50.38657" lon="5.403">
        <ele>243</ele>
        <time>2016-10-20T20:39:52Z</time>
      </trkpt>
      <trkpt lat="50.38653" lon="5.40303">
        <ele>243</ele>
        <time>2016-10-20T20:41:52Z</time>
      </trkpt>
      <trkpt lat="50.38643" lon="5.40309">
        <ele>242</ele>
        <time>2016-10-20T20:43:52Z</time>
      </trkpt>
      <trkpt lat="50.38631" lon="5.40314">
        <ele>241</ele>
        <time>2016-10-20T20:45:52Z</time>
      </trkpt>
      <trkpt lat="50.38602" lon="5.40325">
        <ele>239</ele>
        <time>2016-10-20T20:47:52Z</time>
      </trkpt>
      <trkpt lat="50.38587" lon="5.4033">
        <ele>237</ele>
        <time>2016-10-20T20:49:52Z</time>
      </trkpt>
      <trkpt lat="50.38515" lon="5.4035">
        <ele>238</ele>
        <time>2016-10-20T20:51:52Z</time>
      </trkpt>
      <trkpt lat="50.38481" lon="5.40361">
        <ele>241</ele>
        <time>2016-10-20T20:53:52Z</time>
      </trkpt>
      <trkpt lat="50.38464" lon="5.40365">
        <ele>243</ele>
        <time>2016-10-20T20:55:52Z</time>
      </trkpt>
      <trkpt lat="50.38445" lon="5.4037">
        <ele>245</ele>
        <time>2016-10-20T20:57:52Z</time>
      </trkpt>
      <trkpt lat="50.38412" lon="5.4038">
        <ele>249</ele>
        <time>2016-10-20T20:59:52Z</time>
      </trkpt>
      <trkpt lat="50.38391" lon="5.40386">
        <ele>250</ele>
        <time>2016-10-20T21:01:52Z</time>
      </trkpt>
      <trkpt lat="50.38378" lon="5.40388">
        <ele>251</ele>
        <time>2016-10-20T21:03:52Z</time>
      </trkpt>
      <trkpt lat="50.38361" lon="5.40388">
        <ele>252</ele>
        <time>2016-10-20T21:05:52Z</time>
      </trkpt>
      <trkpt lat="50.38347" lon="5.40387">
        <ele>253</ele>
        <time>2016-10-20T21:07:52Z</time>
      </trkpt>
      <trkpt lat="50.38335" lon="5.40385">
        <ele>254</ele>
        <time>2016-10-20T21:09:52Z</time>
      </trkpt>
      <trkpt lat="50.38318" lon="5.40378">
        <ele>254</ele>
        <time>2016-10-20T21:11:52Z</time>
      </trkpt>
      <trkpt lat="50.38291" lon="5.40369">
        <ele>253</ele>
        <time>2016-10-20T21:13:52Z</time>
      </trkpt>
      <trkpt lat="50.38267" lon="5.4036">
        <ele>253</ele>
        <time>2016-10-20T21:15:52Z</time>
      </trkpt>
      <trkpt lat="50.38239" lon="5.40351">
        <ele>253</ele>
        <time>2016-10-20T21:17:52Z</time>
      </trkpt>
      <trkpt lat="50.38212" lon="5.4034">
        <ele>253</ele>
        <time>2016-10-20T21:19:52Z</time>
      </trkpt>
      <trkpt lat="50.38194" lon="5.40332">
        <ele>253</ele>
        <time>2016-10-20T21:21:52Z</time>
      </trkpt>
      <trkpt lat="50.38175" lon="5.40326">
        <ele>253</ele>
        <time>2016-10-20T21:23:52Z</time>
      </trkpt>
      <trkpt lat="50.38153" lon="5.40316">
        <ele>253</ele>
        <time>2016-10-20T21:25:52Z</time>
      </trkpt>
      <trkpt lat="50.38139" lon="5.40308">
        <ele>252</ele>
        <time>2016-10-20T21:27:52Z</time>
      </trkpt>
      <trkpt lat="50.38123" lon="5.403">
        <ele>252</ele>
        <time>2016-10-20T21:29:52Z</time>
      </trkpt>
      <trkpt lat="50.38101" lon="5.40291">
        <ele>251</ele>
        <time>2016-10-20T21:31:52Z</time>
      </trkpt>
      <trkpt lat="50.38094" lon="5.40303">
        <ele>251</ele>
        <time>2016-10-20T21:33:52Z</time>
      </trkpt>
      <trkpt lat="50.38049" lon="5.40359">
        <ele>252</ele>
        <time>2016-10-20T21:35:52Z</time>
      </trkpt>
      <trkpt lat="50.38035" lon="5.40375">
        <ele>253</ele>
        <time>2016-10-20T21:37:52Z</time>
      </trkpt>
      <trkpt lat="50.38021" lon="5.40394">
        <ele>253</ele>
        <time>2016-10-20T21:39:52Z</time>
      </trkpt>
      <trkpt lat="50.37986" lon="5.40435">
        <ele>255</ele>
        <time>2016-10-20T21:41:52Z</time>
      </trkpt>
      <trkpt lat="50.37972" lon="5.40454">
        <ele>257</ele>
        <time>2016-10-20T21:43:52Z</time>
      </trkpt>
      <trkpt lat="50.37943" lon="5.40487">
        <ele>261</ele>
        <time>2016-10-20T21:45:52Z</time>
      </trkpt>
      <trkpt lat="50.37931" lon="5.405">
        <ele>263</ele>
        <time>2016-10-20T21:47:52Z</time>
      </trkpt>
      <trkpt lat="50.37927" lon="5.40503">
        <ele>263</ele>
        <time>2016-10-20T21:49:52Z</time>
      </trkpt>
      <trkpt lat="50.37921" lon="5.40506">
        <ele>264</ele>
        <time>2016-10-20T21:51:52Z</time>
      </trkpt>
      <trkpt lat="50.379" lon="5.40514">
        <ele>266</ele>
        <time>2016-10-20T21:53:52Z</time>
      </trkpt>
      <trkpt lat="50.37884" lon="5.40523">
        <ele>267</ele>
        <time>2016-10-20T21:55:52Z</time>
      </trkpt>
      <trkpt lat="50.3787" lon="5.40529">
        <ele>268</ele>
        <time>2016-10-20T21:57:52Z</time>
      </trkpt>
      <trkpt lat="50.37839" lon="5.40552">
        <ele>271</ele>
        <time>2016-10-20T21:59:52Z</time>
      </trkpt>
      <trkpt lat="50.37809" lon="5.40573">
        <ele>275</ele>
        <time>2016-10-20T22:01:52Z</time>
      </trkpt>
      <trkpt lat="50.37796" lon="5.4058">
        <ele>277</ele>
        <time>2016-10-20T22:03:52Z</time>
      </trkpt>
      <trkpt lat="50.37791" lon="5.40585">
        <ele>278</ele>
        <time>2016-10-20T22:05:52Z</time>
      </trkpt>
      <trkpt lat="50.37787" lon="5.40588">
        <ele>279</ele>
        <time>2016-10-20T22:07:52Z</time>
      </trkpt>
      <trkpt lat="50.37785" lon="5.40593">
        <ele>279</ele>
        <time>2016-10-20T22:09:52Z</time>
      </trkpt>
      <trkpt lat="50.37783" lon="5.40604">
        <ele>280</ele>
        <time>2016-10-20T22:11:52Z</time>
      </trkpt>
      <trkpt lat="50.37783" lon="5.40609">
        <ele>281</ele>
        <time>2016-10-20T22:13:52Z</time>
      </trkpt>
      <trkpt lat="50.37785" lon="5.40617">
        <ele>281</ele>
        <time>2016-10-20T22:15:52Z</time>
      </trkpt>
      <trkpt lat="50.37787" lon="5.40628">
        <ele>281</ele>
        <time>2016-10-20T22:17:52Z</time>
      </trkpt>
      <trkpt lat="50.37794" lon="5.40658">
        <ele>282</ele>
        <time>2016-10-20T22:19:52Z</time>
      </trkpt>
      <trkpt lat="50.37795" lon="5.40665">
        <ele>283</ele>
        <time>2016-10-20T22:21:52Z</time>
      </trkpt>
      <trkpt lat="50.37795" lon="5.40672">
        <ele>283</ele>
        <time>2016-10-20T22:23:52Z</time>
      </trkpt>
      <trkpt lat="50.37793" lon="5.40681">
        <ele>283</ele>
        <time>2016-10-20T22:25:52Z</time>
      </trkpt>
      <trkpt lat="50.3779" lon="5.40692">
        <ele>283</ele>
        <time>2016-10-20T22:27:52Z</time>
      </trkpt>
      <trkpt lat="50.37781" lon="5.40714">
        <ele>284</ele>
        <time>2016-10-20T22:29:52Z</time>
      </trkpt>
      <trkpt lat="50.37771" lon="5.40733">
        <ele>284</ele>
        <time>2016-10-20T22:31:52Z</time>
      </trkpt>
      <trkpt lat="50.37759" lon="5.40748">
        <ele>285</ele>
        <time>2016-10-20T22:33:52Z</time>
      </trkpt>
      <trkpt lat="50.37754" lon="5.40751">
        <ele>286</ele>
        <time>2016-10-20T22:35:52Z</time>
      </trkpt>
      <trkpt lat="50.37744" lon="5.40754">
        <ele>286</ele>
        <time>2016-10-20T22:37:52Z</time>
      </trkpt>
      <trkpt lat="50.37738" lon="5.40755">
        <ele>286</ele>
        <time>2016-10-20T22:39:52Z</time>
      </trkpt>
      <trkpt lat="50.37722" lon="5.40756">
        <ele>287</ele>
        <time>2016-10-20T22:41:52Z</time>
      </trkpt>
      <trkpt lat="50.37704" lon="5.40756">
        <ele>288</ele>
        <time>2016-10-20T22:43:52Z</time>
      </trkpt>
      <trkpt lat="50.3769" lon="5.40758">
        <ele>288</ele>
        <time>2016-10-20T22:45:52Z</time>
      </trkpt>
      <trkpt lat="50.37681" lon="5.40761">
        <ele>288</ele>
        <time>2016-10-20T22:47:52Z</time>
      </trkpt>
      <trkpt lat="50.37672" lon="5.40766">
        <ele>289</ele>
        <time>2016-10-20T22:49:52Z</time>
      </trkpt>
      <trkpt lat="50.37655" lon="5.40779">
        <ele>289</ele>
        <time>2016-10-20T22:51:52Z</time>
      </trkpt>
      <trkpt lat="50.37631" lon="5.408">
        <ele>290</ele>
        <time>2016-10-20T22:53:52Z</time>
      </trkpt>
      <trkpt lat="50.37595" lon="5.40833">
        <ele>292</ele>
        <time>2016-10-20T22:55:52Z</time>
      </trkpt>
      <trkpt lat="50.37578" lon="5.4085">
        <ele>293</ele>
        <time>2016-10-20T22:57:52Z</time>
      </trkpt>
      <trkpt lat="50.37541" lon="5.40884">
        <ele>296</ele>
        <time>2016-10-20T22:59:52Z</time>
      </trkpt>
      <trkpt lat="50.37476" lon="5.40945">
        <ele>302</ele>
        <time>2016-10-20T23:01:52Z</time>
      </trkpt>
      <trkpt lat="50.37464" lon="5.40958">
        <ele>304</ele>
        <time>2016-10-20T23:03:52Z</time>
      </trkpt>
      <trkpt lat="50.37452" lon="5.40973">
        <ele>305</ele>
        <time>2016-10-20T23:05:52Z</time>
      </trkpt>
      <trkpt lat="50.3744" lon="5.40992">
        <ele>307</ele>
        <time>2016-10-20T23:07:52Z</time>
      </trkpt>
      <trkpt lat="50.37427" lon="5.41017">
        <ele>309</ele>
        <time>2016-10-20T23:09:52Z</time>
      </trkpt>
      <trkpt lat="50.37421" lon="5.41025">
        <ele>310</ele>
        <time>2016-10-20T23:11:52Z</time>
      </trkpt>
      <trkpt lat="50.37415" lon="5.41032">
        <ele>311</ele>
        <time>2016-10-20T23:13:52Z</time>
      </trkpt>
      <trkpt lat="50.37409" lon="5.41041">
        <ele>312</ele>
        <time>2016-10-20T23:15:52Z</time>
      </trkpt>
      <trkpt lat="50.37396" lon="5.41054">
        <ele>314</ele>
        <time>2016-10-20T23:17:52Z</time>
      </trkpt>
      <trkpt lat="50.37366" lon="5.41089">
        <ele>318</ele>
        <time>2016-10-20T23:19:52Z</time>
      </trkpt>
      <trkpt lat="50.37355" lon="5.41105">
        <ele>319</ele>
        <time>2016-10-20T23:21:52Z</time>
      </trkpt>
      <trkpt lat="50.37351" lon="5.41116">
        <ele>320</ele>
        <time>2016-10-20T23:23:52Z</time>
      </trkpt>
      <trkpt lat="50.37347" lon="5.41125">
        <ele>320</ele>
        <time>2016-10-20T23:25:52Z</time>
      </trkpt>
      <trkpt lat="50.37342" lon="5.41146">
        <ele>321</ele>
        <time>2016-10-20T23:27:52Z</time>
      </trkpt>
      <trkpt lat="50.3733" lon="5.41216">
        <ele>323</ele>
        <time>2016-10-20T23:29:52Z</time>
      </trkpt>
      <trkpt lat="50.37324" lon="5.41237">
        <ele>324</ele>
        <time>2016-10-20T23:31:52Z</time>
      </trkpt>
      <trkpt lat="50.37316" lon="5.41258">
        <ele>325</ele>
        <time>2016-10-20T23:33:52Z</time>
      </trkpt>
      <trkpt lat="50.37311" lon="5.41269">
        <ele>326</ele>
        <time>2016-10-20T23:35:52Z</time>
      </trkpt>
      <trkpt lat="50.37301" lon="5.41287">
        <ele>327</ele>
        <time>2016-10-20T23:37:52Z</time>
      </trkpt>
      <trkpt lat="50.37277" lon="5.41334">
        <ele>329</ele>
        <time>2016-10-20T23:39:52Z</time>
      </trkpt>
      <trkpt lat="50.37242" lon="5.41401">
        <ele>330</ele>
        <time>2016-10-20T23:41:52Z</time>
      </trkpt>
      <trkpt lat="50.37227" lon="5.41429">
        <ele>331</ele>
        <time>2016-10-20T23:43:52Z</time>
      </trkpt>
      <trkpt lat="50.37208" lon="5.41467">
        <ele>333</ele>
        <time>2016-10-20T23:45:52Z</time>
      </trkpt>
      <trkpt lat="50.37197" lon="5.41485">
        <ele>333</ele>
        <time>2016-10-20T23:47:52Z</time>
      </trkpt>
      <trkpt lat="50.37174" lon="5.41519">
        <ele>335</ele>
        <time>2016-10-20T23:49:52Z</time>
      </trkpt>
      <trkpt lat="50.37157" lon="5.41545">
        <ele>335</ele>
        <time>2016-10-20T23:51:52Z</time>
      </trkpt>
      <trkpt lat="50.37139" lon="5.41569">
        <ele>335</ele>
        <time>2016-10-20T23:53:52Z</time>
      </trkpt>
      <trkpt lat="50.37135" lon="5.41577">
        <ele>335</ele>
        <time>2016-10-20T23:55:52Z</time>
      </trkpt>
      <trkpt lat="50.37108" lon="5.41619">
        <ele>335</ele>
        <time>2016-10-20T23:57:52Z</time>
      </trkpt>
      <trkpt lat="50.37082" lon="5.41658">
        <ele>336</ele>
        <time>2016-10-20T23:59:52Z</time>
      </trkpt>
      <trkpt lat="50.37072" lon="5.41672">
        <ele>334</ele>
        <time>2016-10-21T00:01:52Z</time>
      </trkpt>
      <trkpt lat="50.37067" lon="5.4168">
        <ele>334</ele>
        <time>2016-10-21T00:03:52Z</time>
      </trkpt>
      <trkpt lat="50.37058" lon="5.41696">
        <ele>333</ele>
        <time>2016-10-21T00:05:52Z</time>
      </trkpt>
      <trkpt lat="50.37049" lon="5.41713">
        <ele>332</ele>
        <time>2016-10-21T00:07:52Z</time>
      </trkpt>
      <trkpt lat="50.37042" lon="5.41731">
        <ele>332</ele>
        <time>2016-10-21T00:09:52Z</time>
      </trkpt>
      <trkpt lat="50.3703" lon="5.4176">
        <ele>331</ele>
        <time>2016-10-21T00:11:52Z</time>
      </trkpt>
      <trkpt lat="50.3702" lon="5.41788">
        <ele>331</ele>
        <time>2016-10-21T00:13:52Z</time>
      </trkpt>
      <trkpt lat="50.36983" lon="5.41885">
        <ele>329</ele>
        <time>2016-10-21T00:15:52Z</time>
      </trkpt>
      <trkpt lat="50.36973" lon="5.41914">
        <ele>328</ele>
        <time>2016-10-21T00:17:52Z</time>
      </trkpt>
      <trkpt lat="50.36958" lon="5.41953">
        <ele>327</ele>
        <time>2016-10-21T00:19:52Z</time>
      </trkpt>
      <trkpt lat="50.36948" lon="5.41983">
        <ele>325</ele>
        <time>2016-10-21T00:21:52Z</time>
      </trkpt>
      <trkpt lat="50.36942" lon="5.42004">
        <ele>324</ele>
        <time>2016-10-21T00:23:52Z</time>
      </trkpt>
      <trkpt lat="50.3694" lon="5.42014">
        <ele>323</ele>
        <time>2016-10-21T00:25:52Z</time>
      </trkpt>
      <trkpt lat="50.36937" lon="5.42034">
        <ele>321</ele>
        <time>2016-10-21T00:27:52Z</time>
      </trkpt>
      <trkpt lat="50.36932" lon="5.42064">
        <ele>319</ele>
        <time>2016-10-21T00:29:52Z</time>
      </trkpt>
      <trkpt lat="50.36926" lon="5.42105">
        <ele>316</ele>
        <time>2016-10-21T00:31:52Z</time>
      </trkpt>
      <trkpt lat="50.36921" lon="5.42146">
        <ele>312</ele>
        <time>2016-10-21T00:33:52Z</time>
      </trkpt>
      <trkpt lat="50.36915" lon="5.42185">
        <ele>310</ele>
        <time>2016-10-21T00:35:52Z</time>
      </trkpt>
      <trkpt lat="50.3691" lon="5.42214">
        <ele>309</ele>
        <time>2016-10-21T00:37:52Z</time>
      </trkpt>
      <trkpt lat="50.36897" lon="5.42302">
        <ele>306</ele>
        <time>2016-10-21T00:39:52Z</time>
      </trkpt>
      <trkpt lat="50.36891" lon="5.42333">
        <ele>305</ele>
        <time>2016-10-21T00:41:52Z</time>
      </trkpt>
      <trkpt lat="50.36885" lon="5.42351">
        <ele>305</ele>
        <time>2016-10-21T00:43:52Z</time>
      </trkpt>
      <trkpt lat="50.36874" lon="5.42374">
        <ele>303</ele>
        <time>2016-10-21T00:45:52Z</time>
      </trkpt>
      <trkpt lat="50.36865" lon="5.42388">
        <ele>302</ele>
        <time>2016-10-21T00:47:52Z</time>
      </trkpt>
      <trkpt lat="50.36851" lon="5.42411">
        <ele>301</ele>
        <time>2016-10-21T00:49:52Z</time>
      </trkpt>
      <trkpt lat="50.36837" lon="5.42432">
        <ele>299</ele>
        <time>2016-10-21T00:51:52Z</time>
      </trkpt>
      <trkpt lat="50.36828" lon="5.42447">
        <ele>298</ele>
        <time>2016-10-21T00:53:52Z</time>
      </trkpt>
      <trkpt lat="50.36821" lon="5.42463">
        <ele>298</ele>
        <time>2016-10-21T00:55:52Z</time>
      </trkpt>
      <trkpt lat="50.36815" lon="5.42481">
        <ele>297</ele>
        <time>2016-10-21T00:57:52Z</time>
      </trkpt>
      <trkpt lat="50.36809" lon="5.42501">
        <ele>296</ele>
        <time>2016-10-21T00:59:52Z</time>
      </trkpt>
      <trkpt lat="50.36802" lon="5.42529">
        <ele>295</ele>
        <time>2016-10-21T01:01:52Z</time>
      </trkpt>
      <trkpt lat="50.36783" lon="5.42602">
        <ele>292</ele>
        <time>2016-10-21T01:03:52Z</time>
      </trkpt>
      <trkpt lat="50.36773" lon="5.42637">
        <ele>291</ele>
        <time>2016-10-21T01:05:52Z</time>
      </trkpt>
      <trkpt lat="50.36766" lon="5.42653">
        <ele>290</ele>
        <time>2016-10-21T01:07:52Z</time>
      </trkpt>
      <trkpt lat="50.36758" lon="5.42667">
        <ele>289</ele>
        <time>2016-10-21T01:09:52Z</time>
      </trkpt>
      <trkpt lat="50.36748" lon="5.4268">
        <ele>287</ele>
        <time>2016-10-21T01:11:52Z</time>
      </trkpt>
      <trkpt lat="50.36738" lon="5.42691">
        <ele>287</ele>
        <time>2016-10-21T01:13:52Z</time>
      </trkpt>
      <trkpt lat="50.3672" lon="5.42703">
        <ele>285</ele>
        <time>2016-10-21T01:15:52Z</time>
      </trkpt>
      <trkpt lat="50.36541" lon="5.42825">
        <ele>276</ele>
        <time>2016-10-21T01:17:52Z</time>
      </trkpt>
      <trkpt lat="50.36494" lon="5.42859">
        <ele>274</ele>
        <time>2016-10-21T01:19:52Z</time>
      </trkpt>
      <trkpt lat="50.36482" lon="5.4287">
        <ele>272</ele>
        <time>2016-10-21T01:21:52Z</time>
      </trkpt>
      <trkpt lat="50.36368" lon="5.43025">
        <ele>257</ele>
        <time>2016-10-21T01:23:52Z</time>
      </trkpt>
      <trkpt lat="50.36286" lon="5.43">
        <ele>253</ele>
        <time>2016-10-21T01:25:52Z</time>
      </trkpt>
      <trkpt lat="50.36269" lon="5.42997">
        <ele>251</ele>
        <time>2016-10-21T01:27:52Z</time>
      </trkpt>
      <trkpt lat="50.3621" lon="5.42991">
        <ele>247</ele>
        <time>2016-10-21T01:29:52Z</time>
      </trkpt>
      <trkpt lat="50.3619" lon="5.42992">
        <ele>246</ele>
        <time>2016-10-21T01:31:52Z</time>
      </trkpt>
      <trkpt lat="50.36179" lon="5.42995">
        <ele>245</ele>
        <time>2016-10-21T01:33:52Z</time>
      </trkpt>
      <trkpt lat="50.36151" lon="5.43012">
        <ele>243</ele>
        <time>2016-10-21T01:35:52Z</time>
      </trkpt>
      <trkpt lat="50.36012" lon="5.43124">
        <ele>239</ele>
        <time>2016-10-21T01:37:52Z</time>
      </trkpt>
      <trkpt lat="50.35974" lon="5.4317">
        <ele>240</ele>
        <time>2016-10-21T01:39:52Z</time>
      </trkpt>
      <trkpt lat="50.35919" lon="5.43247">
        <ele>242</ele>
        <time>2016-10-21T01:41:52Z</time>
      </trkpt>
      <trkpt lat="50.35891" lon="5.43283">
        <ele>242</ele>
        <time>2016-10-21T01:43:52Z</time>
      </trkpt>
      <trkpt lat="50.35859" lon="5.43319">
        <ele>241</ele>
        <time>2016-10-21T01:45:52Z</time>
      </trkpt>
      <trkpt lat="50.35721" lon="5.43461">
        <ele>240</ele>
        <time>2016-10-21T01:47:52Z</time>
      </trkpt>
      <trkpt lat="50.35683" lon="5.43496">
        <ele>241</ele>
        <time>2016-10-21T01:49:52Z</time>
      </trkpt>
      <trkpt lat="50.35622" lon="5.43558">
        <ele>240</ele>
        <time>2016-10-21T01:51:52Z</time>
      </trkpt>
      <trkpt lat="50.35545" lon="5.43628">
        <ele>240</ele>
        <time>2016-10-21T01:53:52Z</time>
      </trkpt>
      <trkpt lat="50.35473" lon="5.43694">
        <ele>239</ele>
        <time>2016-10-21T01:55:52Z</time>
      </trkpt>
      <trkpt lat="50.35389" lon="5.43768">
        <ele>237</ele>
        <time>2016-10-21T01:57:52Z</time>
      </trkpt>
      <trkpt lat="50.35363" lon="5.43787">
        <ele>236</ele>
        <time>2016-10-21T01:59:52Z</time>
      </trkpt>
      <trkpt lat="50.35333" lon="5.43802">
        <ele>234</ele>
        <time>2016-10-21T02:01:52Z</time>
      </trkpt>
      <trkpt lat="50.35268" lon="5.43821">
        <ele>231</ele>
        <time>2016-10-21T02:03:52Z</time>
      </trkpt>
      <trkpt lat="50.35248" lon="5.4383">
        <ele>230</ele>
        <time>2016-10-21T02:05:52Z</time>
      </trkpt>
      <trkpt lat="50.35231" lon="5.43841">
        <ele>228</ele>
        <time>2016-10-21T02:07:52Z</time>
      </trkpt>
      <trkpt lat="50.35213" lon="5.43858">
        <ele>227</ele>
        <time>2016-10-21T02:09:52Z</time>
      </trkpt>
      <trkpt lat="50.35185" lon="5.43883">
        <ele>224</ele>
        <time>2016-10-21T02:11:52Z</time>
      </trkpt>
      <trkpt lat="50.35159" lon="5.43902">
        <ele>223</ele>
        <time>2016-10-21T02:13:52Z</time>
      </trkpt>
      <trkpt lat="50.35123" lon="5.4392">
        <ele>223</ele>
        <time>2016-10-21T02:15:52Z</time>
      </trkpt>
      <trkpt lat="50.35104" lon="5.4395">
        <ele>222</ele>
        <time>2016-10-21T02:17:52Z</time>
      </trkpt>
      <trkpt lat="50.35032" lon="5.44099">
        <ele>213</ele>
        <time>2016-10-21T02:19:52Z</time>
      </trkpt>
      <trkpt lat="50.34957" lon="5.44235">
        <ele>203</ele>
        <time>2016-10-21T02:21:52Z</time>
      </trkpt>
      <trkpt lat="50.3493" lon="5.44288">
        <ele>195</ele>
        <time>2016-10-21T02:23:52Z</time>
      </trkpt>
      <trkpt lat="50.34925" lon="5.44303">
        <ele>193</ele>
        <time>2016-10-21T02:25:52Z</time>
      </trkpt>
      <trkpt lat="50.34926" lon="5.44321">
        <ele>191</ele>
        <time>2016-10-21T02:27:52Z</time>
      </trkpt>
      <trkpt lat="50.34934" lon="5.44353">
        <ele>190</ele>
        <time>2016-10-21T02:29:52Z</time>
      </trkpt>
      <trkpt lat="50.35013" lon="5.44594">
        <ele>188</ele>
        <time>2016-10-21T02:31:52Z</time>
      </trkpt>
      <trkpt lat="50.35025" lon="5.44652">
        <ele>183</ele>
        <time>2016-10-21T02:33:52Z</time>
      </trkpt>
      <trkpt lat="50.35039" lon="5.44709">
        <ele>180</ele>
        <time>2016-10-21T02:35:52Z</time>
      </trkpt>
      <trkpt lat="50.35051" lon="5.44753">
        <ele>177</ele>
        <time>2016-10-21T02:37:52Z</time>
      </trkpt>
      <trkpt lat="50.35072" lon="5.44825">
        <ele>172</ele>
        <time>2016-10-21T02:39:52Z</time>
      </trkpt>
      <trkpt lat="50.3513" lon="5.44983">
        <ele>169</ele>
        <time>2016-10-21T02:41:52Z</time>
      </trkpt>
      <trkpt lat="50.35157" lon="5.45045">
        <ele>167</ele>
        <time>2016-10-21T02:43:52Z</time>
      </trkpt>
      <trkpt lat="50.35186" lon="5.45104">
        <ele>164</ele>
        <time>2016-10-21T02:45:52Z</time>
      </trkpt>
      <trkpt lat="50.35206" lon="5.4513">
        <ele>165</ele>
        <time>2016-10-21T02:47:52Z</time>
      </trkpt>
      <trkpt lat="50.3522" lon="5.45147">
        <ele>165</ele>
        <time>2016-10-21T02:49:52Z</time>
      </trkpt>
      <trkpt lat="50.35255" lon="5.45224">
        <ele>162</ele>
        <time>2016-10-21T02:51:52Z</time>
      </trkpt>
      <trkpt lat="50.35264" lon="5.45237">
        <ele>164</ele>
        <time>2016-10-21T02:53:52Z</time>
      </trkpt>
      <trkpt lat="50.35288" lon="5.45266">
        <ele>169</ele>
        <time>2016-10-21T02:55:52Z</time>
      </trkpt>
      <trkpt lat="50.35298" lon="5.45281">
        <ele>170</ele>
        <time>2016-10-21T02:57:52Z</time>
      </trkpt>
      <trkpt lat="50.35301" lon="5.45289">
        <ele>170</ele>
        <time>2016-10-21T02:59:52Z</time>
      </trkpt>
      <trkpt lat="50.35303" lon="5.45298">
        <ele>170</ele>
        <time>2016-10-21T03:01:52Z</time>
      </trkpt>
      <trkpt lat="50.35306" lon="5.45318">
        <ele>167</ele>
        <time>2016-10-21T03:03:52Z</time>
      </trkpt>
      <trkpt lat="50.35311" lon="5.45337">
        <ele>166</ele>
        <time>2016-10-21T03:05:52Z</time>
      </trkpt>
      <trkpt lat="50.35323" lon="5.45378">
        <ele>165</ele>
        <time>2016-10-21T03:07:52Z</time>
      </trkpt>
      <trkpt lat="50.35329" lon="5.45409">
        <ele>163</ele>
        <time>2016-10-21T03:09:52Z</time>
      </trkpt>
      <trkpt lat="50.35332" lon="5.45433">
        <ele>160</ele>
        <time>2016-10-21T03:11:52Z</time>
      </trkpt>
      <trkpt lat="50.35333" lon="5.4545">
        <ele>158</ele>
        <time>2016-10-21T03:13:52Z</time>
      </trkpt>
      <trkpt lat="50.35333" lon="5.45465">
        <ele>156</ele>
        <time>2016-10-21T03:15:52Z</time>
      </trkpt>
      <trkpt lat="50.35331" lon="5.45479">
        <ele>154</ele>
        <time>2016-10-21T03:17:52Z</time>
      </trkpt>
      <trkpt lat="50.35322" lon="5.45508">
        <ele>150</ele>
        <time>2016-10-21T03:19:52Z</time>
      </trkpt>
      <trkpt lat="50.3532" lon="5.45521">
        <ele>150</ele>
        <time>2016-10-21T03:21:52Z</time>
      </trkpt>
      <trkpt lat="50.35322" lon="5.45535">
        <ele>147.6</ele>
      </trkpt>
      <trkpt lat="50.35323" lon="5.45547">
        <ele>147.2</ele>
      </trkpt>
      <trkpt lat="50.35298" lon="5.45622">
        <ele>152.2</ele>
      </trkpt>
      <trkpt lat="50.3529" lon="5.45638">
        <ele>152.5</ele>
      </trkpt>
      <trkpt lat="50.35276" lon="5.45652">
        <ele>153</ele>
      </trkpt>
      <trkpt lat="50.35264" lon="5.45655">
        <ele>152.4</ele>
      </trkpt>
      <trkpt lat="50.35249" lon="5.45649">
        <ele>152.9</ele>
      </trkpt>
      <trkpt lat="50.35231" lon="5.45636">
        <ele>150.8</ele>
      </trkpt>
      <trkpt lat="50.35222" lon="5.45626">
        <ele>150.8</ele>
      </trkpt>
      <trkpt lat="50.35211" lon="5.45589">
        <ele>153.6</ele>
      </trkpt>
      <trkpt lat="50.35181" lon="5.45496">
        <ele>147.6</ele>
      </trkpt>
      <trkpt lat="50.35155" lon="5.45536">
        <ele>146</ele>
      </trkpt>
      <trkpt lat="50.35143" lon="5.45561">
        <ele>146</ele>
      </trkpt>
      <trkpt lat="50.35126" lon="5.45585">
        <ele>146</ele>
        <time>2016-10-21T03:25:52Z</time>
      </trkpt>
      <trkpt lat="50.35145" lon="5.45573">
        <ele>146</ele>
      </trkpt>
      <trkpt lat="50.35158" lon="5.45599">
        <ele>146</ele>
      </trkpt>
      <trkpt lat="50.35172" lon="5.45596">
        <ele>146.3</ele>
      </trkpt>
      <trkpt lat="50.35201" lon="5.45572">
        <ele>149.8</ele>
      </trkpt>
      <trkpt lat="50.35221" lon="5.45634">
        <ele>149</ele>
      </trkpt>
      <trkpt lat="50.3523" lon="5.45647">
        <ele>149.3</ele>
      </trkpt>
      <trkpt lat="50.35265" lon="5.45668">
        <ele>150.3</ele>
      </trkpt>
      <trkpt lat="50.35282" lon="5.45657">
        <ele>151.7</ele>
      </trkpt>
      <trkpt lat="50.35303" lon="5.45623">
        <ele>150.4</ele>
      </trkpt>
      <trkpt lat="50.35334" lon="5.45535">
        <ele>149.7</ele>
        <time>2016-10-21T03:27:52Z</time>
      </trkpt>
      <trkpt lat="50.35351" lon="5.45512">
        <ele>153</ele>
        <time>2016-10-21T03:29:52Z</time>
      </trkpt>
      <trkpt lat="50.35372" lon="5.45507">
        <ele>155</ele>
        <time>2016-10-21T03:31:52Z</time>
      </trkpt>
      <trkpt lat="50.35393" lon="5.45506">
        <ele>158</ele>
        <time>2016-10-21T03:33:52Z</time>
      </trkpt>
      <trkpt lat="50.35415" lon="5.455">
        <ele>161</ele>
        <time>2016-10-21T03:35:52Z</time>
      </trkpt>
      <trkpt lat="50.35439" lon="5.45493">
        <ele>161</ele>
        <time>2016-10-21T03:37:52Z</time>
      </trkpt>
      <trkpt lat="50.35462" lon="5.45481">
        <ele>163</ele>
        <time>2016-10-21T03:39:52Z</time>
      </trkpt>
      <trkpt lat="50.35485" lon="5.45458">
        <ele>168</ele>
        <time>2016-10-21T03:41:52Z</time>
      </trkpt>
      <trkpt lat="50.3549" lon="5.45455">
        <ele>168</ele>
        <time>2016-10-21T03:43:52Z</time>
      </trkpt>
      <trkpt lat="50.35498" lon="5.45452">
        <ele>169</ele>
        <time>2016-10-21T03:45:52Z</time>
      </trkpt>
      <trkpt lat="50.35532" lon="5.45447">
        <ele>172</ele>
        <time>2016-10-21T03:47:52Z</time>
      </trkpt>
      <trkpt lat="50.35568" lon="5.4545">
        <ele>173</ele>
        <time>2016-10-21T03:49:52Z</time>
      </trkpt>
      <trkpt lat="50.35593" lon="5.45462">
        <ele>172</ele>
        <time>2016-10-21T03:51:52Z</time>
      </trkpt>
      <trkpt lat="50.3562" lon="5.45484">
        <ele>172</ele>
        <time>2016-10-21T03:53:52Z</time>
      </trkpt>
      <trkpt lat="50.3577" lon="5.45655">
        <ele>155</ele>
        <time>2016-10-21T03:55:52Z</time>
      </trkpt>
      <trkpt lat="50.35778" lon="5.45661">
        <ele>155</ele>
        <time>2016-10-21T03:57:52Z</time>
      </trkpt>
      <trkpt lat="50.35784" lon="5.45665">
        <ele>155</ele>
        <time>2016-10-21T03:59:52Z</time>
      </trkpt>
      <trkpt lat="50.35792" lon="5.45667">
        <ele>156</ele>
        <time>2016-10-21T04:01:52Z</time>
      </trkpt>
      <trkpt lat="50.35808" lon="5.45737">
        <ele>159</ele>
        <time>2016-10-21T04:03:52Z</time>
      </trkpt>
      <trkpt lat="50.35815" lon="5.45777">
        <ele>161</ele>
        <time>2016-10-21T04:05:52Z</time>
      </trkpt>
      <trkpt lat="50.3582" lon="5.45807">
        <ele>163</ele>
        <time>2016-10-21T04:07:52Z</time>
      </trkpt>
      <trkpt lat="50.35822" lon="5.45843">
        <ele>164</ele>
        <time>2016-10-21T04:09:52Z</time>
      </trkpt>
      <trkpt lat="50.35823" lon="5.45866">
        <ele>163</ele>
        <time>2016-10-21T04:11:52Z</time>
      </trkpt>
      <trkpt lat="50.3583" lon="5.45905">
        <ele>164</ele>
        <time>2016-10-21T04:13:52Z</time>
      </trkpt>
      <trkpt lat="50.35839" lon="5.45989">
        <ele>166</ele>
        <time>2016-10-21T04:15:52Z</time>
      </trkpt>
      <trkpt lat="50.35847" lon="5.46067">
        <ele>168</ele>
        <time>2016-10-21T04:17:52Z</time>
      </trkpt>
      <trkpt lat="50.35854" lon="5.46107">
        <ele>171</ele>
        <time>2016-10-21T04:19:52Z</time>
      </trkpt>
      <trkpt lat="50.3586" lon="5.46129">
        <ele>172</ele>
        <time>2016-10-21T04:21:52Z</time>
      </trkpt>
      <trkpt lat="50.35868" lon="5.46151">
        <ele>174</ele>
        <time>2016-10-21T04:23:52Z</time>
      </trkpt>
      <trkpt lat="50.35881" lon="5.46176">
        <ele>177</ele>
        <time>2016-10-21T04:25:52Z</time>
      </trkpt>
      <trkpt lat="50.35904" lon="5.46214">
        <ele>180</ele>
        <time>2016-10-21T04:27:52Z</time>
      </trkpt>
      <trkpt lat="50.35925" lon="5.46248">
        <ele>181</ele>
        <time>2016-10-21T04:29:52Z</time>
      </trkpt>
      <trkpt lat="50.35945" lon="5.46278">
        <ele>181</ele>
        <time>2016-10-21T04:31:52Z</time>
      </trkpt>
      <trkpt lat="50.35966" lon="5.46299">
        <ele>181</ele>
        <time>2016-10-21T04:33:52Z</time>
      </trkpt>
      <trkpt lat="50.35978" lon="5.46307">
        <ele>182</ele>
        <time>2016-10-21T04:35:52Z</time>
      </trkpt>
      <trkpt lat="50.3599" lon="5.46306">
        <ele>183</ele>
        <time>2016-10-21T04:37:52Z</time>
      </trkpt>
      <trkpt lat="50.35998" lon="5.46301">
        <ele>185</ele>
        <time>2016-10-21T04:39:52Z</time>
      </trkpt>
      <trkpt lat="50.36004" lon="5.46293">
        <ele>186</ele>
        <time>2016-10-21T04:41:52Z</time>
      </trkpt>
      <trkpt lat="50.3601" lon="5.46282">
        <ele>187</ele>
        <time>2016-10-21T04:43:52Z</time>
      </trkpt>
      <trkpt lat="50.36021" lon="5.46234">
        <ele>191</ele>
        <time>2016-10-21T04:45:52Z</time>
      </trkpt>
      <trkpt lat="50.36026" lon="5.46219">
        <ele>192</ele>
        <time>2016-10-21T04:47:52Z</time>
      </trkpt>
      <trkpt lat="50.36032" lon="5.46203">
        <ele>194</ele>
        <time>2016-10-21T04:49:52Z</time>
      </trkpt>
      <trkpt lat="50.36038" lon="5.46193">
        <ele>195</ele>
        <time>2016-10-21T04:51:52Z</time>
      </trkpt>
      <trkpt lat="50.36043" lon="5.46187">
        <ele>195</ele>
        <time>2016-10-21T04:53:52Z</time>
      </trkpt>
      <trkpt lat="50.36052" lon="5.46178">
        <ele>196</ele>
        <time>2016-10-21T04:55:52Z</time>
      </trkpt>
      <trkpt lat="50.36084" lon="5.4615">
        <ele>199</ele>
        <time>2016-10-21T04:57:52Z</time>
      </trkpt>
      <trkpt lat="50.36094" lon="5.46143">
        <ele>201</ele>
        <time>2016-10-21T04:59:52Z</time>
      </trkpt>
      <trkpt lat="50.36102" lon="5.4614">
        <ele>202</ele>
        <time>2016-10-21T05:01:52Z</time>
      </trkpt>
      <trkpt lat="50.36113" lon="5.46138">
        <ele>203</ele>
        <time>2016-10-21T05:03:52Z</time>
      </trkpt>
      <trkpt lat="50.36127" lon="5.4614">
        <ele>203</ele>
        <time>2016-10-21T05:05:52Z</time>
      </trkpt>
      <trkpt lat="50.36143" lon="5.46146">
        <ele>204</ele>
        <time>2016-10-21T05:07:52Z</time>
      </trkpt>
      <trkpt lat="50.36164" lon="5.46157">
        <ele>205</ele>
        <time>2016-10-21T05:09:52Z</time>
      </trkpt>
      <trkpt lat="50.36185" lon="5.46177">
        <ele>206</ele>
        <time>2016-10-21T05:11:52Z</time>
      </trkpt>
      <trkpt lat="50.36203" lon="5.46198">
        <ele>207</ele>
        <time>2016-10-21T05:13:52Z</time>
      </trkpt>
      <trkpt lat="50.36216" lon="5.46217">
        <ele>207</ele>
        <time>2016-10-21T05:15:52Z</time>
      </trkpt>
      <trkpt lat="50.36234" lon="5.46249">
        <ele>207</ele>
        <time>2016-10-21T05:17:52Z</time>
      </trkpt>
      <trkpt lat="50.36284" lon="5.4634">
        <ele>205</ele>
        <time>2016-10-21T05:19:52Z</time>
      </trkpt>
      <trkpt lat="50.36291" lon="5.46347">
        <ele>206</ele>
        <time>2016-10-21T05:21:52Z</time>
      </trkpt>
      <trkpt lat="50.36297" lon="5.4635">
        <ele>206</ele>
        <time>2016-10-21T05:23:52Z</time>
      </trkpt>
      <trkpt lat="50.36303" lon="5.4635">
        <ele>207</ele>
        <time>2016-10-21T05:25:52Z</time>
      </trkpt>
      <trkpt lat="50.36311" lon="5.46347">
        <ele>208</ele>
        <time>2016-10-21T05:27:52Z</time>
      </trkpt>
      <trkpt lat="50.36325" lon="5.46343">
        <ele>209</ele>
        <time>2016-10-21T05:29:52Z</time>
      </trkpt>
      <trkpt lat="50.36339" lon="5.4634">
        <ele>210</ele>
        <time>2016-10-21T05:31:52Z</time>
      </trkpt>
      <trkpt lat="50.36349" lon="5.4634">
        <ele>210</ele>
        <time>2016-10-21T05:33:52Z</time>
      </trkpt>
      <trkpt lat="50.36361" lon="5.46343">
        <ele>211</ele>
        <time>2016-10-21T05:35:52Z</time>
      </trkpt>
      <trkpt lat="50.36423" lon="5.46374">
        <ele>213</ele>
        <time>2016-10-21T05:37:52Z</time>
      </trkpt>
      <trkpt lat="50.36444" lon="5.46387">
        <ele>215</ele>
        <time>2016-10-21T05:39:52Z</time>
      </trkpt>
      <trkpt lat="50.36465" lon="5.46403">
        <ele>216</ele>
        <time>2016-10-21T05:41:52Z</time>
      </trkpt>
      <trkpt lat="50.36474" lon="5.46417">
        <ele>216</ele>
        <time>2016-10-21T05:43:52Z</time>
      </trkpt>
      <trkpt lat="50.3648" lon="5.46433">
        <ele>217</ele>
        <time>2016-10-21T05:45:52Z</time>
      </trkpt>
      <trkpt lat="50.36482" lon="5.46451">
        <ele>217</ele>
        <time>2016-10-21T05:47:52Z</time>
      </trkpt>
      <trkpt lat="50.36482" lon="5.46472">
        <ele>216</ele>
        <time>2016-10-21T05:49:52Z</time>
      </trkpt>
      <trkpt lat="50.36484" lon="5.4649">
        <ele>216</ele>
        <time>2016-10-21T05:51:52Z</time>
      </trkpt>
      <trkpt lat="50.36488" lon="5.46511">
        <ele>216</ele>
        <time>2016-10-21T05:53:52Z</time>
      </trkpt>
      <trkpt lat="50.36495" lon="5.46528">
        <ele>217</ele>
        <time>2016-10-21T05:55:52Z</time>
      </trkpt>
      <trkpt lat="50.3655" lon="5.46545">
        <ele>219</ele>
        <time>2016-10-21T05:57:52Z</time>
      </trkpt>
      <trkpt lat="50.36558" lon="5.46549">
        <ele>220</ele>
        <time>2016-10-21T05:59:52Z</time>
      </trkpt>
      <trkpt lat="50.36575" lon="5.46569">
        <ele>221</ele>
        <time>2016-10-21T06:01:52Z</time>
      </trkpt>
      <trkpt lat="50.36578" lon="5.4658">
        <ele>221</ele>
        <time>2016-10-21T06:03:52Z</time>
      </trkpt>
      <trkpt lat="50.3659" lon="5.46604">
        <ele>221</ele>
        <time>2016-10-21T06:05:52Z</time>
      </trkpt>
      <trkpt lat="50.36632" lon="5.4668">
        <ele>223</ele>
        <time>2016-10-21T06:07:52Z</time>
      </trkpt>
      <trkpt lat="50.36679" lon="5.46757">
        <ele>225</ele>
        <time>2016-10-21T06:09:52Z</time>
      </trkpt>
      <trkpt lat="50.36728" lon="5.46828">
        <ele>227</ele>
        <time>2016-10-21T06:11:52Z</time>
      </trkpt>
      <trkpt lat="50.36763" lon="5.46872">
        <ele>229</ele>
        <time>2016-10-21T06:13:52Z</time>
      </trkpt>
      <trkpt lat="50.36781" lon="5.46898">
        <ele>230</ele>
        <time>2016-10-21T06:15:52Z</time>
      </trkpt>
      <trkpt lat="50.36805" lon="5.46926">
        <ele>230</ele>
        <time>2016-10-21T06:17:52Z</time>
      </trkpt>
      <trkpt lat="50.36848" lon="5.46968">
        <ele>232</ele>
        <time>2016-10-21T06:19:52Z</time>
      </trkpt>
      <trkpt lat="50.36893" lon="5.47017">
        <ele>234</ele>
        <time>2016-10-21T06:21:52Z</time>
      </trkpt>
      <trkpt lat="50.36942" lon="5.47077">
        <ele>237</ele>
        <time>2016-10-21T06:23:52Z</time>
      </trkpt>
      <trkpt lat="50.36955" lon="5.47092">
        <ele>237</ele>
        <time>2016-10-21T06:25:52Z</time>
      </trkpt>
      <trkpt lat="50.37082" lon="5.47199">
        <ele>242</ele>
        <time>2016-10-21T06:27:52Z</time>
      </trkpt>
      <trkpt lat="50.37139" lon="5.47241">
        <ele>245</ele>
        <time>2016-10-21T06:29:52Z</time>
      </trkpt>
      <trkpt lat="50.37224" lon="5.47296">
        <ele>248</ele>
        <time>2016-10-21T06:31:52Z</time>
      </trkpt>
      <trkpt lat="50.37288" lon="5.47339">
        <ele>249</ele>
        <time>2016-10-21T06:33:52Z</time>
      </trkpt>
      <trkpt lat="50.37316" lon="5.47361">
        <ele>249</ele>
        <time>2016-10-21T06:35:52Z</time>
      </trkpt>
      <trkpt lat="50.37351" lon="5.47395">
        <ele>249</ele>
        <time>2016-10-21T06:37:52Z</time>
      </trkpt>
      <trkpt lat="50.37415" lon="5.47456">
        <ele>249</ele>
        <time>2016-10-21T06:39:52Z</time>
      </trkpt>
      <trkpt lat="50.37441" lon="5.4748">
        <ele>246</ele>
        <time>2016-10-21T06:41:52Z</time>
      </trkpt>
      <trkpt lat="50.37458" lon="5.47499">
        <ele>245</ele>
        <time>2016-10-21T06:43:52Z</time>
      </trkpt>
      <trkpt lat="50.37476" lon="5.47521">
        <ele>243</ele>
        <time>2016-10-21T06:45:52Z</time>
      </trkpt>
      <trkpt lat="50.37492" lon="5.47545">
        <ele>241</ele>
        <time>2016-10-21T06:47:52Z</time>
      </trkpt>
      <trkpt lat="50.37505" lon="5.47566">
        <ele>240</ele>
        <time>2016-10-21T06:49:52Z</time>
      </trkpt>
      <trkpt lat="50.37518" lon="5.4759">
        <ele>238</ele>
        <time>2016-10-21T06:51:52Z</time>
      </trkpt>
      <trkpt lat="50.37532" lon="5.4763">
        <ele>235</ele>
        <time>2016-10-21T06:53:52Z</time>
      </trkpt>
      <trkpt lat="50.37553" lon="5.47703">
        <ele>232</ele>
        <time>2016-10-21T06:55:52Z</time>
      </trkpt>
      <trkpt lat="50.37583" lon="5.47826">
        <ele>227</ele>
        <time>2016-10-21T06:57:52Z</time>
      </trkpt>
      <trkpt lat="50.37593" lon="5.47856">
        <ele>227</ele>
        <time>2016-10-21T06:59:52Z</time>
      </trkpt>
      <trkpt lat="50.37601" lon="5.47873">
        <ele>226</ele>
        <time>2016-10-21T07:01:52Z</time>
      </trkpt>
      <trkpt lat="50.37608" lon="5.47885">
        <ele>226</ele>
        <time>2016-10-21T07:03:52Z</time>
      </trkpt>
      <trkpt lat="50.37627" lon="5.47912">
        <ele>226</ele>
        <time>2016-10-21T07:05:52Z</time>
      </trkpt>
      <trkpt lat="50.37646" lon="5.47935">
        <ele>226</ele>
        <time>2016-10-21T07:07:52Z</time>
      </trkpt>
      <trkpt lat="50.37664" lon="5.47952">
        <ele>226</ele>
        <time>2016-10-21T07:09:52Z</time>
      </trkpt>
      <trkpt lat="50.37682" lon="5.47962">
        <ele>227</ele>
        <time>2016-10-21T07:11:52Z</time>
      </trkpt>
      <trkpt lat="50.37696" lon="5.47967">
        <ele>228</ele>
        <time>2016-10-21T07:13:52Z</time>
      </trkpt>
      <trkpt lat="50.37735" lon="5.47979">
        <ele>229</ele>
        <time>2016-10-21T07:15:52Z</time>
      </trkpt>
      <trkpt lat="50.37809" lon="5.47999">
        <ele>230</ele>
        <time>2016-10-21T07:17:52Z</time>
      </trkpt>
      <trkpt lat="50.37819" lon="5.47999">
        <ele>231</ele>
        <time>2016-10-21T07:19:52Z</time>
      </trkpt>
      <trkpt lat="50.37829" lon="5.47997">
        <ele>231</ele>
        <time>2016-10-21T07:21:52Z</time>
      </trkpt>
      <trkpt lat="50.3784" lon="5.47991">
        <ele>232</ele>
        <time>2016-10-21T07:23:52Z</time>
      </trkpt>
      <trkpt lat="50.37874" lon="5.47958">
        <ele>234</ele>
        <time>2016-10-21T07:25:52Z</time>
      </trkpt>
      <trkpt lat="50.37894" lon="5.47944">
        <ele>235</ele>
        <time>2016-10-21T07:27:52Z</time>
      </trkpt>
      <trkpt lat="50.37911" lon="5.47936">
        <ele>236</ele>
        <time>2016-10-21T07:29:52Z</time>
      </trkpt>
      <trkpt lat="50.37942" lon="5.47931">
        <ele>238</ele>
        <time>2016-10-21T07:31:52Z</time>
      </trkpt>
      <trkpt lat="50.38005" lon="5.47909">
        <ele>240</ele>
        <time>2016-10-21T07:33:52Z</time>
      </trkpt>
      <trkpt lat="50.38015" lon="5.47893">
        <ele>240</ele>
        <time>2016-10-21T07:35:52Z</time>
      </trkpt>
      <trkpt lat="50.38038" lon="5.47896">
        <ele>240</ele>
        <time>2016-10-21T07:37:52Z</time>
      </trkpt>
      <trkpt lat="50.38046" lon="5.47901">
        <ele>240</ele>
        <time>2016-10-21T07:39:52Z</time>
      </trkpt>
      <trkpt lat="50.38051" lon="5.47907">
        <ele>240</ele>
        <time>2016-10-21T07:41:52Z</time>
      </trkpt>
      <trkpt lat="50.38055" lon="5.47913">
        <ele>241</ele>
        <time>2016-10-21T07:43:52Z</time>
      </trkpt>
      <trkpt lat="50.38091" lon="5.47989">
        <ele>244</ele>
        <time>2016-10-21T07:45:52Z</time>
      </trkpt>
      <trkpt lat="50.38307" lon="5.48328">
        <ele>250</ele>
        <time>2016-10-21T07:47:52Z</time>
      </trkpt>
      <trkpt lat="50.38419" lon="5.483">
        <ele>251</ele>
        <time>2016-10-21T07:49:52Z</time>
      </trkpt>
      <trkpt lat="50.38434" lon="5.48294">
        <ele>251</ele>
        <time>2016-10-21T07:51:52Z</time>
      </trkpt>
      <trkpt lat="50.38461" lon="5.48278">
        <ele>253</ele>
        <time>2016-10-21T07:53:52Z</time>
      </trkpt>
      <trkpt lat="50.38579" lon="5.48204">
        <ele>260</ele>
        <time>2016-10-21T07:55:52Z</time>
      </trkpt>
      <trkpt lat="50.38679" lon="5.4814">
        <ele>266</ele>
        <time>2016-10-21T07:57:52Z</time>
      </trkpt>
      <trkpt lat="50.38701" lon="5.48121">
        <ele>267</ele>
        <time>2016-10-21T07:59:52Z</time>
      </trkpt>
      <trkpt lat="50.38706" lon="5.48113">
        <ele>268</ele>
        <time>2016-10-21T08:01:52Z</time>
      </trkpt>
      <trkpt lat="50.38711" lon="5.48113">
        <ele>268</ele>
        <time>2016-10-21T08:03:52Z</time>
      </trkpt>
      <trkpt lat="50.38719" lon="5.48108">
        <ele>268</ele>
        <time>2016-10-21T08:05:52Z</time>
      </trkpt>
      <trkpt lat="50.3873" lon="5.48097">
        <ele>269</ele>
        <time>2016-10-21T08:07:52Z</time>
      </trkpt>
      <trkpt lat="50.38745" lon="5.48074">
        <ele>270</ele>
        <time>2016-10-21T08:09:52Z</time>
      </trkpt>
      <trkpt lat="50.3887" lon="5.47832">
        <ele>278</ele>
        <time>2016-10-21T08:11:52Z</time>
      </trkpt>
      <trkpt lat="50.38881" lon="5.47815">
        <ele>278</ele>
        <time>2016-10-21T08:13:52Z</time>
      </trkpt>
      <trkpt lat="50.38939" lon="5.47795">
        <ele>279</ele>
        <time>2016-10-21T08:15:52Z</time>
      </trkpt>
      <trkpt lat="50.38961" lon="5.47803">
        <ele>278</ele>
        <time>2016-10-21T08:17:52Z</time>
      </trkpt>
      <trkpt lat="50.39033" lon="5.47859">
        <ele>276</ele>
        <time>2016-10-21T08:19:52Z</time>
      </trkpt>
      <trkpt lat="50.39042" lon="5.47864">
        <ele>276</ele>
        <time>2016-10-21T08:21:52Z</time>
      </trkpt>
      <trkpt lat="50.39054" lon="5.47865">
        <ele>276</ele>
        <time>2016-10-21T08:23:52Z</time>
      </trkpt>
      <trkpt lat="50.39063" lon="5.47863">
        <ele>276</ele>
        <time>2016-10-21T08:25:52Z</time>
      </trkpt>
      <trkpt lat="50.39158" lon="5.47823">
        <ele>275</ele>
        <time>2016-10-21T08:27:52Z</time>
      </trkpt>
      <trkpt lat="50.39165" lon="5.47819">
        <ele>275</ele>
        <time>2016-10-21T08:29:52Z</time>
      </trkpt>
      <trkpt lat="50.39174" lon="5.47812">
        <ele>274</ele>
        <time>2016-10-21T08:31:52Z</time>
      </trkpt>
      <trkpt lat="50.3918" lon="5.47805">
        <ele>274</ele>
        <time>2016-10-21T08:33:52Z</time>
      </trkpt>
      <trkpt lat="50.39184" lon="5.47799">
        <ele>273</ele>
        <time>2016-10-21T08:35:52Z</time>
      </trkpt>
      <trkpt lat="50.39224" lon="5.47735">
        <ele>269</ele>
        <time>2016-10-21T08:37:52Z</time>
      </trkpt>
      <trkpt lat="50.39253" lon="5.47686">
        <ele>265</ele>
        <time>2016-10-21T08:39:52Z</time>
      </trkpt>
      <trkpt lat="50.39267" lon="5.47669">
        <ele>264</ele>
        <time>2016-10-21T08:41:52Z</time>
      </trkpt>
      <trkpt lat="50.39275" lon="5.47661">
        <ele>263</ele>
        <time>2016-10-21T08:43:52Z</time>
      </trkpt>
      <trkpt lat="50.39283" lon="5.47656">
        <ele>262</ele>
        <time>2016-10-21T08:45:52Z</time>
      </trkpt>
      <trkpt lat="50.39294" lon="5.47656">
        <ele>261</ele>
        <time>2016-10-21T08:47:52Z</time>
      </trkpt>
      <trkpt lat="50.39329" lon="5.47661">
        <ele>259</ele>
        <time>2016-10-21T08:49:52Z</time>
      </trkpt>
      <trkpt lat="50.39409" lon="5.47677">
        <ele>251</ele>
        <time>2016-10-21T08:51:52Z</time>
      </trkpt>
      <trkpt lat="50.39438" lon="5.4768">
        <ele>248</ele>
        <time>2016-10-21T08:53:52Z</time>
      </trkpt>
      <trkpt lat="50.39458" lon="5.47676">
        <ele>245</ele>
        <time>2016-10-21T08:55:52Z</time>
      </trkpt>
      <trkpt lat="50.39512" lon="5.47652">
        <ele>239</ele>
        <time>2016-10-21T08:57:52Z</time>
      </trkpt>
      <trkpt lat="50.39519" lon="5.4765">
        <ele>238</ele>
        <time>2016-10-21T08:59:52Z</time>
      </trkpt>
      <trkpt lat="50.39528" lon="5.47649">
        <ele>237</ele>
        <time>2016-10-21T09:01:52Z</time>
      </trkpt>
      <trkpt lat="50.39537" lon="5.4765">
        <ele>237</ele>
        <time>2016-10-21T09:03:52Z</time>
      </trkpt>
      <trkpt lat="50.39545" lon="5.47654">
        <ele>236</ele>
        <time>2016-10-21T09:05:52Z</time>
      </trkpt>
      <trkpt lat="50.39558" lon="5.47667">
        <ele>236</ele>
        <time>2016-10-21T09:07:52Z</time>
      </trkpt>
      <trkpt lat="50.39667" lon="5.47785">
        <ele>232</ele>
        <time>2016-10-21T09:09:52Z</time>
      </trkpt>
      <trkpt lat="50.3969" lon="5.47809">
        <ele>227</ele>
        <time>2016-10-21T09:11:52Z</time>
      </trkpt>
      <trkpt lat="50.397" lon="5.47816">
        <ele>225</ele>
        <time>2016-10-21T09:13:52Z</time>
      </trkpt>
      <trkpt lat="50.39705" lon="5.47819">
        <ele>224</ele>
        <time>2016-10-21T09:15:52Z</time>
      </trkpt>
      <trkpt lat="50.39714" lon="5.47821">
        <ele>222</ele>
        <time>2016-10-21T09:17:52Z</time>
      </trkpt>
      <trkpt lat="50.39731" lon="5.47819">
        <ele>219</ele>
        <time>2016-10-21T09:19:52Z</time>
      </trkpt>
      <trkpt lat="50.39774" lon="5.47806">
        <ele>218</ele>
        <time>2016-10-21T09:21:52Z</time>
      </trkpt>
      <trkpt lat="50.39788" lon="5.47801">
        <ele>219</ele>
        <time>2016-10-21T09:23:52Z</time>
      </trkpt>
      <trkpt lat="50.39797" lon="5.47803">
        <ele>220</ele>
        <time>2016-10-21T09:25:52Z</time>
      </trkpt>
      <trkpt lat="50.39801" lon="5.47807">
        <ele>220</ele>
        <time>2016-10-21T09:27:52Z</time>
      </trkpt>
      <trkpt lat="50.39807" lon="5.47817">
        <ele>219</ele>
        <time>2016-10-21T09:29:52Z</time>
      </trkpt>
      <trkpt lat="50.39809" lon="5.47822">
        <ele>219</ele>
        <time>2016-10-21T09:31:52Z</time>
      </trkpt>
      <trkpt lat="50.3981" lon="5.47832">
        <ele>219</ele>
        <time>2016-10-21T09:33:52Z</time>
      </trkpt>
      <trkpt lat="50.39811" lon="5.47846">
        <ele>218</ele>
        <time>2016-10-21T09:35:52Z</time>
      </trkpt>
      <trkpt lat="50.39815" lon="5.47859">
        <ele>218</ele>
        <time>2016-10-21T09:37:52Z</time>
      </trkpt>
      <trkpt lat="50.39831" lon="5.47906">
        <ele>217</ele>
        <time>2016-10-21T09:39:52Z</time>
      </trkpt>
      <trkpt lat="50.39834" lon="5.47914">
        <ele>217</ele>
        <time>2016-10-21T09:41:52Z</time>
      </trkpt>
      <trkpt lat="50.39849" lon="5.47961">
        <ele>217</ele>
        <time>2016-10-21T09:43:52Z</time>
      </trkpt>
      <trkpt lat="50.39856" lon="5.47984">
        <ele>217</ele>
        <time>2016-10-21T09:45:52Z</time>
      </trkpt>
      <trkpt lat="50.39861" lon="5.47997">
        <ele>217</ele>
        <time>2016-10-21T09:47:52Z</time>
      </trkpt>
      <trkpt lat="50.39865" lon="5.48002">
        <ele>217</ele>
        <time>2016-10-21T09:49:52Z</time>
      </trkpt>
      <trkpt lat="50.3987" lon="5.48005">
        <ele>218</ele>
        <time>2016-10-21T09:51:52Z</time>
      </trkpt>
      <trkpt lat="50.39875" lon="5.48005">
        <ele>219</ele>
        <time>2016-10-21T09:53:52Z</time>
      </trkpt>
      <trkpt lat="50.39881" lon="5.48003">
        <ele>220</ele>
        <time>2016-10-21T09:55:52Z</time>
      </trkpt>
      <trkpt lat="50.39914" lon="5.4798">
        <ele>225</ele>
        <time>2016-10-21T09:57:52Z</time>
      </trkpt>
      <trkpt lat="50.39949" lon="5.47943">
        <ele>230</ele>
        <time>2016-10-21T09:59:52Z</time>
      </trkpt>
      <trkpt lat="50.39956" lon="5.47936">
        <ele>231</ele>
        <time>2016-10-21T10:01:52Z</time>
      </trkpt>
      <trkpt lat="50.39966" lon="5.47927">
        <ele>232</ele>
        <time>2016-10-21T10:03:52Z</time>
      </trkpt>
      <trkpt lat="50.39991" lon="5.47913">
        <ele>235</ele>
        <time>2016-10-21T10:05:52Z</time>
      </trkpt>
      <trkpt lat="50.40009" lon="5.479">
        <ele>237</ele>
        <time>2016-10-21T10:07:52Z</time>
      </trkpt>
      <trkpt lat="50.40066" lon="5.47856">
        <ele>242</ele>
        <time>2016-10-21T10:09:52Z</time>
      </trkpt>
      <trkpt lat="50.40069" lon="5.47851">
        <ele>242</ele>
        <time>2016-10-21T10:11:52Z</time>
      </trkpt>
      <trkpt lat="50.40072" lon="5.47847">
        <ele>242</ele>
        <time>2016-10-21T10:13:52Z</time>
      </trkpt>
      <trkpt lat="50.4008" lon="5.47827">
        <ele>244</ele>
        <time>2016-10-21T10:15:52Z</time>
      </trkpt>
      <trkpt lat="50.4009" lon="5.478">
        <ele>245</ele>
        <time>2016-10-21T10:17:52Z</time>
      </trkpt>
      <trkpt lat="50.40094" lon="5.47796">
        <ele>246</ele>
        <time>2016-10-21T10:19:52Z</time>
      </trkpt>
      <trkpt lat="50.40103" lon="5.47789">
        <ele>246</ele>
        <time>2016-10-21T10:21:52Z</time>
      </trkpt>
      <trkpt lat="50.4018" lon="5.47919">
        <ele>241</ele>
        <time>2016-10-21T10:23:52Z</time>
      </trkpt>
      <trkpt lat="50.40266" lon="5.4806">
        <ele>237</ele>
        <time>2016-10-21T10:25:52Z</time>
      </trkpt>
      <trkpt lat="50.40323" lon="5.48141">
        <ele>239</ele>
        <time>2016-10-21T10:27:52Z</time>
      </trkpt>
      <trkpt lat="50.40355" lon="5.48191">
        <ele>240</ele>
        <time>2016-10-21T10:29:52Z</time>
      </trkpt>
      <trkpt lat="50.40736" lon="5.48741">
        <ele>264</ele>
        <time>2016-10-21T10:31:52Z</time>
      </trkpt>
      <trkpt lat="50.40777" lon="5.48796">
        <ele>266</ele>
        <time>2016-10-21T10:33:52Z</time>
      </trkpt>
      <trkpt lat="50.40794" lon="5.48815">
        <ele>266</ele>
        <time>2016-10-21T10:35:52Z</time>
      </trkpt>
      <trkpt lat="50.408" lon="5.48811">
        <ele>266</ele>
        <time>2016-10-21T10:37:52Z</time>
      </trkpt>
      <trkpt lat="50.40809" lon="5.48804">
        <ele>265</ele>
        <time>2016-10-21T10:39:52Z</time>
      </trkpt>
      <trkpt lat="50.40855" lon="5.48747">
        <ele>264</ele>
        <time>2016-10-21T10:41:52Z</time>
      </trkpt>
      <trkpt lat="50.4086" lon="5.48743">
        <ele>264</ele>
        <time>2016-10-21T10:43:52Z</time>
      </trkpt>
      <trkpt lat="50.40866" lon="5.48741">
        <ele>265</ele>
        <time>2016-10-21T10:45:52Z</time>
      </trkpt>
      <trkpt lat="50.4087" lon="5.48743">
        <ele>265</ele>
        <time>2016-10-21T10:47:52Z</time>
      </trkpt>
      <trkpt lat="50.40919" lon="5.48819">
        <ele>263</ele>
        <time>2016-10-21T10:49:52Z</time>
      </trkpt>
      <trkpt lat="50.41037" lon="5.49054">
        <ele>255</ele>
        <time>2016-10-21T10:51:52Z</time>
      </trkpt>
      <trkpt lat="50.41106" lon="5.49199">
        <ele>246</ele>
        <time>2016-10-21T10:53:52Z</time>
      </trkpt>
      <trkpt lat="50.41169" lon="5.49344">
        <ele>235</ele>
        <time>2016-10-21T10:55:52Z</time>
      </trkpt>
      <trkpt lat="50.41205" lon="5.49474">
        <ele>235</ele>
        <time>2016-10-21T10:57:52Z</time>
      </trkpt>
      <trkpt lat="50.41217" lon="5.49506">
        <ele>233</ele>
        <time>2016-10-21T10:59:52Z</time>
      </trkpt>
      <trkpt lat="50.41228" lon="5.49529">
        <ele>233</ele>
        <time>2016-10-21T11:01:52Z</time>
      </trkpt>
      <trkpt lat="50.41251" lon="5.4956">
        <ele>230</ele>
        <time>2016-10-21T11:03:52Z</time>
      </trkpt>
      <trkpt lat="50.41259" lon="5.49566">
        <ele>229</ele>
        <time>2016-10-21T11:05:52Z</time>
      </trkpt>
      <trkpt lat="50.41281" lon="5.49572">
        <ele>227</ele>
        <time>2016-10-21T11:07:52Z</time>
      </trkpt>
      <trkpt lat="50.41289" lon="5.49576">
        <ele>226</ele>
        <time>2016-10-21T11:09:52Z</time>
      </trkpt>
      <trkpt lat="50.41296" lon="5.49582">
        <ele>226</ele>
        <time>2016-10-21T11:11:52Z</time>
      </trkpt>
      <trkpt lat="50.41327" lon="5.49667">
        <ele>226</ele>
        <time>2016-10-21T11:13:52Z</time>
      </trkpt>
      <trkpt lat="50.41332" lon="5.49673">
        <ele>226</ele>
        <time>2016-10-21T11:15:52Z</time>
      </trkpt>
      <trkpt lat="50.41338" lon="5.49674">
        <ele>227</ele>
        <time>2016-10-21T11:17:52Z</time>
      </trkpt>
      <trkpt lat="50.41345" lon="5.49672">
        <ele>229</ele>
        <time>2016-10-21T11:19:52Z</time>
      </trkpt>
      <trkpt lat="50.41346" lon="5.4965">
        <ele>229</ele>
        <time>2016-10-21T11:21:52Z</time>
      </trkpt>
      <trkpt lat="50.41325" lon="5.49485">
        <ele>221</ele>
        <time>2016-10-21T11:23:52Z</time>
      </trkpt>
      <trkpt lat="50.41326" lon="5.49476">
        <ele>222</ele>
        <time>2016-10-21T11:25:52Z</time>
      </trkpt>
      <trkpt lat="50.41329" lon="5.49468">
        <ele>222</ele>
        <time>2016-10-21T11:27:52Z</time>
      </trkpt>
      <trkpt lat="50.41333" lon="5.49462">
        <ele>222</ele>
        <time>2016-10-21T11:29:52Z</time>
      </trkpt>
      <trkpt lat="50.4134" lon="5.49458">
        <ele>223</ele>
        <time>2016-10-21T11:31:52Z</time>
      </trkpt>
      <trkpt lat="50.41383" lon="5.49436">
        <ele>225</ele>
        <time>2016-10-21T11:33:52Z</time>
      </trkpt>
      <trkpt lat="50.41391" lon="5.49426">
        <ele>225</ele>
        <time>2016-10-21T11:35:52Z</time>
      </trkpt>
      <trkpt lat="50.41398" lon="5.49414">
        <ele>225</ele>
        <time>2016-10-21T11:37:52Z</time>
      </trkpt>
      <trkpt lat="50.41414" lon="5.49379">
        <ele>222</ele>
        <time>2016-10-21T11:39:52Z</time>
      </trkpt>
      <trkpt lat="50.41444" lon="5.49342">
        <ele>219</ele>
        <time>2016-10-21T11:41:52Z</time>
      </trkpt>
      <trkpt lat="50.41454" lon="5.49332">
        <ele>218</ele>
        <time>2016-10-21T11:43:52Z</time>
      </trkpt>
      <trkpt lat="50.41464" lon="5.49325">
        <ele>219</ele>
        <time>2016-10-21T11:45:52Z</time>
      </trkpt>
      <trkpt lat="50.41473" lon="5.49318">
        <ele>220</ele>
        <time>2016-10-21T11:47:52Z</time>
      </trkpt>
      <trkpt lat="50.41483" lon="5.49317">
        <ele>219</ele>
        <time>2016-10-21T11:49:52Z</time>
      </trkpt>
      <trkpt lat="50.41489" lon="5.49319">
        <ele>219</ele>
        <time>2016-10-21T11:51:52Z</time>
      </trkpt>
      <trkpt lat="50.41491" lon="5.49321">
        <ele>218</ele>
        <time>2016-10-21T11:53:52Z</time>
      </trkpt>
      <trkpt lat="50.41501" lon="5.49362">
        <ele>218</ele>
        <time>2016-10-21T11:55:52Z</time>
      </trkpt>
      <trkpt lat="50.41503" lon="5.49371">
        <ele>219</ele>
        <time>2016-10-21T11:57:52Z</time>
      </trkpt>
      <trkpt lat="50.41507" lon="5.49378">
        <ele>220</ele>
        <time>2016-10-21T11:59:52Z</time>
      </trkpt>
      <trkpt lat="50.41511" lon="5.49382">
        <ele>219</ele>
        <time>2016-10-21T12:01:52Z</time>
      </trkpt>
      <trkpt lat="50.41547" lon="5.49403">
        <ele>217</ele>
        <time>2016-10-21T12:03:52Z</time>
      </trkpt>
      <trkpt lat="50.41574" lon="5.49412">
        <ele>215</ele>
        <time>2016-10-21T12:05:52Z</time>
      </trkpt>
      <trkpt lat="50.41588" lon="5.49416">
        <ele>213</ele>
        <time>2016-10-21T12:07:52Z</time>
      </trkpt>
      <trkpt lat="50.4165" lon="5.49427">
        <ele>207</ele>
        <time>2016-10-21T12:09:52Z</time>
      </trkpt>
      <trkpt lat="50.41715" lon="5.49447">
        <ele>196</ele>
        <time>2016-10-21T12:11:52Z</time>
      </trkpt>
      <trkpt lat="50.41772" lon="5.49458">
        <ele>182</ele>
        <time>2016-10-21T12:13:52Z</time>
      </trkpt>
      <trkpt lat="50.41788" lon="5.49462">
        <ele>177</ele>
        <time>2016-10-21T12:15:52Z</time>
      </trkpt>
      <trkpt lat="50.41797" lon="5.49468">
        <ele>175</ele>
        <time>2016-10-21T12:17:52Z</time>
      </trkpt>
      <trkpt lat="50.41802" lon="5.49476">
        <ele>174</ele>
        <time>2016-10-21T12:19:52Z</time>
      </trkpt>
      <trkpt lat="50.41804" lon="5.49482">
        <ele>173</ele>
        <time>2016-10-21T12:21:52Z</time>
      </trkpt>
      <trkpt lat="50.41805" lon="5.4949">
        <ele>173</ele>
        <time>2016-10-21T12:23:52Z</time>
      </trkpt>
      <trkpt lat="50.41805" lon="5.495">
        <ele>173</ele>
        <time>2016-10-21T12:25:52Z</time>
      </trkpt>
      <trkpt lat="50.41801" lon="5.49513">
        <ele>175</ele>
        <time>2016-10-21T12:27:52Z</time>
      </trkpt>
      <trkpt lat="50.41788" lon="5.49562">
        <ele>179</ele>
        <time>2016-10-21T12:29:52Z</time>
      </trkpt>
      <trkpt lat="50.41783" lon="5.49585">
        <ele>182</ele>
        <time>2016-10-21T12:31:52Z</time>
      </trkpt>
      <trkpt lat="50.4178" lon="5.49609">
        <ele>183</ele>
        <time>2016-10-21T12:33:52Z</time>
      </trkpt>
      <trkpt lat="50.41781" lon="5.49632">
        <ele>183</ele>
        <time>2016-10-21T12:35:52Z</time>
      </trkpt>
      <trkpt lat="50.41783" lon="5.49656">
        <ele>183</ele>
        <time>2016-10-21T12:37:52Z</time>
      </trkpt>
      <trkpt lat="50.41787" lon="5.49675">
        <ele>182</ele>
        <time>2016-10-21T12:39:52Z</time>
      </trkpt>
      <trkpt lat="50.41792" lon="5.49697">
        <ele>182</ele>
        <time>2016-10-21T12:41:52Z</time>
      </trkpt>
      <trkpt lat="50.41812" lon="5.49754">
        <ele>179</ele>
        <time>2016-10-21T12:43:52Z</time>
      </trkpt>
      <trkpt lat="50.41821" lon="5.49772">
        <ele>176</ele>
        <time>2016-10-21T12:45:52Z</time>
      </trkpt>
      <trkpt lat="50.41835" lon="5.49797">
        <ele>172</ele>
        <time>2016-10-21T12:47:52Z</time>
      </trkpt>
      <trkpt lat="50.41857" lon="5.49821">
        <ele>168</ele>
        <time>2016-10-21T12:49:52Z</time>
      </trkpt>
      <trkpt lat="50.4189" lon="5.49852">
        <ele>164</ele>
        <time>2016-10-21T12:51:52Z</time>
      </trkpt>
      <trkpt lat="50.41904" lon="5.49862">
        <ele>163</ele>
        <time>2016-10-21T12:53:52Z</time>
      </trkpt>
      <trkpt lat="50.41919" lon="5.49868">
        <ele>160</ele>
        <time>2016-10-21T12:55:52Z</time>
      </trkpt>
      <trkpt lat="50.4193" lon="5.49872">
        <ele>160</ele>
        <time>2016-10-21T12:57:52Z</time>
      </trkpt>
      <trkpt lat="50.41939" lon="5.49872">
        <ele>159</ele>
        <time>2016-10-21T12:59:52Z</time>
      </trkpt>
      <trkpt lat="50.41952" lon="5.4987">
        <ele>157</ele>
        <time>2016-10-21T13:01:52Z</time>
      </trkpt>
      <trkpt lat="50.41959" lon="5.49867">
        <ele>155</ele>
        <time>2016-10-21T13:03:52Z</time>
      </trkpt>
      <trkpt lat="50.41966" lon="5.49862">
        <ele>153</ele>
        <time>2016-10-21T13:05:52Z</time>
      </trkpt>
      <trkpt lat="50.41973" lon="5.49856">
        <ele>151</ele>
        <time>2016-10-21T13:07:52Z</time>
      </trkpt>
      <trkpt lat="50.41979" lon="5.49849">
        <ele>149</ele>
        <time>2016-10-21T13:09:52Z</time>
      </trkpt>
      <trkpt lat="50.41993" lon="5.4983">
        <ele>145</ele>
        <time>2016-10-21T13:11:52Z</time>
      </trkpt>
      <trkpt lat="50.42008" lon="5.49808">
        <ele>144</ele>
        <time>2016-10-21T13:13:52Z</time>
      </trkpt>
      <trkpt lat="50.42018" lon="5.49794">
        <ele>144</ele>
        <time>2016-10-21T13:15:52Z</time>
      </trkpt>
      <trkpt lat="50.42027" lon="5.49777">
        <ele>145</ele>
        <time>2016-10-21T13:17:52Z</time>
      </trkpt>
      <trkpt lat="50.42032" lon="5.49767">
        <ele>145</ele>
        <time>2016-10-21T13:19:52Z</time>
      </trkpt>
      <trkpt lat="50.42042" lon="5.49737">
        <ele>146</ele>
        <time>2016-10-21T13:21:52Z</time>
      </trkpt>
      <trkpt lat="50.42058" lon="5.49681">
        <ele>149</ele>
        <time>2016-10-21T13:23:52Z</time>
      </trkpt>
      <trkpt lat="50.42078" lon="5.49688">
        <ele>150</ele>
        <time>2016-10-21T13:25:52Z</time>
      </trkpt>
      <trkpt lat="50.42098" lon="5.497">
        <ele>150</ele>
        <time>2016-10-21T13:27:52Z</time>
      </trkpt>
      <trkpt lat="50.42117" lon="5.49712">
        <ele>150</ele>
        <time>2016-10-21T13:29:52Z</time>
      </trkpt>
      <trkpt lat="50.42138" lon="5.49728">
        <ele>149</ele>
        <time>2016-10-21T13:31:52Z</time>
      </trkpt>
      <trkpt lat="50.4216" lon="5.49748">
        <ele>148</ele>
        <time>2016-10-21T13:33:52Z</time>
      </trkpt>
      <trkpt lat="50.42185" lon="5.49772">
        <ele>147</ele>
        <time>2016-10-21T13:35:52Z</time>
      </trkpt>
      <trkpt lat="50.42217" lon="5.49807">
        <ele>146</ele>
        <time>2016-10-21T13:37:52Z</time>
      </trkpt>
      <trkpt lat="50.42294" lon="5.49908">
        <ele>147</ele>
        <time>2016-10-21T13:39:52Z</time>
      </trkpt>
      <trkpt lat="50.42306" lon="5.49929">
        <ele>146</ele>
        <time>2016-10-21T13:41:52Z</time>
      </trkpt>
      <trkpt lat="50.42368" lon="5.50067">
        <ele>144</ele>
        <time>2016-10-21T13:43:52Z</time>
      </trkpt>
      <trkpt lat="50.42401" lon="5.50148">
        <ele>144</ele>
        <time>2016-10-21T13:45:52Z</time>
      </trkpt>
      <trkpt lat="50.42413" lon="5.50184">
        <ele>143</ele>
        <time>2016-10-21T13:47:52Z</time>
      </trkpt>
      <trkpt lat="50.42421" lon="5.50213">
        <ele>143</ele>
        <time>2016-10-21T13:49:52Z</time>
      </trkpt>
      <trkpt lat="50.42426" lon="5.50243">
        <ele>143</ele>
        <time>2016-10-21T13:51:52Z</time>
      </trkpt>
      <trkpt lat="50.42439" lon="5.50331">
        <ele>142</ele>
        <time>2016-10-21T13:53:52Z</time>
      </trkpt>
      <trkpt lat="50.42442" lon="5.50354">
        <ele>141</ele>
        <time>2016-10-21T13:55:52Z</time>
      </trkpt>
      <trkpt lat="50.4245" lon="5.5039">
        <ele>141</ele>
        <time>2016-10-21T13:57:52Z</time>
      </trkpt>
      <trkpt lat="50.42456" lon="5.50408">
        <ele>141</ele>
        <time>2016-10-21T13:59:52Z</time>
      </trkpt>
      <trkpt lat="50.42473" lon="5.5045">
        <ele>141</ele>
        <time>2016-10-21T14:01:52Z</time>
      </trkpt>
      <trkpt lat="50.42518" lon="5.50544">
        <ele>141</ele>
        <time>2016-10-21T14:03:52Z</time>
      </trkpt>
      <trkpt lat="50.42523" lon="5.50555">
        <ele>141</ele>
        <time>2016-10-21T14:05:52Z</time>
      </trkpt>
      <trkpt lat="50.42534" lon="5.50591">
        <ele>142</ele>
        <time>2016-10-21T14:07:52Z</time>
      </trkpt>
      <trkpt lat="50.42543" lon="5.50627">
        <ele>142</ele>
        <time>2016-10-21T14:09:52Z</time>
      </trkpt>
      <trkpt lat="50.42549" lon="5.5065">
        <ele>142</ele>
        <time>2016-10-21T14:11:52Z</time>
      </trkpt>
      <trkpt lat="50.4256" lon="5.5072">
        <ele>141</ele>
        <time>2016-10-21T14:13:52Z</time>
      </trkpt>
      <trkpt lat="50.42565" lon="5.50773">
        <ele>141</ele>
        <time>2016-10-21T14:15:52Z</time>
      </trkpt>
      <trkpt lat="50.42578" lon="5.50927">
        <ele>140</ele>
        <time>2016-10-21T14:17:52Z</time>
      </trkpt>
      <trkpt lat="50.42586" lon="5.51018">
        <ele>139</ele>
        <time>2016-10-21T14:19:52Z</time>
      </trkpt>
      <trkpt lat="50.42588" lon="5.51052">
        <ele>140</ele>
        <time>2016-10-21T14:21:52Z</time>
      </trkpt>
      <trkpt lat="50.4259" lon="5.51124">
        <ele>141</ele>
        <time>2016-10-21T14:23:52Z</time>
      </trkpt>
      <trkpt lat="50.4259" lon="5.51171">
        <ele>142</ele>
        <time>2016-10-21T14:25:52Z</time>
      </trkpt>
      <trkpt lat="50.42579" lon="5.51267">
        <ele>150</ele>
        <time>2016-10-21T14:27:52Z</time>
      </trkpt>
      <trkpt lat="50.42573" lon="5.51304">
        <ele>153</ele>
        <time>2016-10-21T14:29:52Z</time>
      </trkpt>
      <trkpt lat="50.42568" lon="5.51322">
        <ele>154</ele>
        <time>2016-10-21T14:31:52Z</time>
      </trkpt>
      <trkpt lat="50.42563" lon="5.51332">
        <ele>155</ele>
        <time>2016-10-21T14:33:52Z</time>
      </trkpt>
      <trkpt lat="50.42558" lon="5.51341">
        <ele>156</ele>
        <time>2016-10-21T14:35:52Z</time>
      </trkpt>
      <trkpt lat="50.42553" lon="5.51346">
        <ele>157</ele>
        <time>2016-10-21T14:37:52Z</time>
      </trkpt>
      <trkpt lat="50.42545" lon="5.51351">
        <ele>158</ele>
        <time>2016-10-21T14:39:52Z</time>
      </trkpt>
      <trkpt lat="50.42525" lon="5.5136">
        <ele>159</ele>
        <time>2016-10-21T14:41:52Z</time>
      </trkpt>
      <trkpt lat="50.425" lon="5.51366">
        <ele>159</ele>
        <time>2016-10-21T14:43:52Z</time>
      </trkpt>
      <trkpt lat="50.42484" lon="5.51366">
        <ele>159</ele>
        <time>2016-10-21T14:45:52Z</time>
      </trkpt>
      <trkpt lat="50.42473" lon="5.51364">
        <ele>158</ele>
        <time>2016-10-21T14:47:52Z</time>
      </trkpt>
      <trkpt lat="50.42432" lon="5.51341">
        <ele>152</ele>
        <time>2016-10-21T14:49:52Z</time>
      </trkpt>
      <trkpt lat="50.42411" lon="5.5133">
        <ele>151</ele>
        <time>2016-10-21T14:51:52Z</time>
      </trkpt>
      <trkpt lat="50.42399" lon="5.51328">
        <ele>152</ele>
        <time>2016-10-21T14:53:52Z</time>
      </trkpt>
      <trkpt lat="50.42389" lon="5.51329">
        <ele>152</ele>
        <time>2016-10-21T14:55:52Z</time>
      </trkpt>
      <trkpt lat="50.4238" lon="5.51331">
        <ele>153</ele>
        <time>2016-10-21T14:57:52Z</time>
      </trkpt>
      <trkpt lat="50.42369" lon="5.51336">
        <ele>153</ele>
        <time>2016-10-21T14:59:52Z</time>
      </trkpt>
      <trkpt lat="50.42304" lon="5.51376">
        <ele>159</ele>
        <time>2016-10-21T15:01:52Z</time>
      </trkpt>
      <trkpt lat="50.42275" lon="5.51398">
        <ele>159</ele>
        <time>2016-10-21T15:03:52Z</time>
      </trkpt>
      <trkpt lat="50.42263" lon="5.5142">
        <ele>157</ele>
        <time>2016-10-21T15:05:52Z</time>
      </trkpt>
      <trkpt lat="50.42256" lon="5.51437">
        <ele>155</ele>
        <time>2016-10-21T15:07:52Z</time>
      </trkpt>
      <trkpt lat="50.42252" lon="5.5145">
        <ele>154</ele>
        <time>2016-10-21T15:09:52Z</time>
      </trkpt>
      <trkpt lat="50.42247" lon="5.51468">
        <ele>152</ele>
        <time>2016-10-21T15:11:52Z</time>
      </trkpt>
      <trkpt lat="50.42244" lon="5.51496">
        <ele>151</ele>
        <time>2016-10-21T15:13:52Z</time>
      </trkpt>
      <trkpt lat="50.42245" lon="5.51547">
        <ele>149</ele>
        <time>2016-10-21T15:15:52Z</time>
      </trkpt>
      <trkpt lat="50.42247" lon="5.5157">
        <ele>147</ele>
        <time>2016-10-21T15:17:52Z</time>
      </trkpt>
      <trkpt lat="50.42251" lon="5.51593">
        <ele>146</ele>
        <time>2016-10-21T15:19:52Z</time>
      </trkpt>
      <trkpt lat="50.42261" lon="5.51632">
        <ele>147</ele>
        <time>2016-10-21T15:21:52Z</time>
      </trkpt>
      <trkpt lat="50.42275" lon="5.51676">
        <ele>151</ele>
        <time>2016-10-21T15:23:52Z</time>
      </trkpt>
      <trkpt lat="50.42288" lon="5.51709">
        <ele>154</ele>
        <time>2016-10-21T15:25:52Z</time>
      </trkpt>
      <trkpt lat="50.42312" lon="5.51764">
        <ele>154</ele>
        <time>2016-10-21T15:27:52Z</time>
      </trkpt>
      <trkpt lat="50.42388" lon="5.51919">
        <ele>154</ele>
        <time>2016-10-21T15:29:52Z</time>
      </trkpt>
      <trkpt lat="50.4254" lon="5.52243">
        <ele>149</ele>
        <time>2016-10-21T15:31:52Z</time>
      </trkpt>
      <trkpt lat="50.42557" lon="5.5228">
        <ele>149</ele>
        <time>2016-10-21T15:33:52Z</time>
      </trkpt>
      <trkpt lat="50.42597" lon="5.52376">
        <ele>145</ele>
        <time>2016-10-21T15:35:52Z</time>
      </trkpt>
      <trkpt lat="50.42613" lon="5.52422">
        <ele>147</ele>
        <time>2016-10-21T15:37:52Z</time>
      </trkpt>
      <trkpt lat="50.42623" lon="5.52459">
        <ele>146</ele>
        <time>2016-10-21T15:39:52Z</time>
      </trkpt>
      <trkpt lat="50.42634" lon="5.52497">
        <ele>145</ele>
        <time>2016-10-21T15:41:52Z</time>
      </trkpt>
      <trkpt lat="50.42641" lon="5.52532">
        <ele>144</ele>
        <time>2016-10-21T15:43:52Z</time>
      </trkpt>
      <trkpt lat="50.42644" lon="5.52567">
        <ele>142</ele>
        <time>2016-10-21T15:45:52Z</time>
      </trkpt>
      <trkpt lat="50.42649" lon="5.52617">
        <ele>138</ele>
        <time>2016-10-21T15:47:52Z</time>
      </trkpt>
      <trkpt lat="50.42656" lon="5.52754">
        <ele>129</ele>
        <time>2016-10-21T15:49:52Z</time>
      </trkpt>
      <trkpt lat="50.42674" lon="5.53026">
        <ele>122</ele>
        <time>2016-10-21T15:51:52Z</time>
      </trkpt>
      <trkpt lat="50.42685" lon="5.53209">
        <ele>119</ele>
        <time>2016-10-21T15:53:52Z</time>
      </trkpt>
      <trkpt lat="50.42685" lon="5.53225">
        <ele>118</ele>
        <time>2016-10-21T15:55:52Z</time>
      </trkpt>
      <trkpt lat="50.4267" lon="5.53247">
        <ele>119.1</ele>
        <time>2016-10-21T15:57:52Z</time>
      </trkpt>
      <trkpt lat="50.42561" lon="5.53606">
        <ele>116.3</ele>
        <time>2016-10-21T15:59:52Z</time>
      </trkpt>
      <trkpt lat="50.42615" lon="5.53626">
        <ele>115</ele>
      </trkpt>
      <trkpt lat="50.42661" lon="5.53631">
        <ele>115.3</ele>
      </trkpt>
      <trkpt lat="50.42691" lon="5.53636">
        <ele>115.1</ele>
      </trkpt>
      <trkpt lat="50.42718" lon="5.5365">
        <ele>115</ele>
      </trkpt>
      <trkpt lat="50.42721" lon="5.53639">
        <ele>115</ele>
        <time>2016-10-21T16:01:52Z</time>
      </trkpt>
      <trkpt lat="50.42686" lon="5.53631">
        <ele>115.3</ele>
      </trkpt>
      <trkpt lat="50.42642" lon="5.53623">
        <ele>115.6</ele>
      </trkpt>
      <trkpt lat="50.42615" lon="5.5362">
        <ele>115.4</ele>
      </trkpt>
      <trkpt lat="50.42571" lon="5.536">
        <ele>116.7</ele>
      </trkpt>
      <trkpt lat="50.42682" lon="5.53253">
        <ele>119.6</ele>
      </trkpt>
      <trkpt lat="50.4269" lon="5.53241">
        <ele>119.8</ele>
        <time>2016-10-21T16:03:52Z</time>
      </trkpt>
      <trkpt lat="50.42778" lon="5.53317">
        <ele>120</ele>
        <time>2016-10-21T16:05:52Z</time>
      </trkpt>
      <trkpt lat="50.42791" lon="5.53325">
        <ele>121</ele>
        <time>2016-10-21T16:07:52Z</time>
      </trkpt>
      <trkpt lat="50.42802" lon="5.53328">
        <ele>121</ele>
        <time>2016-10-21T16:09:52Z</time>
      </trkpt>
      <trkpt lat="50.42818" lon="5.53329">
        <ele>122</ele>
        <time>2016-10-21T16:11:52Z</time>
      </trkpt>
      <trkpt lat="50.42897" lon="5.53316">
        <ele>124</ele>
        <time>2016-10-21T16:13:52Z</time>
      </trkpt>
      <trkpt lat="50.42906" lon="5.53315">
        <ele>124</ele>
        <time>2016-10-21T16:15:52Z</time>
      </trkpt>
      <trkpt lat="50.42926" lon="5.53314">
        <ele>125</ele>
        <time>2016-10-21T16:17:52Z</time>
      </trkpt>
      <trkpt lat="50.42946" lon="5.53316">
        <ele>125</ele>
        <time>2016-10-21T16:19:52Z</time>
      </trkpt>
      <trkpt lat="50.42986" lon="5.53325">
        <ele>126</ele>
        <time>2016-10-21T16:21:52Z</time>
      </trkpt>
      <trkpt lat="50.43022" lon="5.53337">
        <ele>126</ele>
        <time>2016-10-21T16:23:52Z</time>
      </trkpt>
      <trkpt lat="50.43071" lon="5.5336">
        <ele>127</ele>
        <time>2016-10-21T16:25:52Z</time>
      </trkpt>
      <trkpt lat="50.43085" lon="5.53365">
        <ele>127</ele>
        <time>2016-10-21T16:27:52Z</time>
      </trkpt>
      <trkpt lat="50.43202" lon="5.53386">
        <ele>130</ele>
        <time>2016-10-21T16:29:52Z</time>
      </trkpt>
      <trkpt lat="50.43269" lon="5.53386">
        <ele>130</ele>
        <time>2016-10-21T16:31:52Z</time>
      </trkpt>
      <trkpt lat="50.4336" lon="5.53378">
        <ele>129</ele>
        <time>2016-10-21T16:33:52Z</time>
      </trkpt>
      <trkpt lat="50.43477" lon="5.53365">
        <ele>127</ele>
        <time>2016-10-21T16:35:52Z</time>
      </trkpt>
      <trkpt lat="50.43523" lon="5.53379">
        <ele>125</ele>
        <time>2016-10-21T16:37:52Z</time>
      </trkpt>
      <trkpt lat="50.43524" lon="5.5338">
        <ele>125</ele>
        <time>2016-10-21T16:39:52Z</time>
      </trkpt>
      <trkpt lat="50.43546" lon="5.53388">
        <ele>125</ele>
        <time>2016-10-21T16:41:52Z</time>
      </trkpt>
      <trkpt lat="50.43611" lon="5.5342">
        <ele>126</ele>
        <time>2016-10-21T16:43:52Z</time>
      </trkpt>
      <trkpt lat="50.43631" lon="5.53428">
        <ele>127</ele>
        <time>2016-10-21T16:45:52Z</time>
      </trkpt>
      <trkpt lat="50.43645" lon="5.53432">
        <ele>127</ele>
        <time>2016-10-21T16:47:52Z</time>
      </trkpt>
      <trkpt lat="50.43684" lon="5.53432">
        <ele>128</ele>
        <time>2016-10-21T16:49:52Z</time>
      </trkpt>
      <trkpt lat="50.43707" lon="5.53428">
        <ele>127</ele>
        <time>2016-10-21T16:51:52Z</time>
      </trkpt>
      <trkpt lat="50.43729" lon="5.53422">
        <ele>127</ele>
        <time>2016-10-21T16:53:52Z</time>
      </trkpt>
      <trkpt lat="50.43749" lon="5.53413">
        <ele>127</ele>
        <time>2016-10-21T16:55:52Z</time>
      </trkpt>
      <trkpt lat="50.43764" lon="5.53405">
        <ele>126</ele>
        <time>2016-10-21T16:57:52Z</time>
      </trkpt>
      <trkpt lat="50.43779" lon="5.53392">
        <ele>126</ele>
        <time>2016-10-21T16:59:52Z</time>
      </trkpt>
      <trkpt lat="50.43805" lon="5.53368">
        <ele>126</ele>
        <time>2016-10-21T17:01:52Z</time>
      </trkpt>
      <trkpt lat="50.43925" lon="5.53244">
        <ele>125</ele>
        <time>2016-10-21T17:03:52Z</time>
      </trkpt>
      <trkpt lat="50.43959" lon="5.53212">
        <ele>128</ele>
        <time>2016-10-21T17:05:52Z</time>
      </trkpt>
      <trkpt lat="50.43981" lon="5.53194">
        <ele>129</ele>
        <time>2016-10-21T17:07:52Z</time>
      </trkpt>
      <trkpt lat="50.4399" lon="5.53188">
        <ele>129</ele>
        <time>2016-10-21T17:09:52Z</time>
      </trkpt>
      <trkpt lat="50.44006" lon="5.53182">
        <ele>129</ele>
        <time>2016-10-21T17:11:52Z</time>
      </trkpt>
      <trkpt lat="50.4402" lon="5.5318">
        <ele>129</ele>
        <time>2016-10-21T17:13:52Z</time>
      </trkpt>
      <trkpt lat="50.44054" lon="5.5318">
        <ele>128</ele>
        <time>2016-10-21T17:15:52Z</time>
      </trkpt>
      <trkpt lat="50.44105" lon="5.53182">
        <ele>129</ele>
        <time>2016-10-21T17:17:52Z</time>
      </trkpt>
      <trkpt lat="50.44136" lon="5.53184">
        <ele>130</ele>
        <time>2016-10-21T17:19:52Z</time>
      </trkpt>
      <trkpt lat="50.44159" lon="5.53186">
        <ele>131</ele>
        <time>2016-10-21T17:21:52Z</time>
      </trkpt>
      <trkpt lat="50.44208" lon="5.53188">
        <ele>132</ele>
        <time>2016-10-21T17:23:52Z</time>
      </trkpt>
      <trkpt lat="50.44225" lon="5.5319">
        <ele>132</ele>
        <time>2016-10-21T17:25:52Z</time>
      </trkpt>
      <trkpt lat="50.44239" lon="5.53193">
        <ele>132</ele>
        <time>2016-10-21T17:27:52Z</time>
      </trkpt>
      <trkpt lat="50.44254" lon="5.53199">
        <ele>132</ele>
        <time>2016-10-21T17:29:52Z</time>
      </trkpt>
      <trkpt lat="50.44259" lon="5.53202">
        <ele>133</ele>
        <time>2016-10-21T17:31:52Z</time>
      </trkpt>
      <trkpt lat="50.44268" lon="5.53206">
        <ele>135</ele>
        <time>2016-10-21T17:33:52Z</time>
      </trkpt>
      <trkpt lat="50.44298" lon="5.53222">
        <ele>139</ele>
        <time>2016-10-21T17:35:52Z</time>
      </trkpt>
      <trkpt lat="50.44322" lon="5.53241">
        <ele>140</ele>
        <time>2016-10-21T17:37:52Z</time>
      </trkpt>
      <trkpt lat="50.4434" lon="5.53257">
        <ele>140</ele>
        <time>2016-10-21T17:39:52Z</time>
      </trkpt>
      <trkpt lat="50.44357" lon="5.53276">
        <ele>141</ele>
        <time>2016-10-21T17:41:52Z</time>
      </trkpt>
      <trkpt lat="50.44382" lon="5.53308">
        <ele>142</ele>
        <time>2016-10-21T17:43:52Z</time>
      </trkpt>
      <trkpt lat="50.44399" lon="5.5334">
        <ele>140</ele>
        <time>2016-10-21T17:45:52Z</time>
      </trkpt>
      <trkpt lat="50.44409" lon="5.5336">
        <ele>140</ele>
        <time>2016-10-21T17:47:52Z</time>
      </trkpt>
      <trkpt lat="50.44419" lon="5.53383">
        <ele>139</ele>
        <time>2016-10-21T17:49:52Z</time>
      </trkpt>
      <trkpt lat="50.44439" lon="5.53433">
        <ele>138</ele>
        <time>2016-10-21T17:51:52Z</time>
      </trkpt>
      <trkpt lat="50.44471" lon="5.53529">
        <ele>135</ele>
        <time>2016-10-21T17:53:52Z</time>
      </trkpt>
      <trkpt lat="50.44534" lon="5.53732">
        <ele>133</ele>
        <time>2016-10-21T17:55:52Z</time>
      </trkpt>
      <trkpt lat="50.44552" lon="5.53804">
        <ele>133</ele>
        <time>2016-10-21T17:57:52Z</time>
      </trkpt>
      <trkpt lat="50.44563" lon="5.53847">
        <ele>132</ele>
        <time>2016-10-21T17:59:52Z</time>
      </trkpt>
      <trkpt lat="50.44573" lon="5.5389">
        <ele>131</ele>
        <time>2016-10-21T18:01:52Z</time>
      </trkpt>
      <trkpt lat="50.44576" lon="5.53909">
        <ele>130</ele>
        <time>2016-10-21T18:03:52Z</time>
      </trkpt>
      <trkpt lat="50.44579" lon="5.53935">
        <ele>128</ele>
        <time>2016-10-21T18:05:52Z</time>
      </trkpt>
      <trkpt lat="50.4458" lon="5.53957">
        <ele>125</ele>
        <time>2016-10-21T18:07:52Z</time>
      </trkpt>
      <trkpt lat="50.4458" lon="5.54081">
        <ele>118</ele>
        <time>2016-10-21T18:09:52Z</time>
      </trkpt>
      <trkpt lat="50.44582" lon="5.54138">
        <ele>116</ele>
        <time>2016-10-21T18:11:52Z</time>
      </trkpt>
      <trkpt lat="50.44587" lon="5.54161">
        <ele>115</ele>
        <time>2016-10-21T18:13:52Z</time>
      </trkpt>
      <trkpt lat="50.44595" lon="5.54183">
        <ele>116</ele>
        <time>2016-10-21T18:15:52Z</time>
      </trkpt>
      <trkpt lat="50.44608" lon="5.54211">
        <ele>116</ele>
        <time>2016-10-21T18:17:52Z</time>
      </trkpt>
      <trkpt lat="50.44637" lon="5.54264">
        <ele>119</ele>
        <time>2016-10-21T18:19:52Z</time>
      </trkpt>
      <trkpt lat="50.44639" lon="5.54271">
        <ele>119</ele>
        <time>2016-10-21T18:21:52Z</time>
      </trkpt>
      <trkpt lat="50.44642" lon="5.54278">
        <ele>120</ele>
        <time>2016-10-21T18:23:52Z</time>
      </trkpt>
      <trkpt lat="50.44646" lon="5.543">
        <ele>121</ele>
        <time>2016-10-21T18:25:52Z</time>
      </trkpt>
      <trkpt lat="50.44647" lon="5.54314">
        <ele>121</ele>
        <time>2016-10-21T18:27:52Z</time>
      </trkpt>
      <trkpt lat="50.44647" lon="5.54324">
        <ele>121</ele>
        <time>2016-10-21T18:29:52Z</time>
      </trkpt>
      <trkpt lat="50.44645" lon="5.54345">
        <ele>122</ele>
        <time>2016-10-21T18:31:52Z</time>
      </trkpt>
      <trkpt lat="50.44641" lon="5.54363">
        <ele>122</ele>
        <time>2016-10-21T18:33:52Z</time>
      </trkpt>
      <trkpt lat="50.44638" lon="5.54378">
        <ele>123</ele>
        <time>2016-10-21T18:35:52Z</time>
      </trkpt>
      <trkpt lat="50.44633" lon="5.54393">
        <ele>123</ele>
        <time>2016-10-21T18:37:52Z</time>
      </trkpt>
      <trkpt lat="50.44627" lon="5.54406">
        <ele>122</ele>
        <time>2016-10-21T18:39:52Z</time>
      </trkpt>
      <trkpt lat="50.44615" lon="5.54446">
        <ele>123</ele>
        <time>2016-10-21T18:41:52Z</time>
      </trkpt>
      <trkpt lat="50.44611" lon="5.5447">
        <ele>123</ele>
        <time>2016-10-21T18:43:52Z</time>
      </trkpt>
      <trkpt lat="50.4461" lon="5.5449">
        <ele>124</ele>
        <time>2016-10-21T18:45:52Z</time>
      </trkpt>
      <trkpt lat="50.44609" lon="5.54494">
        <ele>124</ele>
        <time>2016-10-21T18:47:52Z</time>
      </trkpt>
      <trkpt lat="50.4461" lon="5.54525">
        <ele>125</ele>
        <time>2016-10-21T18:49:52Z</time>
      </trkpt>
      <trkpt lat="50.44614" lon="5.54568">
        <ele>126</ele>
        <time>2016-10-21T18:51:52Z</time>
      </trkpt>
      <trkpt lat="50.44621" lon="5.5462">
        <ele>127</ele>
        <time>2016-10-21T18:53:52Z</time>
      </trkpt>
      <trkpt lat="50.44621" lon="5.54623">
        <ele>127</ele>
        <time>2016-10-21T18:55:52Z</time>
      </trkpt>
      <trkpt lat="50.44622" lon="5.54627">
        <ele>128</ele>
        <time>2016-10-21T18:57:52Z</time>
      </trkpt>
      <trkpt lat="50.44622" lon="5.54634">
        <ele>128</ele>
        <time>2016-10-21T18:59:52Z</time>
      </trkpt>
      <trkpt lat="50.44624" lon="5.54642">
        <ele>128</ele>
        <time>2016-10-21T19:01:52Z</time>
      </trkpt>
      <trkpt lat="50.44625" lon="5.54649">
        <ele>128</ele>
        <time>2016-10-21T19:03:52Z</time>
      </trkpt>
      <trkpt lat="50.4463" lon="5.54668">
        <ele>129</ele>
        <time>2016-10-21T19:05:52Z</time>
      </trkpt>
      <trkpt lat="50.44643" lon="5.54703">
        <ele>130</ele>
        <time>2016-10-21T19:07:52Z</time>
      </trkpt>
      <trkpt lat="50.44654" lon="5.54727">
        <ele>131</ele>
        <time>2016-10-21T19:09:52Z</time>
      </trkpt>
      <trkpt lat="50.44687" lon="5.54777">
        <ele>131</ele>
        <time>2016-10-21T19:11:52Z</time>
      </trkpt>
      <trkpt lat="50.44743" lon="5.54851">
        <ele>133</ele>
        <time>2016-10-21T19:13:52Z</time>
      </trkpt>
      <trkpt lat="50.44767" lon="5.54889">
        <ele>134</ele>
        <time>2016-10-21T19:15:52Z</time>
      </trkpt>
      <trkpt lat="50.44775" lon="5.54904">
        <ele>135</ele>
        <time>2016-10-21T19:17:52Z</time>
      </trkpt>
      <trkpt lat="50.44797" lon="5.54965">
        <ele>135</ele>
        <time>2016-10-21T19:19:52Z</time>
      </trkpt>
      <trkpt lat="50.44812" lon="5.55011">
        <ele>136</ele>
        <time>2016-10-21T19:21:52Z</time>
      </trkpt>
      <trkpt lat="50.44816" lon="5.55031">
        <ele>136</ele>
        <time>2016-10-21T19:23:52Z</time>
      </trkpt>
      <trkpt lat="50.44819" lon="5.55043">
        <ele>137</ele>
        <time>2016-10-21T19:25:52Z</time>
      </trkpt>
      <trkpt lat="50.44866" lon="5.55153">
        <ele>140</ele>
        <time>2016-10-21T19:27:52Z</time>
      </trkpt>
      <trkpt lat="50.44984" lon="5.55396">
        <ele>147</ele>
        <time>2016-10-21T19:29:52Z</time>
      </trkpt>
      <trkpt lat="50.45012" lon="5.55461">
        <ele>150</ele>
        <time>2016-10-21T19:31:52Z</time>
      </trkpt>
      <trkpt lat="50.45016" lon="5.55475">
        <ele>150</ele>
        <time>2016-10-21T19:33:52Z</time>
      </trkpt>
      <trkpt lat="50.45018" lon="5.5549">
        <ele>150</ele>
        <time>2016-10-21T19:35:52Z</time>
      </trkpt>
      <trkpt lat="50.45018" lon="5.55507">
        <ele>151</ele>
        <time>2016-10-21T19:37:52Z</time>
      </trkpt>
      <trkpt lat="50.45013" lon="5.55532">
        <ele>150</ele>
        <time>2016-10-21T19:39:52Z</time>
      </trkpt>
      <trkpt lat="50.44987" lon="5.55633">
        <ele>151</ele>
        <time>2016-10-21T19:41:52Z</time>
      </trkpt>
      <trkpt lat="50.4498" lon="5.55662">
        <ele>151</ele>
        <time>2016-10-21T19:43:52Z</time>
      </trkpt>
      <trkpt lat="50.44976" lon="5.55683">
        <ele>151</ele>
        <time>2016-10-21T19:45:52Z</time>
      </trkpt>
      <trkpt lat="50.44974" lon="5.55714">
        <ele>151</ele>
        <time>2016-10-21T19:47:52Z</time>
      </trkpt>
      <trkpt lat="50.44975" lon="5.55728">
        <ele>151</ele>
        <time>2016-10-21T19:49:52Z</time>
      </trkpt>
      <trkpt lat="50.44981" lon="5.55754">
        <ele>151</ele>
        <time>2016-10-21T19:51:52Z</time>
      </trkpt>
      <trkpt lat="50.44989" lon="5.55776">
        <ele>150</ele>
        <time>2016-10-21T19:53:52Z</time>
      </trkpt>
      <trkpt lat="50.44998" lon="5.5579">
        <ele>149</ele>
        <time>2016-10-21T19:55:52Z</time>
      </trkpt>
      <trkpt lat="50.45057" lon="5.55913">
        <ele>144</ele>
        <time>2016-10-21T19:57:52Z</time>
      </trkpt>
      <trkpt lat="50.45068" lon="5.55931">
        <ele>142</ele>
        <time>2016-10-21T19:59:52Z</time>
      </trkpt>
      <trkpt lat="50.451" lon="5.55988">
        <ele>138</ele>
        <time>2016-10-21T20:01:52Z</time>
      </trkpt>
      <trkpt lat="50.45115" lon="5.56013">
        <ele>137</ele>
        <time>2016-10-21T20:03:52Z</time>
      </trkpt>
      <trkpt lat="50.45127" lon="5.56039">
        <ele>136</ele>
        <time>2016-10-21T20:05:52Z</time>
      </trkpt>
      <trkpt lat="50.45162" lon="5.5613">
        <ele>131</ele>
        <time>2016-10-21T20:07:52Z</time>
      </trkpt>
      <trkpt lat="50.45174" lon="5.56157">
        <ele>129</ele>
        <time>2016-10-21T20:09:52Z</time>
      </trkpt>
      <trkpt lat="50.45185" lon="5.56172">
        <ele>129</ele>
        <time>2016-10-21T20:11:52Z</time>
      </trkpt>
      <trkpt lat="50.4521" lon="5.56191">
        <ele>128</ele>
        <time>2016-10-21T20:13:52Z</time>
      </trkpt>
      <trkpt lat="50.45214" lon="5.56195">
        <ele>127</ele>
        <time>2016-10-21T20:15:52Z</time>
      </trkpt>
      <trkpt lat="50.45226" lon="5.56206">
        <ele>126</ele>
        <time>2016-10-21T20:17:52Z</time>
      </trkpt>
      <trkpt lat="50.45345" lon="5.563">
        <ele>117</ele>
        <time>2016-10-21T20:19:52Z</time>
      </trkpt>
      <trkpt lat="50.45359" lon="5.56314">
        <ele>115</ele>
        <time>2016-10-21T20:21:52Z</time>
      </trkpt>
      <trkpt lat="50.45371" lon="5.56341">
        <ele>113</ele>
        <time>2016-10-21T20:23:52Z</time>
      </trkpt>
      <trkpt lat="50.45376" lon="5.56358">
        <ele>112</ele>
        <time>2016-10-21T20:25:52Z</time>
      </trkpt>
      <trkpt lat="50.45411" lon="5.56516">
        <ele>106</ele>
        <time>2016-10-21T20:27:52Z</time>
      </trkpt>
      <trkpt lat="50.45416" lon="5.56529">
        <ele>106</ele>
        <time>2016-10-21T20:29:52Z</time>
      </trkpt>
      <trkpt lat="50.4542" lon="5.56536">
        <ele>106</ele>
        <time>2016-10-21T20:31:52Z</time>
      </trkpt>
      <trkpt lat="50.45426" lon="5.5654">
        <ele>106</ele>
        <time>2016-10-21T20:33:52Z</time>
      </trkpt>
      <trkpt lat="50.45493" lon="5.56579">
        <ele>106</ele>
        <time>2016-10-21T20:35:52Z</time>
      </trkpt>
      <trkpt lat="50.45504" lon="5.56583">
        <ele>106</ele>
        <time>2016-10-21T20:37:52Z</time>
      </trkpt>
      <trkpt lat="50.45508" lon="5.56583">
        <ele>106</ele>
        <time>2016-10-21T20:39:52Z</time>
      </trkpt>
      <trkpt lat="50.4551" lon="5.56584">
        <ele>106</ele>
        <time>2016-10-21T20:41:52Z</time>
      </trkpt>
      <trkpt lat="50.45518" lon="5.56582">
        <ele>107</ele>
        <time>2016-10-21T20:43:52Z</time>
      </trkpt>
      <trkpt lat="50.45573" lon="5.56561">
        <ele>110</ele>
        <time>2016-10-21T20:45:52Z</time>
      </trkpt>
      <trkpt lat="50.45599" lon="5.56554">
        <ele>113</ele>
        <time>2016-10-21T20:47:52Z</time>
      </trkpt>
      <trkpt lat="50.45623" lon="5.56553">
        <ele>116</ele>
        <time>2016-10-21T20:49:52Z</time>
      </trkpt>
      <trkpt lat="50.45642" lon="5.56557">
        <ele>118</ele>
        <time>2016-10-21T20:51:52Z</time>
      </trkpt>
      <trkpt lat="50.45645" lon="5.56558">
        <ele>119</ele>
        <time>2016-10-21T20:53:52Z</time>
      </trkpt>
      <trkpt lat="50.45668" lon="5.56569">
        <ele>120</ele>
        <time>2016-10-21T20:55:52Z</time>
      </trkpt>
      <trkpt lat="50.45689" lon="5.56577">
        <ele>119</ele>
        <time>2016-10-21T20:57:52Z</time>
      </trkpt>
      <trkpt lat="50.45707" lon="5.56582">
        <ele>118</ele>
        <time>2016-10-21T20:59:52Z</time>
      </trkpt>
      <trkpt lat="50.45728" lon="5.56584">
        <ele>118</ele>
        <time>2016-10-21T21:01:52Z</time>
      </trkpt>
      <trkpt lat="50.45748" lon="5.5658">
        <ele>118</ele>
        <time>2016-10-21T21:03:52Z</time>
      </trkpt>
      <trkpt lat="50.45795" lon="5.56564">
        <ele>119</ele>
        <time>2016-10-21T21:05:52Z</time>
      </trkpt>
      <trkpt lat="50.45848" lon="5.56549">
        <ele>120</ele>
        <time>2016-10-21T21:07:52Z</time>
      </trkpt>
      <trkpt lat="50.45879" lon="5.56539">
        <ele>124</ele>
        <time>2016-10-21T21:09:52Z</time>
      </trkpt>
      <trkpt lat="50.45936" lon="5.56519">
        <ele>127</ele>
        <time>2016-10-21T21:11:52Z</time>
      </trkpt>
      <trkpt lat="50.45978" lon="5.56499">
        <ele>124</ele>
        <time>2016-10-21T21:13:52Z</time>
      </trkpt>
      <trkpt lat="50.46017" lon="5.5648">
        <ele>124</ele>
        <time>2016-10-21T21:15:52Z</time>
      </trkpt>
      <trkpt lat="50.46087" lon="5.56444">
        <ele>126</ele>
        <time>2016-10-21T21:17:52Z</time>
      </trkpt>
      <trkpt lat="50.46191" lon="5.56392">
        <ele>134</ele>
        <time>2016-10-21T21:19:52Z</time>
      </trkpt>
      <trkpt lat="50.46217" lon="5.56384">
        <ele>136</ele>
        <time>2016-10-21T21:21:52Z</time>
      </trkpt>
      <trkpt lat="50.46233" lon="5.56383">
        <ele>137</ele>
        <time>2016-10-21T21:23:52Z</time>
      </trkpt>
      <trkpt lat="50.46255" lon="5.56386">
        <ele>137</ele>
        <time>2016-10-21T21:25:52Z</time>
      </trkpt>
      <trkpt lat="50.46281" lon="5.56389">
        <ele>139</ele>
        <time>2016-10-21T21:27:52Z</time>
      </trkpt>
      <trkpt lat="50.46306" lon="5.56394">
        <ele>141</ele>
        <time>2016-10-21T21:29:52Z</time>
      </trkpt>
      <trkpt lat="50.46328" lon="5.56402">
        <ele>141</ele>
        <time>2016-10-21T21:31:52Z</time>
      </trkpt>
      <trkpt lat="50.46348" lon="5.56413">
        <ele>141</ele>
        <time>2016-10-21T21:33:52Z</time>
      </trkpt>
      <trkpt lat="50.46369" lon="5.56428">
        <ele>139</ele>
        <time>2016-10-21T21:35:52Z</time>
      </trkpt>
      <trkpt lat="50.46405" lon="5.56466">
        <ele>131</ele>
        <time>2016-10-21T21:37:52Z</time>
      </trkpt>
      <trkpt lat="50.46422" lon="5.56485">
        <ele>127</ele>
        <time>2016-10-21T21:39:52Z</time>
      </trkpt>
      <trkpt lat="50.46451" lon="5.56522">
        <ele>128</ele>
        <time>2016-10-21T21:41:52Z</time>
      </trkpt>
      <trkpt lat="50.4647" lon="5.5655">
        <ele>129</ele>
        <time>2016-10-21T21:43:52Z</time>
      </trkpt>
      <trkpt lat="50.46491" lon="5.56586">
        <ele>127</ele>
        <time>2016-10-21T21:45:52Z</time>
      </trkpt>
      <trkpt lat="50.46513" lon="5.56629">
        <ele>126</ele>
        <time>2016-10-21T21:47:52Z</time>
      </trkpt>
      <trkpt lat="50.46522" lon="5.56655">
        <ele>125</ele>
        <time>2016-10-21T21:49:52Z</time>
      </trkpt>
      <trkpt lat="50.4653" lon="5.56676">
        <ele>126</ele>
        <time>2016-10-21T21:51:52Z</time>
      </trkpt>
      <trkpt lat="50.46537" lon="5.567">
        <ele>128</ele>
        <time>2016-10-21T21:53:52Z</time>
      </trkpt>
      <trkpt lat="50.46551" lon="5.56754">
        <ele>130</ele>
        <time>2016-10-21T21:55:52Z</time>
      </trkpt>
      <trkpt lat="50.46565" lon="5.56812">
        <ele>130</ele>
        <time>2016-10-21T21:57:52Z</time>
      </trkpt>
      <trkpt lat="50.46572" lon="5.5685">
        <ele>128</ele>
        <time>2016-10-21T21:59:52Z</time>
      </trkpt>
      <trkpt lat="50.46577" lon="5.56882">
        <ele>127</ele>
        <time>2016-10-21T22:01:52Z</time>
      </trkpt>
      <trkpt lat="50.46584" lon="5.5694">
        <ele>124</ele>
        <time>2016-10-21T22:03:52Z</time>
      </trkpt>
      <trkpt lat="50.46589" lon="5.57079">
        <ele>118</ele>
        <time>2016-10-21T22:05:52Z</time>
      </trkpt>
      <trkpt lat="50.46601" lon="5.57255">
        <ele>118</ele>
        <time>2016-10-21T22:07:52Z</time>
      </trkpt>
      <trkpt lat="50.46607" lon="5.57349">
        <ele>119</ele>
        <time>2016-10-21T22:09:52Z</time>
      </trkpt>
      <trkpt lat="50.46615" lon="5.5743">
        <ele>120</ele>
        <time>2016-10-21T22:11:52Z</time>
      </trkpt>
      <trkpt lat="50.46625" lon="5.57502">
        <ele>120</ele>
        <time>2016-10-21T22:13:52Z</time>
      </trkpt>
      <trkpt lat="50.46635" lon="5.57572">
        <ele>120</ele>
        <time>2016-10-21T22:15:52Z</time>
      </trkpt>
      <trkpt lat="50.46643" lon="5.57622">
        <ele>119</ele>
        <time>2016-10-21T22:17:52Z</time>
      </trkpt>
      <trkpt lat="50.46655" lon="5.57689">
        <ele>116</ele>
        <time>2016-10-21T22:19:52Z</time>
      </trkpt>
      <trkpt lat="50.46664" lon="5.57736">
        <ele>114</ele>
        <time>2016-10-21T22:21:52Z</time>
      </trkpt>
      <trkpt lat="50.46673" lon="5.57778">
        <ele>113</ele>
        <time>2016-10-21T22:23:52Z</time>
      </trkpt>
      <trkpt lat="50.46693" lon="5.57844">
        <ele>113</ele>
        <time>2016-10-21T22:25:52Z</time>
      </trkpt>
      <trkpt lat="50.46715" lon="5.579">
        <ele>114</ele>
        <time>2016-10-21T22:27:52Z</time>
      </trkpt>
      <trkpt lat="50.46727" lon="5.57924">
        <ele>114</ele>
        <time>2016-10-21T22:29:52Z</time>
      </trkpt>
      <trkpt lat="50.46738" lon="5.57945">
        <ele>114</ele>
        <time>2016-10-21T22:31:52Z</time>
      </trkpt>
      <trkpt lat="50.46771" lon="5.57992">
        <ele>114</ele>
        <time>2016-10-21T22:33:52Z</time>
      </trkpt>
      <trkpt lat="50.46797" lon="5.58025">
        <ele>116</ele>
        <time>2016-10-21T22:35:52Z</time>
      </trkpt>
      <trkpt lat="50.46808" lon="5.58037">
        <ele>116</ele>
        <time>2016-10-21T22:37:52Z</time>
      </trkpt>
      <trkpt lat="50.46823" lon="5.58048">
        <ele>117</ele>
        <time>2016-10-21T22:39:52Z</time>
      </trkpt>
      <trkpt lat="50.46905" lon="5.58094">
        <ele>117</ele>
        <time>2016-10-21T22:41:52Z</time>
      </trkpt>
      <trkpt lat="50.46925" lon="5.58102">
        <ele>116</ele>
        <time>2016-10-21T22:43:52Z</time>
      </trkpt>
      <trkpt lat="50.46946" lon="5.58106">
        <ele>116</ele>
        <time>2016-10-21T22:45:52Z</time>
      </trkpt>
      <trkpt lat="50.46968" lon="5.58106">
        <ele>117</ele>
        <time>2016-10-21T22:47:52Z</time>
      </trkpt>
      <trkpt lat="50.46986" lon="5.58102">
        <ele>118</ele>
        <time>2016-10-21T22:49:52Z</time>
      </trkpt>
      <trkpt lat="50.4702" lon="5.5809">
        <ele>120</ele>
        <time>2016-10-21T22:51:52Z</time>
      </trkpt>
      <trkpt lat="50.4707" lon="5.58071">
        <ele>122</ele>
        <time>2016-10-21T22:53:52Z</time>
      </trkpt>
      <trkpt lat="50.47174" lon="5.5803">
        <ele>113</ele>
        <time>2016-10-21T22:55:52Z</time>
      </trkpt>
      <trkpt lat="50.4727" lon="5.57993">
        <ele>106</ele>
        <time>2016-10-21T22:57:52Z</time>
      </trkpt>
      <trkpt lat="50.47286" lon="5.57986">
        <ele>107</ele>
        <time>2016-10-21T22:59:52Z</time>
      </trkpt>
      <trkpt lat="50.47302" lon="5.57975">
        <ele>108</ele>
        <time>2016-10-21T23:01:52Z</time>
      </trkpt>
      <trkpt lat="50.47314" lon="5.57961">
        <ele>108</ele>
        <time>2016-10-21T23:03:52Z</time>
      </trkpt>
      <trkpt lat="50.47337" lon="5.57929">
        <ele>108</ele>
        <time>2016-10-21T23:05:52Z</time>
      </trkpt>
      <trkpt lat="50.47361" lon="5.57893">
        <ele>108</ele>
        <time>2016-10-21T23:07:52Z</time>
      </trkpt>
      <trkpt lat="50.47403" lon="5.57829">
        <ele>104</ele>
        <time>2016-10-21T23:09:52Z</time>
      </trkpt>
      <trkpt lat="50.4743" lon="5.5779">
        <ele>105</ele>
        <time>2016-10-21T23:11:52Z</time>
      </trkpt>
      <trkpt lat="50.47444" lon="5.57777">
        <ele>105</ele>
        <time>2016-10-21T23:13:52Z</time>
      </trkpt>
      <trkpt lat="50.47472" lon="5.57764">
        <ele>104</ele>
        <time>2016-10-21T23:15:52Z</time>
      </trkpt>
      <trkpt lat="50.47484" lon="5.57761">
        <ele>104</ele>
        <time>2016-10-21T23:17:52Z</time>
      </trkpt>
      <trkpt lat="50.47502" lon="5.5776">
        <ele>103</ele>
        <time>2016-10-21T23:19:52Z</time>
      </trkpt>
      <trkpt lat="50.47519" lon="5.57761">
        <ele>103</ele>
        <time>2016-10-21T23:21:52Z</time>
      </trkpt>
      <trkpt lat="50.47523" lon="5.57763">
        <ele>103</ele>
        <time>2016-10-21T23:23:52Z</time>
      </trkpt>
      <trkpt lat="50.47542" lon="5.57769">
        <ele>103</ele>
        <time>2016-10-21T23:25:52Z</time>
      </trkpt>
      <trkpt lat="50.476" lon="5.57795">
        <ele>102</ele>
        <time>2016-10-21T23:27:52Z</time>
      </trkpt>
      <trkpt lat="50.47614" lon="5.57803">
        <ele>102</ele>
        <time>2016-10-21T23:29:52Z</time>
      </trkpt>
      <trkpt lat="50.47625" lon="5.5781">
        <ele>101</ele>
        <time>2016-10-21T23:31:52Z</time>
      </trkpt>
      <trkpt lat="50.47647" lon="5.57827">
        <ele>101</ele>
        <time>2016-10-21T23:33:52Z</time>
      </trkpt>
      <trkpt lat="50.47669" lon="5.57847">
        <ele>100</ele>
        <time>2016-10-21T23:35:52Z</time>
      </trkpt>
      <trkpt lat="50.47693" lon="5.57874">
        <ele>100</ele>
        <time>2016-10-21T23:37:52Z</time>
      </trkpt>
      <trkpt lat="50.47712" lon="5.57898">
        <ele>101</ele>
        <time>2016-10-21T23:39:52Z</time>
      </trkpt>
      <trkpt lat="50.47725" lon="5.57912">
        <ele>101</ele>
        <time>2016-10-21T23:41:52Z</time>
      </trkpt>
      <trkpt lat="50.47736" lon="5.57927">
        <ele>102</ele>
        <time>2016-10-21T23:43:52Z</time>
      </trkpt>
      <trkpt lat="50.47744" lon="5.57942">
        <ele>102</ele>
        <time>2016-10-21T23:45:52Z</time>
      </trkpt>
      <trkpt lat="50.47753" lon="5.57963">
        <ele>103</ele>
        <time>2016-10-21T23:47:52Z</time>
      </trkpt>
      <trkpt lat="50.4776" lon="5.57987">
        <ele>104</ele>
        <time>2016-10-21T23:49:52Z</time>
      </trkpt>
      <trkpt lat="50.47763" lon="5.58006">
        <ele>105</ele>
        <time>2016-10-21T23:51:52Z</time>
      </trkpt>
      <trkpt lat="50.47766" lon="5.5803">
        <ele>108</ele>
        <time>2016-10-21T23:53:52Z</time>
      </trkpt>
      <trkpt lat="50.47766" lon="5.58057">
        <ele>110</ele>
        <time>2016-10-21T23:55:52Z</time>
      </trkpt>
      <trkpt lat="50.47765" lon="5.58076">
        <ele>112</ele>
        <time>2016-10-21T23:57:52Z</time>
      </trkpt>
      <trkpt lat="50.47763" lon="5.58098">
        <ele>114</ele>
        <time>2016-10-21T23:59:52Z</time>
      </trkpt>
      <trkpt lat="50.47758" lon="5.58132">
        <ele>116</ele>
        <time>2016-10-22T00:01:52Z</time>
      </trkpt>
      <trkpt lat="50.47749" lon="5.58163">
        <ele>116</ele>
        <time>2016-10-22T00:03:52Z</time>
      </trkpt>
      <trkpt lat="50.47743" lon="5.58181">
        <ele>117</ele>
        <time>2016-10-22T00:05:52Z</time>
      </trkpt>
      <trkpt lat="50.47736" lon="5.58199">
        <ele>118</ele>
        <time>2016-10-22T00:07:52Z</time>
      </trkpt>
      <trkpt lat="50.47717" lon="5.58246">
        <ele>119</ele>
        <time>2016-10-22T00:09:52Z</time>
      </trkpt>
      <trkpt lat="50.47695" lon="5.58299">
        <ele>118</ele>
        <time>2016-10-22T00:11:52Z</time>
      </trkpt>
      <trkpt lat="50.4768" lon="5.58342">
        <ele>116</ele>
        <time>2016-10-22T00:13:52Z</time>
      </trkpt>
      <trkpt lat="50.47671" lon="5.5838">
        <ele>114</ele>
        <time>2016-10-22T00:15:52Z</time>
      </trkpt>
      <trkpt lat="50.47664" lon="5.58416">
        <ele>113</ele>
        <time>2016-10-22T00:17:52Z</time>
      </trkpt>
      <trkpt lat="50.47657" lon="5.58447">
        <ele>112</ele>
        <time>2016-10-22T00:19:52Z</time>
      </trkpt>
      <trkpt lat="50.47646" lon="5.58494">
        <ele>112</ele>
        <time>2016-10-22T00:21:52Z</time>
      </trkpt>
      <trkpt lat="50.47635" lon="5.58558">
        <ele>109</ele>
        <time>2016-10-22T00:23:52Z</time>
      </trkpt>
      <trkpt lat="50.47634" lon="5.58575">
        <ele>109</ele>
        <time>2016-10-22T00:25:52Z</time>
      </trkpt>
      <trkpt lat="50.47633" lon="5.58603">
        <ele>108</ele>
        <time>2016-10-22T00:27:52Z</time>
      </trkpt>
      <trkpt lat="50.47635" lon="5.58629">
        <ele>108</ele>
        <time>2016-10-22T00:29:52Z</time>
      </trkpt>
      <trkpt lat="50.47638" lon="5.58648">
        <ele>108</ele>
        <time>2016-10-22T00:31:52Z</time>
      </trkpt>
      <trkpt lat="50.47645" lon="5.5867">
        <ele>108</ele>
        <time>2016-10-22T00:33:52Z</time>
      </trkpt>
      <trkpt lat="50.47651" lon="5.58687">
        <ele>108</ele>
        <time>2016-10-22T00:35:52Z</time>
      </trkpt>
      <trkpt lat="50.47662" lon="5.5871">
        <ele>107</ele>
        <time>2016-10-22T00:37:52Z</time>
      </trkpt>
      <trkpt lat="50.47676" lon="5.58731">
        <ele>109</ele>
        <time>2016-10-22T00:39:52Z</time>
      </trkpt>
      <trkpt lat="50.477" lon="5.58764">
        <ele>110</ele>
        <time>2016-10-22T00:41:52Z</time>
      </trkpt>
      <trkpt lat="50.47716" lon="5.58782">
        <ele>110</ele>
        <time>2016-10-22T00:43:52Z</time>
      </trkpt>
      <trkpt lat="50.47762" lon="5.58835">
        <ele>106</ele>
        <time>2016-10-22T00:45:52Z</time>
      </trkpt>
      <trkpt lat="50.47781" lon="5.58855">
        <ele>109</ele>
        <time>2016-10-22T00:47:52Z</time>
      </trkpt>
      <trkpt lat="50.47786" lon="5.58859">
        <ele>109</ele>
        <time>2016-10-22T00:49:52Z</time>
      </trkpt>
      <trkpt lat="50.47793" lon="5.58864">
        <ele>110</ele>
        <time>2016-10-22T00:51:52Z</time>
      </trkpt>
      <trkpt lat="50.47804" lon="5.58871">
        <ele>112</ele>
        <time>2016-10-22T00:53:52Z</time>
      </trkpt>
      <trkpt lat="50.47817" lon="5.58875">
        <ele>113</ele>
        <time>2016-10-22T00:55:52Z</time>
      </trkpt>
      <trkpt lat="50.47828" lon="5.58877">
        <ele>115</ele>
        <time>2016-10-22T00:57:52Z</time>
      </trkpt>
      <trkpt lat="50.4784" lon="5.58878">
        <ele>116</ele>
        <time>2016-10-22T00:59:52Z</time>
      </trkpt>
      <trkpt lat="50.47856" lon="5.58878">
        <ele>115</ele>
        <time>2016-10-22T01:01:52Z</time>
      </trkpt>
      <trkpt lat="50.4787" lon="5.58876">
        <ele>115</ele>
        <time>2016-10-22T01:03:52Z</time>
      </trkpt>
      <trkpt lat="50.47882" lon="5.58872">
        <ele>116</ele>
        <time>2016-10-22T01:05:52Z</time>
      </trkpt>
      <trkpt lat="50.47917" lon="5.58847">
        <ele>118</ele>
        <time>2016-10-22T01:07:52Z</time>
      </trkpt>
      <trkpt lat="50.4793" lon="5.58837">
        <ele>117</ele>
        <time>2016-10-22T01:09:52Z</time>
      </trkpt>
      <trkpt lat="50.47937" lon="5.58853">
        <ele>114</ele>
        <time>2016-10-22T01:11:52Z</time>
      </trkpt>
      <trkpt lat="50.47945" lon="5.58877">
        <ele>110</ele>
        <time>2016-10-22T01:13:52Z</time>
      </trkpt>
      <trkpt lat="50.47957" lon="5.58909">
        <ele>106</ele>
        <time>2016-10-22T01:15:52Z</time>
      </trkpt>
      <trkpt lat="50.47965" lon="5.58933">
        <ele>104</ele>
        <time>2016-10-22T01:17:52Z</time>
      </trkpt>
      <trkpt lat="50.47971" lon="5.58956">
        <ele>102</ele>
        <time>2016-10-22T01:19:52Z</time>
      </trkpt>
      <trkpt lat="50.47976" lon="5.58984">
        <ele>101</ele>
        <time>2016-10-22T01:21:52Z</time>
      </trkpt>
      <trkpt lat="50.47979" lon="5.59005">
        <ele>100</ele>
        <time>2016-10-22T01:23:52Z</time>
      </trkpt>
      <trkpt lat="50.47984" lon="5.5905">
        <ele>102</ele>
        <time>2016-10-22T01:25:52Z</time>
      </trkpt>
      <trkpt lat="50.47986" lon="5.5907">
        <ele>103</ele>
        <time>2016-10-22T01:27:52Z</time>
      </trkpt>
      <trkpt lat="50.48055" lon="5.59083">
        <ele>100</ele>
        <time>2016-10-22T01:29:52Z</time>
      </trkpt>
      <trkpt lat="50.48154" lon="5.59104">
        <ele>98</ele>
        <time>2016-10-22T01:31:52Z</time>
      </trkpt>
      <trkpt lat="50.48192" lon="5.59114">
        <ele>101</ele>
        <time>2016-10-22T01:33:52Z</time>
      </trkpt>
      <trkpt lat="50.48212" lon="5.5912">
        <ele>104</ele>
        <time>2016-10-22T01:35:52Z</time>
      </trkpt>
      <trkpt lat="50.48225" lon="5.59123">
        <ele>105</ele>
        <time>2016-10-22T01:37:52Z</time>
      </trkpt>
      <trkpt lat="50.48231" lon="5.59118">
        <ele>106</ele>
        <time>2016-10-22T01:39:52Z</time>
      </trkpt>
      <trkpt lat="50.48236" lon="5.5911">
        <ele>107</ele>
        <time>2016-10-22T01:41:52Z</time>
      </trkpt>
      <trkpt lat="50.4824" lon="5.59096">
        <ele>107</ele>
        <time>2016-10-22T01:43:52Z</time>
      </trkpt>
      <trkpt lat="50.48243" lon="5.59072">
        <ele>107</ele>
        <time>2016-10-22T01:45:52Z</time>
      </trkpt>
      <trkpt lat="50.48245" lon="5.5905">
        <ele>107</ele>
        <time>2016-10-22T01:47:52Z</time>
      </trkpt>
      <trkpt lat="50.48248" lon="5.59009">
        <ele>108</ele>
        <time>2016-10-22T01:49:52Z</time>
      </trkpt>
      <trkpt lat="50.48256" lon="5.58942">
        <ele>108</ele>
        <time>2016-10-22T01:51:52Z</time>
      </trkpt>
      <trkpt lat="50.48265" lon="5.5891">
        <ele>109</ele>
        <time>2016-10-22T01:53:52Z</time>
      </trkpt>
      <trkpt lat="50.48283" lon="5.5886">
        <ele>112</ele>
        <time>2016-10-22T01:55:52Z</time>
      </trkpt>
      <trkpt lat="50.483" lon="5.58819">
        <ele>114</ele>
        <time>2016-10-22T01:57:52Z</time>
      </trkpt>
      <trkpt lat="50.48305" lon="5.58817">
        <ele>115</ele>
        <time>2016-10-22T01:59:52Z</time>
      </trkpt>
      <trkpt lat="50.48307" lon="5.58819">
        <ele>116</ele>
        <time>2016-10-22T02:01:52Z</time>
      </trkpt>
      <trkpt lat="50.48309" lon="5.58823">
        <ele>117</ele>
        <time>2016-10-22T02:03:52Z</time>
      </trkpt>
      <trkpt lat="50.48312" lon="5.58816">
        <ele>117</ele>
        <time>2016-10-22T02:05:52Z</time>
      </trkpt>
      <trkpt lat="50.48316" lon="5.58811">
        <ele>117</ele>
        <time>2016-10-22T02:07:52Z</time>
      </trkpt>
      <trkpt lat="50.48321" lon="5.58808">
        <ele>118</ele>
        <time>2016-10-22T02:09:52Z</time>
      </trkpt>
      <trkpt lat="50.48322" lon="5.58807">
        <ele>118</ele>
        <time>2016-10-22T02:11:52Z</time>
      </trkpt>
      <trkpt lat="50.48328" lon="5.58806">
        <ele>119</ele>
        <time>2016-10-22T02:13:52Z</time>
      </trkpt>
      <trkpt lat="50.48339" lon="5.58801">
        <ele>120</ele>
        <time>2016-10-22T02:15:52Z</time>
      </trkpt>
      <trkpt lat="50.48377" lon="5.58742">
        <ele>118</ele>
        <time>2016-10-22T02:17:52Z</time>
      </trkpt>
      <trkpt lat="50.48379" lon="5.5873">
        <ele>116</ele>
        <time>2016-10-22T02:19:52Z</time>
      </trkpt>
      <trkpt lat="50.48376" lon="5.58712">
        <ele>113</ele>
        <time>2016-10-22T02:21:52Z</time>
      </trkpt>
      <trkpt lat="50.48376" lon="5.58711">
        <ele>113</ele>
        <time>2016-10-22T02:23:52Z</time>
      </trkpt>
      <trkpt lat="50.48375" lon="5.58705">
        <ele>111</ele>
        <time>2016-10-22T02:25:52Z</time>
      </trkpt>
      <trkpt lat="50.48373" lon="5.58685">
        <ele>108</ele>
        <time>2016-10-22T02:27:52Z</time>
      </trkpt>
      <trkpt lat="50.48429" lon="5.58641">
        <ele>111</ele>
        <time>2016-10-22T02:29:52Z</time>
      </trkpt>
      <trkpt lat="50.48475" lon="5.586">
        <ele>114</ele>
        <time>2016-10-22T02:31:52Z</time>
      </trkpt>
      <trkpt lat="50.48515" lon="5.58568">
        <ele>114</ele>
        <time>2016-10-22T02:33:52Z</time>
      </trkpt>
      <trkpt lat="50.48553" lon="5.58544">
        <ele>112</ele>
        <time>2016-10-22T02:35:52Z</time>
      </trkpt>
      <trkpt lat="50.48555" lon="5.58543">
        <ele>112</ele>
        <time>2016-10-22T02:37:52Z</time>
      </trkpt>
      <trkpt lat="50.4859" lon="5.5852">
        <ele>108</ele>
        <time>2016-10-22T02:39:52Z</time>
      </trkpt>
      <trkpt lat="50.48653" lon="5.58496">
        <ele>104</ele>
        <time>2016-10-22T02:41:52Z</time>
      </trkpt>
      <trkpt lat="50.48727" lon="5.58472">
        <ele>104</ele>
        <time>2016-10-22T02:43:52Z</time>
      </trkpt>
      <trkpt lat="50.48772" lon="5.58469">
        <ele>104</ele>
        <time>2016-10-22T02:45:52Z</time>
      </trkpt>
      <trkpt lat="50.4882" lon="5.58471">
        <ele>104</ele>
        <time>2016-10-22T02:47:52Z</time>
      </trkpt>
      <trkpt lat="50.48876" lon="5.58481">
        <ele>103</ele>
        <time>2016-10-22T02:49:52Z</time>
      </trkpt>
      <trkpt lat="50.48899" lon="5.58488">
        <ele>102</ele>
        <time>2016-10-22T02:51:52Z</time>
      </trkpt>
      <trkpt lat="50.48917" lon="5.58496">
        <ele>100</ele>
        <time>2016-10-22T02:53:52Z</time>
      </trkpt>
      <trkpt lat="50.48957" lon="5.58518">
        <ele>102</ele>
        <time>2016-10-22T02:55:52Z</time>
      </trkpt>
      <trkpt lat="50.49008" lon="5.58554">
        <ele>103</ele>
        <time>2016-10-22T02:57:52Z</time>
      </trkpt>
      <trkpt lat="50.49096" lon="5.58629">
        <ele>101</ele>
        <time>2016-10-22T02:59:52Z</time>
      </trkpt>
      <trkpt lat="50.49177" lon="5.58706">
        <ele>98</ele>
        <time>2016-10-22T03:01:52Z</time>
      </trkpt>
      <trkpt lat="50.49216" lon="5.58751">
        <ele>99</ele>
        <time>2016-10-22T03:03:52Z</time>
      </trkpt>
      <trkpt lat="50.49257" lon="5.58794">
        <ele>98</ele>
        <time>2016-10-22T03:05:52Z</time>
      </trkpt>
      <trkpt lat="50.49292" lon="5.58839">
        <ele>96</ele>
        <time>2016-10-22T03:07:52Z</time>
      </trkpt>
      <trkpt lat="50.49353" lon="5.5893">
        <ele>99</ele>
        <time>2016-10-22T03:09:52Z</time>
      </trkpt>
      <trkpt lat="50.49404" lon="5.59009">
        <ele>99</ele>
        <time>2016-10-22T03:11:52Z</time>
      </trkpt>
      <trkpt lat="50.49462" lon="5.5908">
        <ele>102</ele>
        <time>2016-10-22T03:13:52Z</time>
      </trkpt>
      <trkpt lat="50.49487" lon="5.59105">
        <ele>102</ele>
        <time>2016-10-22T03:15:52Z</time>
      </trkpt>
      <trkpt lat="50.49508" lon="5.59123">
        <ele>102</ele>
        <time>2016-10-22T03:17:52Z</time>
      </trkpt>
      <trkpt lat="50.49544" lon="5.59148">
        <ele>101</ele>
        <time>2016-10-22T03:19:52Z</time>
      </trkpt>
      <trkpt lat="50.49568" lon="5.59158">
        <ele>99</ele>
        <time>2016-10-22T03:21:52Z</time>
      </trkpt>
      <trkpt lat="50.49587" lon="5.59171">
        <ele>97</ele>
        <time>2016-10-22T03:23:52Z</time>
      </trkpt>
      <trkpt lat="50.49599" lon="5.59184">
        <ele>99</ele>
        <time>2016-10-22T03:25:52Z</time>
      </trkpt>
      <trkpt lat="50.49608" lon="5.59199">
        <ele>99</ele>
        <time>2016-10-22T03:27:52Z</time>
      </trkpt>
      <trkpt lat="50.49618" lon="5.59209">
        <ele>100</ele>
        <time>2016-10-22T03:29:52Z</time>
      </trkpt>
      <trkpt lat="50.49628" lon="5.59218">
        <ele>100</ele>
        <time>2016-10-22T03:31:52Z</time>
      </trkpt>
      <trkpt lat="50.49656" lon="5.59233">
        <ele>100</ele>
        <time>2016-10-22T03:33:52Z</time>
      </trkpt>
      <trkpt lat="50.49673" lon="5.59251">
        <ele>101</ele>
        <time>2016-10-22T03:35:52Z</time>
      </trkpt>
      <trkpt lat="50.49716" lon="5.59303">
        <ele>101</ele>
        <time>2016-10-22T03:37:52Z</time>
      </trkpt>
      <trkpt lat="50.49724" lon="5.59315">
        <ele>99</ele>
        <time>2016-10-22T03:39:52Z</time>
      </trkpt>
      <trkpt lat="50.49753" lon="5.59361">
        <ele>96</ele>
        <time>2016-10-22T03:41:52Z</time>
      </trkpt>
      <trkpt lat="50.49772" lon="5.59384">
        <ele>97</ele>
        <time>2016-10-22T03:43:52Z</time>
      </trkpt>
      <trkpt lat="50.49789" lon="5.59403">
        <ele>97</ele>
        <time>2016-10-22T03:45:52Z</time>
      </trkpt>
      <trkpt lat="50.49897" lon="5.59504">
        <ele>95</ele>
        <time>2016-10-22T03:47:52Z</time>
      </trkpt>
      <trkpt lat="50.4998" lon="5.59567">
        <ele>95</ele>
        <time>2016-10-22T03:49:52Z</time>
      </trkpt>
      <trkpt lat="50.49992" lon="5.59577">
        <ele>95</ele>
        <time>2016-10-22T03:51:52Z</time>
      </trkpt>
      <trkpt lat="50.50019" lon="5.5959">
        <ele>95</ele>
        <time>2016-10-22T03:53:52Z</time>
      </trkpt>
      <trkpt lat="50.5005" lon="5.59602">
        <ele>94</ele>
        <time>2016-10-22T03:55:52Z</time>
      </trkpt>
      <trkpt lat="50.50104" lon="5.59617">
        <ele>94</ele>
        <time>2016-10-22T03:57:52Z</time>
      </trkpt>
      <trkpt lat="50.50124" lon="5.59624">
        <ele>94</ele>
        <time>2016-10-22T03:59:52Z</time>
      </trkpt>
      <trkpt lat="50.50136" lon="5.5963">
        <ele>94</ele>
        <time>2016-10-22T04:01:52Z</time>
      </trkpt>
      <trkpt lat="50.50145" lon="5.59638">
        <ele>94</ele>
        <time>2016-10-22T04:03:52Z</time>
      </trkpt>
      <trkpt lat="50.50155" lon="5.59653">
        <ele>94</ele>
        <time>2016-10-22T04:05:52Z</time>
      </trkpt>
      <trkpt lat="50.50168" lon="5.5968">
        <ele>94</ele>
        <time>2016-10-22T04:07:52Z</time>
      </trkpt>
      <trkpt lat="50.50178" lon="5.59698">
        <ele>95</ele>
        <time>2016-10-22T04:09:52Z</time>
      </trkpt>
      <trkpt lat="50.50209" lon="5.59738">
        <ele>96</ele>
        <time>2016-10-22T04:11:52Z</time>
      </trkpt>
      <trkpt lat="50.50227" lon="5.59759">
        <ele>96</ele>
        <time>2016-10-22T04:13:52Z</time>
      </trkpt>
      <trkpt lat="50.50235" lon="5.59766">
        <ele>97</ele>
        <time>2016-10-22T04:15:52Z</time>
      </trkpt>
      <trkpt lat="50.50242" lon="5.59769">
        <ele>97</ele>
        <time>2016-10-22T04:17:52Z</time>
      </trkpt>
      <trkpt lat="50.50248" lon="5.59768">
        <ele>97</ele>
        <time>2016-10-22T04:19:52Z</time>
      </trkpt>
      <trkpt lat="50.50248" lon="5.59792">
        <ele>97</ele>
        <time>2016-10-22T04:21:52Z</time>
      </trkpt>
      <trkpt lat="50.50261" lon="5.59842">
        <ele>103</ele>
        <time>2016-10-22T04:23:52Z</time>
      </trkpt>
      <trkpt lat="50.5027" lon="5.59867">
        <ele>110</ele>
        <time>2016-10-22T04:25:52Z</time>
      </trkpt>
      <trkpt lat="50.50306" lon="5.59928">
        <ele>120</ele>
        <time>2016-10-22T04:27:52Z</time>
      </trkpt>
      <trkpt lat="50.50343" lon="5.59978">
        <ele>120</ele>
        <time>2016-10-22T04:29:52Z</time>
      </trkpt>
      <trkpt lat="50.50402" lon="5.60066">
        <ele>124</ele>
        <time>2016-10-22T04:31:52Z</time>
      </trkpt>
      <trkpt lat="50.50421" lon="5.60084">
        <ele>123</ele>
        <time>2016-10-22T04:33:52Z</time>
      </trkpt>
      <trkpt lat="50.50448" lon="5.601">
        <ele>125</ele>
        <time>2016-10-22T04:35:52Z</time>
      </trkpt>
      <trkpt lat="50.50496" lon="5.60124">
        <ele>123</ele>
        <time>2016-10-22T04:37:52Z</time>
      </trkpt>
      <trkpt lat="50.505" lon="5.60125">
        <ele>123</ele>
        <time>2016-10-22T04:39:52Z</time>
      </trkpt>
      <trkpt lat="50.50503" lon="5.60125">
        <ele>123</ele>
        <time>2016-10-22T04:41:52Z</time>
      </trkpt>
      <trkpt lat="50.50507" lon="5.60122">
        <ele>125</ele>
        <time>2016-10-22T04:43:52Z</time>
      </trkpt>
      <trkpt lat="50.50508" lon="5.60119">
        <ele>125</ele>
        <time>2016-10-22T04:45:52Z</time>
      </trkpt>
      <trkpt lat="50.50508" lon="5.60114">
        <ele>126</ele>
        <time>2016-10-22T04:47:52Z</time>
      </trkpt>
      <trkpt lat="50.50505" lon="5.60097">
        <ele>129</ele>
        <time>2016-10-22T04:49:52Z</time>
      </trkpt>
      <trkpt lat="50.50497" lon="5.60077">
        <ele>131</ele>
        <time>2016-10-22T04:51:52Z</time>
      </trkpt>
      <trkpt lat="50.50494" lon="5.60067">
        <ele>132</ele>
        <time>2016-10-22T04:53:52Z</time>
      </trkpt>
      <trkpt lat="50.50493" lon="5.60062">
        <ele>133</ele>
        <time>2016-10-22T04:55:52Z</time>
      </trkpt>
      <trkpt lat="50.50493" lon="5.60058">
        <ele>133</ele>
        <time>2016-10-22T04:57:52Z</time>
      </trkpt>
      <trkpt lat="50.50433" lon="5.60015">
        <ele>124</ele>
        <time>2016-10-22T04:59:52Z</time>
      </trkpt>
      <trkpt lat="50.50413" lon="5.59994">
        <ele>120</ele>
        <time>2016-10-22T05:01:52Z</time>
      </trkpt>
      <trkpt lat="50.50358" lon="5.5993">
        <ele>120</ele>
        <time>2016-10-22T05:03:52Z</time>
      </trkpt>
      <trkpt lat="50.50345" lon="5.59914">
        <ele>117</ele>
        <time>2016-10-22T05:05:52Z</time>
      </trkpt>
      <trkpt lat="50.50333" lon="5.59898">
        <ele>113</ele>
        <time>2016-10-22T05:07:52Z</time>
      </trkpt>
      <trkpt lat="50.50326" lon="5.59884">
        <ele>112</ele>
        <time>2016-10-22T05:09:52Z</time>
      </trkpt>
      <trkpt lat="50.50321" lon="5.59871">
        <ele>111</ele>
        <time>2016-10-22T05:11:52Z</time>
      </trkpt>
      <trkpt lat="50.50319" lon="5.59861">
        <ele>110</ele>
        <time>2016-10-22T05:13:52Z</time>
      </trkpt>
      <trkpt lat="50.50317" lon="5.59838">
        <ele>107</ele>
        <time>2016-10-22T05:15:52Z</time>
      </trkpt>
      <trkpt lat="50.50317" lon="5.59806">
        <ele>104</ele>
        <time>2016-10-22T05:17:52Z</time>
      </trkpt>
      <trkpt lat="50.5032" lon="5.59756">
        <ele>101</ele>
        <time>2016-10-22T05:19:52Z</time>
      </trkpt>
      <trkpt lat="50.50324" lon="5.59683">
        <ele>96</ele>
        <time>2016-10-22T05:21:52Z</time>
      </trkpt>
      <trkpt lat="50.50332" lon="5.5949">
        <ele>98</ele>
        <time>2016-10-22T05:23:52Z</time>
      </trkpt>
      <trkpt lat="50.50337" lon="5.5941">
        <ele>108</ele>
        <time>2016-10-22T05:25:52Z</time>
      </trkpt>
      <trkpt lat="50.50337" lon="5.59393">
        <ele>110</ele>
        <time>2016-10-22T05:27:52Z</time>
      </trkpt>
      <trkpt lat="50.50338" lon="5.59385">
        <ele>111</ele>
        <time>2016-10-22T05:29:52Z</time>
      </trkpt>
      <trkpt lat="50.50339" lon="5.59366">
        <ele>113</ele>
        <time>2016-10-22T05:31:52Z</time>
      </trkpt>
      <trkpt lat="50.50382" lon="5.59366">
        <ele>113</ele>
        <time>2016-10-22T05:33:52Z</time>
      </trkpt>
      <trkpt lat="50.50415" lon="5.59355">
        <ele>114</ele>
        <time>2016-10-22T05:35:52Z</time>
      </trkpt>
      <trkpt lat="50.50438" lon="5.59346">
        <ele>114</ele>
        <time>2016-10-22T05:37:52Z</time>
      </trkpt>
      <trkpt lat="50.50497" lon="5.59327">
        <ele>113</ele>
        <time>2016-10-22T05:39:52Z</time>
      </trkpt>
      <trkpt lat="50.50558" lon="5.59311">
        <ele>114</ele>
        <time>2016-10-22T05:41:52Z</time>
      </trkpt>
      <trkpt lat="50.50602" lon="5.59301">
        <ele>114</ele>
        <time>2016-10-22T05:43:52Z</time>
      </trkpt>
      <trkpt lat="50.50624" lon="5.59298">
        <ele>114</ele>
        <time>2016-10-22T05:45:52Z</time>
      </trkpt>
      <trkpt lat="50.50649" lon="5.59298">
        <ele>113</ele>
        <time>2016-10-22T05:47:52Z</time>
      </trkpt>
      <trkpt lat="50.50695" lon="5.59294">
        <ele>110</ele>
        <time>2016-10-22T05:49:52Z</time>
      </trkpt>
      <trkpt lat="50.50708" lon="5.59291">
        <ele>109</ele>
        <time>2016-10-22T05:51:52Z</time>
      </trkpt>
      <trkpt lat="50.50723" lon="5.59283">
        <ele>108</ele>
        <time>2016-10-22T05:53:52Z</time>
      </trkpt>
      <trkpt lat="50.50782" lon="5.59238">
        <ele>107</ele>
        <time>2016-10-22T05:55:52Z</time>
      </trkpt>
      <trkpt lat="50.50789" lon="5.59227">
        <ele>107</ele>
        <time>2016-10-22T05:57:52Z</time>
      </trkpt>
      <trkpt lat="50.50796" lon="5.59209">
        <ele>107</ele>
        <time>2016-10-22T05:59:52Z</time>
      </trkpt>
      <trkpt lat="50.50836" lon="5.59091">
        <ele>103</ele>
        <time>2016-10-22T06:01:52Z</time>
      </trkpt>
      <trkpt lat="50.50841" lon="5.59066">
        <ele>104</ele>
        <time>2016-10-22T06:03:52Z</time>
      </trkpt>
      <trkpt lat="50.50849" lon="5.58983">
        <ele>106</ele>
        <time>2016-10-22T06:05:52Z</time>
      </trkpt>
      <trkpt lat="50.50852" lon="5.58923">
        <ele>108</ele>
        <time>2016-10-22T06:07:52Z</time>
      </trkpt>
      <trkpt lat="50.50862" lon="5.58864">
        <ele>108</ele>
        <time>2016-10-22T06:09:52Z</time>
      </trkpt>
      <trkpt lat="50.50905" lon="5.58725">
        <ele>106</ele>
        <time>2016-10-22T06:11:52Z</time>
      </trkpt>
      <trkpt lat="50.5092" lon="5.58674">
        <ele>105</ele>
        <time>2016-10-22T06:13:52Z</time>
      </trkpt>
      <trkpt lat="50.50939" lon="5.58617">
        <ele>104</ele>
        <time>2016-10-22T06:15:52Z</time>
      </trkpt>
      <trkpt lat="50.50955" lon="5.58566">
        <ele>103</ele>
        <time>2016-10-22T06:17:52Z</time>
      </trkpt>
      <trkpt lat="50.50968" lon="5.58507">
        <ele>102</ele>
        <time>2016-10-22T06:19:52Z</time>
      </trkpt>
      <trkpt lat="50.50973" lon="5.58463">
        <ele>101</ele>
        <time>2016-10-22T06:21:52Z</time>
      </trkpt>
      <trkpt lat="50.50973" lon="5.58425">
        <ele>99</ele>
        <time>2016-10-22T06:23:52Z</time>
      </trkpt>
      <trkpt lat="50.5097" lon="5.58389">
        <ele>98</ele>
        <time>2016-10-22T06:25:52Z</time>
      </trkpt>
      <trkpt lat="50.50945" lon="5.58213">
        <ele>96</ele>
        <time>2016-10-22T06:27:52Z</time>
      </trkpt>
      <trkpt lat="50.5092" lon="5.58082">
        <ele>95</ele>
        <time>2016-10-22T06:29:52Z</time>
      </trkpt>
      <trkpt lat="50.50916" lon="5.58068">
        <ele>95</ele>
        <time>2016-10-22T06:31:52Z</time>
      </trkpt>
      <trkpt lat="50.50905" lon="5.58036">
        <ele>96</ele>
        <time>2016-10-22T06:33:52Z</time>
      </trkpt>
      <trkpt lat="50.50863" lon="5.57934">
        <ele>99</ele>
        <time>2016-10-22T06:35:52Z</time>
      </trkpt>
      <trkpt lat="50.50851" lon="5.579">
        <ele>99</ele>
        <time>2016-10-22T06:37:52Z</time>
      </trkpt>
      <trkpt lat="50.50843" lon="5.57863">
        <ele>100</ele>
        <time>2016-10-22T06:39:52Z</time>
      </trkpt>
      <trkpt lat="50.50829" lon="5.57786">
        <ele>100</ele>
        <time>2016-10-22T06:41:52Z</time>
      </trkpt>
      <trkpt lat="50.50818" lon="5.57746">
        <ele>102</ele>
        <time>2016-10-22T06:43:52Z</time>
      </trkpt>
      <trkpt lat="50.50775" lon="5.57619">
        <ele>109</ele>
        <time>2016-10-22T06:45:52Z</time>
      </trkpt>
      <trkpt lat="50.50757" lon="5.57564">
        <ele>106</ele>
        <time>2016-10-22T06:47:52Z</time>
      </trkpt>
      <trkpt lat="50.50727" lon="5.57469">
        <ele>107</ele>
        <time>2016-10-22T06:49:52Z</time>
      </trkpt>
      <trkpt lat="50.50682" lon="5.57334">
        <ele>108</ele>
        <time>2016-10-22T06:51:52Z</time>
      </trkpt>
      <trkpt lat="50.50672" lon="5.57305">
        <ele>108</ele>
        <time>2016-10-22T06:53:52Z</time>
      </trkpt>
      <trkpt lat="50.50664" lon="5.57286">
        <ele>108</ele>
        <time>2016-10-22T06:55:52Z</time>
      </trkpt>
      <trkpt lat="50.50657" lon="5.57266">
        <ele>108</ele>
        <time>2016-10-22T06:57:52Z</time>
      </trkpt>
      <trkpt lat="50.50594" lon="5.57067">
        <ele>107</ele>
        <time>2016-10-22T06:59:52Z</time>
      </trkpt>
      <trkpt lat="50.50589" lon="5.57045">
        <ele>106</ele>
        <time>2016-10-22T07:01:52Z</time>
      </trkpt>
      <trkpt lat="50.50585" lon="5.57012">
        <ele>104</ele>
        <time>2016-10-22T07:03:52Z</time>
      </trkpt>
      <trkpt lat="50.50583" lon="5.56955">
        <ele>104</ele>
        <time>2016-10-22T07:05:52Z</time>
      </trkpt>
      <trkpt lat="50.50584" lon="5.56948">
        <ele>104</ele>
        <time>2016-10-22T07:07:52Z</time>
      </trkpt>
      <trkpt lat="50.50588" lon="5.56817">
        <ele>108</ele>
        <time>2016-10-22T07:09:52Z</time>
      </trkpt>
      <trkpt lat="50.5059" lon="5.56791">
        <ele>112</ele>
        <time>2016-10-22T07:11:52Z</time>
      </trkpt>
      <trkpt lat="50.50595" lon="5.56761">
        <ele>114</ele>
        <time>2016-10-22T07:13:52Z</time>
      </trkpt>
      <trkpt lat="50.50608" lon="5.56719">
        <ele>115</ele>
        <time>2016-10-22T07:15:52Z</time>
      </trkpt>
      <trkpt lat="50.5064" lon="5.56641">
        <ele>113</ele>
        <time>2016-10-22T07:17:52Z</time>
      </trkpt>
      <trkpt lat="50.50644" lon="5.5663">
        <ele>113</ele>
        <time>2016-10-22T07:19:52Z</time>
      </trkpt>
      <trkpt lat="50.50658" lon="5.56595">
        <ele>115</ele>
        <time>2016-10-22T07:21:52Z</time>
      </trkpt>
      <trkpt lat="50.50666" lon="5.56578">
        <ele>115</ele>
        <time>2016-10-22T07:23:52Z</time>
      </trkpt>
      <trkpt lat="50.50693" lon="5.56543">
        <ele>114</ele>
        <time>2016-10-22T07:25:52Z</time>
      </trkpt>
      <trkpt lat="50.50711" lon="5.56519">
        <ele>113</ele>
        <time>2016-10-22T07:27:52Z</time>
      </trkpt>
      <trkpt lat="50.50724" lon="5.56496">
        <ele>112</ele>
        <time>2016-10-22T07:29:52Z</time>
      </trkpt>
      <trkpt lat="50.50754" lon="5.56422">
        <ele>115</ele>
        <time>2016-10-22T07:31:52Z</time>
      </trkpt>
      <trkpt lat="50.50758" lon="5.56414">
        <ele>116</ele>
        <time>2016-10-22T07:33:52Z</time>
      </trkpt>
      <trkpt lat="50.50845" lon="5.56253">
        <ele>112</ele>
        <time>2016-10-22T07:35:52Z</time>
      </trkpt>
      <trkpt lat="50.50949" lon="5.56082">
        <ele>115</ele>
        <time>2016-10-22T07:37:52Z</time>
      </trkpt>
      <trkpt lat="50.50973" lon="5.56046">
        <ele>114</ele>
        <time>2016-10-22T07:39:52Z</time>
      </trkpt>
      <trkpt lat="50.50974" lon="5.56044">
        <ele>114</ele>
        <time>2016-10-22T07:41:52Z</time>
      </trkpt>
      <trkpt lat="50.50996" lon="5.56015">
        <ele>110</ele>
        <time>2016-10-22T07:43:52Z</time>
      </trkpt>
      <trkpt lat="50.51028" lon="5.55983">
        <ele>106</ele>
        <time>2016-10-22T07:45:52Z</time>
      </trkpt>
      <trkpt lat="50.51059" lon="5.5596">
        <ele>105</ele>
        <time>2016-10-22T07:47:52Z</time>
      </trkpt>
      <trkpt lat="50.51064" lon="5.55955">
        <ele>106</ele>
        <time>2016-10-22T07:49:52Z</time>
      </trkpt>
      <trkpt lat="50.51078" lon="5.55947">
        <ele>106</ele>
        <time>2016-10-22T07:51:52Z</time>
      </trkpt>
      <trkpt lat="50.51071" lon="5.55936">
        <ele>110</ele>
        <time>2016-10-22T07:53:52Z</time>
      </trkpt>
      <trkpt lat="50.51011" lon="5.55824">
        <ele>128</ele>
        <time>2016-10-22T07:55:52Z</time>
      </trkpt>
      <trkpt lat="50.50984" lon="5.55771">
        <ele>137</ele>
        <time>2016-10-22T07:57:52Z</time>
      </trkpt>
      <trkpt lat="50.50953" lon="5.55717">
        <ele>141</ele>
        <time>2016-10-22T07:59:52Z</time>
      </trkpt>
      <trkpt lat="50.50935" lon="5.55687">
        <ele>139</ele>
        <time>2016-10-22T08:01:52Z</time>
      </trkpt>
      <trkpt lat="50.50919" lon="5.55659">
        <ele>135</ele>
        <time>2016-10-22T08:03:52Z</time>
      </trkpt>
      <trkpt lat="50.5091" lon="5.55642">
        <ele>138</ele>
        <time>2016-10-22T08:05:52Z</time>
      </trkpt>
      <trkpt lat="50.50901" lon="5.55618">
        <ele>143</ele>
        <time>2016-10-22T08:07:52Z</time>
      </trkpt>
      <trkpt lat="50.50851" lon="5.55488">
        <ele>146</ele>
        <time>2016-10-22T08:09:52Z</time>
      </trkpt>
      <trkpt lat="50.50847" lon="5.55473">
        <ele>147</ele>
        <time>2016-10-22T08:11:52Z</time>
      </trkpt>
      <trkpt lat="50.50837" lon="5.55449">
        <ele>148</ele>
        <time>2016-10-22T08:13:52Z</time>
      </trkpt>
      <trkpt lat="50.5083" lon="5.55436">
        <ele>149</ele>
        <time>2016-10-22T08:15:52Z</time>
      </trkpt>
      <trkpt lat="50.50809" lon="5.55403">
        <ele>154</ele>
        <time>2016-10-22T08:17:52Z</time>
      </trkpt>
      <trkpt lat="50.50777" lon="5.55349">
        <ele>154</ele>
        <time>2016-10-22T08:19:52Z</time>
      </trkpt>
      <trkpt lat="50.50759" lon="5.55316">
        <ele>152</ele>
        <time>2016-10-22T08:21:52Z</time>
      </trkpt>
      <trkpt lat="50.50749" lon="5.55289">
        <ele>153</ele>
        <time>2016-10-22T08:23:52Z</time>
      </trkpt>
      <trkpt lat="50.50744" lon="5.55271">
        <ele>156</ele>
        <time>2016-10-22T08:25:52Z</time>
      </trkpt>
      <trkpt lat="50.50737" lon="5.5524">
        <ele>159</ele>
        <time>2016-10-22T08:27:52Z</time>
      </trkpt>
      <trkpt lat="50.50722" lon="5.55166">
        <ele>162</ele>
        <time>2016-10-22T08:29:52Z</time>
      </trkpt>
      <trkpt lat="50.50674" lon="5.55005">
        <ele>165</ele>
        <time>2016-10-22T08:31:52Z</time>
      </trkpt>
      <trkpt lat="50.50657" lon="5.54924">
        <ele>169</ele>
        <time>2016-10-22T08:33:52Z</time>
      </trkpt>
      <trkpt lat="50.50641" lon="5.54844">
        <ele>173</ele>
        <time>2016-10-22T08:35:52Z</time>
      </trkpt>
      <trkpt lat="50.50591" lon="5.54625">
        <ele>176</ele>
        <time>2016-10-22T08:37:52Z</time>
      </trkpt>
      <trkpt lat="50.5058" lon="5.54585">
        <ele>177</ele>
        <time>2016-10-22T08:39:52Z</time>
      </trkpt>
      <trkpt lat="50.50549" lon="5.54485">
        <ele>183</ele>
        <time>2016-10-22T08:41:52Z</time>
      </trkpt>
      <trkpt lat="50.50529" lon="5.54392">
        <ele>186</ele>
        <time>2016-10-22T08:43:52Z</time>
      </trkpt>
      <trkpt lat="50.5052" lon="5.54343">
        <ele>186</ele>
        <time>2016-10-22T08:45:52Z</time>
      </trkpt>
      <trkpt lat="50.50506" lon="5.54144">
        <ele>189</ele>
        <time>2016-10-22T08:47:52Z</time>
      </trkpt>
      <trkpt lat="50.50505" lon="5.54126">
        <ele>189</ele>
        <time>2016-10-22T08:49:52Z</time>
      </trkpt>
      <trkpt lat="50.50507" lon="5.54061">
        <ele>190</ele>
        <time>2016-10-22T08:51:52Z</time>
      </trkpt>
      <trkpt lat="50.50505" lon="5.53989">
        <ele>191</ele>
        <time>2016-10-22T08:53:52Z</time>
      </trkpt>
      <trkpt lat="50.50495" lon="5.53811">
        <ele>196</ele>
        <time>2016-10-22T08:55:52Z</time>
      </trkpt>
      <trkpt lat="50.50472" lon="5.53688">
        <ele>203</ele>
        <time>2016-10-22T08:57:52Z</time>
      </trkpt>
      <trkpt lat="50.50455" lon="5.53615">
        <ele>205</ele>
        <time>2016-10-22T08:59:52Z</time>
      </trkpt>
      <trkpt lat="50.50448" lon="5.53597">
        <ele>205</ele>
        <time>2016-10-22T09:01:52Z</time>
      </trkpt>
      <trkpt lat="50.50447" lon="5.5359">
        <ele>205</ele>
        <time>2016-10-22T09:03:52Z</time>
      </trkpt>
      <trkpt lat="50.5034" lon="5.53176">
        <ele>211</ele>
        <time>2016-10-22T09:05:52Z</time>
      </trkpt>
      <trkpt lat="50.50336" lon="5.53147">
        <ele>211</ele>
        <time>2016-10-22T09:07:52Z</time>
      </trkpt>
      <trkpt lat="50.5034" lon="5.53052">
        <ele>213</ele>
        <time>2016-10-22T09:09:52Z</time>
      </trkpt>
      <trkpt lat="50.50338" lon="5.53026">
        <ele>213</ele>
        <time>2016-10-22T09:11:52Z</time>
      </trkpt>
      <trkpt lat="50.50277" lon="5.52705">
        <ele>224</ele>
        <time>2016-10-22T09:13:52Z</time>
      </trkpt>
      <trkpt lat="50.50267" lon="5.52656">
        <ele>224</ele>
        <time>2016-10-22T09:15:52Z</time>
      </trkpt>
      <trkpt lat="50.50263" lon="5.52646">
        <ele>224</ele>
        <time>2016-10-22T09:17:52Z</time>
      </trkpt>
      <trkpt lat="50.50259" lon="5.52638">
        <ele>225</ele>
        <time>2016-10-22T09:19:52Z</time>
      </trkpt>
      <trkpt lat="50.50248" lon="5.52621">
        <ele>225</ele>
        <time>2016-10-22T09:21:52Z</time>
      </trkpt>
      <trkpt lat="50.50221" lon="5.52588">
        <ele>226</ele>
        <time>2016-10-22T09:23:52Z</time>
      </trkpt>
      <trkpt lat="50.50189" lon="5.52527">
        <ele>225</ele>
        <time>2016-10-22T09:25:52Z</time>
      </trkpt>
      <trkpt lat="50.50184" lon="5.5252">
        <ele>225</ele>
        <time>2016-10-22T09:27:52Z</time>
      </trkpt>
      <trkpt lat="50.50173" lon="5.52509">
        <ele>225</ele>
        <time>2016-10-22T09:29:52Z</time>
      </trkpt>
      <trkpt lat="50.50145" lon="5.52487">
        <ele>226</ele>
        <time>2016-10-22T09:31:52Z</time>
      </trkpt>
      <trkpt lat="50.50133" lon="5.52477">
        <ele>227</ele>
        <time>2016-10-22T09:33:52Z</time>
      </trkpt>
      <trkpt lat="50.50123" lon="5.52467">
        <ele>227</ele>
        <time>2016-10-22T09:35:52Z</time>
      </trkpt>
      <trkpt lat="50.50111" lon="5.52451">
        <ele>227</ele>
        <time>2016-10-22T09:37:52Z</time>
      </trkpt>
      <trkpt lat="50.50094" lon="5.52422">
        <ele>228</ele>
        <time>2016-10-22T09:39:52Z</time>
      </trkpt>
      <trkpt lat="50.50035" lon="5.52317">
        <ele>232</ele>
        <time>2016-10-22T09:41:52Z</time>
      </trkpt>
      <trkpt lat="50.50031" lon="5.52305">
        <ele>233</ele>
        <time>2016-10-22T09:43:52Z</time>
      </trkpt>
      <trkpt lat="50.50027" lon="5.52289">
        <ele>234</ele>
        <time>2016-10-22T09:45:52Z</time>
      </trkpt>
      <trkpt lat="50.50027" lon="5.52267">
        <ele>234</ele>
        <time>2016-10-22T09:47:52Z</time>
      </trkpt>
      <trkpt lat="50.5003" lon="5.52242">
        <ele>235</ele>
        <time>2016-10-22T09:49:52Z</time>
      </trkpt>
      <trkpt lat="50.50038" lon="5.52155">
        <ele>237</ele>
        <time>2016-10-22T09:51:52Z</time>
      </trkpt>
      <trkpt lat="50.50038" lon="5.52122">
        <ele>237</ele>
        <time>2016-10-22T09:53:52Z</time>
      </trkpt>
      <trkpt lat="50.50036" lon="5.52107">
        <ele>237</ele>
        <time>2016-10-22T09:55:52Z</time>
      </trkpt>
      <trkpt lat="50.50033" lon="5.52094">
        <ele>237</ele>
        <time>2016-10-22T09:57:52Z</time>
      </trkpt>
      <trkpt lat="50.50025" lon="5.52077">
        <ele>237</ele>
        <time>2016-10-22T09:59:52Z</time>
      </trkpt>
      <trkpt lat="50.4997" lon="5.51963">
        <ele>239</ele>
        <time>2016-10-22T10:01:52Z</time>
      </trkpt>
      <trkpt lat="50.49919" lon="5.51852">
        <ele>240</ele>
        <time>2016-10-22T10:03:52Z</time>
      </trkpt>
      <trkpt lat="50.49906" lon="5.51822">
        <ele>241</ele>
        <time>2016-10-22T10:05:52Z</time>
      </trkpt>
      <trkpt lat="50.49898" lon="5.51793">
        <ele>241</ele>
        <time>2016-10-22T10:07:52Z</time>
      </trkpt>
      <trkpt lat="50.49889" lon="5.51754">
        <ele>241</ele>
        <time>2016-10-22T10:09:52Z</time>
      </trkpt>
      <trkpt lat="50.49883" lon="5.5174">
        <ele>242</ele>
        <time>2016-10-22T10:11:52Z</time>
      </trkpt>
      <trkpt lat="50.49875" lon="5.51718">
        <ele>242</ele>
        <time>2016-10-22T10:13:52Z</time>
      </trkpt>
      <trkpt lat="50.49867" lon="5.51703">
        <ele>243</ele>
        <time>2016-10-22T10:15:52Z</time>
      </trkpt>
      <trkpt lat="50.49856" lon="5.51687">
        <ele>244</ele>
        <time>2016-10-22T10:17:52Z</time>
      </trkpt>
      <trkpt lat="50.49846" lon="5.51674">
        <ele>245</ele>
        <time>2016-10-22T10:19:52Z</time>
      </trkpt>
      <trkpt lat="50.49836" lon="5.51664">
        <ele>246</ele>
        <time>2016-10-22T10:21:52Z</time>
      </trkpt>
      <trkpt lat="50.49817" lon="5.51646">
        <ele>247</ele>
        <time>2016-10-22T10:23:52Z</time>
      </trkpt>
      <trkpt lat="50.49807" lon="5.51637">
        <ele>248</ele>
        <time>2016-10-22T10:25:52Z</time>
      </trkpt>
      <trkpt lat="50.49787" lon="5.51617">
        <ele>249</ele>
        <time>2016-10-22T10:27:52Z</time>
      </trkpt>
      <trkpt lat="50.4978" lon="5.51608">
        <ele>250</ele>
        <time>2016-10-22T10:29:52Z</time>
      </trkpt>
      <trkpt lat="50.49775" lon="5.516">
        <ele>250</ele>
        <time>2016-10-22T10:31:52Z</time>
      </trkpt>
      <trkpt lat="50.49771" lon="5.51586">
        <ele>250</ele>
        <time>2016-10-22T10:33:52Z</time>
      </trkpt>
      <trkpt lat="50.49769" lon="5.51574">
        <ele>250</ele>
        <time>2016-10-22T10:35:52Z</time>
      </trkpt>
      <trkpt lat="50.49769" lon="5.51553">
        <ele>250</ele>
        <time>2016-10-22T10:37:52Z</time>
      </trkpt>
      <trkpt lat="50.49771" lon="5.51534">
        <ele>250</ele>
        <time>2016-10-22T10:39:52Z</time>
      </trkpt>
      <trkpt lat="50.49773" lon="5.51518">
        <ele>250</ele>
        <time>2016-10-22T10:41:52Z</time>
      </trkpt>
      <trkpt lat="50.498" lon="5.51448">
        <ele>249</ele>
        <time>2016-10-22T10:43:52Z</time>
      </trkpt>
      <trkpt lat="50.49803" lon="5.51434">
        <ele>249</ele>
        <time>2016-10-22T10:45:52Z</time>
      </trkpt>
      <trkpt lat="50.49804" lon="5.51415">
        <ele>249</ele>
        <time>2016-10-22T10:47:52Z</time>
      </trkpt>
      <trkpt lat="50.49803" lon="5.51401">
        <ele>250</ele>
        <time>2016-10-22T10:49:52Z</time>
      </trkpt>
      <trkpt lat="50.498" lon="5.51385">
        <ele>250</ele>
        <time>2016-10-22T10:51:52Z</time>
      </trkpt>
      <trkpt lat="50.49789" lon="5.51356">
        <ele>252</ele>
        <time>2016-10-22T10:53:52Z</time>
      </trkpt>
      <trkpt lat="50.49731" lon="5.51253">
        <ele>256</ele>
        <time>2016-10-22T10:55:52Z</time>
      </trkpt>
      <trkpt lat="50.49721" lon="5.51228">
        <ele>256</ele>
        <time>2016-10-22T10:57:52Z</time>
      </trkpt>
      <trkpt lat="50.49706" lon="5.51185">
        <ele>258</ele>
        <time>2016-10-22T10:59:52Z</time>
      </trkpt>
      <trkpt lat="50.49694" lon="5.51145">
        <ele>259</ele>
        <time>2016-10-22T11:01:52Z</time>
      </trkpt>
      <trkpt lat="50.49705" lon="5.51136">
        <ele>258</ele>
        <time>2016-10-22T11:03:52Z</time>
      </trkpt>
      <trkpt lat="50.49764" lon="5.51093">
        <ele>258</ele>
        <time>2016-10-22T11:05:52Z</time>
      </trkpt>
      <trkpt lat="50.49791" lon="5.51072">
        <ele>258</ele>
        <time>2016-10-22T11:07:52Z</time>
      </trkpt>
      <trkpt lat="50.49884" lon="5.50997">
        <ele>257</ele>
        <time>2016-10-22T11:09:52Z</time>
      </trkpt>
      <trkpt lat="50.49944" lon="5.50946">
        <ele>257</ele>
        <time>2016-10-22T11:11:52Z</time>
      </trkpt>
      <trkpt lat="50.49971" lon="5.50921">
        <ele>258</ele>
        <time>2016-10-22T11:13:52Z</time>
      </trkpt>
      <trkpt lat="50.50018" lon="5.50874">
        <ele>260</ele>
        <time>2016-10-22T11:15:52Z</time>
      </trkpt>
      <trkpt lat="50.50095" lon="5.50815">
        <ele>263</ele>
        <time>2016-10-22T11:17:52Z</time>
      </trkpt>
      <trkpt lat="50.50134" lon="5.50777">
        <ele>264</ele>
        <time>2016-10-22T11:19:52Z</time>
      </trkpt>
      <trkpt lat="50.50186" lon="5.50727">
        <ele>265</ele>
        <time>2016-10-22T11:21:52Z</time>
      </trkpt>
      <trkpt lat="50.5022" lon="5.50709">
        <ele>266</ele>
        <time>2016-10-22T11:23:52Z</time>
      </trkpt>
      <trkpt lat="50.50297" lon="5.50682">
        <ele>267</ele>
        <time>2016-10-22T11:25:52Z</time>
      </trkpt>
      <trkpt lat="50.50416" lon="5.50646">
        <ele>270</ele>
        <time>2016-10-22T11:27:52Z</time>
      </trkpt>
      <trkpt lat="50.5043" lon="5.5064">
        <ele>271</ele>
        <time>2016-10-22T11:29:52Z</time>
      </trkpt>
      <trkpt lat="50.50525" lon="5.50566">
        <ele>271</ele>
        <time>2016-10-22T11:31:52Z</time>
      </trkpt>
      <trkpt lat="50.50562" lon="5.50535">
        <ele>271</ele>
        <time>2016-10-22T11:33:52Z</time>
      </trkpt>
      <trkpt lat="50.50571" lon="5.50525">
        <ele>271</ele>
        <time>2016-10-22T11:35:52Z</time>
      </trkpt>
      <trkpt lat="50.50575" lon="5.50519">
        <ele>271</ele>
        <time>2016-10-22T11:37:52Z</time>
      </trkpt>
      <trkpt lat="50.50579" lon="5.50501">
        <ele>271</ele>
        <time>2016-10-22T11:39:52Z</time>
      </trkpt>
      <trkpt lat="50.5058" lon="5.50487">
        <ele>271</ele>
        <time>2016-10-22T11:41:52Z</time>
      </trkpt>
      <trkpt lat="50.50583" lon="5.50458">
        <ele>271</ele>
        <time>2016-10-22T11:43:52Z</time>
      </trkpt>
      <trkpt lat="50.50587" lon="5.50438">
        <ele>271</ele>
        <time>2016-10-22T11:45:52Z</time>
      </trkpt>
      <trkpt lat="50.50596" lon="5.50401">
        <ele>271</ele>
        <time>2016-10-22T11:47:52Z</time>
      </trkpt>
      <trkpt lat="50.50621" lon="5.50321">
        <ele>271</ele>
        <time>2016-10-22T11:49:52Z</time>
      </trkpt>
      <trkpt lat="50.50629" lon="5.50291">
        <ele>270</ele>
        <time>2016-10-22T11:51:52Z</time>
      </trkpt>
      <trkpt lat="50.50633" lon="5.50275">
        <ele>270</ele>
        <time>2016-10-22T11:53:52Z</time>
      </trkpt>
      <trkpt lat="50.50649" lon="5.50242">
        <ele>269</ele>
        <time>2016-10-22T11:55:52Z</time>
      </trkpt>
      <trkpt lat="50.5066" lon="5.50223">
        <ele>269</ele>
        <time>2016-10-22T11:57:52Z</time>
      </trkpt>
      <trkpt lat="50.50677" lon="5.50197">
        <ele>268</ele>
        <time>2016-10-22T11:59:52Z</time>
      </trkpt>
      <trkpt lat="50.50681" lon="5.5019">
        <ele>267</ele>
        <time>2016-10-22T12:01:52Z</time>
      </trkpt>
      <trkpt lat="50.50691" lon="5.50168">
        <ele>266</ele>
        <time>2016-10-22T12:03:52Z</time>
      </trkpt>
      <trkpt lat="50.50698" lon="5.50149">
        <ele>265</ele>
        <time>2016-10-22T12:05:52Z</time>
      </trkpt>
      <trkpt lat="50.50709" lon="5.50093">
        <ele>261</ele>
        <time>2016-10-22T12:07:52Z</time>
      </trkpt>
      <trkpt lat="50.50718" lon="5.50034">
        <ele>257</ele>
        <time>2016-10-22T12:09:52Z</time>
      </trkpt>
      <trkpt lat="50.5072" lon="5.50024">
        <ele>256</ele>
        <time>2016-10-22T12:11:52Z</time>
      </trkpt>
      <trkpt lat="50.50725" lon="5.50005">
        <ele>254</ele>
        <time>2016-10-22T12:13:52Z</time>
      </trkpt>
      <trkpt lat="50.50731" lon="5.49985">
        <ele>253</ele>
        <time>2016-10-22T12:15:52Z</time>
      </trkpt>
      <trkpt lat="50.50756" lon="5.49921">
        <ele>247</ele>
        <time>2016-10-22T12:17:52Z</time>
      </trkpt>
      <trkpt lat="50.50761" lon="5.49902">
        <ele>246</ele>
        <time>2016-10-22T12:19:52Z</time>
      </trkpt>
      <trkpt lat="50.50762" lon="5.49884">
        <ele>245</ele>
        <time>2016-10-22T12:21:52Z</time>
      </trkpt>
      <trkpt lat="50.50762" lon="5.49865">
        <ele>244</ele>
        <time>2016-10-22T12:23:52Z</time>
      </trkpt>
      <trkpt lat="50.50758" lon="5.49814">
        <ele>243</ele>
        <time>2016-10-22T12:25:52Z</time>
      </trkpt>
      <trkpt lat="50.50758" lon="5.49795">
        <ele>242</ele>
        <time>2016-10-22T12:27:52Z</time>
      </trkpt>
      <trkpt lat="50.50759" lon="5.49783">
        <ele>242</ele>
        <time>2016-10-22T12:29:52Z</time>
      </trkpt>
      <trkpt lat="50.50767" lon="5.49744">
        <ele>240</ele>
        <time>2016-10-22T12:31:52Z</time>
      </trkpt>
      <trkpt lat="50.5078" lon="5.49702">
        <ele>239</ele>
        <time>2016-10-22T12:33:52Z</time>
      </trkpt>
      <trkpt lat="50.50793" lon="5.49649">
        <ele>238</ele>
        <time>2016-10-22T12:35:52Z</time>
      </trkpt>
      <trkpt lat="50.50802" lon="5.49598">
        <ele>238</ele>
        <time>2016-10-22T12:37:52Z</time>
      </trkpt>
      <trkpt lat="50.50805" lon="5.49572">
        <ele>238</ele>
        <time>2016-10-22T12:39:52Z</time>
      </trkpt>
      <trkpt lat="50.50806" lon="5.49551">
        <ele>238</ele>
        <time>2016-10-22T12:41:52Z</time>
      </trkpt>
      <trkpt lat="50.50806" lon="5.49526">
        <ele>239</ele>
        <time>2016-10-22T12:43:52Z</time>
      </trkpt>
      <trkpt lat="50.50802" lon="5.49503">
        <ele>239</ele>
        <time>2016-10-22T12:45:52Z</time>
      </trkpt>
      <trkpt lat="50.50751" lon="5.49387">
        <ele>238</ele>
        <time>2016-10-22T12:47:52Z</time>
      </trkpt>
      <trkpt lat="50.50671" lon="5.49197">
        <ele>234</ele>
        <time>2016-10-22T12:49:52Z</time>
      </trkpt>
      <trkpt lat="50.506" lon="5.49021">
        <ele>231</ele>
        <time>2016-10-22T12:51:52Z</time>
      </trkpt>
      <trkpt lat="50.50534" lon="5.48851">
        <ele>227</ele>
        <time>2016-10-22T12:53:52Z</time>
      </trkpt>
      <trkpt lat="50.50522" lon="5.48823">
        <ele>226</ele>
        <time>2016-10-22T12:55:52Z</time>
      </trkpt>
      <trkpt lat="50.50494" lon="5.4877">
        <ele>225</ele>
        <time>2016-10-22T12:57:52Z</time>
      </trkpt>
      <trkpt lat="50.50449" lon="5.48676">
        <ele>222</ele>
        <time>2016-10-22T12:59:52Z</time>
      </trkpt>
      <trkpt lat="50.50399" lon="5.48581">
        <ele>220</ele>
        <time>2016-10-22T13:01:52Z</time>
      </trkpt>
      <trkpt lat="50.50384" lon="5.48543">
        <ele>219</ele>
        <time>2016-10-22T13:03:52Z</time>
      </trkpt>
      <trkpt lat="50.50366" lon="5.4849">
        <ele>218</ele>
        <time>2016-10-22T13:05:52Z</time>
      </trkpt>
      <trkpt lat="50.50342" lon="5.48432">
        <ele>217</ele>
        <time>2016-10-22T13:07:52Z</time>
      </trkpt>
      <trkpt lat="50.50318" lon="5.48372">
        <ele>217</ele>
        <time>2016-10-22T13:09:52Z</time>
      </trkpt>
      <trkpt lat="50.50257" lon="5.48199">
        <ele>212</ele>
        <time>2016-10-22T13:11:52Z</time>
      </trkpt>
      <trkpt lat="50.50216" lon="5.48077">
        <ele>211</ele>
        <time>2016-10-22T13:13:52Z</time>
      </trkpt>
      <trkpt lat="50.50201" lon="5.48025">
        <ele>209</ele>
        <time>2016-10-22T13:15:52Z</time>
      </trkpt>
      <trkpt lat="50.50186" lon="5.4797">
        <ele>205</ele>
        <time>2016-10-22T13:17:52Z</time>
      </trkpt>
      <trkpt lat="50.50183" lon="5.47958">
        <ele>203</ele>
        <time>2016-10-22T13:19:52Z</time>
      </trkpt>
      <trkpt lat="50.50169" lon="5.47879">
        <ele>195</ele>
        <time>2016-10-22T13:21:52Z</time>
      </trkpt>
      <trkpt lat="50.50163" lon="5.47854">
        <ele>192</ele>
        <time>2016-10-22T13:23:52Z</time>
      </trkpt>
      <trkpt lat="50.50148" lon="5.47817">
        <ele>191</ele>
        <time>2016-10-22T13:25:52Z</time>
      </trkpt>
      <trkpt lat="50.50165" lon="5.47796">
        <ele>191</ele>
        <time>2016-10-22T13:27:52Z</time>
      </trkpt>
      <trkpt lat="50.50184" lon="5.47766">
        <ele>193</ele>
        <time>2016-10-22T13:29:52Z</time>
      </trkpt>
      <trkpt lat="50.50207" lon="5.47742">
        <ele>193</ele>
        <time>2016-10-22T13:31:52Z</time>
      </trkpt>
      <trkpt lat="50.50207" lon="5.47741">
        <ele>193</ele>
        <time>2016-10-22T13:33:52Z</time>
      </trkpt>
      <trkpt lat="50.50213" lon="5.47738">
        <ele>193</ele>
        <time>2016-10-22T13:35:52Z</time>
      </trkpt>
      <trkpt lat="50.50225" lon="5.47734">
        <ele>193</ele>
        <time>2016-10-22T13:37:52Z</time>
      </trkpt>
      <trkpt lat="50.50252" lon="5.4773">
        <ele>193</ele>
        <time>2016-10-22T13:39:52Z</time>
      </trkpt>
      <trkpt lat="50.50368" lon="5.47728">
        <ele>194</ele>
        <time>2016-10-22T13:41:52Z</time>
      </trkpt>
      <trkpt lat="50.50383" lon="5.47725">
        <ele>194</ele>
        <time>2016-10-22T13:43:52Z</time>
      </trkpt>
      <trkpt lat="50.50389" lon="5.47725">
        <ele>194</ele>
        <time>2016-10-22T13:45:52Z</time>
      </trkpt>
      <trkpt lat="50.50406" lon="5.4772">
        <ele>193</ele>
        <time>2016-10-22T13:47:52Z</time>
      </trkpt>
      <trkpt lat="50.50485" lon="5.47679">
        <ele>185</ele>
        <time>2016-10-22T13:49:52Z</time>
      </trkpt>
      <trkpt lat="50.50512" lon="5.47678">
        <ele>183</ele>
        <time>2016-10-22T13:51:52Z</time>
      </trkpt>
      <trkpt lat="50.50521" lon="5.4768">
        <ele>182</ele>
        <time>2016-10-22T13:53:52Z</time>
      </trkpt>
      <trkpt lat="50.50538" lon="5.4769">
        <ele>182</ele>
        <time>2016-10-22T13:55:52Z</time>
      </trkpt>
      <trkpt lat="50.50551" lon="5.477">
        <ele>181</ele>
        <time>2016-10-22T13:57:52Z</time>
      </trkpt>
      <trkpt lat="50.50568" lon="5.4772">
        <ele>181</ele>
        <time>2016-10-22T13:59:52Z</time>
      </trkpt>
      <trkpt lat="50.50581" lon="5.47736">
        <ele>180</ele>
        <time>2016-10-22T14:01:52Z</time>
      </trkpt>
      <trkpt lat="50.50611" lon="5.4778">
        <ele>181</ele>
        <time>2016-10-22T14:03:52Z</time>
      </trkpt>
      <trkpt lat="50.50626" lon="5.47803">
        <ele>180</ele>
        <time>2016-10-22T14:05:52Z</time>
      </trkpt>
      <trkpt lat="50.50657" lon="5.47854">
        <ele>181</ele>
        <time>2016-10-22T14:07:52Z</time>
      </trkpt>
      <trkpt lat="50.507" lon="5.478">
        <ele>174</ele>
        <time>2016-10-22T14:09:52Z</time>
      </trkpt>
      <trkpt lat="50.50767" lon="5.47723">
        <ele>176</ele>
        <time>2016-10-22T14:11:52Z</time>
      </trkpt>
      <trkpt lat="50.50832" lon="5.47644">
        <ele>178</ele>
        <time>2016-10-22T14:13:52Z</time>
      </trkpt>
      <trkpt lat="50.50986" lon="5.47464">
        <ele>181</ele>
        <time>2016-10-22T14:15:52Z</time>
      </trkpt>
      <trkpt lat="50.51009" lon="5.47438">
        <ele>181</ele>
        <time>2016-10-22T14:17:52Z</time>
      </trkpt>
      <trkpt lat="50.51102" lon="5.47329">
        <ele>183</ele>
        <time>2016-10-22T14:19:52Z</time>
      </trkpt>
      <trkpt lat="50.51248" lon="5.47159">
        <ele>192</ele>
        <time>2016-10-22T14:21:52Z</time>
      </trkpt>
      <trkpt lat="50.51263" lon="5.47139">
        <ele>193</ele>
        <time>2016-10-22T14:23:52Z</time>
      </trkpt>
      <trkpt lat="50.51272" lon="5.47121">
        <ele>194</ele>
        <time>2016-10-22T14:25:52Z</time>
      </trkpt>
      <trkpt lat="50.5128" lon="5.47098">
        <ele>195</ele>
        <time>2016-10-22T14:27:52Z</time>
      </trkpt>
      <trkpt lat="50.51289" lon="5.47056">
        <ele>196</ele>
        <time>2016-10-22T14:29:52Z</time>
      </trkpt>
      <trkpt lat="50.51329" lon="5.46759">
        <ele>205</ele>
        <time>2016-10-22T14:31:52Z</time>
      </trkpt>
      <trkpt lat="50.5135" lon="5.46613">
        <ele>210</ele>
        <time>2016-10-22T14:33:52Z</time>
      </trkpt>
      <trkpt lat="50.51434" lon="5.4684">
        <ele>205</ele>
        <time>2016-10-22T14:35:52Z</time>
      </trkpt>
      <trkpt lat="50.51442" lon="5.46865">
        <ele>204</ele>
        <time>2016-10-22T14:37:52Z</time>
      </trkpt>
      <trkpt lat="50.5145" lon="5.46904">
        <ele>204</ele>
        <time>2016-10-22T14:39:52Z</time>
      </trkpt>
      <trkpt lat="50.51483" lon="5.47077">
        <ele>200</ele>
        <time>2016-10-22T14:41:52Z</time>
      </trkpt>
      <trkpt lat="50.51486" lon="5.47089">
        <ele>200</ele>
        <time>2016-10-22T14:43:52Z</time>
      </trkpt>
      <trkpt lat="50.515" lon="5.47132">
        <ele>201</ele>
        <time>2016-10-22T14:45:52Z</time>
      </trkpt>
      <trkpt lat="50.51543" lon="5.47255">
        <ele>200</ele>
        <time>2016-10-22T14:47:52Z</time>
      </trkpt>
      <trkpt lat="50.51615" lon="5.47438">
        <ele>202</ele>
        <time>2016-10-22T14:49:52Z</time>
      </trkpt>
      <trkpt lat="50.5165" lon="5.47535">
        <ele>202</ele>
        <time>2016-10-22T14:51:52Z</time>
      </trkpt>
      <trkpt lat="50.51656" lon="5.47556">
        <ele>201</ele>
        <time>2016-10-22T14:53:52Z</time>
      </trkpt>
      <trkpt lat="50.51662" lon="5.47592">
        <ele>201</ele>
        <time>2016-10-22T14:55:52Z</time>
      </trkpt>
      <trkpt lat="50.51692" lon="5.47735">
        <ele>199</ele>
        <time>2016-10-22T14:57:52Z</time>
      </trkpt>
      <trkpt lat="50.51695" lon="5.47746">
        <ele>199</ele>
        <time>2016-10-22T14:59:52Z</time>
      </trkpt>
      <trkpt lat="50.51743" lon="5.47835">
        <ele>198</ele>
        <time>2016-10-22T15:01:52Z</time>
      </trkpt>
      <trkpt lat="50.51752" lon="5.47864">
        <ele>197</ele>
        <time>2016-10-22T15:03:52Z</time>
      </trkpt>
      <trkpt lat="50.51777" lon="5.47983">
        <ele>193</ele>
        <time>2016-10-22T15:05:52Z</time>
      </trkpt>
      <trkpt lat="50.51785" lon="5.48069">
        <ele>191</ele>
        <time>2016-10-22T15:07:52Z</time>
      </trkpt>
      <trkpt lat="50.51787" lon="5.48078">
        <ele>191</ele>
        <time>2016-10-22T15:09:52Z</time>
      </trkpt>
      <trkpt lat="50.51821" lon="5.48191">
        <ele>189</ele>
        <time>2016-10-22T15:11:52Z</time>
      </trkpt>
      <trkpt lat="50.51857" lon="5.48329">
        <ele>188</ele>
        <time>2016-10-22T15:13:52Z</time>
      </trkpt>
      <trkpt lat="50.51889" lon="5.48432">
        <ele>187</ele>
        <time>2016-10-22T15:15:52Z</time>
      </trkpt>
      <trkpt lat="50.51924" lon="5.48524">
        <ele>189</ele>
        <time>2016-10-22T15:17:52Z</time>
      </trkpt>
      <trkpt lat="50.51942" lon="5.48505">
        <ele>188</ele>
        <time>2016-10-22T15:19:52Z</time>
      </trkpt>
      <trkpt lat="50.51948" lon="5.48497">
        <ele>187</ele>
        <time>2016-10-22T15:21:52Z</time>
      </trkpt>
      <trkpt lat="50.51952" lon="5.48479">
        <ele>186</ele>
        <time>2016-10-22T15:23:52Z</time>
      </trkpt>
      <trkpt lat="50.51953" lon="5.48469">
        <ele>185</ele>
        <time>2016-10-22T15:25:52Z</time>
      </trkpt>
      <trkpt lat="50.51953" lon="5.48448">
        <ele>184</ele>
        <time>2016-10-22T15:27:52Z</time>
      </trkpt>
      <trkpt lat="50.51951" lon="5.48426">
        <ele>183</ele>
        <time>2016-10-22T15:29:52Z</time>
      </trkpt>
      <trkpt lat="50.51949" lon="5.48411">
        <ele>182</ele>
        <time>2016-10-22T15:31:52Z</time>
      </trkpt>
      <trkpt lat="50.51946" lon="5.48393">
        <ele>182</ele>
        <time>2016-10-22T15:33:52Z</time>
      </trkpt>
      <trkpt lat="50.51926" lon="5.48315">
        <ele>181</ele>
        <time>2016-10-22T15:35:52Z</time>
      </trkpt>
      <trkpt lat="50.51922" lon="5.48267">
        <ele>180</ele>
        <time>2016-10-22T15:37:52Z</time>
      </trkpt>
      <trkpt lat="50.51908" lon="5.48216">
        <ele>180</ele>
        <time>2016-10-22T15:39:52Z</time>
      </trkpt>
      <trkpt lat="50.51912" lon="5.48203">
        <ele>179</ele>
        <time>2016-10-22T15:41:52Z</time>
      </trkpt>
      <trkpt lat="50.51917" lon="5.48202">
        <ele>178</ele>
        <time>2016-10-22T15:43:52Z</time>
      </trkpt>
      <trkpt lat="50.51922" lon="5.48206">
        <ele>178</ele>
        <time>2016-10-22T15:45:52Z</time>
      </trkpt>
      <trkpt lat="50.51945" lon="5.48266">
        <ele>176</ele>
        <time>2016-10-22T15:47:52Z</time>
      </trkpt>
      <trkpt lat="50.51959" lon="5.48292">
        <ele>175</ele>
        <time>2016-10-22T15:49:52Z</time>
      </trkpt>
      <trkpt lat="50.51998" lon="5.48356">
        <ele>171</ele>
        <time>2016-10-22T15:51:52Z</time>
      </trkpt>
      <trkpt lat="50.52066" lon="5.4844">
        <ele>173</ele>
        <time>2016-10-22T15:53:52Z</time>
      </trkpt>
      <trkpt lat="50.52077" lon="5.48449">
        <ele>172</ele>
        <time>2016-10-22T15:55:52Z</time>
      </trkpt>
      <trkpt lat="50.52085" lon="5.48454">
        <ele>172</ele>
        <time>2016-10-22T15:57:52Z</time>
      </trkpt>
      <trkpt lat="50.52091" lon="5.48457">
        <ele>172</ele>
        <time>2016-10-22T15:59:52Z</time>
      </trkpt>
      <trkpt lat="50.52095" lon="5.48457">
        <ele>172</ele>
        <time>2016-10-22T16:01:52Z</time>
      </trkpt>
      <trkpt lat="50.52106" lon="5.48454">
        <ele>171</ele>
        <time>2016-10-22T16:03:52Z</time>
      </trkpt>
      <trkpt lat="50.52124" lon="5.48436">
        <ele>170</ele>
        <time>2016-10-22T16:05:52Z</time>
      </trkpt>
      <trkpt lat="50.52145" lon="5.48409">
        <ele>169</ele>
        <time>2016-10-22T16:07:52Z</time>
      </trkpt>
      <trkpt lat="50.52151" lon="5.48403">
        <ele>169</ele>
        <time>2016-10-22T16:09:52Z</time>
      </trkpt>
      <trkpt lat="50.52159" lon="5.484">
        <ele>169</ele>
        <time>2016-10-22T16:11:52Z</time>
      </trkpt>
      <trkpt lat="50.52167" lon="5.484">
        <ele>169</ele>
        <time>2016-10-22T16:13:52Z</time>
      </trkpt>
      <trkpt lat="50.52175" lon="5.48402">
        <ele>170</ele>
        <time>2016-10-22T16:15:52Z</time>
      </trkpt>
      <trkpt lat="50.52188" lon="5.48412">
        <ele>172</ele>
        <time>2016-10-22T16:17:52Z</time>
      </trkpt>
      <trkpt lat="50.52195" lon="5.4842">
        <ele>173</ele>
        <time>2016-10-22T16:19:52Z</time>
      </trkpt>
      <trkpt lat="50.52221" lon="5.48453">
        <ele>177</ele>
        <time>2016-10-22T16:21:52Z</time>
      </trkpt>
      <trkpt lat="50.52246" lon="5.48496">
        <ele>180</ele>
        <time>2016-10-22T16:23:52Z</time>
      </trkpt>
      <trkpt lat="50.52265" lon="5.48534">
        <ele>180</ele>
        <time>2016-10-22T16:25:52Z</time>
      </trkpt>
      <trkpt lat="50.52273" lon="5.48553">
        <ele>180</ele>
        <time>2016-10-22T16:27:52Z</time>
      </trkpt>
      <trkpt lat="50.52283" lon="5.48583">
        <ele>180</ele>
        <time>2016-10-22T16:29:52Z</time>
      </trkpt>
      <trkpt lat="50.52311" lon="5.48682">
        <ele>178</ele>
        <time>2016-10-22T16:31:52Z</time>
      </trkpt>
      <trkpt lat="50.52316" lon="5.4869">
        <ele>178</ele>
        <time>2016-10-22T16:33:52Z</time>
      </trkpt>
      <trkpt lat="50.52323" lon="5.48698">
        <ele>179</ele>
        <time>2016-10-22T16:35:52Z</time>
      </trkpt>
      <trkpt lat="50.5233" lon="5.48703">
        <ele>180</ele>
        <time>2016-10-22T16:37:52Z</time>
      </trkpt>
      <trkpt lat="50.52337" lon="5.48706">
        <ele>180</ele>
        <time>2016-10-22T16:39:52Z</time>
      </trkpt>
      <trkpt lat="50.52344" lon="5.48705">
        <ele>180</ele>
        <time>2016-10-22T16:41:52Z</time>
      </trkpt>
      <trkpt lat="50.52352" lon="5.48703">
        <ele>180</ele>
        <time>2016-10-22T16:43:52Z</time>
      </trkpt>
      <trkpt lat="50.52361" lon="5.48697">
        <ele>180</ele>
        <time>2016-10-22T16:45:52Z</time>
      </trkpt>
      <trkpt lat="50.52372" lon="5.48682">
        <ele>181</ele>
        <time>2016-10-22T16:47:52Z</time>
      </trkpt>
      <trkpt lat="50.5238" lon="5.48664">
        <ele>181</ele>
        <time>2016-10-22T16:49:52Z</time>
      </trkpt>
      <trkpt lat="50.52387" lon="5.48645">
        <ele>183</ele>
        <time>2016-10-22T16:51:52Z</time>
      </trkpt>
      <trkpt lat="50.52393" lon="5.48624">
        <ele>184</ele>
        <time>2016-10-22T16:53:52Z</time>
      </trkpt>
      <trkpt lat="50.52401" lon="5.48586">
        <ele>186</ele>
        <time>2016-10-22T16:55:52Z</time>
      </trkpt>
      <trkpt lat="50.52414" lon="5.48542">
        <ele>189</ele>
        <time>2016-10-22T16:57:52Z</time>
      </trkpt>
      <trkpt lat="50.52417" lon="5.48527">
        <ele>190</ele>
        <time>2016-10-22T16:59:52Z</time>
      </trkpt>
      <trkpt lat="50.52417" lon="5.48515">
        <ele>191</ele>
        <time>2016-10-22T17:01:52Z</time>
      </trkpt>
      <trkpt lat="50.52416" lon="5.48497">
        <ele>192</ele>
        <time>2016-10-22T17:03:52Z</time>
      </trkpt>
      <trkpt lat="50.5241" lon="5.48422">
        <ele>193</ele>
        <time>2016-10-22T17:05:52Z</time>
      </trkpt>
      <trkpt lat="50.52411" lon="5.48406">
        <ele>193</ele>
        <time>2016-10-22T17:07:52Z</time>
      </trkpt>
      <trkpt lat="50.52415" lon="5.4839">
        <ele>193</ele>
        <time>2016-10-22T17:09:52Z</time>
      </trkpt>
      <trkpt lat="50.52421" lon="5.48374">
        <ele>194</ele>
        <time>2016-10-22T17:11:52Z</time>
      </trkpt>
      <trkpt lat="50.52435" lon="5.4835">
        <ele>194</ele>
        <time>2016-10-22T17:13:52Z</time>
      </trkpt>
      <trkpt lat="50.52501" lon="5.48255">
        <ele>203</ele>
        <time>2016-10-22T17:15:52Z</time>
      </trkpt>
      <trkpt lat="50.52526" lon="5.48221">
        <ele>205</ele>
        <time>2016-10-22T17:17:52Z</time>
      </trkpt>
      <trkpt lat="50.52563" lon="5.48186">
        <ele>209</ele>
        <time>2016-10-22T17:19:52Z</time>
      </trkpt>
      <trkpt lat="50.526" lon="5.48152">
        <ele>212</ele>
        <time>2016-10-22T17:21:52Z</time>
      </trkpt>
      <trkpt lat="50.52611" lon="5.48139">
        <ele>212</ele>
        <time>2016-10-22T17:23:52Z</time>
      </trkpt>
      <trkpt lat="50.52619" lon="5.48126">
        <ele>213</ele>
        <time>2016-10-22T17:25:52Z</time>
      </trkpt>
      <trkpt lat="50.52649" lon="5.48065">
        <ele>219</ele>
        <time>2016-10-22T17:27:52Z</time>
      </trkpt>
      <trkpt lat="50.52656" lon="5.48056">
        <ele>219</ele>
        <time>2016-10-22T17:29:52Z</time>
      </trkpt>
      <trkpt lat="50.52665" lon="5.48051">
        <ele>220</ele>
        <time>2016-10-22T17:31:52Z</time>
      </trkpt>
      <trkpt lat="50.5267" lon="5.48051">
        <ele>220</ele>
        <time>2016-10-22T17:33:52Z</time>
      </trkpt>
      <trkpt lat="50.52688" lon="5.48054">
        <ele>220</ele>
        <time>2016-10-22T17:35:52Z</time>
      </trkpt>
      <trkpt lat="50.52698" lon="5.48052">
        <ele>221</ele>
        <time>2016-10-22T17:37:52Z</time>
      </trkpt>
      <trkpt lat="50.52736" lon="5.48039">
        <ele>224</ele>
        <time>2016-10-22T17:39:52Z</time>
      </trkpt>
      <trkpt lat="50.52742" lon="5.48038">
        <ele>224</ele>
        <time>2016-10-22T17:41:52Z</time>
      </trkpt>
      <trkpt lat="50.52778" lon="5.48042">
        <ele>223</ele>
        <time>2016-10-22T17:43:52Z</time>
      </trkpt>
      <trkpt lat="50.52785" lon="5.48041">
        <ele>223</ele>
        <time>2016-10-22T17:45:52Z</time>
      </trkpt>
      <trkpt lat="50.52791" lon="5.48039">
        <ele>223</ele>
        <time>2016-10-22T17:47:52Z</time>
      </trkpt>
      <trkpt lat="50.52794" lon="5.48036">
        <ele>223</ele>
        <time>2016-10-22T17:49:52Z</time>
      </trkpt>
      <trkpt lat="50.52798" lon="5.4803">
        <ele>224</ele>
        <time>2016-10-22T17:51:52Z</time>
      </trkpt>
      <trkpt lat="50.528" lon="5.48018">
        <ele>225</ele>
        <time>2016-10-22T17:53:52Z</time>
      </trkpt>
      <trkpt lat="50.528" lon="5.48003">
        <ele>227</ele>
        <time>2016-10-22T17:55:52Z</time>
      </trkpt>
      <trkpt lat="50.52795" lon="5.47965">
        <ele>229</ele>
        <time>2016-10-22T17:57:52Z</time>
      </trkpt>
      <trkpt lat="50.52793" lon="5.47936">
        <ele>230</ele>
        <time>2016-10-22T17:59:52Z</time>
      </trkpt>
      <trkpt lat="50.52793" lon="5.47918">
        <ele>230</ele>
        <time>2016-10-22T18:01:52Z</time>
      </trkpt>
      <trkpt lat="50.52795" lon="5.47893">
        <ele>231</ele>
        <time>2016-10-22T18:03:52Z</time>
      </trkpt>
      <trkpt lat="50.52803" lon="5.47835">
        <ele>233</ele>
        <time>2016-10-22T18:05:52Z</time>
      </trkpt>
      <trkpt lat="50.52805" lon="5.47813">
        <ele>233</ele>
        <time>2016-10-22T18:07:52Z</time>
      </trkpt>
      <trkpt lat="50.52805" lon="5.47799">
        <ele>234</ele>
        <time>2016-10-22T18:09:52Z</time>
      </trkpt>
      <trkpt lat="50.52801" lon="5.47757">
        <ele>235</ele>
        <time>2016-10-22T18:11:52Z</time>
      </trkpt>
      <trkpt lat="50.52798" lon="5.4773">
        <ele>236</ele>
        <time>2016-10-22T18:13:52Z</time>
      </trkpt>
      <trkpt lat="50.52798" lon="5.47714">
        <ele>237</ele>
        <time>2016-10-22T18:15:52Z</time>
      </trkpt>
      <trkpt lat="50.52799" lon="5.47705">
        <ele>237</ele>
        <time>2016-10-22T18:17:52Z</time>
      </trkpt>
      <trkpt lat="50.52801" lon="5.47697">
        <ele>237</ele>
        <time>2016-10-22T18:19:52Z</time>
      </trkpt>
      <trkpt lat="50.52804" lon="5.47691">
        <ele>237</ele>
        <time>2016-10-22T18:21:52Z</time>
      </trkpt>
      <trkpt lat="50.5281" lon="5.47685">
        <ele>237</ele>
        <time>2016-10-22T18:23:52Z</time>
      </trkpt>
      <trkpt lat="50.52834" lon="5.4767">
        <ele>238</ele>
        <time>2016-10-22T18:25:52Z</time>
      </trkpt>
      <trkpt lat="50.52857" lon="5.47659">
        <ele>241</ele>
        <time>2016-10-22T18:27:52Z</time>
      </trkpt>
      <trkpt lat="50.52869" lon="5.47655">
        <ele>242</ele>
        <time>2016-10-22T18:29:52Z</time>
      </trkpt>
      <trkpt lat="50.52876" lon="5.47654">
        <ele>243</ele>
        <time>2016-10-22T18:31:52Z</time>
      </trkpt>
      <trkpt lat="50.52887" lon="5.47654">
        <ele>244</ele>
        <time>2016-10-22T18:33:52Z</time>
      </trkpt>
      <trkpt lat="50.52901" lon="5.47656">
        <ele>246</ele>
        <time>2016-10-22T18:35:52Z</time>
      </trkpt>
      <trkpt lat="50.52907" lon="5.47659">
        <ele>246</ele>
        <time>2016-10-22T18:37:52Z</time>
      </trkpt>
      <trkpt lat="50.52932" lon="5.4767">
        <ele>248</ele>
        <time>2016-10-22T18:39:52Z</time>
      </trkpt>
      <trkpt lat="50.52955" lon="5.47683">
        <ele>248</ele>
        <time>2016-10-22T18:41:52Z</time>
      </trkpt>
      <trkpt lat="50.52984" lon="5.47705">
        <ele>248</ele>
        <time>2016-10-22T18:43:52Z</time>
      </trkpt>
      <trkpt lat="50.52998" lon="5.4772">
        <ele>248</ele>
        <time>2016-10-22T18:45:52Z</time>
      </trkpt>
      <trkpt lat="50.53034" lon="5.47761">
        <ele>248</ele>
        <time>2016-10-22T18:47:52Z</time>
      </trkpt>
      <trkpt lat="50.53049" lon="5.47774">
        <ele>249</ele>
        <time>2016-10-22T18:49:52Z</time>
      </trkpt>
      <trkpt lat="50.53069" lon="5.47786">
        <ele>250</ele>
        <time>2016-10-22T18:51:52Z</time>
      </trkpt>
      <trkpt lat="50.53092" lon="5.47796">
        <ele>252</ele>
        <time>2016-10-22T18:53:52Z</time>
      </trkpt>
      <trkpt lat="50.53109" lon="5.47806">
        <ele>254</ele>
        <time>2016-10-22T18:55:52Z</time>
      </trkpt>
      <trkpt lat="50.53144" lon="5.4783">
        <ele>257</ele>
        <time>2016-10-22T18:57:52Z</time>
      </trkpt>
      <trkpt lat="50.53165" lon="5.47848">
        <ele>258</ele>
        <time>2016-10-22T18:59:52Z</time>
      </trkpt>
      <trkpt lat="50.53236" lon="5.4792">
        <ele>260</ele>
        <time>2016-10-22T19:01:52Z</time>
      </trkpt>
      <trkpt lat="50.53271" lon="5.47948">
        <ele>261</ele>
        <time>2016-10-22T19:03:52Z</time>
      </trkpt>
      <trkpt lat="50.53322" lon="5.47986">
        <ele>264</ele>
        <time>2016-10-22T19:05:52Z</time>
      </trkpt>
      <trkpt lat="50.5336" lon="5.48027">
        <ele>264</ele>
        <time>2016-10-22T19:07:52Z</time>
      </trkpt>
      <trkpt lat="50.53386" lon="5.48059">
        <ele>264</ele>
        <time>2016-10-22T19:09:52Z</time>
      </trkpt>
      <trkpt lat="50.53399" lon="5.48081">
        <ele>264</ele>
        <time>2016-10-22T19:11:52Z</time>
      </trkpt>
      <trkpt lat="50.53432" lon="5.48147">
        <ele>265</ele>
        <time>2016-10-22T19:13:52Z</time>
      </trkpt>
      <trkpt lat="50.5344" lon="5.48162">
        <ele>265</ele>
        <time>2016-10-22T19:15:52Z</time>
      </trkpt>
      <trkpt lat="50.53445" lon="5.48151">
        <ele>265</ele>
        <time>2016-10-22T19:17:52Z</time>
      </trkpt>
      <trkpt lat="50.53448" lon="5.48145">
        <ele>265</ele>
        <time>2016-10-22T19:19:52Z</time>
      </trkpt>
      <trkpt lat="50.53494" lon="5.48086">
        <ele>266</ele>
        <time>2016-10-22T19:21:52Z</time>
      </trkpt>
      <trkpt lat="50.53498" lon="5.48083">
        <ele>266</ele>
        <time>2016-10-22T19:23:52Z</time>
      </trkpt>
      <trkpt lat="50.53506" lon="5.48078">
        <ele>266</ele>
        <time>2016-10-22T19:25:52Z</time>
      </trkpt>
      <trkpt lat="50.53516" lon="5.48073">
        <ele>266</ele>
        <time>2016-10-22T19:27:52Z</time>
      </trkpt>
      <trkpt lat="50.53561" lon="5.48057">
        <ele>265</ele>
        <time>2016-10-22T19:29:52Z</time>
      </trkpt>
      <trkpt lat="50.53576" lon="5.48052">
        <ele>265</ele>
        <time>2016-10-22T19:31:52Z</time>
      </trkpt>
      <trkpt lat="50.536" lon="5.48045">
        <ele>264</ele>
        <time>2016-10-22T19:33:52Z</time>
      </trkpt>
      <trkpt lat="50.53644" lon="5.48036">
        <ele>261</ele>
        <time>2016-10-22T19:35:52Z</time>
      </trkpt>
      <trkpt lat="50.53663" lon="5.48031">
        <ele>260</ele>
        <time>2016-10-22T19:37:52Z</time>
      </trkpt>
      <trkpt lat="50.5376" lon="5.47983">
        <ele>259</ele>
        <time>2016-10-22T19:39:52Z</time>
      </trkpt>
      <trkpt lat="50.5378" lon="5.4798">
        <ele>260</ele>
        <time>2016-10-22T19:41:52Z</time>
      </trkpt>
      <trkpt lat="50.53835" lon="5.4797">
        <ele>261</ele>
        <time>2016-10-22T19:43:52Z</time>
      </trkpt>
      <trkpt lat="50.53809" lon="5.4783">
        <ele>260</ele>
        <time>2016-10-22T19:45:52Z</time>
      </trkpt>
      <trkpt lat="50.53802" lon="5.47763">
        <ele>261</ele>
        <time>2016-10-22T19:47:52Z</time>
      </trkpt>
      <trkpt lat="50.538" lon="5.47714">
        <ele>262</ele>
        <time>2016-10-22T19:49:52Z</time>
      </trkpt>
      <trkpt lat="50.538" lon="5.47643">
        <ele>263</ele>
        <time>2016-10-22T19:51:52Z</time>
      </trkpt>
      <trkpt lat="50.53804" lon="5.47611">
        <ele>263</ele>
        <time>2016-10-22T19:53:52Z</time>
      </trkpt>
      <trkpt lat="50.53833" lon="5.47447">
        <ele>265</ele>
        <time>2016-10-22T19:55:52Z</time>
      </trkpt>
      <trkpt lat="50.5384" lon="5.4741">
        <ele>266</ele>
        <time>2016-10-22T19:57:52Z</time>
      </trkpt>
      <trkpt lat="50.53846" lon="5.47362">
        <ele>268</ele>
        <time>2016-10-22T19:59:52Z</time>
      </trkpt>
      <trkpt lat="50.53856" lon="5.47313">
        <ele>269</ele>
        <time>2016-10-22T20:01:52Z</time>
      </trkpt>
      <trkpt lat="50.53875" lon="5.47256">
        <ele>270</ele>
        <time>2016-10-22T20:03:52Z</time>
      </trkpt>
      <trkpt lat="50.53882" lon="5.47234">
        <ele>270</ele>
        <time>2016-10-22T20:05:52Z</time>
      </trkpt>
      <trkpt lat="50.53894" lon="5.4717">
        <ele>270</ele>
        <time>2016-10-22T20:07:52Z</time>
      </trkpt>
      <trkpt lat="50.53962" lon="5.4675">
        <ele>262</ele>
        <time>2016-10-22T20:09:52Z</time>
      </trkpt>
      <trkpt lat="50.53998" lon="5.46555">
        <ele>257</ele>
        <time>2016-10-22T20:11:52Z</time>
      </trkpt>
      <trkpt lat="50.54026" lon="5.4645">
        <ele>255</ele>
        <time>2016-10-22T20:13:52Z</time>
      </trkpt>
      <trkpt lat="50.54048" lon="5.4636">
        <ele>255</ele>
        <time>2016-10-22T20:15:52Z</time>
      </trkpt>
      <trkpt lat="50.54053" lon="5.46316">
        <ele>255</ele>
        <time>2016-10-22T20:17:52Z</time>
      </trkpt>
      <trkpt lat="50.54057" lon="5.46269">
        <ele>255</ele>
        <time>2016-10-22T20:19:52Z</time>
      </trkpt>
      <trkpt lat="50.54061" lon="5.4626">
        <ele>255</ele>
        <time>2016-10-22T20:21:52Z</time>
      </trkpt>
      <trkpt lat="50.54067" lon="5.46234">
        <ele>255</ele>
        <time>2016-10-22T20:23:52Z</time>
      </trkpt>
      <trkpt lat="50.54075" lon="5.46217">
        <ele>255</ele>
        <time>2016-10-22T20:25:52Z</time>
      </trkpt>
      <trkpt lat="50.54086" lon="5.46199">
        <ele>255</ele>
        <time>2016-10-22T20:27:52Z</time>
      </trkpt>
      <trkpt lat="50.54108" lon="5.46158">
        <ele>254</ele>
        <time>2016-10-22T20:29:52Z</time>
      </trkpt>
      <trkpt lat="50.54119" lon="5.46139">
        <ele>254</ele>
        <time>2016-10-22T20:31:52Z</time>
      </trkpt>
      <trkpt lat="50.5412" lon="5.46129">
        <ele>254</ele>
        <time>2016-10-22T20:33:52Z</time>
      </trkpt>
      <trkpt lat="50.54128" lon="5.46107">
        <ele>254</ele>
        <time>2016-10-22T20:35:52Z</time>
      </trkpt>
      <trkpt lat="50.54145" lon="5.46063">
        <ele>254</ele>
        <time>2016-10-22T20:37:52Z</time>
      </trkpt>
      <trkpt lat="50.54154" lon="5.46045">
        <ele>253</ele>
        <time>2016-10-22T20:39:52Z</time>
      </trkpt>
      <trkpt lat="50.5417" lon="5.46024">
        <ele>253</ele>
        <time>2016-10-22T20:41:52Z</time>
      </trkpt>
      <trkpt lat="50.5418" lon="5.46014">
        <ele>253</ele>
        <time>2016-10-22T20:43:52Z</time>
      </trkpt>
      <trkpt lat="50.54247" lon="5.45962">
        <ele>252</ele>
        <time>2016-10-22T20:45:52Z</time>
      </trkpt>
      <trkpt lat="50.54304" lon="5.4591">
        <ele>250</ele>
        <time>2016-10-22T20:47:52Z</time>
      </trkpt>
      <trkpt lat="50.54313" lon="5.45901">
        <ele>250</ele>
        <time>2016-10-22T20:49:52Z</time>
      </trkpt>
      <trkpt lat="50.54553" lon="5.45682">
        <ele>237</ele>
        <time>2016-10-22T20:51:52Z</time>
      </trkpt>
      <trkpt lat="50.54611" lon="5.45633">
        <ele>232</ele>
        <time>2016-10-22T20:53:52Z</time>
      </trkpt>
      <trkpt lat="50.54724" lon="5.45531">
        <ele>224</ele>
        <time>2016-10-22T20:55:52Z</time>
      </trkpt>
      <trkpt lat="50.54739" lon="5.45519">
        <ele>223</ele>
        <time>2016-10-22T20:57:52Z</time>
      </trkpt>
      <trkpt lat="50.5504" lon="5.45243">
        <ele>215</ele>
        <time>2016-10-22T20:59:52Z</time>
      </trkpt>
      <trkpt lat="50.55055" lon="5.45222">
        <ele>216</ele>
        <time>2016-10-22T21:01:52Z</time>
      </trkpt>
      <trkpt lat="50.55062" lon="5.45219">
        <ele>217</ele>
        <time>2016-10-22T21:03:52Z</time>
      </trkpt>
      <trkpt lat="50.55067" lon="5.45219">
        <ele>217</ele>
        <time>2016-10-22T21:05:52Z</time>
      </trkpt>
      <trkpt lat="50.55127" lon="5.45227">
        <ele>221</ele>
        <time>2016-10-22T21:07:52Z</time>
      </trkpt>
      <trkpt lat="50.55135" lon="5.45226">
        <ele>222</ele>
        <time>2016-10-22T21:09:52Z</time>
      </trkpt>
      <trkpt lat="50.55157" lon="5.45217">
        <ele>223</ele>
        <time>2016-10-22T21:11:52Z</time>
      </trkpt>
      <trkpt lat="50.55218" lon="5.45183">
        <ele>226</ele>
        <time>2016-10-22T21:13:52Z</time>
      </trkpt>
      <trkpt lat="50.55233" lon="5.45173">
        <ele>227</ele>
        <time>2016-10-22T21:15:52Z</time>
      </trkpt>
      <trkpt lat="50.5524" lon="5.45164">
        <ele>227</ele>
        <time>2016-10-22T21:17:52Z</time>
      </trkpt>
      <trkpt lat="50.55243" lon="5.45143">
        <ele>227</ele>
        <time>2016-10-22T21:19:52Z</time>
      </trkpt>
      <trkpt lat="50.55247" lon="5.45138">
        <ele>228</ele>
        <time>2016-10-22T21:21:52Z</time>
      </trkpt>
      <trkpt lat="50.55253" lon="5.4512">
        <ele>228</ele>
        <time>2016-10-22T21:23:52Z</time>
      </trkpt>
      <trkpt lat="50.55277" lon="5.45124">
        <ele>230</ele>
        <time>2016-10-22T21:25:52Z</time>
      </trkpt>
      <trkpt lat="50.55279" lon="5.45114">
        <ele>230</ele>
        <time>2016-10-22T21:27:52Z</time>
      </trkpt>
      <trkpt lat="50.5528" lon="5.45107">
        <ele>230</ele>
        <time>2016-10-22T21:29:52Z</time>
      </trkpt>
      <trkpt lat="50.55286" lon="5.45092">
        <ele>231</ele>
        <time>2016-10-22T21:31:52Z</time>
      </trkpt>
      <trkpt lat="50.55401" lon="5.44878">
        <ele>235</ele>
        <time>2016-10-22T21:33:52Z</time>
      </trkpt>
      <trkpt lat="50.55418" lon="5.44852">
        <ele>235</ele>
        <time>2016-10-22T21:35:52Z</time>
      </trkpt>
      <trkpt lat="50.55504" lon="5.44745">
        <ele>236</ele>
        <time>2016-10-22T21:37:52Z</time>
      </trkpt>
      <trkpt lat="50.55816" lon="5.44364">
        <ele>230</ele>
        <time>2016-10-22T21:39:52Z</time>
      </trkpt>
      <trkpt lat="50.55976" lon="5.44166">
        <ele>223</ele>
        <time>2016-10-22T21:41:52Z</time>
      </trkpt>
      <trkpt lat="50.56046" lon="5.44084">
        <ele>220</ele>
        <time>2016-10-22T21:43:52Z</time>
      </trkpt>
      <trkpt lat="50.56125" lon="5.43986">
        <ele>218</ele>
        <time>2016-10-22T21:45:52Z</time>
      </trkpt>
      <trkpt lat="50.56207" lon="5.43875">
        <ele>216</ele>
        <time>2016-10-22T21:47:52Z</time>
      </trkpt>
      <trkpt lat="50.56245" lon="5.43821">
        <ele>215</ele>
        <time>2016-10-22T21:49:52Z</time>
      </trkpt>
      <trkpt lat="50.56264" lon="5.4379">
        <ele>214</ele>
        <time>2016-10-22T21:51:52Z</time>
      </trkpt>
      <trkpt lat="50.5627" lon="5.43776">
        <ele>214</ele>
        <time>2016-10-22T21:53:52Z</time>
      </trkpt>
      <trkpt lat="50.56316" lon="5.43679">
        <ele>214</ele>
        <time>2016-10-22T21:55:52Z</time>
      </trkpt>
      <trkpt lat="50.56337" lon="5.43634">
        <ele>214</ele>
        <time>2016-10-22T21:57:52Z</time>
      </trkpt>
      <trkpt lat="50.56346" lon="5.43612">
        <ele>213</ele>
        <time>2016-10-22T21:59:52Z</time>
      </trkpt>
      <trkpt lat="50.56375" lon="5.43559">
        <ele>212</ele>
        <time>2016-10-22T22:01:52Z</time>
      </trkpt>
      <trkpt lat="50.56393" lon="5.4353">
        <ele>212</ele>
        <time>2016-10-22T22:03:52Z</time>
      </trkpt>
      <trkpt lat="50.56442" lon="5.43449">
        <ele>210</ele>
        <time>2016-10-22T22:05:52Z</time>
      </trkpt>
      <trkpt lat="50.56452" lon="5.4343">
        <ele>210</ele>
        <time>2016-10-22T22:07:52Z</time>
      </trkpt>
      <trkpt lat="50.56456" lon="5.43417">
        <ele>209</ele>
        <time>2016-10-22T22:09:52Z</time>
      </trkpt>
      <trkpt lat="50.56459" lon="5.43402">
        <ele>209</ele>
        <time>2016-10-22T22:11:52Z</time>
      </trkpt>
      <trkpt lat="50.56457" lon="5.4335">
        <ele>209</ele>
        <time>2016-10-22T22:13:52Z</time>
      </trkpt>
      <trkpt lat="50.56475" lon="5.43301">
        <ele>207</ele>
        <time>2016-10-22T22:15:52Z</time>
      </trkpt>
      <trkpt lat="50.56493" lon="5.4326">
        <ele>205</ele>
        <time>2016-10-22T22:17:52Z</time>
      </trkpt>
      <trkpt lat="50.56508" lon="5.4322">
        <ele>203</ele>
        <time>2016-10-22T22:19:52Z</time>
      </trkpt>
      <trkpt lat="50.56519" lon="5.43195">
        <ele>202</ele>
        <time>2016-10-22T22:21:52Z</time>
      </trkpt>
      <trkpt lat="50.56522" lon="5.43174">
        <ele>201</ele>
        <time>2016-10-22T22:23:52Z</time>
      </trkpt>
      <trkpt lat="50.56521" lon="5.43157">
        <ele>200</ele>
        <time>2016-10-22T22:25:52Z</time>
      </trkpt>
      <trkpt lat="50.56518" lon="5.43136">
        <ele>200</ele>
        <time>2016-10-22T22:27:52Z</time>
      </trkpt>
      <trkpt lat="50.5651" lon="5.43104">
        <ele>198</ele>
        <time>2016-10-22T22:29:52Z</time>
      </trkpt>
      <trkpt lat="50.56501" lon="5.43064">
        <ele>197</ele>
        <time>2016-10-22T22:31:52Z</time>
      </trkpt>
      <trkpt lat="50.56505" lon="5.43053">
        <ele>197</ele>
        <time>2016-10-22T22:33:52Z</time>
      </trkpt>
      <trkpt lat="50.56506" lon="5.43045">
        <ele>197</ele>
        <time>2016-10-22T22:35:52Z</time>
      </trkpt>
      <trkpt lat="50.56507" lon="5.43031">
        <ele>196</ele>
        <time>2016-10-22T22:37:52Z</time>
      </trkpt>
      <trkpt lat="50.56506" lon="5.43016">
        <ele>196</ele>
        <time>2016-10-22T22:39:52Z</time>
      </trkpt>
      <trkpt lat="50.56505" lon="5.43008">
        <ele>196</ele>
        <time>2016-10-22T22:41:52Z</time>
      </trkpt>
      <trkpt lat="50.56502" lon="5.42993">
        <ele>195</ele>
        <time>2016-10-22T22:43:52Z</time>
      </trkpt>
      <trkpt lat="50.56496" lon="5.42972">
        <ele>196</ele>
        <time>2016-10-22T22:45:52Z</time>
      </trkpt>
      <trkpt lat="50.56493" lon="5.42964">
        <ele>196</ele>
        <time>2016-10-22T22:47:52Z</time>
      </trkpt>
      <trkpt lat="50.56487" lon="5.42952">
        <ele>196</ele>
        <time>2016-10-22T22:49:52Z</time>
      </trkpt>
      <trkpt lat="50.56475" lon="5.42937">
        <ele>196</ele>
        <time>2016-10-22T22:51:52Z</time>
      </trkpt>
      <trkpt lat="50.56468" lon="5.42929">
        <ele>196</ele>
        <time>2016-10-22T22:53:52Z</time>
      </trkpt>
      <trkpt lat="50.56462" lon="5.42919">
        <ele>196</ele>
        <time>2016-10-22T22:55:52Z</time>
      </trkpt>
      <trkpt lat="50.56458" lon="5.42907">
        <ele>196</ele>
        <time>2016-10-22T22:57:52Z</time>
      </trkpt>
      <trkpt lat="50.56456" lon="5.42892">
        <ele>195</ele>
        <time>2016-10-22T22:59:52Z</time>
      </trkpt>
      <trkpt lat="50.56457" lon="5.42879">
        <ele>195</ele>
        <time>2016-10-22T23:01:52Z</time>
      </trkpt>
      <trkpt lat="50.5646" lon="5.42855">
        <ele>195</ele>
        <time>2016-10-22T23:03:52Z</time>
      </trkpt>
      <trkpt lat="50.5646" lon="5.42848">
        <ele>195</ele>
        <time>2016-10-22T23:05:52Z</time>
      </trkpt>
      <trkpt lat="50.56461" lon="5.42837">
        <ele>195</ele>
        <time>2016-10-22T23:07:52Z</time>
      </trkpt>
      <trkpt lat="50.56462" lon="5.42831">
        <ele>195</ele>
        <time>2016-10-22T23:09:52Z</time>
      </trkpt>
      <trkpt lat="50.56462" lon="5.42819">
        <ele>194</ele>
        <time>2016-10-22T23:11:52Z</time>
      </trkpt>
      <trkpt lat="50.56461" lon="5.42801">
        <ele>193</ele>
        <time>2016-10-22T23:13:52Z</time>
      </trkpt>
      <trkpt lat="50.56459" lon="5.42789">
        <ele>193</ele>
        <time>2016-10-22T23:15:52Z</time>
      </trkpt>
      <trkpt lat="50.56453" lon="5.42768">
        <ele>191</ele>
        <time>2016-10-22T23:17:52Z</time>
      </trkpt>
      <trkpt lat="50.56441" lon="5.42742">
        <ele>189</ele>
        <time>2016-10-22T23:19:52Z</time>
      </trkpt>
      <trkpt lat="50.56437" lon="5.42722">
        <ele>187</ele>
        <time>2016-10-22T23:21:52Z</time>
      </trkpt>
      <trkpt lat="50.56437" lon="5.42684">
        <ele>186</ele>
        <time>2016-10-22T23:23:52Z</time>
      </trkpt>
      <trkpt lat="50.56436" lon="5.42652">
        <ele>184</ele>
        <time>2016-10-22T23:25:52Z</time>
      </trkpt>
      <trkpt lat="50.56438" lon="5.42628">
        <ele>182</ele>
        <time>2016-10-22T23:27:52Z</time>
      </trkpt>
      <trkpt lat="50.56442" lon="5.42601">
        <ele>181</ele>
        <time>2016-10-22T23:29:52Z</time>
      </trkpt>
      <trkpt lat="50.56449" lon="5.42574">
        <ele>179</ele>
        <time>2016-10-22T23:31:52Z</time>
      </trkpt>
      <trkpt lat="50.56455" lon="5.42558">
        <ele>179</ele>
        <time>2016-10-22T23:33:52Z</time>
      </trkpt>
      <trkpt lat="50.56465" lon="5.42537">
        <ele>178</ele>
        <time>2016-10-22T23:35:52Z</time>
      </trkpt>
      <trkpt lat="50.56478" lon="5.4252">
        <ele>177</ele>
        <time>2016-10-22T23:37:52Z</time>
      </trkpt>
      <trkpt lat="50.56491" lon="5.42506">
        <ele>176</ele>
        <time>2016-10-22T23:39:52Z</time>
      </trkpt>
      <trkpt lat="50.565" lon="5.42495">
        <ele>176</ele>
        <time>2016-10-22T23:41:52Z</time>
      </trkpt>
      <trkpt lat="50.56509" lon="5.42483">
        <ele>177</ele>
        <time>2016-10-22T23:43:52Z</time>
      </trkpt>
      <trkpt lat="50.56518" lon="5.42463">
        <ele>177</ele>
        <time>2016-10-22T23:45:52Z</time>
      </trkpt>
      <trkpt lat="50.56524" lon="5.42447">
        <ele>176</ele>
        <time>2016-10-22T23:47:52Z</time>
      </trkpt>
      <trkpt lat="50.56527" lon="5.42441">
        <ele>176</ele>
        <time>2016-10-22T23:49:52Z</time>
      </trkpt>
      <trkpt lat="50.5653" lon="5.42434">
        <ele>176</ele>
        <time>2016-10-22T23:51:52Z</time>
      </trkpt>
      <trkpt lat="50.56539" lon="5.42424">
        <ele>176</ele>
        <time>2016-10-22T23:53:52Z</time>
      </trkpt>
      <trkpt lat="50.56548" lon="5.42415">
        <ele>175</ele>
        <time>2016-10-22T23:55:52Z</time>
      </trkpt>
      <trkpt lat="50.56568" lon="5.42402">
        <ele>174</ele>
        <time>2016-10-22T23:57:52Z</time>
      </trkpt>
      <trkpt lat="50.56582" lon="5.42388">
        <ele>173</ele>
        <time>2016-10-22T23:59:52Z</time>
      </trkpt>
      <trkpt lat="50.56591" lon="5.42375">
        <ele>172</ele>
        <time>2016-10-23T00:01:52Z</time>
      </trkpt>
      <trkpt lat="50.56614" lon="5.42344">
        <ele>171</ele>
        <time>2016-10-23T00:03:52Z</time>
      </trkpt>
      <trkpt lat="50.5664" lon="5.42303">
        <ele>172</ele>
        <time>2016-10-23T00:05:52Z</time>
      </trkpt>
      <trkpt lat="50.56658" lon="5.42276">
        <ele>171</ele>
        <time>2016-10-23T00:07:52Z</time>
      </trkpt>
      <trkpt lat="50.56674" lon="5.42248">
        <ele>169</ele>
        <time>2016-10-23T00:09:52Z</time>
      </trkpt>
      <trkpt lat="50.56679" lon="5.42234">
        <ele>168</ele>
        <time>2016-10-23T00:11:52Z</time>
      </trkpt>
      <trkpt lat="50.56682" lon="5.42224">
        <ele>167</ele>
        <time>2016-10-23T00:13:52Z</time>
      </trkpt>
      <trkpt lat="50.56688" lon="5.42197">
        <ele>164</ele>
        <time>2016-10-23T00:15:52Z</time>
      </trkpt>
      <trkpt lat="50.56696" lon="5.42177">
        <ele>162</ele>
        <time>2016-10-23T00:17:52Z</time>
      </trkpt>
      <trkpt lat="50.56705" lon="5.42159">
        <ele>162</ele>
        <time>2016-10-23T00:19:52Z</time>
      </trkpt>
      <trkpt lat="50.56719" lon="5.42149">
        <ele>163</ele>
        <time>2016-10-23T00:21:52Z</time>
      </trkpt>
      <trkpt lat="50.56725" lon="5.42147">
        <ele>163</ele>
        <time>2016-10-23T00:23:52Z</time>
      </trkpt>
      <trkpt lat="50.56738" lon="5.42145">
        <ele>164</ele>
        <time>2016-10-23T00:25:52Z</time>
      </trkpt>
      <trkpt lat="50.56757" lon="5.42148">
        <ele>164</ele>
        <time>2016-10-23T00:27:52Z</time>
      </trkpt>
      <trkpt lat="50.56784" lon="5.42156">
        <ele>162</ele>
        <time>2016-10-23T00:29:52Z</time>
      </trkpt>
      <trkpt lat="50.56802" lon="5.4216">
        <ele>161</ele>
        <time>2016-10-23T00:31:52Z</time>
      </trkpt>
      <trkpt lat="50.56824" lon="5.42161">
        <ele>160</ele>
        <time>2016-10-23T00:33:52Z</time>
      </trkpt>
      <trkpt lat="50.56834" lon="5.42161">
        <ele>159</ele>
        <time>2016-10-23T00:35:52Z</time>
      </trkpt>
      <trkpt lat="50.5685" lon="5.42159">
        <ele>159</ele>
        <time>2016-10-23T00:37:52Z</time>
      </trkpt>
      <trkpt lat="50.56882" lon="5.42154">
        <ele>159</ele>
        <time>2016-10-23T00:39:52Z</time>
      </trkpt>
      <trkpt lat="50.56894" lon="5.42149">
        <ele>159</ele>
        <time>2016-10-23T00:41:52Z</time>
      </trkpt>
      <trkpt lat="50.56912" lon="5.42143">
        <ele>159</ele>
        <time>2016-10-23T00:43:52Z</time>
      </trkpt>
      <trkpt lat="50.56937" lon="5.42134">
        <ele>159</ele>
        <time>2016-10-23T00:45:52Z</time>
      </trkpt>
      <trkpt lat="50.56973" lon="5.42129">
        <ele>160</ele>
        <time>2016-10-23T00:47:52Z</time>
      </trkpt>
      <trkpt lat="50.56993" lon="5.42125">
        <ele>160</ele>
        <time>2016-10-23T00:49:52Z</time>
      </trkpt>
      <trkpt lat="50.57006" lon="5.42121">
        <ele>160</ele>
        <time>2016-10-23T00:51:52Z</time>
      </trkpt>
      <trkpt lat="50.57014" lon="5.42116">
        <ele>161</ele>
        <time>2016-10-23T00:53:52Z</time>
      </trkpt>
      <trkpt lat="50.57026" lon="5.42105">
        <ele>161</ele>
        <time>2016-10-23T00:55:52Z</time>
      </trkpt>
      <trkpt lat="50.57036" lon="5.42093">
        <ele>160</ele>
        <time>2016-10-23T00:57:52Z</time>
      </trkpt>
      <trkpt lat="50.57042" lon="5.42084">
        <ele>160</ele>
        <time>2016-10-23T00:59:52Z</time>
      </trkpt>
      <trkpt lat="50.57045" lon="5.4208">
        <ele>159</ele>
        <time>2016-10-23T01:01:52Z</time>
      </trkpt>
      <trkpt lat="50.5706" lon="5.42053">
        <ele>157</ele>
        <time>2016-10-23T01:03:52Z</time>
      </trkpt>
      <trkpt lat="50.57065" lon="5.42041">
        <ele>155</ele>
        <time>2016-10-23T01:05:52Z</time>
      </trkpt>
      <trkpt lat="50.57068" lon="5.42033">
        <ele>154</ele>
        <time>2016-10-23T01:07:52Z</time>
      </trkpt>
      <trkpt lat="50.5708" lon="5.41998">
        <ele>150</ele>
        <time>2016-10-23T01:09:52Z</time>
      </trkpt>
      <trkpt lat="50.57096" lon="5.41957">
        <ele>148</ele>
        <time>2016-10-23T01:11:52Z</time>
      </trkpt>
      <trkpt lat="50.57112" lon="5.41928">
        <ele>146</ele>
        <time>2016-10-23T01:13:52Z</time>
      </trkpt>
      <trkpt lat="50.57126" lon="5.41908">
        <ele>144</ele>
        <time>2016-10-23T01:15:52Z</time>
      </trkpt>
      <trkpt lat="50.57136" lon="5.41902">
        <ele>142</ele>
        <time>2016-10-23T01:17:52Z</time>
      </trkpt>
      <trkpt lat="50.5715" lon="5.41895">
        <ele>141</ele>
        <time>2016-10-23T01:19:52Z</time>
      </trkpt>
      <trkpt lat="50.57192" lon="5.4189">
        <ele>139</ele>
        <time>2016-10-23T01:21:52Z</time>
      </trkpt>
      <trkpt lat="50.57211" lon="5.41886">
        <ele>139</ele>
        <time>2016-10-23T01:23:52Z</time>
      </trkpt>
      <trkpt lat="50.5723" lon="5.41876">
        <ele>137</ele>
        <time>2016-10-23T01:25:52Z</time>
      </trkpt>
      <trkpt lat="50.57273" lon="5.41838">
        <ele>138</ele>
        <time>2016-10-23T01:27:52Z</time>
      </trkpt>
      <trkpt lat="50.57287" lon="5.41822">
        <ele>140</ele>
        <time>2016-10-23T01:29:52Z</time>
      </trkpt>
      <trkpt lat="50.57295" lon="5.41806">
        <ele>141</ele>
        <time>2016-10-23T01:31:52Z</time>
      </trkpt>
      <trkpt lat="50.57299" lon="5.41793">
        <ele>141</ele>
        <time>2016-10-23T01:33:52Z</time>
      </trkpt>
      <trkpt lat="50.57303" lon="5.41776">
        <ele>140</ele>
        <time>2016-10-23T01:35:52Z</time>
      </trkpt>
      <trkpt lat="50.57306" lon="5.4176">
        <ele>139</ele>
        <time>2016-10-23T01:37:52Z</time>
      </trkpt>
      <trkpt lat="50.5731" lon="5.41726">
        <ele>136</ele>
        <time>2016-10-23T01:39:52Z</time>
      </trkpt>
      <trkpt lat="50.57315" lon="5.41693">
        <ele>133</ele>
        <time>2016-10-23T01:41:52Z</time>
      </trkpt>
      <trkpt lat="50.5732" lon="5.41675">
        <ele>131</ele>
        <time>2016-10-23T01:43:52Z</time>
      </trkpt>
      <trkpt lat="50.57325" lon="5.4166">
        <ele>131</ele>
        <time>2016-10-23T01:45:52Z</time>
      </trkpt>
      <trkpt lat="50.57332" lon="5.41645">
        <ele>132</ele>
        <time>2016-10-23T01:47:52Z</time>
      </trkpt>
      <trkpt lat="50.57346" lon="5.41626">
        <ele>132</ele>
        <time>2016-10-23T01:49:52Z</time>
      </trkpt>
      <trkpt lat="50.57369" lon="5.41607">
        <ele>132</ele>
        <time>2016-10-23T01:51:52Z</time>
      </trkpt>
      <trkpt lat="50.57409" lon="5.41577">
        <ele>128</ele>
        <time>2016-10-23T01:53:52Z</time>
      </trkpt>
      <trkpt lat="50.57436" lon="5.41553">
        <ele>120</ele>
        <time>2016-10-23T01:55:52Z</time>
      </trkpt>
      <trkpt lat="50.57445" lon="5.41543">
        <ele>117</ele>
        <time>2016-10-23T01:57:52Z</time>
      </trkpt>
      <trkpt lat="50.5745" lon="5.41535">
        <ele>115</ele>
        <time>2016-10-23T01:59:52Z</time>
      </trkpt>
      <trkpt lat="50.57494" lon="5.41476">
        <ele>107</ele>
        <time>2016-10-23T02:01:52Z</time>
      </trkpt>
      <trkpt lat="50.57512" lon="5.41446">
        <ele>103</ele>
        <time>2016-10-23T02:03:52Z</time>
      </trkpt>
      <trkpt lat="50.57518" lon="5.41435">
        <ele>102</ele>
        <time>2016-10-23T02:05:52Z</time>
      </trkpt>
      <trkpt lat="50.57534" lon="5.41396">
        <ele>100</ele>
        <time>2016-10-23T02:07:52Z</time>
      </trkpt>
      <trkpt lat="50.57539" lon="5.41385">
        <ele>100</ele>
        <time>2016-10-23T02:09:52Z</time>
      </trkpt>
      <trkpt lat="50.57546" lon="5.41365">
        <ele>99</ele>
        <time>2016-10-23T02:11:52Z</time>
      </trkpt>
      <trkpt lat="50.57562" lon="5.41322">
        <ele>99</ele>
        <time>2016-10-23T02:13:52Z</time>
      </trkpt>
      <trkpt lat="50.57584" lon="5.41246">
        <ele>97</ele>
        <time>2016-10-23T02:15:52Z</time>
      </trkpt>
      <trkpt lat="50.57609" lon="5.41165">
        <ele>98</ele>
        <time>2016-10-23T02:17:52Z</time>
      </trkpt>
      <trkpt lat="50.57642" lon="5.41079">
        <ele>99</ele>
        <time>2016-10-23T02:19:52Z</time>
      </trkpt>
      <trkpt lat="50.5765" lon="5.41066">
        <ele>98</ele>
        <time>2016-10-23T02:21:52Z</time>
      </trkpt>
      <trkpt lat="50.5766" lon="5.41061">
        <ele>97</ele>
        <time>2016-10-23T02:23:52Z</time>
      </trkpt>
      <trkpt lat="50.57669" lon="5.41059">
        <ele>96</ele>
        <time>2016-10-23T02:25:52Z</time>
      </trkpt>
      <trkpt lat="50.57678" lon="5.41058">
        <ele>95</ele>
        <time>2016-10-23T02:27:52Z</time>
      </trkpt>
      <trkpt lat="50.57692" lon="5.41057">
        <ele>95</ele>
        <time>2016-10-23T02:29:52Z</time>
      </trkpt>
      <trkpt lat="50.57729" lon="5.41059">
        <ele>93</ele>
        <time>2016-10-23T02:31:52Z</time>
      </trkpt>
      <trkpt lat="50.57742" lon="5.41056">
        <ele>92</ele>
        <time>2016-10-23T02:33:52Z</time>
      </trkpt>
      <trkpt lat="50.57754" lon="5.41046">
        <ele>91</ele>
        <time>2016-10-23T02:35:52Z</time>
      </trkpt>
      <trkpt lat="50.57771" lon="5.41026">
        <ele>87</ele>
        <time>2016-10-23T02:37:52Z</time>
      </trkpt>
      <trkpt lat="50.57786" lon="5.40997">
        <ele>83</ele>
        <time>2016-10-23T02:39:52Z</time>
      </trkpt>
      <trkpt lat="50.57802" lon="5.40974">
        <ele>79</ele>
        <time>2016-10-23T02:41:52Z</time>
      </trkpt>
      <trkpt lat="50.57814" lon="5.40949">
        <ele>76</ele>
        <time>2016-10-23T02:43:52Z</time>
      </trkpt>
      <trkpt lat="50.57816" lon="5.40947">
        <ele>75</ele>
        <time>2016-10-23T02:45:52Z</time>
      </trkpt>
      <trkpt lat="50.57825" lon="5.40935">
        <ele>73</ele>
        <time>2016-10-23T02:47:52Z</time>
      </trkpt>
      <trkpt lat="50.57835" lon="5.40924">
        <ele>71</ele>
        <time>2016-10-23T02:49:52Z</time>
      </trkpt>
      <trkpt lat="50.57839" lon="5.40925">
        <ele>71</ele>
        <time>2016-10-23T02:51:52Z</time>
      </trkpt>
      <trkpt lat="50.57846" lon="5.40925">
        <ele>71</ele>
        <time>2016-10-23T02:53:52Z</time>
      </trkpt>
      <trkpt lat="50.57848" lon="5.40923">
        <ele>71</ele>
        <time>2016-10-23T02:55:52Z</time>
      </trkpt>
      <trkpt lat="50.5785" lon="5.40922">
        <ele>71</ele>
        <time>2016-10-23T02:57:52Z</time>
      </trkpt>
      <trkpt lat="50.57852" lon="5.40919">
        <ele>71</ele>
        <time>2016-10-23T02:59:52Z</time>
      </trkpt>
      <trkpt lat="50.57854" lon="5.40915">
        <ele>71</ele>
        <time>2016-10-23T03:01:52Z</time>
      </trkpt>
      <trkpt lat="50.57856" lon="5.40904">
        <ele>71</ele>
        <time>2016-10-23T03:03:52Z</time>
      </trkpt>
      <trkpt lat="50.57856" lon="5.40901">
        <ele>71</ele>
        <time>2016-10-23T03:05:52Z</time>
      </trkpt>
      <trkpt lat="50.57855" lon="5.40896">
        <ele>71</ele>
        <time>2016-10-23T03:07:52Z</time>
      </trkpt>
      <trkpt lat="50.57864" lon="5.40873">
        <ele>71</ele>
        <time>2016-10-23T03:09:52Z</time>
      </trkpt>
      <trkpt lat="50.57864" lon="5.40871">
        <ele>71</ele>
        <time>2016-10-23T03:11:52Z</time>
      </trkpt>
      <trkpt lat="50.57868" lon="5.40861">
        <ele>71</ele>
        <time>2016-10-23T03:13:52Z</time>
      </trkpt>
      <trkpt lat="50.57875" lon="5.40851">
        <ele>71</ele>
        <time>2016-10-23T03:15:52Z</time>
      </trkpt>
      <trkpt lat="50.57929" lon="5.40757">
        <ele>72</ele>
        <time>2016-10-23T03:17:52Z</time>
      </trkpt>
      <trkpt lat="50.57974" lon="5.40681">
        <ele>72</ele>
        <time>2016-10-23T03:19:52Z</time>
      </trkpt>
      <trkpt lat="50.57993" lon="5.40652">
        <ele>71</ele>
        <time>2016-10-23T03:21:52Z</time>
      </trkpt>
      <trkpt lat="50.5811" lon="5.40506">
        <ele>66</ele>
        <time>2016-10-23T03:23:52Z</time>
      </trkpt>
      <trkpt lat="50.58119" lon="5.40496">
        <ele>66</ele>
        <time>2016-10-23T03:25:52Z</time>
      </trkpt>
      <trkpt lat="50.58134" lon="5.40481">
        <ele>67</ele>
        <time>2016-10-23T03:27:52Z</time>
      </trkpt>
      <trkpt lat="50.5815" lon="5.40463">
        <ele>67</ele>
        <time>2016-10-23T03:29:52Z</time>
      </trkpt>
      <trkpt lat="50.58159" lon="5.40454">
        <ele>67</ele>
        <time>2016-10-23T03:31:52Z</time>
      </trkpt>
      <trkpt lat="50.58181" lon="5.40435">
        <ele>68</ele>
        <time>2016-10-23T03:33:52Z</time>
      </trkpt>
      <trkpt lat="50.58185" lon="5.40433">
        <ele>68</ele>
        <time>2016-10-23T03:35:52Z</time>
      </trkpt>
      <trkpt lat="50.58191" lon="5.40433">
        <ele>69</ele>
        <time>2016-10-23T03:37:52Z</time>
      </trkpt>
      <trkpt lat="50.58198" lon="5.40439">
        <ele>69</ele>
        <time>2016-10-23T03:39:52Z</time>
      </trkpt>
      <trkpt lat="50.58211" lon="5.40466">
        <ele>68</ele>
        <time>2016-10-23T03:41:52Z</time>
      </trkpt>
      <trkpt lat="50.58213" lon="5.40473">
        <ele>68</ele>
        <time>2016-10-23T03:43:52Z</time>
      </trkpt>
      <trkpt lat="50.58216" lon="5.40482">
        <ele>68</ele>
        <time>2016-10-23T03:45:52Z</time>
      </trkpt>
      <trkpt lat="50.58215" lon="5.40496">
        <ele>68</ele>
        <time>2016-10-23T03:47:52Z</time>
      </trkpt>
      <trkpt lat="50.58215" lon="5.40506">
        <ele>68</ele>
        <time>2016-10-23T03:49:52Z</time>
      </trkpt>
      <trkpt lat="50.58213" lon="5.40519">
        <ele>68</ele>
        <time>2016-10-23T03:51:52Z</time>
      </trkpt>
      <trkpt lat="50.58206" lon="5.40545">
        <ele>67</ele>
        <time>2016-10-23T03:53:52Z</time>
      </trkpt>
      <trkpt lat="50.58199" lon="5.40562">
        <ele>67</ele>
        <time>2016-10-23T03:55:52Z</time>
      </trkpt>
      <trkpt lat="50.58193" lon="5.4057">
        <ele>67</ele>
        <time>2016-10-23T03:57:52Z</time>
      </trkpt>
      <trkpt lat="50.58186" lon="5.40574">
        <ele>67</ele>
        <time>2016-10-23T03:59:52Z</time>
      </trkpt>
      <trkpt lat="50.58173" lon="5.40577">
        <ele>67</ele>
        <time>2016-10-23T04:01:52Z</time>
      </trkpt>
      <trkpt lat="50.58178" lon="5.40592">
        <ele>67</ele>
        <time>2016-10-23T04:03:52Z</time>
      </trkpt>
      <trkpt lat="50.5819" lon="5.40626">
        <ele>67</ele>
        <time>2016-10-23T04:05:52Z</time>
      </trkpt>
      <trkpt lat="50.5822" lon="5.40707">
        <ele>67</ele>
        <time>2016-10-23T04:07:52Z</time>
      </trkpt>
      <trkpt lat="50.58254" lon="5.40801">
        <ele>67</ele>
        <time>2016-10-23T04:09:52Z</time>
      </trkpt>
      <trkpt lat="50.58261" lon="5.40822">
        <ele>67</ele>
        <time>2016-10-23T04:11:52Z</time>
      </trkpt>
      <trkpt lat="50.58273" lon="5.40855">
        <ele>68</ele>
        <time>2016-10-23T04:13:52Z</time>
      </trkpt>
      <trkpt lat="50.5831" lon="5.40948">
        <ele>68</ele>
        <time>2016-10-23T04:15:52Z</time>
      </trkpt>
      <trkpt lat="50.58348" lon="5.41036">
        <ele>69</ele>
        <time>2016-10-23T04:17:52Z</time>
      </trkpt>
      <trkpt lat="50.58371" lon="5.41085">
        <ele>70</ele>
        <time>2016-10-23T04:19:52Z</time>
      </trkpt>
      <trkpt lat="50.58418" lon="5.41181">
        <ele>70</ele>
        <time>2016-10-23T04:21:52Z</time>
      </trkpt>
      <trkpt lat="50.58443" lon="5.41226">
        <ele>70</ele>
        <time>2016-10-23T04:23:52Z</time>
      </trkpt>
      <trkpt lat="50.58447" lon="5.41234">
        <ele>70</ele>
        <time>2016-10-23T04:25:52Z</time>
      </trkpt>
      <trkpt lat="50.58546" lon="5.41401">
        <ele>68</ele>
        <time>2016-10-23T04:27:52Z</time>
      </trkpt>
      <trkpt lat="50.58559" lon="5.41422">
        <ele>68</ele>
        <time>2016-10-23T04:29:52Z</time>
      </trkpt>
      <trkpt lat="50.58574" lon="5.41445">
        <ele>68</ele>
        <time>2016-10-23T04:31:52Z</time>
      </trkpt>
      <trkpt lat="50.586" lon="5.41491">
        <ele>68</ele>
        <time>2016-10-23T04:33:52Z</time>
      </trkpt>
      <trkpt lat="50.58605" lon="5.41506">
        <ele>68</ele>
        <time>2016-10-23T04:35:52Z</time>
      </trkpt>
      <trkpt lat="50.58609" lon="5.4152">
        <ele>68</ele>
        <time>2016-10-23T04:37:52Z</time>
      </trkpt>
      <trkpt lat="50.58612" lon="5.41539">
        <ele>68</ele>
        <time>2016-10-23T04:39:52Z</time>
      </trkpt>
      <trkpt lat="50.58612" lon="5.41575">
        <ele>67</ele>
        <time>2016-10-23T04:41:52Z</time>
      </trkpt>
      <trkpt lat="50.58625" lon="5.41572">
        <ele>67</ele>
        <time>2016-10-23T04:43:52Z</time>
      </trkpt>
      <trkpt lat="50.58631" lon="5.41571">
        <ele>68</ele>
        <time>2016-10-23T04:45:52Z</time>
      </trkpt>
      <trkpt lat="50.58641" lon="5.41568">
        <ele>68</ele>
        <time>2016-10-23T04:47:52Z</time>
      </trkpt>
      <trkpt lat="50.58651" lon="5.41564">
        <ele>68</ele>
        <time>2016-10-23T04:49:52Z</time>
      </trkpt>
      <trkpt lat="50.58653" lon="5.41564">
        <ele>68</ele>
        <time>2016-10-23T04:51:52Z</time>
      </trkpt>
      <trkpt lat="50.58658" lon="5.41561">
        <ele>68</ele>
        <time>2016-10-23T04:53:52Z</time>
      </trkpt>
      <trkpt lat="50.5868" lon="5.41552">
        <ele>69</ele>
        <time>2016-10-23T04:55:52Z</time>
      </trkpt>
      <trkpt lat="50.58699" lon="5.4154">
        <ele>70</ele>
        <time>2016-10-23T04:57:52Z</time>
      </trkpt>
      <trkpt lat="50.58709" lon="5.41535">
        <ele>71</ele>
        <time>2016-10-23T04:59:52Z</time>
      </trkpt>
      <trkpt lat="50.58717" lon="5.4153">
        <ele>71</ele>
        <time>2016-10-23T05:01:52Z</time>
      </trkpt>
      <trkpt lat="50.58727" lon="5.4152">
        <ele>71</ele>
        <time>2016-10-23T05:03:52Z</time>
      </trkpt>
      <trkpt lat="50.5876" lon="5.41471">
        <ele>72</ele>
        <time>2016-10-23T05:05:52Z</time>
      </trkpt>
      <trkpt lat="50.58796" lon="5.41427">
        <ele>74</ele>
        <time>2016-10-23T05:07:52Z</time>
      </trkpt>
      <trkpt lat="50.58825" lon="5.41391">
        <ele>73</ele>
        <time>2016-10-23T05:09:52Z</time>
      </trkpt>
      <trkpt lat="50.5885" lon="5.41368">
        <ele>73</ele>
        <time>2016-10-23T05:11:52Z</time>
      </trkpt>
      <trkpt lat="50.58865" lon="5.41357">
        <ele>73</ele>
        <time>2016-10-23T05:13:52Z</time>
      </trkpt>
      <trkpt lat="50.58876" lon="5.41346">
        <ele>73</ele>
        <time>2016-10-23T05:15:52Z</time>
      </trkpt>
      <trkpt lat="50.58881" lon="5.41339">
        <ele>72</ele>
        <time>2016-10-23T05:17:52Z</time>
      </trkpt>
      <trkpt lat="50.58889" lon="5.41329">
        <ele>72</ele>
        <time>2016-10-23T05:19:52Z</time>
      </trkpt>
      <trkpt lat="50.58896" lon="5.41314">
        <ele>72</ele>
        <time>2016-10-23T05:21:52Z</time>
      </trkpt>
      <trkpt lat="50.58905" lon="5.41289">
        <ele>73</ele>
        <time>2016-10-23T05:23:52Z</time>
      </trkpt>
      <trkpt lat="50.58912" lon="5.41271">
        <ele>73</ele>
        <time>2016-10-23T05:25:52Z</time>
      </trkpt>
      <trkpt lat="50.58963" lon="5.41136">
        <ele>79</ele>
        <time>2016-10-23T05:27:52Z</time>
      </trkpt>
      <trkpt lat="50.58971" lon="5.41119">
        <ele>80</ele>
        <time>2016-10-23T05:29:52Z</time>
      </trkpt>
      <trkpt lat="50.58988" lon="5.41095">
        <ele>81</ele>
        <time>2016-10-23T05:31:52Z</time>
      </trkpt>
      <trkpt lat="50.58999" lon="5.41086">
        <ele>81</ele>
        <time>2016-10-23T05:33:52Z</time>
      </trkpt>
      <trkpt lat="50.59009" lon="5.41081">
        <ele>82</ele>
        <time>2016-10-23T05:35:52Z</time>
      </trkpt>
      <trkpt lat="50.59021" lon="5.41079">
        <ele>82</ele>
        <time>2016-10-23T05:37:52Z</time>
      </trkpt>
      <trkpt lat="50.59031" lon="5.4108">
        <ele>83</ele>
        <time>2016-10-23T05:39:52Z</time>
      </trkpt>
      <trkpt lat="50.5904" lon="5.41083">
        <ele>83</ele>
        <time>2016-10-23T05:41:52Z</time>
      </trkpt>
      <trkpt lat="50.59188" lon="5.41143">
        <ele>88</ele>
        <time>2016-10-23T05:43:52Z</time>
      </trkpt>
      <trkpt lat="50.59194" lon="5.41145">
        <ele>88</ele>
        <time>2016-10-23T05:45:52Z</time>
      </trkpt>
      <trkpt lat="50.59212" lon="5.41148">
        <ele>89</ele>
        <time>2016-10-23T05:47:52Z</time>
      </trkpt>
      <trkpt lat="50.59227" lon="5.41146">
        <ele>91</ele>
        <time>2016-10-23T05:49:52Z</time>
      </trkpt>
      <trkpt lat="50.593" lon="5.41118">
        <ele>93</ele>
        <time>2016-10-23T05:51:52Z</time>
      </trkpt>
      <trkpt lat="50.59323" lon="5.41112">
        <ele>93</ele>
        <time>2016-10-23T05:53:52Z</time>
      </trkpt>
      <trkpt lat="50.59406" lon="5.41092">
        <ele>90</ele>
        <time>2016-10-23T05:55:52Z</time>
      </trkpt>
      <trkpt lat="50.59455" lon="5.41083">
        <ele>89</ele>
        <time>2016-10-23T05:57:52Z</time>
      </trkpt>
      <trkpt lat="50.59492" lon="5.41077">
        <ele>88</ele>
        <time>2016-10-23T05:59:52Z</time>
      </trkpt>
      <trkpt lat="50.59514" lon="5.41078">
        <ele>88</ele>
        <time>2016-10-23T06:01:52Z</time>
      </trkpt>
      <trkpt lat="50.59536" lon="5.4108">
        <ele>88</ele>
        <time>2016-10-23T06:03:52Z</time>
      </trkpt>
      <trkpt lat="50.5959" lon="5.41093">
        <ele>88</ele>
        <time>2016-10-23T06:05:52Z</time>
      </trkpt>
      <trkpt lat="50.59598" lon="5.41096">
        <ele>88</ele>
        <time>2016-10-23T06:07:52Z</time>
      </trkpt>
      <trkpt lat="50.59658" lon="5.4111">
        <ele>87</ele>
        <time>2016-10-23T06:09:52Z</time>
      </trkpt>
      <trkpt lat="50.59779" lon="5.41108">
        <ele>90</ele>
        <time>2016-10-23T06:11:52Z</time>
      </trkpt>
      <trkpt lat="50.59791" lon="5.41102">
        <ele>90</ele>
        <time>2016-10-23T06:13:52Z</time>
      </trkpt>
      <trkpt lat="50.59817" lon="5.41083">
        <ele>90</ele>
        <time>2016-10-23T06:15:52Z</time>
      </trkpt>
      <trkpt lat="50.59848" lon="5.41048">
        <ele>90</ele>
        <time>2016-10-23T06:17:52Z</time>
      </trkpt>
      <trkpt lat="50.59869" lon="5.4101">
        <ele>89</ele>
        <time>2016-10-23T06:19:52Z</time>
      </trkpt>
      <trkpt lat="50.59881" lon="5.40963">
        <ele>89</ele>
        <time>2016-10-23T06:21:52Z</time>
      </trkpt>
      <trkpt lat="50.59938" lon="5.40773">
        <ele>89</ele>
        <time>2016-10-23T06:23:52Z</time>
      </trkpt>
      <trkpt lat="50.59975" lon="5.40657">
        <ele>89</ele>
        <time>2016-10-23T06:25:52Z</time>
      </trkpt>
      <trkpt lat="50.59983" lon="5.40629">
        <ele>90</ele>
        <time>2016-10-23T06:27:52Z</time>
      </trkpt>
      <trkpt lat="50.59986" lon="5.40622">
        <ele>90</ele>
        <time>2016-10-23T06:29:52Z</time>
      </trkpt>
      <trkpt lat="50.5999" lon="5.40608">
        <ele>90</ele>
        <time>2016-10-23T06:31:52Z</time>
      </trkpt>
      <trkpt lat="50.59992" lon="5.40602">
        <ele>90</ele>
        <time>2016-10-23T06:33:52Z</time>
      </trkpt>
      <trkpt lat="50.59994" lon="5.40594">
        <ele>90</ele>
        <time>2016-10-23T06:35:52Z</time>
      </trkpt>
      <trkpt lat="50.60002" lon="5.40566">
        <ele>90</ele>
        <time>2016-10-23T06:37:52Z</time>
      </trkpt>
      <trkpt lat="50.60005" lon="5.40557">
        <ele>90</ele>
        <time>2016-10-23T06:39:52Z</time>
      </trkpt>
      <trkpt lat="50.60011" lon="5.40547">
        <ele>91</ele>
        <time>2016-10-23T06:41:52Z</time>
      </trkpt>
      <trkpt lat="50.60017" lon="5.40538">
        <ele>91</ele>
        <time>2016-10-23T06:43:52Z</time>
      </trkpt>
      <trkpt lat="50.60031" lon="5.40525">
        <ele>91</ele>
        <time>2016-10-23T06:45:52Z</time>
      </trkpt>
      <trkpt lat="50.6021" lon="5.40427">
        <ele>97</ele>
        <time>2016-10-23T06:47:52Z</time>
      </trkpt>
      <trkpt lat="50.60254" lon="5.40405">
        <ele>99</ele>
        <time>2016-10-23T06:49:52Z</time>
      </trkpt>
      <trkpt lat="50.60341" lon="5.40363">
        <ele>99</ele>
        <time>2016-10-23T06:51:52Z</time>
      </trkpt>
      <trkpt lat="50.6046" lon="5.40288">
        <ele>97</ele>
        <time>2016-10-23T06:53:52Z</time>
      </trkpt>
      <trkpt lat="50.60475" lon="5.40276">
        <ele>97</ele>
        <time>2016-10-23T06:55:52Z</time>
      </trkpt>
      <trkpt lat="50.60475" lon="5.40275">
        <ele>97</ele>
        <time>2016-10-23T06:57:52Z</time>
      </trkpt>
      <trkpt lat="50.60492" lon="5.40257">
        <ele>98</ele>
        <time>2016-10-23T06:59:52Z</time>
      </trkpt>
      <trkpt lat="50.60579" lon="5.40158">
        <ele>99</ele>
        <time>2016-10-23T07:01:52Z</time>
      </trkpt>
      <trkpt lat="50.60624" lon="5.40101">
        <ele>100</ele>
        <time>2016-10-23T07:03:52Z</time>
      </trkpt>
      <trkpt lat="50.6064" lon="5.40074">
        <ele>100</ele>
        <time>2016-10-23T07:05:52Z</time>
      </trkpt>
      <trkpt lat="50.60652" lon="5.40045">
        <ele>100</ele>
        <time>2016-10-23T07:07:52Z</time>
      </trkpt>
      <trkpt lat="50.6066" lon="5.40025">
        <ele>99</ele>
        <time>2016-10-23T07:09:52Z</time>
      </trkpt>
      <trkpt lat="50.60689" lon="5.39943">
        <ele>102</ele>
        <time>2016-10-23T07:11:52Z</time>
      </trkpt>
      <trkpt lat="50.60697" lon="5.39917">
        <ele>103</ele>
        <time>2016-10-23T07:13:52Z</time>
      </trkpt>
      <trkpt lat="50.60722" lon="5.39851">
        <ele>104</ele>
        <time>2016-10-23T07:15:52Z</time>
      </trkpt>
      <trkpt lat="50.60731" lon="5.39825">
        <ele>104</ele>
        <time>2016-10-23T07:17:52Z</time>
      </trkpt>
      <trkpt lat="50.60738" lon="5.39806">
        <ele>105</ele>
        <time>2016-10-23T07:19:52Z</time>
      </trkpt>
      <trkpt lat="50.60771" lon="5.39709">
        <ele>109</ele>
        <time>2016-10-23T07:21:52Z</time>
      </trkpt>
      <trkpt lat="50.60839" lon="5.39487">
        <ele>111</ele>
        <time>2016-10-23T07:23:52Z</time>
      </trkpt>
      <trkpt lat="50.60858" lon="5.3942">
        <ele>114</ele>
        <time>2016-10-23T07:25:52Z</time>
      </trkpt>
      <trkpt lat="50.60864" lon="5.39406">
        <ele>115</ele>
        <time>2016-10-23T07:27:52Z</time>
      </trkpt>
      <trkpt lat="50.60875" lon="5.39383">
        <ele>114</ele>
        <time>2016-10-23T07:29:52Z</time>
      </trkpt>
      <trkpt lat="50.60893" lon="5.39353">
        <ele>112</ele>
        <time>2016-10-23T07:31:52Z</time>
      </trkpt>
      <trkpt lat="50.60933" lon="5.39298">
        <ele>112</ele>
        <time>2016-10-23T07:33:52Z</time>
      </trkpt>
      <trkpt lat="50.60953" lon="5.39272">
        <ele>113</ele>
        <time>2016-10-23T07:35:52Z</time>
      </trkpt>
      <trkpt lat="50.60979" lon="5.39245">
        <ele>114</ele>
        <time>2016-10-23T07:37:52Z</time>
      </trkpt>
      <trkpt lat="50.61001" lon="5.39231">
        <ele>113</ele>
        <time>2016-10-23T07:39:52Z</time>
      </trkpt>
      <trkpt lat="50.61014" lon="5.39225">
        <ele>113</ele>
        <time>2016-10-23T07:41:52Z</time>
      </trkpt>
      <trkpt lat="50.61046" lon="5.39216">
        <ele>114</ele>
        <time>2016-10-23T07:43:52Z</time>
      </trkpt>
      <trkpt lat="50.61165" lon="5.39199">
        <ele>114</ele>
        <time>2016-10-23T07:45:52Z</time>
      </trkpt>
      <trkpt lat="50.61183" lon="5.39193">
        <ele>113</ele>
        <time>2016-10-23T07:47:52Z</time>
      </trkpt>
      <trkpt lat="50.61206" lon="5.39183">
        <ele>112</ele>
        <time>2016-10-23T07:49:52Z</time>
      </trkpt>
      <trkpt lat="50.61234" lon="5.39164">
        <ele>110</ele>
        <time>2016-10-23T07:51:52Z</time>
      </trkpt>
      <trkpt lat="50.6125" lon="5.39147">
        <ele>110</ele>
        <time>2016-10-23T07:53:52Z</time>
      </trkpt>
      <trkpt lat="50.6137" lon="5.38999">
        <ele>116</ele>
        <time>2016-10-23T07:55:52Z</time>
      </trkpt>
      <trkpt lat="50.61392" lon="5.38973">
        <ele>118</ele>
        <time>2016-10-23T07:57:52Z</time>
      </trkpt>
      <trkpt lat="50.61407" lon="5.38958">
        <ele>119</ele>
        <time>2016-10-23T07:59:52Z</time>
      </trkpt>
      <trkpt lat="50.61422" lon="5.38946">
        <ele>120</ele>
        <time>2016-10-23T08:01:52Z</time>
      </trkpt>
      <trkpt lat="50.61445" lon="5.38932">
        <ele>121</ele>
        <time>2016-10-23T08:03:52Z</time>
      </trkpt>
      <trkpt lat="50.61455" lon="5.38928">
        <ele>122</ele>
        <time>2016-10-23T08:05:52Z</time>
      </trkpt>
      <trkpt lat="50.61464" lon="5.38925">
        <ele>122</ele>
        <time>2016-10-23T08:07:52Z</time>
      </trkpt>
      <trkpt lat="50.61475" lon="5.38925">
        <ele>123</ele>
        <time>2016-10-23T08:09:52Z</time>
      </trkpt>
      <trkpt lat="50.61512" lon="5.38935">
        <ele>126</ele>
        <time>2016-10-23T08:11:52Z</time>
      </trkpt>
      <trkpt lat="50.61518" lon="5.38941">
        <ele>126</ele>
        <time>2016-10-23T08:13:52Z</time>
      </trkpt>
      <trkpt lat="50.61526" lon="5.38947">
        <ele>125</ele>
        <time>2016-10-23T08:15:52Z</time>
      </trkpt>
      <trkpt lat="50.61566" lon="5.38989">
        <ele>125</ele>
        <time>2016-10-23T08:17:52Z</time>
      </trkpt>
      <trkpt lat="50.61571" lon="5.38993">
        <ele>125</ele>
        <time>2016-10-23T08:19:52Z</time>
      </trkpt>
      <trkpt lat="50.61621" lon="5.39021">
        <ele>124</ele>
        <time>2016-10-23T08:21:52Z</time>
      </trkpt>
      <trkpt lat="50.61667" lon="5.39056">
        <ele>128</ele>
        <time>2016-10-23T08:23:52Z</time>
      </trkpt>
      <trkpt lat="50.6169" lon="5.39075">
        <ele>129</ele>
        <time>2016-10-23T08:25:52Z</time>
      </trkpt>
      <trkpt lat="50.61704" lon="5.39087">
        <ele>129</ele>
        <time>2016-10-23T08:27:52Z</time>
      </trkpt>
      <trkpt lat="50.6172" lon="5.39105">
        <ele>130</ele>
        <time>2016-10-23T08:29:52Z</time>
      </trkpt>
      <trkpt lat="50.61747" lon="5.39143">
        <ele>129</ele>
        <time>2016-10-23T08:31:52Z</time>
      </trkpt>
      <trkpt lat="50.61794" lon="5.39213">
        <ele>132</ele>
        <time>2016-10-23T08:33:52Z</time>
      </trkpt>
      <trkpt lat="50.61876" lon="5.39337">
        <ele>135</ele>
        <time>2016-10-23T08:35:52Z</time>
      </trkpt>
      <trkpt lat="50.61894" lon="5.39363">
        <ele>135</ele>
        <time>2016-10-23T08:37:52Z</time>
      </trkpt>
      <trkpt lat="50.61902" lon="5.39373">
        <ele>135</ele>
        <time>2016-10-23T08:39:52Z</time>
      </trkpt>
      <trkpt lat="50.61914" lon="5.39387">
        <ele>135</ele>
        <time>2016-10-23T08:41:52Z</time>
      </trkpt>
      <trkpt lat="50.61967" lon="5.39436">
        <ele>137</ele>
        <time>2016-10-23T08:43:52Z</time>
      </trkpt>
      <trkpt lat="50.62032" lon="5.39499">
        <ele>136</ele>
        <time>2016-10-23T08:45:52Z</time>
      </trkpt>
      <trkpt lat="50.62077" lon="5.39544">
        <ele>136</ele>
        <time>2016-10-23T08:47:52Z</time>
      </trkpt>
      <trkpt lat="50.62096" lon="5.39562">
        <ele>138</ele>
        <time>2016-10-23T08:49:52Z</time>
      </trkpt>
      <trkpt lat="50.62123" lon="5.39582">
        <ele>138</ele>
        <time>2016-10-23T08:51:52Z</time>
      </trkpt>
      <trkpt lat="50.6215" lon="5.39606">
        <ele>139</ele>
        <time>2016-10-23T08:53:52Z</time>
      </trkpt>
      <trkpt lat="50.62162" lon="5.39612">
        <ele>138</ele>
        <time>2016-10-23T08:55:52Z</time>
      </trkpt>
      <trkpt lat="50.62172" lon="5.39614">
        <ele>138</ele>
        <time>2016-10-23T08:57:52Z</time>
      </trkpt>
      <trkpt lat="50.62187" lon="5.39614">
        <ele>137</ele>
        <time>2016-10-23T08:59:52Z</time>
      </trkpt>
      <trkpt lat="50.62255" lon="5.39611">
        <ele>135</ele>
        <time>2016-10-23T09:01:52Z</time>
      </trkpt>
      <trkpt lat="50.62345" lon="5.3961">
        <ele>137</ele>
        <time>2016-10-23T09:03:52Z</time>
      </trkpt>
      <trkpt lat="50.62488" lon="5.39606">
        <ele>143</ele>
        <time>2016-10-23T09:05:52Z</time>
      </trkpt>
      <trkpt lat="50.62494" lon="5.3962">
        <ele>143.8</ele>
      </trkpt>
      <trkpt lat="50.62503" lon="5.39648">
        <ele>144.3</ele>
      </trkpt>
      <trkpt lat="50.62517" lon="5.39724">
        <ele>147.2</ele>
      </trkpt>
      <trkpt lat="50.62515" lon="5.39762">
        <ele>148.8</ele>
      </trkpt>
      <trkpt lat="50.62512" lon="5.3979">
        <ele>150.5</ele>
      </trkpt>
      <trkpt lat="50.62491" lon="5.3985">
        <ele>155.5</ele>
      </trkpt>
      <trkpt lat="50.6251" lon="5.40064">
        <ele>160</ele>
      </trkpt>
      <trkpt lat="50.62573" lon="5.4041">
        <ele>161.9</ele>
      </trkpt>
      <trkpt lat="50.62583" lon="5.40475">
        <ele>162</ele>
      </trkpt>
      <trkpt lat="50.62504" lon="5.40937">
        <ele>170.6</ele>
      </trkpt>
      <trkpt lat="50.62302" lon="5.41196">
        <ele>177.1</ele>
      </trkpt>
      <trkpt lat="50.62269" lon="5.41142">
        <ele>177.3</ele>
      </trkpt>
      <trkpt lat="50.62229" lon="5.41104">
        <ele>178</ele>
      </trkpt>
      <trkpt lat="50.62137" lon="5.41117">
        <ele>180.2</ele>
      </trkpt>
      <trkpt lat="50.62089" lon="5.41128">
        <ele>180.9</ele>
      </trkpt>
      <trkpt lat="50.62008" lon="5.41163">
        <ele>182</ele>
      </trkpt>
      <trkpt lat="50.61918" lon="5.41223">
        <ele>183</ele>
      </trkpt>
      <trkpt lat="50.61917" lon="5.41257">
        <ele>183</ele>
      </trkpt>
      <trkpt lat="50.6202" lon="5.41553">
        <ele>186</ele>
      </trkpt>
      <trkpt lat="50.61946" lon="5.41655">
        <ele>186.2</ele>
      </trkpt>
      <trkpt lat="50.61921" lon="5.41688">
        <ele>187</ele>
      </trkpt>
      <trkpt lat="50.61922" lon="5.41686">
        <ele>187</ele>
      </trkpt>
      <trkpt lat="50.61921" lon="5.41688">
        <ele>187</ele>
      </trkpt>
      <trkpt lat="50.61914" lon="5.41705">
        <ele>187</ele>
      </trkpt>
      <trkpt lat="50.61907" lon="5.41726">
        <ele>187.1</ele>
      </trkpt>
      <trkpt lat="50.61901" lon="5.41766">
        <ele>188</ele>
      </trkpt>
      <trkpt lat="50.61898" lon="5.41811">
        <ele>188</ele>
      </trkpt>
      <trkpt lat="50.6189" lon="5.41902">
        <ele>188</ele>
      </trkpt>
      <trkpt lat="50.61886" lon="5.41965">
        <ele>187.3</ele>
      </trkpt>
      <trkpt lat="50.61893" lon="5.4203">
        <ele>187.1</ele>
      </trkpt>
      <trkpt lat="50.61901" lon="5.42134">
        <ele>187.4</ele>
      </trkpt>
      <trkpt lat="50.61904" lon="5.42249">
        <ele>189.5</ele>
      </trkpt>
      <trkpt lat="50.619" lon="5.42279">
        <ele>190</ele>
      </trkpt>
      <trkpt lat="50.61883" lon="5.42318">
        <ele>190.6</ele>
      </trkpt>
      <trkpt lat="50.61827" lon="5.4245">
        <ele>193.2</ele>
      </trkpt>
      <trkpt lat="50.61814" lon="5.42487">
        <ele>192.9</ele>
      </trkpt>
      <trkpt lat="50.61811" lon="5.42506">
        <ele>192.4</ele>
      </trkpt>
      <trkpt lat="50.61807" lon="5.42542">
        <ele>191.6</ele>
      </trkpt>
      <trkpt lat="50.61807" lon="5.42567">
        <ele>190.8</ele>
      </trkpt>
      <trkpt lat="50.61812" lon="5.42596">
        <ele>190.3</ele>
      </trkpt>
      <trkpt lat="50.61818" lon="5.4263">
        <ele>188.8</ele>
      </trkpt>
      <trkpt lat="50.61817" lon="5.42669">
        <ele>187.1</ele>
      </trkpt>
      <trkpt lat="50.6181" lon="5.42716">
        <ele>185.8</ele>
      </trkpt>
      <trkpt lat="50.61801" lon="5.42753">
        <ele>185.5</ele>
      </trkpt>
      <trkpt lat="50.61793" lon="5.4278">
        <ele>185.4</ele>
      </trkpt>
      <trkpt lat="50.61772" lon="5.42834">
        <ele>188.8</ele>
      </trkpt>
      <trkpt lat="50.61767" lon="5.42855">
        <ele>189.6</ele>
      </trkpt>
      <trkpt lat="50.61766" lon="5.42873">
        <ele>189.7</ele>
      </trkpt>
      <trkpt lat="50.61769" lon="5.4288">
        <ele>190.1</ele>
      </trkpt>
      <trkpt lat="50.61772" lon="5.4289">
        <ele>190.3</ele>
      </trkpt>
      <trkpt lat="50.61789" lon="5.42912">
        <ele>191.4</ele>
      </trkpt>
      <trkpt lat="50.61813" lon="5.42936">
        <ele>192.2</ele>
      </trkpt>
      <trkpt lat="50.61834" lon="5.42957">
        <ele>192.6</ele>
      </trkpt>
      <trkpt lat="50.61956" lon="5.43128">
        <ele>192.6</ele>
      </trkpt>
      <trkpt lat="50.61988" lon="5.43156">
        <ele>193.2</ele>
      </trkpt>
      <trkpt lat="50.6203" lon="5.4318">
        <ele>192.5</ele>
      </trkpt>
      <trkpt lat="50.62061" lon="5.43207">
        <ele>192.2</ele>
      </trkpt>
      <trkpt lat="50.62064" lon="5.4321">
        <ele>192.3</ele>
      </trkpt>
      <trkpt lat="50.62146" lon="5.43301">
        <ele>194.4</ele>
      </trkpt>
      <trkpt lat="50.6215" lon="5.43306">
        <ele>194.4</ele>
      </trkpt>
      <trkpt lat="50.62156" lon="5.43323">
        <ele>193.6</ele>
      </trkpt>
      <trkpt lat="50.62181" lon="5.43389">
        <ele>192</ele>
      </trkpt>
      <trkpt lat="50.62193" lon="5.43423">
        <ele>190.9</ele>
      </trkpt>
      <trkpt lat="50.62199" lon="5.4344">
        <ele>191.2</ele>
      </trkpt>
      <trkpt lat="50.62209" lon="5.43466">
        <ele>191.5</ele>
      </trkpt>
      <trkpt lat="50.62211" lon="5.43472">
        <ele>191.6</ele>
      </trkpt>
      <trkpt lat="50.62208" lon="5.43476">
        <ele>191.3</ele>
      </trkpt>
      <trkpt lat="50.62205" lon="5.43487">
        <ele>190.5</ele>
      </trkpt>
      <trkpt lat="50.62204" lon="5.43493">
        <ele>190.1</ele>
      </trkpt>
      <trkpt lat="50.62205" lon="5.43498">
        <ele>189.9</ele>
      </trkpt>
      <trkpt lat="50.62211" lon="5.4351">
        <ele>190</ele>
      </trkpt>
      <trkpt lat="50.62214" lon="5.43513">
        <ele>190.1</ele>
      </trkpt>
      <trkpt lat="50.62219" lon="5.43514">
        <ele>190.3</ele>
      </trkpt>
      <trkpt lat="50.62223" lon="5.43513">
        <ele>190.5</ele>
      </trkpt>
      <trkpt lat="50.62227" lon="5.4351">
        <ele>190.7</ele>
      </trkpt>
      <trkpt lat="50.62237" lon="5.43539">
        <ele>190.3</ele>
      </trkpt>
      <trkpt lat="50.6225" lon="5.4357">
        <ele>189</ele>
      </trkpt>
      <trkpt lat="50.6226" lon="5.43594">
        <ele>188.2</ele>
      </trkpt>
      <trkpt lat="50.62272" lon="5.43624">
        <ele>186.9</ele>
      </trkpt>
      <trkpt lat="50.62329" lon="5.43781">
        <ele>182.8</ele>
      </trkpt>
      <trkpt lat="50.62371" lon="5.4398">
        <ele>186.1</ele>
      </trkpt>
      <trkpt lat="50.62372" lon="5.43982">
        <ele>186.1</ele>
      </trkpt>
      <trkpt lat="50.62369" lon="5.44004">
        <ele>186.3</ele>
      </trkpt>
      <trkpt lat="50.62368" lon="5.44012">
        <ele>186.2</ele>
      </trkpt>
      <trkpt lat="50.62334" lon="5.44074">
        <ele>186</ele>
      </trkpt>
      <trkpt lat="50.62311" lon="5.44117">
        <ele>186.4</ele>
      </trkpt>
      <trkpt lat="50.62305" lon="5.44139">
        <ele>187</ele>
      </trkpt>
      <trkpt lat="50.62303" lon="5.44149">
        <ele>186.9</ele>
      </trkpt>
      <trkpt lat="50.62306" lon="5.4419">
        <ele>187</ele>
      </trkpt>
      <trkpt lat="50.62307" lon="5.44204">
        <ele>187.4</ele>
      </trkpt>
      <trkpt lat="50.62324" lon="5.44275">
        <ele>189.2</ele>
      </trkpt>
      <trkpt lat="50.62335" lon="5.44334">
        <ele>189.1</ele>
      </trkpt>
      <trkpt lat="50.62347" lon="5.44415">
        <ele>190.4</ele>
      </trkpt>
      <trkpt lat="50.62349" lon="5.44438">
        <ele>190.6</ele>
      </trkpt>
      <trkpt lat="50.62349" lon="5.4445">
        <ele>190.8</ele>
      </trkpt>
      <trkpt lat="50.62353" lon="5.44523">
        <ele>191.7</ele>
      </trkpt>
      <trkpt lat="50.62351" lon="5.44607">
        <ele>192.4</ele>
      </trkpt>
      <trkpt lat="50.62341" lon="5.4469">
        <ele>192</ele>
      </trkpt>
      <trkpt lat="50.62334" lon="5.44762">
        <ele>191</ele>
        <extensions>
          <visugpx:TrkExtension xmlns:visugpx="https://www.visugpx.com/editgpx/">
            <visugpx:node>1</visugpx:node>
            </visugpx:TrkExtension>
        </extensions>
      </trkpt>
    </trkseg>
  </trk>
</gpx>